<?xml version="1.0" encoding="UTF-8"?>
<gpx xmlns="http://www.topografix.com/GPX/1/1" version="1.1" creator="Nokia Sports Tracker" xmlns:xsi="http://www.w3.org/2001/XMLSchema-instance" xsi:schemaLocation="http://www.topografix.com/GPX/1/1 http://www.topografix.com/GPX/1/1/gpx.xsd">
<metadata>
<name>30.07.2010 17:28</name>
<desc>Motor on Neue Route</desc>
<author><name>Alexander</name></author>
<time>2010-07-30T17:28:59.98</time>
</metadata>
<trk>
<name>30.07.2010 17:28</name>
<trkseg>
<trkpt lat="49.575215" lon="8.661598">
<ele>129.5</ele>
<speed>0.3</speed>
<course>54.4</course>
<desc>Speed 0.3 km/h Distance 0.00 km</desc>
<time>2010-07-30T17:29:11.57</time>
<name>1</name>
</trkpt>
<trkpt lat="49.575623" lon="8.662477">
<ele>159.0</ele>
<speed>0.3</speed>
<course>175.6</course>
<desc>Speed 0.3 km/h Distance 0.08 km</desc>
<time>2010-07-30T17:29:17.98</time>
<name>2</name>
</trkpt>
<trkpt lat="49.575613" lon="8.662478">
<ele>158.0</ele>
<speed>0.3</speed>
<course>180.0</course>
<desc>Speed 0.3 km/h Distance 0.08 km</desc>
<time>2010-07-30T17:29:19.91</time>
<name>3</name>
</trkpt>
<trkpt lat="49.575605" lon="8.662478">
<ele>156.5</ele>
<speed>0.3</speed>
<course>192.6</course>
<desc>Speed 0.3 km/h Distance 0.08 km</desc>
<time>2010-07-30T17:29:21.91</time>
<name>4</name>
</trkpt>
<trkpt lat="49.575600" lon="8.662477">
<ele>156.0</ele>
<speed>0.4</speed>
<course>270.0</course>
<desc>Speed 0.4 km/h Distance 0.08 km</desc>
<time>2010-07-30T17:29:23.91</time>
<name>5</name>
</trkpt>
<trkpt lat="49.575600" lon="8.662475">
<ele>156.0</ele>
<speed>0.4</speed>
<course>270.0</course>
<desc>Speed 0.4 km/h Distance 0.08 km</desc>
<time>2010-07-30T17:29:25.91</time>
<name>6</name>
</trkpt>
<trkpt lat="49.575600" lon="8.662473">
<ele>156.5</ele>
<speed>0.1</speed>
<course>306.1</course>
<desc>Speed 0.1 km/h Distance 0.08 km</desc>
<time>2010-07-30T17:29:27.91</time>
<name>7</name>
</trkpt>
<trkpt lat="49.575602" lon="8.662470">
<ele>156.5</ele>
<speed>0.4</speed>
<course>217.2</course>
<desc>Speed 0.4 km/h Distance 0.08 km</desc>
<time>2010-07-30T17:29:29.91</time>
<name>8</name>
</trkpt>
<trkpt lat="49.575600" lon="8.662468">
<ele>156.5</ele>
<speed>0.5</speed>
<course>217.2</course>
<desc>Speed 0.5 km/h Distance 0.08 km</desc>
<time>2010-07-30T17:29:31.91</time>
<name>9</name>
</trkpt>
<trkpt lat="49.575600" lon="8.662468">
<ele>156.0</ele>
<speed>0.1</speed>
<course>167.4</course>
<desc>Speed 0.1 km/h Distance 0.08 km</desc>
<time>2010-07-30T17:29:33.90</time>
<name>10</name>
</trkpt>
<trkpt lat="49.575598" lon="8.662468">
<ele>156.0</ele>
<speed>0.2</speed>
<course>167.4</course>
<desc>Speed 0.2 km/h Distance 0.08 km</desc>
<time>2010-07-30T17:29:35.90</time>
<name>11</name>
</trkpt>
<trkpt lat="49.575598" lon="8.662468">
<ele>156.0</ele>
<speed>0.2</speed>
<course>167.4</course>
<desc>Speed 0.2 km/h Distance 0.08 km</desc>
<time>2010-07-30T17:29:37.89</time>
<name>12</name>
</trkpt>
<trkpt lat="49.575598" lon="8.662468">
<ele>156.0</ele>
<speed>0.1</speed>
<course>167.4</course>
<desc>Speed 0.1 km/h Distance 0.08 km</desc>
<time>2010-07-30T17:29:39.89</time>
<name>13</name>
</trkpt>
<trkpt lat="49.575598" lon="8.662468">
<ele>156.0</ele>
<speed>0.3</speed>
<course>167.4</course>
<desc>Speed 0.3 km/h Distance 0.08 km</desc>
<time>2010-07-30T17:29:41.89</time>
<name>14</name>
</trkpt>
<trkpt lat="49.575598" lon="8.662468">
<ele>156.0</ele>
<speed>0.1</speed>
<course>167.4</course>
<desc>Speed 0.1 km/h Distance 0.08 km</desc>
<time>2010-07-30T17:29:43.88</time>
<name>15</name>
</trkpt>
<trkpt lat="49.575598" lon="8.662468">
<ele>156.0</ele>
<speed>0.5</speed>
<course>167.4</course>
<desc>Speed 0.5 km/h Distance 0.08 km</desc>
<time>2010-07-30T17:29:45.88</time>
<name>16</name>
</trkpt>
<trkpt lat="49.575598" lon="8.662468">
<ele>156.0</ele>
<speed>0.3</speed>
<course>167.4</course>
<desc>Speed 0.3 km/h Distance 0.08 km</desc>
<time>2010-07-30T17:29:47.87</time>
<name>17</name>
</trkpt>
<trkpt lat="49.575598" lon="8.662468">
<ele>156.0</ele>
<speed>0.4</speed>
<course>12.6</course>
<desc>Speed 0.4 km/h Distance 0.08 km</desc>
<time>2010-07-30T17:29:49.88</time>
<name>18</name>
</trkpt>
<trkpt lat="49.575600" lon="8.662468">
<ele>156.0</ele>
<speed>0.2</speed>
<course>270.0</course>
<desc>Speed 0.2 km/h Distance 0.08 km</desc>
<time>2010-07-30T17:29:51.88</time>
<name>19</name>
</trkpt>
<trkpt lat="49.575600" lon="8.662467">
<ele>156.0</ele>
<speed>0.3</speed>
<course>270.0</course>
<desc>Speed 0.3 km/h Distance 0.08 km</desc>
<time>2010-07-30T17:29:53.88</time>
<name>20</name>
</trkpt>
<trkpt lat="49.575600" lon="8.662467">
<ele>156.0</ele>
<speed>0.5</speed>
<course>322.8</course>
<desc>Speed 0.5 km/h Distance 0.08 km</desc>
<time>2010-07-30T17:29:55.88</time>
<name>21</name>
</trkpt>
<trkpt lat="49.575602" lon="8.662465">
<ele>156.0</ele>
<speed>0.4</speed>
<course>322.8</course>
<desc>Speed 0.4 km/h Distance 0.08 km</desc>
<time>2010-07-30T17:29:57.87</time>
<name>22</name>
</trkpt>
<trkpt lat="49.575602" lon="8.662465">
<ele>156.5</ele>
<speed>0.1</speed>
<course>322.8</course>
<desc>Speed 0.1 km/h Distance 0.08 km</desc>
<time>2010-07-30T17:29:58.97</time>
<name>23</name>
</trkpt>
<trkpt lat="49.575603" lon="8.662463">
<ele>156.5</ele>
<speed>0.0</speed>
<course>322.8</course>
<desc>Speed 0.0 km/h Distance 0.08 km</desc>
<time>2010-07-30T17:30:00.88</time>
<name>24</name>
</trkpt>
<trkpt lat="49.575603" lon="8.662463">
<ele>156.5</ele>
<speed>0.4</speed>
<course>322.8</course>
<desc>Speed 0.4 km/h Distance 0.08 km</desc>
<time>2010-07-30T17:30:01.88</time>
<name>25</name>
</trkpt>
<trkpt lat="49.575603" lon="8.662463">
<ele>156.5</ele>
<speed>0.1</speed>
<course>322.8</course>
<desc>Speed 0.1 km/h Distance 0.08 km</desc>
<time>2010-07-30T17:30:02.89</time>
<name>26</name>
</trkpt>
<trkpt lat="49.575603" lon="8.662463">
<ele>156.5</ele>
<speed>0.1</speed>
<course>322.8</course>
<desc>Speed 0.1 km/h Distance 0.08 km</desc>
<time>2010-07-30T17:30:03.88</time>
<name>27</name>
</trkpt>
<trkpt lat="49.575603" lon="8.662463">
<ele>156.0</ele>
<speed>0.3</speed>
<course>270.0</course>
<desc>Speed 0.3 km/h Distance 0.08 km</desc>
<time>2010-07-30T17:30:04.88</time>
<name>28</name>
</trkpt>
<trkpt lat="49.575603" lon="8.662462">
<ele>156.0</ele>
<speed>0.1</speed>
<course>270.0</course>
<desc>Speed 0.1 km/h Distance 0.08 km</desc>
<time>2010-07-30T17:30:05.88</time>
<name>29</name>
</trkpt>
<trkpt lat="49.575603" lon="8.662462">
<ele>156.5</ele>
<speed>0.2</speed>
<course>352.6</course>
<desc>Speed 0.2 km/h Distance 0.08 km</desc>
<time>2010-07-30T17:30:06.88</time>
<name>30</name>
</trkpt>
<trkpt lat="49.575610" lon="8.662460">
<ele>157.0</ele>
<speed>0.7</speed>
<course>333.6</course>
<desc>Speed 0.7 km/h Distance 0.08 km</desc>
<time>2010-07-30T17:30:07.88</time>
<name>31</name>
</trkpt>
<trkpt lat="49.575617" lon="8.662455">
<ele>157.5</ele>
<speed>0.5</speed>
<course>270.0</course>
<desc>Speed 0.5 km/h Distance 0.08 km</desc>
<time>2010-07-30T17:30:08.88</time>
<name>32</name>
</trkpt>
<trkpt lat="49.575617" lon="8.662453">
<ele>157.5</ele>
<speed>0.4</speed>
<course>322.8</course>
<desc>Speed 0.4 km/h Distance 0.08 km</desc>
<time>2010-07-30T17:30:09.88</time>
<name>33</name>
</trkpt>
<trkpt lat="49.575618" lon="8.662452">
<ele>157.5</ele>
<speed>0.3</speed>
<course>347.4</course>
<desc>Speed 0.3 km/h Distance 0.08 km</desc>
<time>2010-07-30T17:30:10.87</time>
<name>34</name>
</trkpt>
<trkpt lat="49.575620" lon="8.662450">
<ele>158.0</ele>
<speed>0.3</speed>
<course>12.6</course>
<desc>Speed 0.3 km/h Distance 0.08 km</desc>
<time>2010-07-30T17:30:11.87</time>
<name>35</name>
</trkpt>
<trkpt lat="49.575622" lon="8.662450">
<ele>158.0</ele>
<speed>0.2</speed>
<course>330.8</course>
<desc>Speed 0.2 km/h Distance 0.08 km</desc>
<time>2010-07-30T17:30:12.87</time>
<name>36</name>
</trkpt>
<trkpt lat="49.575623" lon="8.662448">
<ele>158.0</ele>
<speed>0.4</speed>
<course>330.8</course>
<desc>Speed 0.4 km/h Distance 0.08 km</desc>
<time>2010-07-30T17:30:13.87</time>
<name>37</name>
</trkpt>
<trkpt lat="49.575623" lon="8.662448">
<ele>158.0</ele>
<speed>0.1</speed>
<course>347.4</course>
<desc>Speed 0.1 km/h Distance 0.08 km</desc>
<time>2010-07-30T17:30:14.87</time>
<name>38</name>
</trkpt>
<trkpt lat="49.575625" lon="8.662447">
<ele>158.5</ele>
<speed>0.4</speed>
<course>12.6</course>
<desc>Speed 0.4 km/h Distance 0.09 km</desc>
<time>2010-07-30T17:30:15.87</time>
<name>39</name>
</trkpt>
<trkpt lat="49.575627" lon="8.662447">
<ele>158.5</ele>
<speed>0.2</speed>
<course>12.6</course>
<desc>Speed 0.2 km/h Distance 0.09 km</desc>
<time>2010-07-30T17:30:17.87</time>
<name>40</name>
</trkpt>
<trkpt lat="49.575627" lon="8.662447">
<ele>158.5</ele>
<speed>0.5</speed>
<course>0.0</course>
<desc>Speed 0.5 km/h Distance 0.09 km</desc>
<time>2010-07-30T17:30:18.87</time>
<name>41</name>
</trkpt>
<trkpt lat="49.575628" lon="8.662447">
<ele>159.0</ele>
<speed>0.3</speed>
<course>0.0</course>
<desc>Speed 0.3 km/h Distance 0.09 km</desc>
<time>2010-07-30T17:30:19.87</time>
<name>42</name>
</trkpt>
<trkpt lat="49.575628" lon="8.662447">
<ele>159.0</ele>
<speed>0.4</speed>
<course>12.6</course>
<desc>Speed 0.4 km/h Distance 0.09 km</desc>
<time>2010-07-30T17:30:20.87</time>
<name>43</name>
</trkpt>
<trkpt lat="49.575630" lon="8.662447">
<ele>159.0</ele>
<speed>0.4</speed>
<course>322.8</course>
<desc>Speed 0.4 km/h Distance 0.09 km</desc>
<time>2010-07-30T17:30:21.87</time>
<name>44</name>
</trkpt>
<trkpt lat="49.575632" lon="8.662445">
<ele>159.5</ele>
<speed>0.2</speed>
<course>352.6</course>
<desc>Speed 0.2 km/h Distance 0.09 km</desc>
<time>2010-07-30T17:30:22.86</time>
<name>45</name>
</trkpt>
<trkpt lat="49.575638" lon="8.662443">
<ele>160.5</ele>
<speed>0.8</speed>
<course>12.6</course>
<desc>Speed 0.8 km/h Distance 0.09 km</desc>
<time>2010-07-30T17:30:23.86</time>
<name>46</name>
</trkpt>
<trkpt lat="49.575640" lon="8.662443">
<ele>161.0</ele>
<speed>0.5</speed>
<course>12.6</course>
<desc>Speed 0.5 km/h Distance 0.09 km</desc>
<time>2010-07-30T17:30:24.87</time>
<name>47</name>
</trkpt>
<trkpt lat="49.575643" lon="8.662443">
<ele>161.5</ele>
<speed>0.4</speed>
<course>12.6</course>
<desc>Speed 0.4 km/h Distance 0.09 km</desc>
<time>2010-07-30T17:30:25.87</time>
<name>48</name>
</trkpt>
<trkpt lat="49.575643" lon="8.662443">
<ele>161.5</ele>
<speed>0.4</speed>
<course>322.8</course>
<desc>Speed 0.4 km/h Distance 0.09 km</desc>
<time>2010-07-30T17:30:26.86</time>
<name>49</name>
</trkpt>
<trkpt lat="49.575645" lon="8.662442">
<ele>162.0</ele>
<speed>0.6</speed>
<course>12.6</course>
<desc>Speed 0.6 km/h Distance 0.09 km</desc>
<time>2010-07-30T17:30:27.86</time>
<name>50</name>
</trkpt>
<trkpt lat="49.575647" lon="8.662442">
<ele>162.0</ele>
<speed>0.3</speed>
<course>12.6</course>
<desc>Speed 0.3 km/h Distance 0.09 km</desc>
<time>2010-07-30T17:30:28.85</time>
<name>51</name>
</trkpt>
<trkpt lat="49.575648" lon="8.662442">
<ele>162.5</ele>
<speed>0.4</speed>
<course>347.4</course>
<desc>Speed 0.4 km/h Distance 0.09 km</desc>
<time>2010-07-30T17:30:29.85</time>
<name>52</name>
</trkpt>
<trkpt lat="49.575650" lon="8.662440">
<ele>162.5</ele>
<speed>0.5</speed>
<course>341.2</course>
<desc>Speed 0.5 km/h Distance 0.09 km</desc>
<time>2010-07-30T17:30:30.86</time>
<name>53</name>
</trkpt>
<trkpt lat="49.575653" lon="8.662438">
<ele>163.0</ele>
<speed>0.4</speed>
<course>337.0</course>
<desc>Speed 0.4 km/h Distance 0.09 km</desc>
<time>2010-07-30T17:30:31.86</time>
<name>54</name>
</trkpt>
<trkpt lat="49.575657" lon="8.662437">
<ele>163.0</ele>
<speed>0.1</speed>
<course>270.0</course>
<desc>Speed 0.1 km/h Distance 0.09 km</desc>
<time>2010-07-30T17:30:32.86</time>
<name>55</name>
</trkpt>
<trkpt lat="49.575657" lon="8.662435">
<ele>163.0</ele>
<speed>0.2</speed>
<course>270.0</course>
<desc>Speed 0.2 km/h Distance 0.09 km</desc>
<time>2010-07-30T17:30:33.86</time>
<name>56</name>
</trkpt>
<trkpt lat="49.575657" lon="8.662435">
<ele>163.0</ele>
<speed>0.0</speed>
<course>270.0</course>
<desc>Speed 0.0 km/h Distance 0.09 km</desc>
<time>2010-07-30T17:30:34.86</time>
<name>57</name>
</trkpt>
<trkpt lat="49.575657" lon="8.662435">
<ele>163.0</ele>
<speed>0.6</speed>
<course>297.4</course>
<desc>Speed 0.6 km/h Distance 0.09 km</desc>
<time>2010-07-30T17:30:35.86</time>
<name>58</name>
</trkpt>
<trkpt lat="49.575658" lon="8.662430">
<ele>163.0</ele>
<speed>0.3</speed>
<course>270.0</course>
<desc>Speed 0.3 km/h Distance 0.09 km</desc>
<time>2010-07-30T17:30:37.86</time>
<name>59</name>
</trkpt>
<trkpt lat="49.575658" lon="8.662428">
<ele>163.0</ele>
<speed>0.4</speed>
<course>12.6</course>
<desc>Speed 0.4 km/h Distance 0.09 km</desc>
<time>2010-07-30T17:30:38.86</time>
<name>60</name>
</trkpt>
<trkpt lat="49.575660" lon="8.662428">
<ele>163.0</ele>
<speed>0.1</speed>
<course>322.8</course>
<desc>Speed 0.1 km/h Distance 0.09 km</desc>
<time>2010-07-30T17:30:39.85</time>
<name>61</name>
</trkpt>
<trkpt lat="49.575662" lon="8.662427">
<ele>163.0</ele>
<speed>0.1</speed>
<course>322.8</course>
<desc>Speed 0.1 km/h Distance 0.09 km</desc>
<time>2010-07-30T17:30:40.86</time>
<name>62</name>
</trkpt>
<trkpt lat="49.575662" lon="8.662427">
<ele>163.0</ele>
<speed>0.4</speed>
<course>270.0</course>
<desc>Speed 0.4 km/h Distance 0.09 km</desc>
<time>2010-07-30T17:30:41.86</time>
<name>63</name>
</trkpt>
<trkpt lat="49.575662" lon="8.662425">
<ele>163.0</ele>
<speed>0.5</speed>
<course>12.6</course>
<desc>Speed 0.5 km/h Distance 0.09 km</desc>
<time>2010-07-30T17:30:42.86</time>
<name>64</name>
</trkpt>
<trkpt lat="49.575663" lon="8.662425">
<ele>163.0</ele>
<speed>0.1</speed>
<course>270.0</course>
<desc>Speed 0.1 km/h Distance 0.09 km</desc>
<time>2010-07-30T17:30:43.85</time>
<name>65</name>
</trkpt>
<trkpt lat="49.575663" lon="8.662423">
<ele>163.0</ele>
<speed>0.5</speed>
<course>270.0</course>
<desc>Speed 0.5 km/h Distance 0.09 km</desc>
<time>2010-07-30T17:30:44.85</time>
<name>66</name>
</trkpt>
<trkpt lat="49.575663" lon="8.662423">
<ele>163.0</ele>
<speed>0.1</speed>
<course>322.8</course>
<desc>Speed 0.1 km/h Distance 0.09 km</desc>
<time>2010-07-30T17:30:45.85</time>
<name>67</name>
</trkpt>
<trkpt lat="49.575665" lon="8.662422">
<ele>163.0</ele>
<speed>0.1</speed>
<course>270.0</course>
<desc>Speed 0.1 km/h Distance 0.09 km</desc>
<time>2010-07-30T17:30:46.85</time>
<name>68</name>
</trkpt>
<trkpt lat="49.575665" lon="8.662420">
<ele>163.0</ele>
<speed>0.4</speed>
<course>330.8</course>
<desc>Speed 0.4 km/h Distance 0.09 km</desc>
<time>2010-07-30T17:30:47.85</time>
<name>69</name>
</trkpt>
<trkpt lat="49.575667" lon="8.662418">
<ele>163.0</ele>
<speed>0.5</speed>
<course>347.4</course>
<desc>Speed 0.5 km/h Distance 0.09 km</desc>
<time>2010-07-30T17:30:48.85</time>
<name>70</name>
</trkpt>
<trkpt lat="49.575668" lon="8.662417">
<ele>163.0</ele>
<speed>0.3</speed>
<course>347.4</course>
<desc>Speed 0.3 km/h Distance 0.09 km</desc>
<time>2010-07-30T17:30:49.85</time>
<name>71</name>
</trkpt>
<trkpt lat="49.575668" lon="8.662417">
<ele>163.0</ele>
<speed>0.4</speed>
<course>347.4</course>
<desc>Speed 0.4 km/h Distance 0.09 km</desc>
<time>2010-07-30T17:30:50.85</time>
<name>72</name>
</trkpt>
<trkpt lat="49.575668" lon="8.662417">
<ele>163.0</ele>
<speed>0.2</speed>
<course>100.9</course>
<desc>Speed 0.2 km/h Distance 0.09 km</desc>
<time>2010-07-30T17:30:51.85</time>
<name>73</name>
</trkpt>
<trkpt lat="49.575667" lon="8.662430">
<ele>164.5</ele>
<speed>4.5</speed>
<course>326.3</course>
<desc>Speed 4.5 km/h Distance 0.09 km</desc>
<time>2010-07-30T17:30:52.85</time>
<name>74</name>
</trkpt>
<trkpt lat="49.575670" lon="8.662427">
<ele>164.5</ele>
<speed>0.3</speed>
<course>8.1</course>
<desc>Speed 0.3 km/h Distance 0.09 km</desc>
<time>2010-07-30T17:30:53.85</time>
<name>75</name>
</trkpt>
<trkpt lat="49.575675" lon="8.662428">
<ele>165.5</ele>
<speed>0.9</speed>
<course>336.2</course>
<desc>Speed 0.9 km/h Distance 0.09 km</desc>
<time>2010-07-30T17:30:54.84</time>
<name>76</name>
</trkpt>
<trkpt lat="49.575680" lon="8.662425">
<ele>166.0</ele>
<speed>0.6</speed>
<course>338.5</course>
<desc>Speed 0.6 km/h Distance 0.09 km</desc>
<time>2010-07-30T17:30:55.84</time>
<name>77</name>
</trkpt>
<trkpt lat="49.575688" lon="8.662420">
<ele>166.5</ele>
<speed>0.7</speed>
<course>347.4</course>
<desc>Speed 0.7 km/h Distance 0.09 km</desc>
<time>2010-07-30T17:30:57.84</time>
<name>78</name>
</trkpt>
<trkpt lat="49.575693" lon="8.662418">
<ele>167.0</ele>
<speed>0.0</speed>
<course>12.6</course>
<desc>Speed 0.0 km/h Distance 0.10 km</desc>
<time>2010-07-30T17:30:58.85</time>
<name>79</name>
</trkpt>
<trkpt lat="49.575695" lon="8.662418">
<ele>167.0</ele>
<speed>0.2</speed>
<course>322.8</course>
<desc>Speed 0.2 km/h Distance 0.10 km</desc>
<time>2010-07-30T17:30:59.85</time>
<name>80</name>
</trkpt>
<trkpt lat="49.575697" lon="8.662417">
<ele>167.0</ele>
<speed>0.3</speed>
<course>0.0</course>
<desc>Speed 0.3 km/h Distance 0.10 km</desc>
<time>2010-07-30T17:31:00.84</time>
<name>81</name>
</trkpt>
<trkpt lat="49.575698" lon="8.662417">
<ele>167.0</ele>
<speed>0.2</speed>
<course>270.0</course>
<desc>Speed 0.2 km/h Distance 0.10 km</desc>
<time>2010-07-30T17:31:01.84</time>
<name>82</name>
</trkpt>
<trkpt lat="49.575698" lon="8.662415">
<ele>167.0</ele>
<speed>0.1</speed>
<course>270.0</course>
<desc>Speed 0.1 km/h Distance 0.10 km</desc>
<time>2010-07-30T17:31:02.84</time>
<name>83</name>
</trkpt>
<trkpt lat="49.575698" lon="8.662415">
<ele>167.0</ele>
<speed>0.3</speed>
<course>12.6</course>
<desc>Speed 0.3 km/h Distance 0.10 km</desc>
<time>2010-07-30T17:31:03.84</time>
<name>84</name>
</trkpt>
<trkpt lat="49.575700" lon="8.662415">
<ele>167.0</ele>
<speed>0.1</speed>
<course>270.0</course>
<desc>Speed 0.1 km/h Distance 0.10 km</desc>
<time>2010-07-30T17:31:04.84</time>
<name>85</name>
</trkpt>
<trkpt lat="49.575700" lon="8.662413">
<ele>167.0</ele>
<speed>0.5</speed>
<course>12.6</course>
<desc>Speed 0.5 km/h Distance 0.10 km</desc>
<time>2010-07-30T17:31:05.84</time>
<name>86</name>
</trkpt>
<trkpt lat="49.575702" lon="8.662413">
<ele>167.0</ele>
<speed>0.3</speed>
<course>12.6</course>
<desc>Speed 0.3 km/h Distance 0.10 km</desc>
<time>2010-07-30T17:31:06.84</time>
<name>87</name>
</trkpt>
<trkpt lat="49.575702" lon="8.662412">
<ele>167.0</ele>
<speed>0.6</speed>
<course>12.6</course>
<desc>Speed 0.6 km/h Distance 0.10 km</desc>
<time>2010-07-30T17:31:07.84</time>
<name>88</name>
</trkpt>
<trkpt lat="49.575702" lon="8.662412">
<ele>167.0</ele>
<speed>0.4</speed>
<course>12.6</course>
<desc>Speed 0.4 km/h Distance 0.10 km</desc>
<time>2010-07-30T17:31:08.84</time>
<name>89</name>
</trkpt>
<trkpt lat="49.575703" lon="8.662412">
<ele>167.0</ele>
<speed>0.4</speed>
<course>12.6</course>
<desc>Speed 0.4 km/h Distance 0.10 km</desc>
<time>2010-07-30T17:31:09.84</time>
<name>90</name>
</trkpt>
<trkpt lat="49.575703" lon="8.662412">
<ele>167.5</ele>
<speed>0.3</speed>
<course>12.6</course>
<desc>Speed 0.3 km/h Distance 0.10 km</desc>
<time>2010-07-30T17:31:10.83</time>
<name>91</name>
</trkpt>
<trkpt lat="49.575703" lon="8.662412">
<ele>167.0</ele>
<speed>0.0</speed>
<course>12.6</course>
<desc>Speed 0.0 km/h Distance 0.10 km</desc>
<time>2010-07-30T17:31:11.84</time>
<name>92</name>
</trkpt>
<trkpt lat="49.575703" lon="8.662412">
<ele>167.0</ele>
<speed>0.2</speed>
<course>322.8</course>
<desc>Speed 0.2 km/h Distance 0.10 km</desc>
<time>2010-07-30T17:31:12.83</time>
<name>93</name>
</trkpt>
<trkpt lat="49.575705" lon="8.662410">
<ele>167.0</ele>
<speed>0.1</speed>
<course>322.8</course>
<desc>Speed 0.1 km/h Distance 0.10 km</desc>
<time>2010-07-30T17:31:13.84</time>
<name>94</name>
</trkpt>
<trkpt lat="49.575705" lon="8.662410">
<ele>167.0</ele>
<speed>0.1</speed>
<course>322.8</course>
<desc>Speed 0.1 km/h Distance 0.10 km</desc>
<time>2010-07-30T17:31:14.83</time>
<name>95</name>
</trkpt>
<trkpt lat="49.575705" lon="8.662410">
<ele>167.0</ele>
<speed>0.2</speed>
<course>322.8</course>
<desc>Speed 0.2 km/h Distance 0.10 km</desc>
<time>2010-07-30T17:31:15.83</time>
<name>96</name>
</trkpt>
<trkpt lat="49.575705" lon="8.662410">
<ele>167.0</ele>
<speed>0.1</speed>
<course>322.8</course>
<desc>Speed 0.1 km/h Distance 0.10 km</desc>
<time>2010-07-30T17:31:17.83</time>
<name>97</name>
</trkpt>
<trkpt lat="49.575705" lon="8.662410">
<ele>167.0</ele>
<speed>0.1</speed>
<course>322.8</course>
<desc>Speed 0.1 km/h Distance 0.10 km</desc>
<time>2010-07-30T17:31:18.83</time>
<name>98</name>
</trkpt>
<trkpt lat="49.575705" lon="8.662410">
<ele>167.0</ele>
<speed>0.1</speed>
<course>301.4</course>
<desc>Speed 0.1 km/h Distance 0.10 km</desc>
<time>2010-07-30T17:31:19.83</time>
<name>99</name>
</trkpt>
<trkpt lat="49.575708" lon="8.662402">
<ele>167.0</ele>
<speed>0.8</speed>
<course>301.4</course>
<desc>Speed 0.8 km/h Distance 0.10 km</desc>
<time>2010-07-30T17:31:20.82</time>
<name>100</name>
</trkpt>
<trkpt lat="49.575708" lon="8.662402">
<ele>166.5</ele>
<speed>0.3</speed>
<course>270.0</course>
<desc>Speed 0.3 km/h Distance 0.10 km</desc>
<time>2010-07-30T17:31:21.82</time>
<name>101</name>
</trkpt>
<trkpt lat="49.575708" lon="8.662400">
<ele>166.5</ele>
<speed>0.2</speed>
<course>270.0</course>
<desc>Speed 0.2 km/h Distance 0.10 km</desc>
<time>2010-07-30T17:31:22.82</time>
<name>102</name>
</trkpt>
<trkpt lat="49.575708" lon="8.662398">
<ele>166.5</ele>
<speed>0.4</speed>
<course>270.0</course>
<desc>Speed 0.4 km/h Distance 0.10 km</desc>
<time>2010-07-30T17:31:23.82</time>
<name>103</name>
</trkpt>
<trkpt lat="49.575708" lon="8.662395">
<ele>166.0</ele>
<speed>0.2</speed>
<course>270.0</course>
<desc>Speed 0.2 km/h Distance 0.10 km</desc>
<time>2010-07-30T17:31:24.83</time>
<name>104</name>
</trkpt>
<trkpt lat="49.575708" lon="8.662393">
<ele>166.0</ele>
<speed>0.3</speed>
<course>322.8</course>
<desc>Speed 0.3 km/h Distance 0.10 km</desc>
<time>2010-07-30T17:31:25.82</time>
<name>105</name>
</trkpt>
<trkpt lat="49.575710" lon="8.662392">
<ele>166.0</ele>
<speed>0.3</speed>
<course>217.2</course>
<desc>Speed 0.3 km/h Distance 0.10 km</desc>
<time>2010-07-30T17:31:26.83</time>
<name>106</name>
</trkpt>
<trkpt lat="49.575708" lon="8.662390">
<ele>165.5</ele>
<speed>0.6</speed>
<course>217.2</course>
<desc>Speed 0.6 km/h Distance 0.10 km</desc>
<time>2010-07-30T17:31:27.83</time>
<name>107</name>
</trkpt>
<trkpt lat="49.575708" lon="8.662390">
<ele>165.5</ele>
<speed>0.6</speed>
<course>12.6</course>
<desc>Speed 0.6 km/h Distance 0.10 km</desc>
<time>2010-07-30T17:31:28.82</time>
<name>108</name>
</trkpt>
<trkpt lat="49.575710" lon="8.662390">
<ele>165.5</ele>
<speed>0.4</speed>
<course>270.0</course>
<desc>Speed 0.4 km/h Distance 0.10 km</desc>
<time>2010-07-30T17:31:29.82</time>
<name>109</name>
</trkpt>
<trkpt lat="49.575710" lon="8.662388">
<ele>165.5</ele>
<speed>0.4</speed>
<course>270.0</course>
<desc>Speed 0.4 km/h Distance 0.10 km</desc>
<time>2010-07-30T17:31:30.82</time>
<name>110</name>
</trkpt>
<trkpt lat="49.575710" lon="8.662388">
<ele>165.5</ele>
<speed>0.2</speed>
<course>270.0</course>
<desc>Speed 0.2 km/h Distance 0.10 km</desc>
<time>2010-07-30T17:31:31.82</time>
<name>111</name>
</trkpt>
<trkpt lat="49.575710" lon="8.662388">
<ele>165.5</ele>
<speed>0.2</speed>
<course>270.0</course>
<desc>Speed 0.2 km/h Distance 0.10 km</desc>
<time>2010-07-30T17:31:32.82</time>
<name>112</name>
</trkpt>
<trkpt lat="49.575710" lon="8.662388">
<ele>165.5</ele>
<speed>0.5</speed>
<course>270.0</course>
<desc>Speed 0.5 km/h Distance 0.10 km</desc>
<time>2010-07-30T17:31:33.84</time>
<name>113</name>
</trkpt>
<trkpt lat="49.575710" lon="8.662387">
<ele>165.5</ele>
<speed>0.7</speed>
<course>270.0</course>
<desc>Speed 0.7 km/h Distance 0.10 km</desc>
<time>2010-07-30T17:31:34.82</time>
<name>114</name>
</trkpt>
<trkpt lat="49.575710" lon="8.662387">
<ele>165.5</ele>
<speed>0.2</speed>
<course>279.7</course>
<desc>Speed 0.2 km/h Distance 0.10 km</desc>
<time>2010-07-30T17:31:35.82</time>
<name>115</name>
</trkpt>
<trkpt lat="49.575712" lon="8.662372">
<ele>165.0</ele>
<speed>2.3</speed>
<course>262.0</course>
<desc>Speed 2.3 km/h Distance 0.10 km</desc>
<time>2010-07-30T17:31:37.81</time>
<name>116</name>
</trkpt>
<trkpt lat="49.575703" lon="8.662280">
<ele>164.5</ele>
<speed>14.0</speed>
<course>254.1</course>
<desc>Speed 14.0 km/h Distance 0.11 km</desc>
<time>2010-07-30T17:31:39.81</time>
<name>117</name>
</trkpt>
<trkpt lat="49.575695" lon="8.662235">
<ele>164.5</ele>
<speed>12.1</speed>
<course>265.6</course>
<desc>Speed 12.1 km/h Distance 0.11 km</desc>
<time>2010-07-30T17:31:40.81</time>
<name>118</name>
</trkpt>
<trkpt lat="49.575693" lon="8.662202">
<ele>164.0</ele>
<speed>8.0</speed>
<course>240.8</course>
<desc>Speed 8.0 km/h Distance 0.11 km</desc>
<time>2010-07-30T17:31:41.81</time>
<name>119</name>
</trkpt>
<trkpt lat="49.575687" lon="8.662183">
<ele>164.0</ele>
<speed>5.6</speed>
<course>227.1</course>
<desc>Speed 5.6 km/h Distance 0.11 km</desc>
<time>2010-07-30T17:31:42.80</time>
<name>120</name>
</trkpt>
<trkpt lat="49.575682" lon="8.662175">
<ele>164.0</ele>
<speed>3.6</speed>
<course>347.4</course>
<desc>Speed 3.6 km/h Distance 0.12 km</desc>
<time>2010-07-30T17:31:43.81</time>
<name>121</name>
</trkpt>
<trkpt lat="49.575683" lon="8.662173">
<ele>164.0</ele>
<speed>0.1</speed>
<course>322.8</course>
<desc>Speed 0.1 km/h Distance 0.12 km</desc>
<time>2010-07-30T17:31:44.80</time>
<name>122</name>
</trkpt>
<trkpt lat="49.575685" lon="8.662172">
<ele>164.0</ele>
<speed>0.4</speed>
<course>322.8</course>
<desc>Speed 0.4 km/h Distance 0.12 km</desc>
<time>2010-07-30T17:31:45.80</time>
<name>123</name>
</trkpt>
<trkpt lat="49.575685" lon="8.662172">
<ele>164.0</ele>
<speed>0.2</speed>
<course>242.6</course>
<desc>Speed 0.2 km/h Distance 0.12 km</desc>
<time>2010-07-30T17:31:46.80</time>
<name>124</name>
</trkpt>
<trkpt lat="49.575683" lon="8.662167">
<ele>164.0</ele>
<speed>0.8</speed>
<course>12.6</course>
<desc>Speed 0.8 km/h Distance 0.12 km</desc>
<time>2010-07-30T17:31:47.80</time>
<name>125</name>
</trkpt>
<trkpt lat="49.575685" lon="8.662167">
<ele>163.5</ele>
<speed>0.8</speed>
<course>12.6</course>
<desc>Speed 0.8 km/h Distance 0.12 km</desc>
<time>2010-07-30T17:31:48.80</time>
<name>126</name>
</trkpt>
<trkpt lat="49.575685" lon="8.662167">
<ele>163.5</ele>
<speed>0.3</speed>
<course>224.5</course>
<desc>Speed 0.3 km/h Distance 0.12 km</desc>
<time>2010-07-30T17:31:49.80</time>
<name>127</name>
</trkpt>
<trkpt lat="49.575682" lon="8.662162">
<ele>163.5</ele>
<speed>1.7</speed>
<course>190.9</course>
<desc>Speed 1.7 km/h Distance 0.12 km</desc>
<time>2010-07-30T17:31:50.80</time>
<name>128</name>
</trkpt>
<trkpt lat="49.575620" lon="8.662143">
<ele>163.0</ele>
<speed>12.3</speed>
<course>155.6</course>
<desc>Speed 12.3 km/h Distance 0.12 km</desc>
<time>2010-07-30T17:31:52.81</time>
<name>129</name>
</trkpt>
<trkpt lat="49.575425" lon="8.662280">
<ele>163.0</ele>
<speed>30.8</speed>
<course>159.4</course>
<desc>Speed 30.8 km/h Distance 0.15 km</desc>
<time>2010-07-30T17:31:55.81</time>
<name>130</name>
</trkpt>
<trkpt lat="49.575342" lon="8.662328">
<ele>162.0</ele>
<speed>35.7</speed>
<course>159.1</course>
<desc>Speed 35.7 km/h Distance 0.16 km</desc>
<time>2010-07-30T17:31:56.81</time>
<name>131</name>
</trkpt>
<trkpt lat="49.575257" lon="8.662378">
<ele>162.0</ele>
<speed>36.5</speed>
<course>165.3</course>
<desc>Speed 36.5 km/h Distance 0.17 km</desc>
<time>2010-07-30T17:31:57.80</time>
<name>132</name>
</trkpt>
<trkpt lat="49.575153" lon="8.662420">
<ele>161.0</ele>
<speed>43.1</speed>
<course>168.9</course>
<desc>Speed 43.1 km/h Distance 0.18 km</desc>
<time>2010-07-30T17:31:58.80</time>
<name>133</name>
</trkpt>
<trkpt lat="49.575048" lon="8.662452">
<ele>161.0</ele>
<speed>42.7</speed>
<course>172.0</course>
<desc>Speed 42.7 km/h Distance 0.19 km</desc>
<time>2010-07-30T17:31:59.81</time>
<name>134</name>
</trkpt>
<trkpt lat="49.574818" lon="8.662502">
<ele>161.0</ele>
<speed>47.1</speed>
<course>170.7</course>
<desc>Speed 47.1 km/h Distance 0.22 km</desc>
<time>2010-07-30T17:32:01.80</time>
<name>135</name>
</trkpt>
<trkpt lat="49.574700" lon="8.662532">
<ele>161.0</ele>
<speed>48.7</speed>
<course>170.6</course>
<desc>Speed 48.7 km/h Distance 0.23 km</desc>
<time>2010-07-30T17:32:02.80</time>
<name>136</name>
</trkpt>
<trkpt lat="49.574570" lon="8.662565">
<ele>161.0</ele>
<speed>52.3</speed>
<course>169.8</course>
<desc>Speed 52.3 km/h Distance 0.25 km</desc>
<time>2010-07-30T17:32:03.80</time>
<name>137</name>
</trkpt>
<trkpt lat="49.574438" lon="8.662602">
<ele>161.0</ele>
<speed>53.9</speed>
<course>170.6</course>
<desc>Speed 53.9 km/h Distance 0.26 km</desc>
<time>2010-07-30T17:32:04.79</time>
<name>138</name>
</trkpt>
<trkpt lat="49.574302" lon="8.662637">
<ele>161.0</ele>
<speed>55.2</speed>
<course>171.0</course>
<desc>Speed 55.2 km/h Distance 0.28 km</desc>
<time>2010-07-30T17:32:05.79</time>
<name>139</name>
</trkpt>
<trkpt lat="49.574158" lon="8.662672">
<ele>160.5</ele>
<speed>57.9</speed>
<course>170.0</course>
<desc>Speed 57.9 km/h Distance 0.29 km</desc>
<time>2010-07-30T17:32:06.79</time>
<name>140</name>
</trkpt>
<trkpt lat="49.574012" lon="8.662712">
<ele>160.5</ele>
<speed>59.5</speed>
<course>170.7</course>
<desc>Speed 59.5 km/h Distance 0.31 km</desc>
<time>2010-07-30T17:32:07.79</time>
<name>141</name>
</trkpt>
<trkpt lat="49.573860" lon="8.662750">
<ele>160.5</ele>
<speed>61.0</speed>
<course>170.2</course>
<desc>Speed 61.0 km/h Distance 0.33 km</desc>
<time>2010-07-30T17:32:08.79</time>
<name>142</name>
</trkpt>
<trkpt lat="49.573710" lon="8.662790">
<ele>160.5</ele>
<speed>60.9</speed>
<course>170.7</course>
<desc>Speed 60.9 km/h Distance 0.34 km</desc>
<time>2010-07-30T17:32:09.79</time>
<name>143</name>
</trkpt>
<trkpt lat="49.573558" lon="8.662828">
<ele>160.5</ele>
<speed>62.2</speed>
<course>170.9</course>
<desc>Speed 62.2 km/h Distance 0.36 km</desc>
<time>2010-07-30T17:32:10.79</time>
<name>144</name>
</trkpt>
<trkpt lat="49.573403" lon="8.662867">
<ele>160.5</ele>
<speed>62.9</speed>
<course>170.4</course>
<desc>Speed 62.9 km/h Distance 0.38 km</desc>
<time>2010-07-30T17:32:11.79</time>
<name>145</name>
</trkpt>
<trkpt lat="49.573250" lon="8.662907">
<ele>160.5</ele>
<speed>62.4</speed>
<course>171.4</course>
<desc>Speed 62.4 km/h Distance 0.39 km</desc>
<time>2010-07-30T17:32:12.79</time>
<name>146</name>
</trkpt>
<trkpt lat="49.573100" lon="8.662942">
<ele>160.0</ele>
<speed>60.7</speed>
<course>171.9</course>
<desc>Speed 60.7 km/h Distance 0.41 km</desc>
<time>2010-07-30T17:32:13.79</time>
<name>147</name>
</trkpt>
<trkpt lat="49.572957" lon="8.662973">
<ele>160.0</ele>
<speed>57.1</speed>
<course>174.0</course>
<desc>Speed 57.1 km/h Distance 0.43 km</desc>
<time>2010-07-30T17:32:14.79</time>
<name>148</name>
</trkpt>
<trkpt lat="49.572823" lon="8.662995">
<ele>159.5</ele>
<speed>52.7</speed>
<course>177.0</course>
<desc>Speed 52.7 km/h Distance 0.44 km</desc>
<time>2010-07-30T17:32:15.79</time>
<name>149</name>
</trkpt>
<trkpt lat="49.572698" lon="8.663005">
<ele>159.0</ele>
<speed>48.6</speed>
<course>181.1</course>
<desc>Speed 48.6 km/h Distance 0.46 km</desc>
<time>2010-07-30T17:32:16.78</time>
<name>150</name>
</trkpt>
<trkpt lat="49.572585" lon="8.663002">
<ele>158.5</ele>
<speed>44.4</speed>
<course>194.9</course>
<desc>Speed 44.4 km/h Distance 0.47 km</desc>
<time>2010-07-30T17:32:17.79</time>
<name>151</name>
</trkpt>
<trkpt lat="49.572378" lon="8.662917">
<ele>158.5</ele>
<speed>23.0</speed>
<course>211.8</course>
<desc>Speed 23.0 km/h Distance 0.49 km</desc>
<time>2010-07-30T17:32:20.78</time>
<name>152</name>
</trkpt>
<trkpt lat="49.572342" lon="8.662882">
<ele>158.5</ele>
<speed>17.4</speed>
<course>211.0</course>
<desc>Speed 17.4 km/h Distance 0.50 km</desc>
<time>2010-07-30T17:32:21.78</time>
<name>153</name>
</trkpt>
<trkpt lat="49.572297" lon="8.662840">
<ele>159.0</ele>
<speed>4.8</speed>
<course>210.1</course>
<desc>Speed 4.8 km/h Distance 0.50 km</desc>
<time>2010-07-30T17:32:24.79</time>
<name>154</name>
</trkpt>
<trkpt lat="49.572282" lon="8.662827">
<ele>159.0</ele>
<speed>6.9</speed>
<course>207.0</course>
<desc>Speed 6.9 km/h Distance 0.51 km</desc>
<time>2010-07-30T17:32:25.78</time>
<name>155</name>
</trkpt>
<trkpt lat="49.572273" lon="8.662820">
<ele>159.0</ele>
<speed>4.6</speed>
<course>270.0</course>
<desc>Speed 4.6 km/h Distance 0.51 km</desc>
<time>2010-07-30T17:32:26.78</time>
<name>156</name>
</trkpt>
<trkpt lat="49.572273" lon="8.662818">
<ele>159.0</ele>
<speed>0.5</speed>
<course>12.6</course>
<desc>Speed 0.5 km/h Distance 0.51 km</desc>
<time>2010-07-30T17:32:27.78</time>
<name>157</name>
</trkpt>
<trkpt lat="49.572275" lon="8.662818">
<ele>159.0</ele>
<speed>0.0</speed>
<course>18.8</course>
<desc>Speed 0.0 km/h Distance 0.51 km</desc>
<time>2010-07-30T17:32:28.78</time>
<name>158</name>
</trkpt>
<trkpt lat="49.572282" lon="8.662822">
<ele>160.0</ele>
<speed>0.1</speed>
<course>322.8</course>
<desc>Speed 0.1 km/h Distance 0.51 km</desc>
<time>2010-07-30T17:32:29.78</time>
<name>159</name>
</trkpt>
<trkpt lat="49.572283" lon="8.662820">
<ele>160.5</ele>
<speed>1.1</speed>
<course>214.2</course>
<desc>Speed 1.1 km/h Distance 0.51 km</desc>
<time>2010-07-30T17:32:30.79</time>
<name>160</name>
</trkpt>
<trkpt lat="49.572182" lon="8.662713">
<ele>161.5</ele>
<speed>17.1</speed>
<course>219.5</course>
<desc>Speed 17.1 km/h Distance 0.52 km</desc>
<time>2010-07-30T17:32:33.78</time>
<name>161</name>
</trkpt>
<trkpt lat="49.572145" lon="8.662667">
<ele>161.5</ele>
<speed>18.7</speed>
<course>212.1</course>
<desc>Speed 18.7 km/h Distance 0.53 km</desc>
<time>2010-07-30T17:32:34.77</time>
<name>162</name>
</trkpt>
<trkpt lat="49.572097" lon="8.662620">
<ele>162.0</ele>
<speed>22.0</speed>
<course>178.8</course>
<desc>Speed 22.0 km/h Distance 0.53 km</desc>
<time>2010-07-30T17:32:35.77</time>
<name>163</name>
</trkpt>
<trkpt lat="49.572037" lon="8.662622">
<ele>162.5</ele>
<speed>24.1</speed>
<course>155.7</course>
<desc>Speed 24.1 km/h Distance 0.54 km</desc>
<time>2010-07-30T17:32:36.77</time>
<name>164</name>
</trkpt>
<trkpt lat="49.571982" lon="8.662660">
<ele>162.5</ele>
<speed>23.8</speed>
<course>152.7</course>
<desc>Speed 23.8 km/h Distance 0.55 km</desc>
<time>2010-07-30T17:32:37.77</time>
<name>165</name>
</trkpt>
<trkpt lat="49.571925" lon="8.662705">
<ele>162.0</ele>
<speed>25.0</speed>
<course>149.0</course>
<desc>Speed 25.0 km/h Distance 0.55 km</desc>
<time>2010-07-30T17:32:38.78</time>
<name>166</name>
</trkpt>
<trkpt lat="49.571858" lon="8.662767">
<ele>161.0</ele>
<speed>30.3</speed>
<course>145.2</course>
<desc>Speed 30.3 km/h Distance 0.56 km</desc>
<time>2010-07-30T17:32:39.77</time>
<name>167</name>
</trkpt>
<trkpt lat="49.571787" lon="8.662843">
<ele>160.5</ele>
<speed>34.8</speed>
<course>147.6</course>
<desc>Speed 34.8 km/h Distance 0.57 km</desc>
<time>2010-07-30T17:32:40.77</time>
<name>168</name>
</trkpt>
<trkpt lat="49.571708" lon="8.662920">
<ele>160.5</ele>
<speed>36.8</speed>
<course>149.6</course>
<desc>Speed 36.8 km/h Distance 0.58 km</desc>
<time>2010-07-30T17:32:41.77</time>
<name>169</name>
</trkpt>
<trkpt lat="49.571620" lon="8.663000">
<ele>160.5</ele>
<speed>40.4</speed>
<course>154.8</course>
<desc>Speed 40.4 km/h Distance 0.59 km</desc>
<time>2010-07-30T17:32:42.77</time>
<name>170</name>
</trkpt>
<trkpt lat="49.571523" lon="8.663070">
<ele>160.0</ele>
<speed>42.3</speed>
<course>156.3</course>
<desc>Speed 42.3 km/h Distance 0.61 km</desc>
<time>2010-07-30T17:32:43.77</time>
<name>171</name>
</trkpt>
<trkpt lat="49.571420" lon="8.663140">
<ele>160.0</ele>
<speed>45.1</speed>
<course>161.0</course>
<desc>Speed 45.1 km/h Distance 0.62 km</desc>
<time>2010-07-30T17:32:44.77</time>
<name>172</name>
</trkpt>
<trkpt lat="49.571317" lon="8.663195">
<ele>159.5</ele>
<speed>43.4</speed>
<course>164.1</course>
<desc>Speed 43.4 km/h Distance 0.63 km</desc>
<time>2010-07-30T17:32:45.77</time>
<name>173</name>
</trkpt>
<trkpt lat="49.571218" lon="8.663238">
<ele>159.0</ele>
<speed>40.9</speed>
<course>175.0</course>
<desc>Speed 40.9 km/h Distance 0.64 km</desc>
<time>2010-07-30T17:32:46.77</time>
<name>174</name>
</trkpt>
<trkpt lat="49.571120" lon="8.663252">
<ele>157.5</ele>
<speed>39.1</speed>
<course>173.7</course>
<desc>Speed 39.1 km/h Distance 0.65 km</desc>
<time>2010-07-30T17:32:47.77</time>
<name>175</name>
</trkpt>
<trkpt lat="49.570895" lon="8.663290">
<ele>159.0</ele>
<speed>44.2</speed>
<course>175.4</course>
<desc>Speed 44.2 km/h Distance 0.68 km</desc>
<time>2010-07-30T17:32:49.76</time>
<name>176</name>
</trkpt>
<trkpt lat="49.570788" lon="8.663303">
<ele>158.5</ele>
<speed>44.0</speed>
<course>199.0</course>
<desc>Speed 44.0 km/h Distance 0.69 km</desc>
<time>2010-07-30T17:32:50.76</time>
<name>177</name>
</trkpt>
<trkpt lat="49.570625" lon="8.663217">
<ele>158.5</ele>
<speed>33.8</speed>
<course>220.7</course>
<desc>Speed 33.8 km/h Distance 0.71 km</desc>
<time>2010-07-30T17:32:52.76</time>
<name>178</name>
</trkpt>
<trkpt lat="49.570558" lon="8.663128">
<ele>158.5</ele>
<speed>34.4</speed>
<course>240.4</course>
<desc>Speed 34.4 km/h Distance 0.72 km</desc>
<time>2010-07-30T17:32:53.76</time>
<name>179</name>
</trkpt>
<trkpt lat="49.570512" lon="8.663002">
<ele>158.0</ele>
<speed>37.2</speed>
<course>237.5</course>
<desc>Speed 37.2 km/h Distance 0.73 km</desc>
<time>2010-07-30T17:32:54.77</time>
<name>180</name>
</trkpt>
<trkpt lat="49.570457" lon="8.662868">
<ele>159.5</ele>
<speed>41.2</speed>
<course>260.0</course>
<desc>Speed 41.2 km/h Distance 0.74 km</desc>
<time>2010-07-30T17:32:55.76</time>
<name>181</name>
</trkpt>
<trkpt lat="49.570438" lon="8.662708">
<ele>160.0</ele>
<speed>42.0</speed>
<course>257.8</course>
<desc>Speed 42.0 km/h Distance 0.75 km</desc>
<time>2010-07-30T17:32:56.76</time>
<name>182</name>
</trkpt>
<trkpt lat="49.570417" lon="8.662553">
<ele>161.0</ele>
<speed>41.3</speed>
<course>257.1</course>
<desc>Speed 41.3 km/h Distance 0.76 km</desc>
<time>2010-07-30T17:32:57.76</time>
<name>183</name>
</trkpt>
<trkpt lat="49.570393" lon="8.662397">
<ele>161.5</ele>
<speed>42.0</speed>
<course>255.4</course>
<desc>Speed 42.0 km/h Distance 0.78 km</desc>
<time>2010-07-30T17:32:58.76</time>
<name>184</name>
</trkpt>
<trkpt lat="49.570368" lon="8.662248">
<ele>162.0</ele>
<speed>39.3</speed>
<course>271.2</course>
<desc>Speed 39.3 km/h Distance 0.79 km</desc>
<time>2010-07-30T17:32:59.76</time>
<name>185</name>
</trkpt>
<trkpt lat="49.570370" lon="8.662123">
<ele>162.5</ele>
<speed>32.8</speed>
<course>285.4</course>
<desc>Speed 32.8 km/h Distance 0.80 km</desc>
<time>2010-07-30T17:33:00.77</time>
<name>186</name>
</trkpt>
<trkpt lat="49.570390" lon="8.662012">
<ele>163.0</ele>
<speed>30.3</speed>
<course>304.3</course>
<desc>Speed 30.3 km/h Distance 0.80 km</desc>
<time>2010-07-30T17:33:01.76</time>
<name>187</name>
</trkpt>
<trkpt lat="49.570428" lon="8.661925">
<ele>163.0</ele>
<speed>27.6</speed>
<course>352.6</course>
<desc>Speed 27.6 km/h Distance 0.81 km</desc>
<time>2010-07-30T17:33:02.76</time>
<name>188</name>
</trkpt>
<trkpt lat="49.570537" lon="8.661903">
<ele>163.0</ele>
<speed>24.8</speed>
<course>35.8</course>
<desc>Speed 24.8 km/h Distance 0.82 km</desc>
<time>2010-07-30T17:33:04.76</time>
<name>189</name>
</trkpt>
<trkpt lat="49.570597" lon="8.661970">
<ele>162.5</ele>
<speed>29.6</speed>
<course>58.8</course>
<desc>Speed 29.6 km/h Distance 0.83 km</desc>
<time>2010-07-30T17:33:05.76</time>
<name>190</name>
</trkpt>
<trkpt lat="49.570772" lon="8.662415">
<ele>163.5</ele>
<speed>48.0</speed>
<course>57.3</course>
<desc>Speed 48.0 km/h Distance 0.87 km</desc>
<time>2010-07-30T17:33:08.76</time>
<name>191</name>
</trkpt>
<trkpt lat="49.570838" lon="8.662575">
<ele>163.5</ele>
<speed>48.7</speed>
<course>55.0</course>
<desc>Speed 48.7 km/h Distance 0.88 km</desc>
<time>2010-07-30T17:33:09.76</time>
<name>192</name>
</trkpt>
<trkpt lat="49.570912" lon="8.662737">
<ele>164.0</ele>
<speed>50.3</speed>
<course>53.8</course>
<desc>Speed 50.3 km/h Distance 0.90 km</desc>
<time>2010-07-30T17:33:10.75</time>
<name>193</name>
</trkpt>
<trkpt lat="49.570990" lon="8.662902">
<ele>164.0</ele>
<speed>52.7</speed>
<course>53.2</course>
<desc>Speed 52.7 km/h Distance 0.91 km</desc>
<time>2010-07-30T17:33:11.75</time>
<name>194</name>
</trkpt>
<trkpt lat="49.571073" lon="8.663073">
<ele>164.5</ele>
<speed>55.0</speed>
<course>52.4</course>
<desc>Speed 55.0 km/h Distance 0.93 km</desc>
<time>2010-07-30T17:33:12.75</time>
<name>195</name>
</trkpt>
<trkpt lat="49.571162" lon="8.663250">
<ele>164.5</ele>
<speed>57.6</speed>
<course>52.1</course>
<desc>Speed 57.6 km/h Distance 0.94 km</desc>
<time>2010-07-30T17:33:13.75</time>
<name>196</name>
</trkpt>
<trkpt lat="49.571253" lon="8.663432">
<ele>164.5</ele>
<speed>59.5</speed>
<course>51.9</course>
<desc>Speed 59.5 km/h Distance 0.96 km</desc>
<time>2010-07-30T17:33:14.75</time>
<name>197</name>
</trkpt>
<trkpt lat="49.571348" lon="8.663618">
<ele>164.5</ele>
<speed>61.5</speed>
<course>52.8</course>
<desc>Speed 61.5 km/h Distance 0.98 km</desc>
<time>2010-07-30T17:33:15.75</time>
<name>198</name>
</trkpt>
<trkpt lat="49.571443" lon="8.663812">
<ele>165.0</ele>
<speed>63.0</speed>
<course>52.4</course>
<desc>Speed 63.0 km/h Distance 0.99 km</desc>
<time>2010-07-30T17:33:16.75</time>
<name>199</name>
</trkpt>
<trkpt lat="49.571542" lon="8.664008">
<ele>165.0</ele>
<speed>64.3</speed>
<course>52.8</course>
<desc>Speed 64.3 km/h Distance 1.01 km</desc>
<time>2010-07-30T17:33:17.75</time>
<name>200</name>
</trkpt>
<trkpt lat="49.571640" lon="8.664208">
<ele>165.5</ele>
<speed>64.9</speed>
<course>52.6</course>
<desc>Speed 64.9 km/h Distance 1.03 km</desc>
<time>2010-07-30T17:33:18.75</time>
<name>201</name>
</trkpt>
<trkpt lat="49.571740" lon="8.664410">
<ele>166.0</ele>
<speed>66.0</speed>
<course>53.3</course>
<desc>Speed 66.0 km/h Distance 1.05 km</desc>
<time>2010-07-30T17:33:19.75</time>
<name>202</name>
</trkpt>
<trkpt lat="49.571840" lon="8.664617">
<ele>166.0</ele>
<speed>67.3</speed>
<course>54.4</course>
<desc>Speed 67.3 km/h Distance 1.07 km</desc>
<time>2010-07-30T17:33:20.75</time>
<name>203</name>
</trkpt>
<trkpt lat="49.571938" lon="8.664828">
<ele>166.5</ele>
<speed>68.0</speed>
<course>56.7</course>
<desc>Speed 68.0 km/h Distance 1.09 km</desc>
<time>2010-07-30T17:33:21.75</time>
<name>204</name>
</trkpt>
<trkpt lat="49.572033" lon="8.665052">
<ele>166.5</ele>
<speed>69.6</speed>
<course>57.1</course>
<desc>Speed 69.6 km/h Distance 1.11 km</desc>
<time>2010-07-30T17:33:22.74</time>
<name>205</name>
</trkpt>
<trkpt lat="49.572130" lon="8.665282">
<ele>166.0</ele>
<speed>71.2</speed>
<course>59.4</course>
<desc>Speed 71.2 km/h Distance 1.13 km</desc>
<time>2010-07-30T17:33:23.75</time>
<name>206</name>
</trkpt>
<trkpt lat="49.572218" lon="8.665512">
<ele>166.0</ele>
<speed>70.1</speed>
<course>58.6</course>
<desc>Speed 70.1 km/h Distance 1.14 km</desc>
<time>2010-07-30T17:33:24.74</time>
<name>207</name>
</trkpt>
<trkpt lat="49.572435" lon="8.666060">
<ele>166.0</ele>
<speed>70.1</speed>
<course>86.4</course>
<desc>Speed 70.1 km/h Distance 1.19 km</desc>
<time>2010-07-30T17:33:28.72</time>
<name>208</name>
</trkpt>
<trkpt lat="49.573780" lon="8.698738">
<ele>136.0</ele>
<speed>39.1</speed>
<course>105.7</course>
<desc>Speed 39.1 km/h Distance 3.56 km</desc>
<time>2010-07-30T17:35:51.69</time>
<name>209</name>
</trkpt>
<trkpt lat="49.572942" lon="8.703335">
<ele>189.5</ele>
<speed>11.4</speed>
<course>37.0</course>
<desc>Speed 11.4 km/h Distance 3.90 km</desc>
<time>2010-07-30T17:35:57.69</time>
<name>210</name>
</trkpt>
<trkpt lat="49.573033" lon="8.703442">
<ele>199.0</ele>
<speed>10.0</speed>
<course>46.1</course>
<desc>Speed 10.0 km/h Distance 3.91 km</desc>
<time>2010-07-30T17:35:59.69</time>
<name>211</name>
</trkpt>
<trkpt lat="49.573050" lon="8.703468">
<ele>199.5</ele>
<speed>8.9</speed>
<course>44.2</course>
<desc>Speed 8.9 km/h Distance 3.92 km</desc>
<time>2010-07-30T17:36:00.69</time>
<name>212</name>
</trkpt>
<trkpt lat="49.573067" lon="8.703493">
<ele>200.5</ele>
<speed>8.2</speed>
<course>33.0</course>
<desc>Speed 8.2 km/h Distance 3.92 km</desc>
<time>2010-07-30T17:36:01.68</time>
<name>213</name>
</trkpt>
<trkpt lat="49.573087" lon="8.703513">
<ele>201.5</ele>
<speed>7.5</speed>
<course>34.5</course>
<desc>Speed 7.5 km/h Distance 3.92 km</desc>
<time>2010-07-30T17:36:02.68</time>
<name>214</name>
</trkpt>
<trkpt lat="49.573115" lon="8.703543">
<ele>204.0</ele>
<speed>6.5</speed>
<course>65.2</course>
<desc>Speed 6.5 km/h Distance 3.92 km</desc>
<time>2010-07-30T17:36:03.68</time>
<name>215</name>
</trkpt>
<trkpt lat="49.573125" lon="8.703577">
<ele>204.5</ele>
<speed>8.5</speed>
<course>59.7</course>
<desc>Speed 8.5 km/h Distance 3.93 km</desc>
<time>2010-07-30T17:36:04.68</time>
<name>216</name>
</trkpt>
<trkpt lat="49.573223" lon="8.703837">
<ele>206.0</ele>
<speed>29.2</speed>
<course>48.0</course>
<desc>Speed 29.2 km/h Distance 3.95 km</desc>
<time>2010-07-30T17:36:07.68</time>
<name>217</name>
</trkpt>
<trkpt lat="49.573282" lon="8.703937">
<ele>209.0</ele>
<speed>30.6</speed>
<course>51.5</course>
<desc>Speed 30.6 km/h Distance 3.96 km</desc>
<time>2010-07-30T17:36:08.68</time>
<name>218</name>
</trkpt>
<trkpt lat="49.573335" lon="8.704040">
<ele>209.0</ele>
<speed>33.9</speed>
<course>50.0</course>
<desc>Speed 33.9 km/h Distance 3.97 km</desc>
<time>2010-07-30T17:36:09.67</time>
<name>219</name>
</trkpt>
<trkpt lat="49.573397" lon="8.704153">
<ele>210.0</ele>
<speed>36.9</speed>
<course>47.9</course>
<desc>Speed 36.9 km/h Distance 3.98 km</desc>
<time>2010-07-30T17:36:10.67</time>
<name>220</name>
</trkpt>
<trkpt lat="49.573465" lon="8.704270">
<ele>210.5</ele>
<speed>39.8</speed>
<course>45.1</course>
<desc>Speed 39.8 km/h Distance 3.99 km</desc>
<time>2010-07-30T17:36:11.68</time>
<name>221</name>
</trkpt>
<trkpt lat="49.573773" lon="8.704747">
<ele>215.0</ele>
<speed>57.6</speed>
<course>45.6</course>
<desc>Speed 57.6 km/h Distance 4.04 km</desc>
<time>2010-07-30T17:36:14.67</time>
<name>222</name>
</trkpt>
<trkpt lat="49.573875" lon="8.704907">
<ele>216.0</ele>
<speed>58.3</speed>
<course>43.6</course>
<desc>Speed 58.3 km/h Distance 4.05 km</desc>
<time>2010-07-30T17:36:15.67</time>
<name>223</name>
</trkpt>
<trkpt lat="49.573985" lon="8.705068">
<ele>217.0</ele>
<speed>60.9</speed>
<course>42.2</course>
<desc>Speed 60.9 km/h Distance 4.07 km</desc>
<time>2010-07-30T17:36:16.67</time>
<name>224</name>
</trkpt>
<trkpt lat="49.574102" lon="8.705232">
<ele>218.5</ele>
<speed>62.7</speed>
<course>40.8</course>
<desc>Speed 62.7 km/h Distance 4.09 km</desc>
<time>2010-07-30T17:36:17.67</time>
<name>225</name>
</trkpt>
<trkpt lat="49.574223" lon="8.705393">
<ele>220.0</ele>
<speed>64.4</speed>
<course>39.6</course>
<desc>Speed 64.4 km/h Distance 4.11 km</desc>
<time>2010-07-30T17:36:18.67</time>
<name>226</name>
</trkpt>
<trkpt lat="49.574350" lon="8.705555">
<ele>221.5</ele>
<speed>65.8</speed>
<course>38.2</course>
<desc>Speed 65.8 km/h Distance 4.13 km</desc>
<time>2010-07-30T17:36:19.67</time>
<name>227</name>
</trkpt>
<trkpt lat="49.574482" lon="8.705715">
<ele>223.0</ele>
<speed>66.8</speed>
<course>36.3</course>
<desc>Speed 66.8 km/h Distance 4.14 km</desc>
<time>2010-07-30T17:36:20.67</time>
<name>228</name>
</trkpt>
<trkpt lat="49.574618" lon="8.705870">
<ele>224.5</ele>
<speed>67.9</speed>
<course>33.9</course>
<desc>Speed 67.9 km/h Distance 4.16 km</desc>
<time>2010-07-30T17:36:21.67</time>
<name>229</name>
</trkpt>
<trkpt lat="49.574762" lon="8.706018">
<ele>225.5</ele>
<speed>69.0</speed>
<course>31.5</course>
<desc>Speed 69.0 km/h Distance 4.18 km</desc>
<time>2010-07-30T17:36:22.67</time>
<name>230</name>
</trkpt>
<trkpt lat="49.574910" lon="8.706158">
<ele>227.0</ele>
<speed>69.9</speed>
<course>29.5</course>
<desc>Speed 69.9 km/h Distance 4.20 km</desc>
<time>2010-07-30T17:36:23.67</time>
<name>231</name>
</trkpt>
<trkpt lat="49.575068" lon="8.706297">
<ele>228.0</ele>
<speed>73.1</speed>
<course>27.7</course>
<desc>Speed 73.1 km/h Distance 4.22 km</desc>
<time>2010-07-30T17:36:24.67</time>
<name>232</name>
</trkpt>
<trkpt lat="49.575233" lon="8.706430">
<ele>229.5</ele>
<speed>74.7</speed>
<course>25.9</course>
<desc>Speed 74.7 km/h Distance 4.24 km</desc>
<time>2010-07-30T17:36:25.67</time>
<name>233</name>
</trkpt>
<trkpt lat="49.575407" lon="8.706560">
<ele>230.5</ele>
<speed>76.7</speed>
<course>24.7</course>
<desc>Speed 76.7 km/h Distance 4.26 km</desc>
<time>2010-07-30T17:36:26.66</time>
<name>234</name>
</trkpt>
<trkpt lat="49.575590" lon="8.706690">
<ele>232.0</ele>
<speed>80.6</speed>
<course>23.5</course>
<desc>Speed 80.6 km/h Distance 4.29 km</desc>
<time>2010-07-30T17:36:27.67</time>
<name>235</name>
</trkpt>
<trkpt lat="49.575782" lon="8.706818">
<ele>233.5</ele>
<speed>84.1</speed>
<course>20.7</course>
<desc>Speed 84.1 km/h Distance 4.31 km</desc>
<time>2010-07-30T17:36:28.66</time>
<name>236</name>
</trkpt>
<trkpt lat="49.575993" lon="8.706942">
<ele>233.5</ele>
<speed>90.2</speed>
<course>19.1</course>
<desc>Speed 90.2 km/h Distance 4.33 km</desc>
<time>2010-07-30T17:36:29.66</time>
<name>237</name>
</trkpt>
<trkpt lat="49.576208" lon="8.707057">
<ele>233.5</ele>
<speed>91.6</speed>
<course>15.1</course>
<desc>Speed 91.6 km/h Distance 4.36 km</desc>
<time>2010-07-30T17:36:30.66</time>
<name>238</name>
</trkpt>
<trkpt lat="49.576440" lon="8.707153">
<ele>233.5</ele>
<speed>95.4</speed>
<course>14.8</course>
<desc>Speed 95.4 km/h Distance 4.39 km</desc>
<time>2010-07-30T17:36:31.67</time>
<name>239</name>
</trkpt>
<trkpt lat="49.576677" lon="8.707250">
<ele>234.0</ele>
<speed>97.7</speed>
<course>14.2</course>
<desc>Speed 97.7 km/h Distance 4.41 km</desc>
<time>2010-07-30T17:36:32.66</time>
<name>240</name>
</trkpt>
<trkpt lat="49.576912" lon="8.707342">
<ele>235.5</ele>
<speed>96.9</speed>
<course>13.5</course>
<desc>Speed 96.9 km/h Distance 4.44 km</desc>
<time>2010-07-30T17:36:33.66</time>
<name>241</name>
</trkpt>
<trkpt lat="49.577150" lon="8.707430">
<ele>237.5</ele>
<speed>97.7</speed>
<course>12.8</course>
<desc>Speed 97.7 km/h Distance 4.47 km</desc>
<time>2010-07-30T17:36:34.66</time>
<name>242</name>
</trkpt>
<trkpt lat="49.577392" lon="8.707515">
<ele>239.0</ele>
<speed>99.6</speed>
<course>13.2</course>
<desc>Speed 99.6 km/h Distance 4.50 km</desc>
<time>2010-07-30T17:36:35.66</time>
<name>243</name>
</trkpt>
<trkpt lat="49.577635" lon="8.707603">
<ele>241.0</ele>
<speed>100</speed>
<course>13.3</course>
<desc>Speed 100 km/h Distance 4.52 km</desc>
<time>2010-07-30T17:36:36.66</time>
<name>244</name>
</trkpt>
<trkpt lat="49.577882" lon="8.707693">
<ele>242.5</ele>
<speed>102</speed>
<course>13.5</course>
<desc>Speed 102 km/h Distance 4.55 km</desc>
<time>2010-07-30T17:36:37.66</time>
<name>245</name>
</trkpt>
<trkpt lat="49.578130" lon="8.707785">
<ele>244.5</ele>
<speed>102</speed>
<course>13.2</course>
<desc>Speed 102 km/h Distance 4.58 km</desc>
<time>2010-07-30T17:36:38.66</time>
<name>246</name>
</trkpt>
<trkpt lat="49.578375" lon="8.707873">
<ele>246.5</ele>
<speed>101</speed>
<course>13.2</course>
<desc>Speed 101 km/h Distance 4.61 km</desc>
<time>2010-07-30T17:36:39.65</time>
<name>247</name>
</trkpt>
<trkpt lat="49.578620" lon="8.707962">
<ele>248.5</ele>
<speed>99.9</speed>
<course>13.3</course>
<desc>Speed 99.9 km/h Distance 4.64 km</desc>
<time>2010-07-30T17:36:40.67</time>
<name>248</name>
</trkpt>
<trkpt lat="49.578858" lon="8.708048">
<ele>250.5</ele>
<speed>98.4</speed>
<course>13.2</course>
<desc>Speed 98.4 km/h Distance 4.66 km</desc>
<time>2010-07-30T17:36:41.66</time>
<name>249</name>
</trkpt>
<trkpt lat="49.579103" lon="8.708137">
<ele>250.5</ele>
<speed>101</speed>
<course>13.4</course>
<desc>Speed 101 km/h Distance 4.69 km</desc>
<time>2010-07-30T17:36:42.65</time>
<name>250</name>
</trkpt>
<trkpt lat="49.579343" lon="8.708225">
<ele>250.5</ele>
<speed>99.1</speed>
<course>13.5</course>
<desc>Speed 99.1 km/h Distance 4.72 km</desc>
<time>2010-07-30T17:36:43.66</time>
<name>251</name>
</trkpt>
<trkpt lat="49.579582" lon="8.708313">
<ele>250.5</ele>
<speed>97.4</speed>
<course>15.7</course>
<desc>Speed 97.4 km/h Distance 4.75 km</desc>
<time>2010-07-30T17:36:44.65</time>
<name>252</name>
</trkpt>
<trkpt lat="49.579992" lon="8.708492">
<ele>252.0</ele>
<speed>94.0</speed>
<course>18.1</course>
<desc>Speed 94.0 km/h Distance 4.79 km</desc>
<time>2010-07-30T17:36:46.65</time>
<name>253</name>
</trkpt>
<trkpt lat="49.580203" lon="8.708598">
<ele>252.0</ele>
<speed>90.4</speed>
<course>19.7</course>
<desc>Speed 90.4 km/h Distance 4.82 km</desc>
<time>2010-07-30T17:36:47.65</time>
<name>254</name>
</trkpt>
<trkpt lat="49.580423" lon="8.708720">
<ele>254.0</ele>
<speed>91.1</speed>
<course>21.7</course>
<desc>Speed 91.1 km/h Distance 4.84 km</desc>
<time>2010-07-30T17:36:48.65</time>
<name>255</name>
</trkpt>
<trkpt lat="49.580635" lon="8.708850">
<ele>255.0</ele>
<speed>92.1</speed>
<course>23.8</course>
<desc>Speed 92.1 km/h Distance 4.87 km</desc>
<time>2010-07-30T17:36:49.65</time>
<name>256</name>
</trkpt>
<trkpt lat="49.580848" lon="8.708995">
<ele>256.0</ele>
<speed>92.4</speed>
<course>25.4</course>
<desc>Speed 92.4 km/h Distance 4.90 km</desc>
<time>2010-07-30T17:36:50.65</time>
<name>257</name>
</trkpt>
<trkpt lat="49.581060" lon="8.709150">
<ele>256.0</ele>
<speed>93.5</speed>
<course>27.7</course>
<desc>Speed 93.5 km/h Distance 4.92 km</desc>
<time>2010-07-30T17:36:51.66</time>
<name>258</name>
</trkpt>
<trkpt lat="49.581252" lon="8.709305">
<ele>254.5</ele>
<speed>86.8</speed>
<course>32.1</course>
<desc>Speed 86.8 km/h Distance 4.95 km</desc>
<time>2010-07-30T17:36:52.65</time>
<name>259</name>
</trkpt>
<trkpt lat="49.581573" lon="8.709617">
<ele>253.5</ele>
<speed>74.6</speed>
<course>35.4</course>
<desc>Speed 74.6 km/h Distance 4.99 km</desc>
<time>2010-07-30T17:36:54.65</time>
<name>260</name>
</trkpt>
<trkpt lat="49.581712" lon="8.709768">
<ele>251.5</ele>
<speed>68.7</speed>
<course>37.3</course>
<desc>Speed 68.7 km/h Distance 5.01 km</desc>
<time>2010-07-30T17:36:55.64</time>
<name>261</name>
</trkpt>
<trkpt lat="49.581847" lon="8.709927">
<ele>251.0</ele>
<speed>68.7</speed>
<course>39.3</course>
<desc>Speed 68.7 km/h Distance 5.03 km</desc>
<time>2010-07-30T17:36:56.65</time>
<name>262</name>
</trkpt>
<trkpt lat="49.581973" lon="8.710087">
<ele>250.5</ele>
<speed>66.7</speed>
<course>40.6</course>
<desc>Speed 66.7 km/h Distance 5.04 km</desc>
<time>2010-07-30T17:36:57.64</time>
<name>263</name>
</trkpt>
<trkpt lat="49.582097" lon="8.710250">
<ele>249.5</ele>
<speed>65.5</speed>
<course>42.2</course>
<desc>Speed 65.5 km/h Distance 5.06 km</desc>
<time>2010-07-30T17:36:58.65</time>
<name>264</name>
</trkpt>
<trkpt lat="49.582213" lon="8.710413">
<ele>249.5</ele>
<speed>63.3</speed>
<course>43.7</course>
<desc>Speed 63.3 km/h Distance 5.08 km</desc>
<time>2010-07-30T17:36:59.64</time>
<name>265</name>
</trkpt>
<trkpt lat="49.582330" lon="8.710585">
<ele>248.5</ele>
<speed>64.6</speed>
<course>44.5</course>
<desc>Speed 64.6 km/h Distance 5.10 km</desc>
<time>2010-07-30T17:37:00.65</time>
<name>266</name>
</trkpt>
<trkpt lat="49.582450" lon="8.710767">
<ele>248.5</ele>
<speed>67.6</speed>
<course>46.6</course>
<desc>Speed 67.6 km/h Distance 5.12 km</desc>
<time>2010-07-30T17:37:01.64</time>
<name>267</name>
</trkpt>
<trkpt lat="49.582567" lon="8.710957">
<ele>249.0</ele>
<speed>68.3</speed>
<course>47.2</course>
<desc>Speed 68.3 km/h Distance 5.14 km</desc>
<time>2010-07-30T17:37:02.64</time>
<name>268</name>
</trkpt>
<trkpt lat="49.582682" lon="8.711148">
<ele>249.0</ele>
<speed>67.9</speed>
<course>49.4</course>
<desc>Speed 67.9 km/h Distance 5.15 km</desc>
<time>2010-07-30T17:37:03.64</time>
<name>269</name>
</trkpt>
<trkpt lat="49.582790" lon="8.711343">
<ele>248.5</ele>
<speed>66.7</speed>
<course>52.4</course>
<desc>Speed 66.7 km/h Distance 5.17 km</desc>
<time>2010-07-30T17:37:04.64</time>
<name>270</name>
</trkpt>
<trkpt lat="49.582887" lon="8.711537">
<ele>248.5</ele>
<speed>63.3</speed>
<course>51.9</course>
<desc>Speed 63.3 km/h Distance 5.19 km</desc>
<time>2010-07-30T17:37:05.64</time>
<name>271</name>
</trkpt>
<trkpt lat="49.582987" lon="8.711733">
<ele>248.5</ele>
<speed>65.2</speed>
<course>57.7</course>
<desc>Speed 65.2 km/h Distance 5.21 km</desc>
<time>2010-07-30T17:37:06.64</time>
<name>272</name>
</trkpt>
<trkpt lat="49.583073" lon="8.711945">
<ele>247.5</ele>
<speed>64.9</speed>
<course>57.3</course>
<desc>Speed 64.9 km/h Distance 5.23 km</desc>
<time>2010-07-30T17:37:07.64</time>
<name>273</name>
</trkpt>
<trkpt lat="49.583160" lon="8.712153">
<ele>246.5</ele>
<speed>64.6</speed>
<course>58.9</course>
<desc>Speed 64.6 km/h Distance 5.24 km</desc>
<time>2010-07-30T17:37:08.65</time>
<name>274</name>
</trkpt>
<trkpt lat="49.583243" lon="8.712367">
<ele>245.5</ele>
<speed>64.4</speed>
<course>60.9</course>
<desc>Speed 64.4 km/h Distance 5.26 km</desc>
<time>2010-07-30T17:37:09.64</time>
<name>275</name>
</trkpt>
<trkpt lat="49.583322" lon="8.712583">
<ele>244.5</ele>
<speed>64.7</speed>
<course>62.4</course>
<desc>Speed 64.7 km/h Distance 5.28 km</desc>
<time>2010-07-30T17:37:10.64</time>
<name>276</name>
</trkpt>
<trkpt lat="49.583397" lon="8.712805">
<ele>243.5</ele>
<speed>64.8</speed>
<course>64.4</course>
<desc>Speed 64.8 km/h Distance 5.30 km</desc>
<time>2010-07-30T17:37:11.64</time>
<name>277</name>
</trkpt>
<trkpt lat="49.583467" lon="8.713030">
<ele>242.5</ele>
<speed>65.2</speed>
<course>65.2</course>
<desc>Speed 65.2 km/h Distance 5.32 km</desc>
<time>2010-07-30T17:37:12.64</time>
<name>278</name>
</trkpt>
<trkpt lat="49.583535" lon="8.713258">
<ele>241.5</ele>
<speed>65.5</speed>
<course>65.7</course>
<desc>Speed 65.5 km/h Distance 5.33 km</desc>
<time>2010-07-30T17:37:13.64</time>
<name>279</name>
</trkpt>
<trkpt lat="49.583603" lon="8.713492">
<ele>241.5</ele>
<speed>66.8</speed>
<course>68.5</course>
<desc>Speed 66.8 km/h Distance 5.35 km</desc>
<time>2010-07-30T17:37:14.64</time>
<name>280</name>
</trkpt>
<trkpt lat="49.583663" lon="8.713727">
<ele>240.5</ele>
<speed>65.5</speed>
<course>71.1</course>
<desc>Speed 65.5 km/h Distance 5.37 km</desc>
<time>2010-07-30T17:37:15.64</time>
<name>281</name>
</trkpt>
<trkpt lat="49.583717" lon="8.713967">
<ele>239.0</ele>
<speed>66.4</speed>
<course>73.1</course>
<desc>Speed 66.4 km/h Distance 5.39 km</desc>
<time>2010-07-30T17:37:16.64</time>
<name>282</name>
</trkpt>
<trkpt lat="49.583765" lon="8.714212">
<ele>237.5</ele>
<speed>67.5</speed>
<course>74.5</course>
<desc>Speed 67.5 km/h Distance 5.41 km</desc>
<time>2010-07-30T17:37:17.63</time>
<name>283</name>
</trkpt>
<trkpt lat="49.583810" lon="8.714462">
<ele>236.5</ele>
<speed>67.9</speed>
<course>76.4</course>
<desc>Speed 67.9 km/h Distance 5.43 km</desc>
<time>2010-07-30T17:37:18.63</time>
<name>284</name>
</trkpt>
<trkpt lat="49.583850" lon="8.714717">
<ele>235.0</ele>
<speed>68.0</speed>
<course>78.4</course>
<desc>Speed 68.0 km/h Distance 5.45 km</desc>
<time>2010-07-30T17:37:19.63</time>
<name>285</name>
</trkpt>
<trkpt lat="49.583883" lon="8.714967">
<ele>233.5</ele>
<speed>66.7</speed>
<course>80.5</course>
<desc>Speed 66.7 km/h Distance 5.46 km</desc>
<time>2010-07-30T17:37:20.63</time>
<name>286</name>
</trkpt>
<trkpt lat="49.583910" lon="8.715212">
<ele>232.0</ele>
<speed>65.2</speed>
<course>82.1</course>
<desc>Speed 65.2 km/h Distance 5.48 km</desc>
<time>2010-07-30T17:37:21.63</time>
<name>287</name>
</trkpt>
<trkpt lat="49.583932" lon="8.715453">
<ele>231.0</ele>
<speed>63.9</speed>
<course>84.8</course>
<desc>Speed 63.9 km/h Distance 5.50 km</desc>
<time>2010-07-30T17:37:22.63</time>
<name>288</name>
</trkpt>
<trkpt lat="49.583960" lon="8.715937">
<ele>229.5</ele>
<speed>63.1</speed>
<course>87.6</course>
<desc>Speed 63.1 km/h Distance 5.53 km</desc>
<time>2010-07-30T17:37:24.63</time>
<name>289</name>
</trkpt>
<trkpt lat="49.583967" lon="8.716182">
<ele>228.5</ele>
<speed>63.8</speed>
<course>89.4</course>
<desc>Speed 63.8 km/h Distance 5.55 km</desc>
<time>2010-07-30T17:37:25.62</time>
<name>290</name>
</trkpt>
<trkpt lat="49.583968" lon="8.716430">
<ele>227.5</ele>
<speed>64.6</speed>
<course>93.0</course>
<desc>Speed 64.6 km/h Distance 5.57 km</desc>
<time>2010-07-30T17:37:26.63</time>
<name>291</name>
</trkpt>
<trkpt lat="49.583960" lon="8.716678">
<ele>225.5</ele>
<speed>64.6</speed>
<course>93.4</course>
<desc>Speed 64.6 km/h Distance 5.59 km</desc>
<time>2010-07-30T17:37:27.63</time>
<name>292</name>
</trkpt>
<trkpt lat="49.583950" lon="8.716935">
<ele>224.5</ele>
<speed>66.6</speed>
<course>93.9</course>
<desc>Speed 66.6 km/h Distance 5.61 km</desc>
<time>2010-07-30T17:37:28.62</time>
<name>293</name>
</trkpt>
<trkpt lat="49.583938" lon="8.717198">
<ele>224.5</ele>
<speed>68.2</speed>
<course>95.6</course>
<desc>Speed 68.2 km/h Distance 5.63 km</desc>
<time>2010-07-30T17:37:29.62</time>
<name>294</name>
</trkpt>
<trkpt lat="49.583922" lon="8.717462">
<ele>224.0</ele>
<speed>68.7</speed>
<course>97.2</course>
<desc>Speed 68.7 km/h Distance 5.65 km</desc>
<time>2010-07-30T17:37:30.62</time>
<name>295</name>
</trkpt>
<trkpt lat="49.583900" lon="8.717725">
<ele>224.0</ele>
<speed>69.1</speed>
<course>100.0</course>
<desc>Speed 69.1 km/h Distance 5.66 km</desc>
<time>2010-07-30T17:37:31.62</time>
<name>296</name>
</trkpt>
<trkpt lat="49.583870" lon="8.717987">
<ele>223.0</ele>
<speed>68.7</speed>
<course>101.2</course>
<desc>Speed 68.7 km/h Distance 5.68 km</desc>
<time>2010-07-30T17:37:32.62</time>
<name>297</name>
</trkpt>
<trkpt lat="49.583837" lon="8.718247">
<ele>222.0</ele>
<speed>69.1</speed>
<course>102.7</course>
<desc>Speed 69.1 km/h Distance 5.70 km</desc>
<time>2010-07-30T17:37:33.62</time>
<name>298</name>
</trkpt>
<trkpt lat="49.583800" lon="8.718497">
<ele>221.5</ele>
<speed>66.3</speed>
<course>103.8</course>
<desc>Speed 66.3 km/h Distance 5.72 km</desc>
<time>2010-07-30T17:37:34.62</time>
<name>299</name>
</trkpt>
<trkpt lat="49.583763" lon="8.718727">
<ele>220.5</ele>
<speed>61.5</speed>
<course>104.0</course>
<desc>Speed 61.5 km/h Distance 5.74 km</desc>
<time>2010-07-30T17:37:35.62</time>
<name>300</name>
</trkpt>
<trkpt lat="49.583730" lon="8.718933">
<ele>220.0</ele>
<speed>55.6</speed>
<course>104.7</course>
<desc>Speed 55.6 km/h Distance 5.75 km</desc>
<time>2010-07-30T17:37:36.62</time>
<name>301</name>
</trkpt>
<trkpt lat="49.583698" lon="8.719120">
<ele>219.5</ele>
<speed>50.6</speed>
<course>103.6</course>
<desc>Speed 50.6 km/h Distance 5.77 km</desc>
<time>2010-07-30T17:37:37.61</time>
<name>302</name>
</trkpt>
<trkpt lat="49.583672" lon="8.719290">
<ele>218.5</ele>
<speed>45.6</speed>
<course>100.1</course>
<desc>Speed 45.6 km/h Distance 5.78 km</desc>
<time>2010-07-30T17:37:38.61</time>
<name>303</name>
</trkpt>
<trkpt lat="49.583653" lon="8.719448">
<ele>217.5</ele>
<speed>42.0</speed>
<course>100.4</course>
<desc>Speed 42.0 km/h Distance 5.79 km</desc>
<time>2010-07-30T17:37:39.61</time>
<name>304</name>
</trkpt>
<trkpt lat="49.583627" lon="8.719673">
<ele>217.5</ele>
<speed>29.4</speed>
<course>92.6</course>
<desc>Speed 29.4 km/h Distance 5.81 km</desc>
<time>2010-07-30T17:37:41.61</time>
<name>305</name>
</trkpt>
<trkpt lat="49.583623" lon="8.719787">
<ele>217.0</ele>
<speed>29.9</speed>
<course>91.3</course>
<desc>Speed 29.9 km/h Distance 5.82 km</desc>
<time>2010-07-30T17:37:42.61</time>
<name>306</name>
</trkpt>
<trkpt lat="49.583622" lon="8.719903">
<ele>215.5</ele>
<speed>30.6</speed>
<course>90.0</course>
<desc>Speed 30.6 km/h Distance 5.82 km</desc>
<time>2010-07-30T17:37:43.61</time>
<name>307</name>
</trkpt>
<trkpt lat="49.583622" lon="8.720032">
<ele>215.5</ele>
<speed>33.3</speed>
<course>88.8</course>
<desc>Speed 33.3 km/h Distance 5.83 km</desc>
<time>2010-07-30T17:37:44.61</time>
<name>308</name>
</trkpt>
<trkpt lat="49.583623" lon="8.720157">
<ele>214.5</ele>
<speed>32.7</speed>
<course>85.2</course>
<desc>Speed 32.7 km/h Distance 5.84 km</desc>
<time>2010-07-30T17:37:45.62</time>
<name>309</name>
</trkpt>
<trkpt lat="49.583630" lon="8.720280">
<ele>214.5</ele>
<speed>31.9</speed>
<course>81.6</course>
<desc>Speed 31.9 km/h Distance 5.85 km</desc>
<time>2010-07-30T17:37:46.62</time>
<name>310</name>
</trkpt>
<trkpt lat="49.583640" lon="8.720385">
<ele>214.5</ele>
<speed>27.9</speed>
<course>80.4</course>
<desc>Speed 27.9 km/h Distance 5.86 km</desc>
<time>2010-07-30T17:37:47.62</time>
<name>311</name>
</trkpt>
<trkpt lat="49.583650" lon="8.720477">
<ele>215.0</ele>
<speed>24.2</speed>
<course>81.8</course>
<desc>Speed 24.2 km/h Distance 5.87 km</desc>
<time>2010-07-30T17:37:48.61</time>
<name>312</name>
</trkpt>
<trkpt lat="49.583657" lon="8.720548">
<ele>215.0</ele>
<speed>18.7</speed>
<course>79.4</course>
<desc>Speed 18.7 km/h Distance 5.87 km</desc>
<time>2010-07-30T17:37:49.61</time>
<name>313</name>
</trkpt>
<trkpt lat="49.583663" lon="8.720603">
<ele>215.5</ele>
<speed>14.6</speed>
<course>82.7</course>
<desc>Speed 14.6 km/h Distance 5.88 km</desc>
<time>2010-07-30T17:37:50.61</time>
<name>314</name>
</trkpt>
<trkpt lat="49.583667" lon="8.720643">
<ele>215.0</ele>
<speed>10.2</speed>
<course>80.3</course>
<desc>Speed 10.2 km/h Distance 5.88 km</desc>
<time>2010-07-30T17:37:51.62</time>
<name>315</name>
</trkpt>
<trkpt lat="49.583670" lon="8.720673">
<ele>214.5</ele>
<speed>8.1</speed>
<course>85.1</course>
<desc>Speed 8.1 km/h Distance 5.88 km</desc>
<time>2010-07-30T17:37:52.61</time>
<name>316</name>
</trkpt>
<trkpt lat="49.583672" lon="8.720703">
<ele>214.0</ele>
<speed>7.7</speed>
<course>79.1</course>
<desc>Speed 7.7 km/h Distance 5.88 km</desc>
<time>2010-07-30T17:37:53.61</time>
<name>317</name>
</trkpt>
<trkpt lat="49.583675" lon="8.720730">
<ele>213.5</ele>
<speed>6.6</speed>
<course>75.6</course>
<desc>Speed 6.6 km/h Distance 5.88 km</desc>
<time>2010-07-30T17:37:54.61</time>
<name>318</name>
</trkpt>
<trkpt lat="49.583678" lon="8.720750">
<ele>213.5</ele>
<speed>5.4</speed>
<course>74.1</course>
<desc>Speed 5.4 km/h Distance 5.89 km</desc>
<time>2010-07-30T17:37:55.61</time>
<name>319</name>
</trkpt>
<trkpt lat="49.583718" lon="8.720967">
<ele>215.0</ele>
<speed>21.5</speed>
<course>67.9</course>
<desc>Speed 21.5 km/h Distance 5.90 km</desc>
<time>2010-07-30T17:37:58.60</time>
<name>320</name>
</trkpt>
<trkpt lat="49.583743" lon="8.721062">
<ele>214.0</ele>
<speed>26.0</speed>
<course>65.5</course>
<desc>Speed 26.0 km/h Distance 5.91 km</desc>
<time>2010-07-30T17:37:59.59</time>
<name>321</name>
</trkpt>
<trkpt lat="49.583817" lon="8.721310">
<ele>213.0</ele>
<speed>36.4</speed>
<course>59.6</course>
<desc>Speed 36.4 km/h Distance 5.93 km</desc>
<time>2010-07-30T17:38:01.60</time>
<name>322</name>
</trkpt>
<trkpt lat="49.583867" lon="8.721442">
<ele>213.0</ele>
<speed>39.5</speed>
<course>54.8</course>
<desc>Speed 39.5 km/h Distance 5.94 km</desc>
<time>2010-07-30T17:38:02.60</time>
<name>323</name>
</trkpt>
<trkpt lat="49.584008" lon="8.721752">
<ele>212.5</ele>
<speed>48.3</speed>
<course>52.4</course>
<desc>Speed 48.3 km/h Distance 5.97 km</desc>
<time>2010-07-30T17:38:04.60</time>
<name>324</name>
</trkpt>
<trkpt lat="49.584088" lon="8.721912">
<ele>212.0</ele>
<speed>52.5</speed>
<course>50.5</course>
<desc>Speed 52.5 km/h Distance 5.98 km</desc>
<time>2010-07-30T17:38:05.60</time>
<name>325</name>
</trkpt>
<trkpt lat="49.584178" lon="8.722080">
<ele>212.0</ele>
<speed>56.9</speed>
<course>48.1</course>
<desc>Speed 56.9 km/h Distance 6.00 km</desc>
<time>2010-07-30T17:38:06.60</time>
<name>326</name>
</trkpt>
<trkpt lat="49.584280" lon="8.722255">
<ele>211.5</ele>
<speed>61.2</speed>
<course>46.1</course>
<desc>Speed 61.2 km/h Distance 6.02 km</desc>
<time>2010-07-30T17:38:07.60</time>
<name>327</name>
</trkpt>
<trkpt lat="49.584388" lon="8.722428">
<ele>211.0</ele>
<speed>62.7</speed>
<course>48.8</course>
<desc>Speed 62.7 km/h Distance 6.03 km</desc>
<time>2010-07-30T17:38:08.61</time>
<name>328</name>
</trkpt>
<trkpt lat="49.584493" lon="8.722613">
<ele>210.5</ele>
<speed>64.3</speed>
<course>48.4</course>
<desc>Speed 64.3 km/h Distance 6.05 km</desc>
<time>2010-07-30T17:38:09.59</time>
<name>329</name>
</trkpt>
<trkpt lat="49.584602" lon="8.722802">
<ele>210.5</ele>
<speed>65.2</speed>
<course>49.8</course>
<desc>Speed 65.2 km/h Distance 6.07 km</desc>
<time>2010-07-30T17:38:10.59</time>
<name>330</name>
</trkpt>
<trkpt lat="49.584708" lon="8.722997">
<ele>210.0</ele>
<speed>66.6</speed>
<course>51.0</course>
<desc>Speed 66.6 km/h Distance 6.09 km</desc>
<time>2010-07-30T17:38:11.59</time>
<name>331</name>
</trkpt>
<trkpt lat="49.584815" lon="8.723200">
<ele>209.5</ele>
<speed>68.4</speed>
<course>53.0</course>
<desc>Speed 68.4 km/h Distance 6.11 km</desc>
<time>2010-07-30T17:38:12.59</time>
<name>332</name>
</trkpt>
<trkpt lat="49.584920" lon="8.723415">
<ele>209.5</ele>
<speed>70.2</speed>
<course>55.8</course>
<desc>Speed 70.2 km/h Distance 6.13 km</desc>
<time>2010-07-30T17:38:13.59</time>
<name>333</name>
</trkpt>
<trkpt lat="49.585020" lon="8.723642">
<ele>209.5</ele>
<speed>72.1</speed>
<course>58.1</course>
<desc>Speed 72.1 km/h Distance 6.15 km</desc>
<time>2010-07-30T17:38:14.59</time>
<name>334</name>
</trkpt>
<trkpt lat="49.585117" lon="8.723882">
<ele>209.5</ele>
<speed>73.7</speed>
<course>61.7</course>
<desc>Speed 73.7 km/h Distance 6.17 km</desc>
<time>2010-07-30T17:38:15.59</time>
<name>335</name>
</trkpt>
<trkpt lat="49.585203" lon="8.724130">
<ele>209.5</ele>
<speed>73.5</speed>
<course>62.6</course>
<desc>Speed 73.5 km/h Distance 6.19 km</desc>
<time>2010-07-30T17:38:16.60</time>
<name>336</name>
</trkpt>
<trkpt lat="49.585287" lon="8.724378">
<ele>209.5</ele>
<speed>73.0</speed>
<course>63.1</course>
<desc>Speed 73.0 km/h Distance 6.21 km</desc>
<time>2010-07-30T17:38:17.59</time>
<name>337</name>
</trkpt>
<trkpt lat="49.585368" lon="8.724627">
<ele>209.5</ele>
<speed>72.4</speed>
<course>62.6</course>
<desc>Speed 72.4 km/h Distance 6.23 km</desc>
<time>2010-07-30T17:38:18.60</time>
<name>338</name>
</trkpt>
<trkpt lat="49.585450" lon="8.724870">
<ele>210.0</ele>
<speed>71.6</speed>
<course>62.6</course>
<desc>Speed 71.6 km/h Distance 6.25 km</desc>
<time>2010-07-30T17:38:19.59</time>
<name>339</name>
</trkpt>
<trkpt lat="49.585532" lon="8.725113">
<ele>210.0</ele>
<speed>71.2</speed>
<course>61.8</course>
<desc>Speed 71.2 km/h Distance 6.27 km</desc>
<time>2010-07-30T17:38:20.59</time>
<name>340</name>
</trkpt>
<trkpt lat="49.585615" lon="8.725353">
<ele>210.0</ele>
<speed>70.8</speed>
<course>60.7</course>
<desc>Speed 70.8 km/h Distance 6.29 km</desc>
<time>2010-07-30T17:38:21.59</time>
<name>341</name>
</trkpt>
<trkpt lat="49.585700" lon="8.725587">
<ele>210.0</ele>
<speed>70.1</speed>
<course>58.2</course>
<desc>Speed 70.1 km/h Distance 6.30 km</desc>
<time>2010-07-30T17:38:22.59</time>
<name>342</name>
</trkpt>
<trkpt lat="49.585792" lon="8.725815">
<ele>210.0</ele>
<speed>70.1</speed>
<course>56.7</course>
<desc>Speed 70.1 km/h Distance 6.32 km</desc>
<time>2010-07-30T17:38:23.59</time>
<name>343</name>
</trkpt>
<trkpt lat="49.585887" lon="8.726038">
<ele>210.0</ele>
<speed>69.4</speed>
<course>55.2</course>
<desc>Speed 69.4 km/h Distance 6.34 km</desc>
<time>2010-07-30T17:38:24.59</time>
<name>344</name>
</trkpt>
<trkpt lat="49.585985" lon="8.726257">
<ele>210.0</ele>
<speed>69.0</speed>
<course>52.1</course>
<desc>Speed 69.0 km/h Distance 6.36 km</desc>
<time>2010-07-30T17:38:25.58</time>
<name>345</name>
</trkpt>
<trkpt lat="49.586090" lon="8.726465">
<ele>210.0</ele>
<speed>68.5</speed>
<course>51.0</course>
<desc>Speed 68.5 km/h Distance 6.38 km</desc>
<time>2010-07-30T17:38:26.59</time>
<name>346</name>
</trkpt>
<trkpt lat="49.586197" lon="8.726668">
<ele>209.5</ele>
<speed>67.7</speed>
<course>48.1</course>
<desc>Speed 67.7 km/h Distance 6.40 km</desc>
<time>2010-07-30T17:38:27.59</time>
<name>347</name>
</trkpt>
<trkpt lat="49.586308" lon="8.726860">
<ele>210.0</ele>
<speed>67.4</speed>
<course>44.3</course>
<desc>Speed 67.4 km/h Distance 6.42 km</desc>
<time>2010-07-30T17:38:28.58</time>
<name>348</name>
</trkpt>
<trkpt lat="49.586427" lon="8.727038">
<ele>209.5</ele>
<speed>66.4</speed>
<course>42.1</course>
<desc>Speed 66.4 km/h Distance 6.44 km</desc>
<time>2010-07-30T17:38:29.58</time>
<name>349</name>
</trkpt>
<trkpt lat="49.586550" lon="8.727210">
<ele>209.5</ele>
<speed>66.6</speed>
<course>40.5</course>
<desc>Speed 66.6 km/h Distance 6.46 km</desc>
<time>2010-07-30T17:38:30.58</time>
<name>350</name>
</trkpt>
<trkpt lat="49.586677" lon="8.727377">
<ele>209.5</ele>
<speed>66.5</speed>
<course>38.7</course>
<desc>Speed 66.5 km/h Distance 6.47 km</desc>
<time>2010-07-30T17:38:31.58</time>
<name>351</name>
</trkpt>
<trkpt lat="49.586805" lon="8.727535">
<ele>209.0</ele>
<speed>65.6</speed>
<course>35.9</course>
<desc>Speed 65.6 km/h Distance 6.49 km</desc>
<time>2010-07-30T17:38:32.58</time>
<name>352</name>
</trkpt>
<trkpt lat="49.586935" lon="8.727680">
<ele>209.0</ele>
<speed>64.1</speed>
<course>33.3</course>
<desc>Speed 64.1 km/h Distance 6.51 km</desc>
<time>2010-07-30T17:38:33.57</time>
<name>353</name>
</trkpt>
<trkpt lat="49.587067" lon="8.727813">
<ele>209.0</ele>
<speed>62.5</speed>
<course>31.2</course>
<desc>Speed 62.5 km/h Distance 6.53 km</desc>
<time>2010-07-30T17:38:34.58</time>
<name>354</name>
</trkpt>
<trkpt lat="49.587192" lon="8.727930">
<ele>208.5</ele>
<speed>59.5</speed>
<course>29.6</course>
<desc>Speed 59.5 km/h Distance 6.54 km</desc>
<time>2010-07-30T17:38:35.57</time>
<name>355</name>
</trkpt>
<trkpt lat="49.587313" lon="8.728037">
<ele>208.5</ele>
<speed>55.9</speed>
<course>28.1</course>
<desc>Speed 55.9 km/h Distance 6.56 km</desc>
<time>2010-07-30T17:38:36.58</time>
<name>356</name>
</trkpt>
<trkpt lat="49.587427" lon="8.728130">
<ele>208.0</ele>
<speed>52.2</speed>
<course>25.9</course>
<desc>Speed 52.2 km/h Distance 6.57 km</desc>
<time>2010-07-30T17:38:37.57</time>
<name>357</name>
</trkpt>
<trkpt lat="49.587533" lon="8.728210">
<ele>208.0</ele>
<speed>48.4</speed>
<course>25.0</course>
<desc>Speed 48.4 km/h Distance 6.59 km</desc>
<time>2010-07-30T17:38:38.58</time>
<name>358</name>
</trkpt>
<trkpt lat="49.587628" lon="8.728278">
<ele>208.5</ele>
<speed>42.3</speed>
<course>21.9</course>
<desc>Speed 42.3 km/h Distance 6.60 km</desc>
<time>2010-07-30T17:38:39.57</time>
<name>359</name>
</trkpt>
<trkpt lat="49.587857" lon="8.728420">
<ele>208.0</ele>
<speed>17.9</speed>
<course>14.8</course>
<desc>Speed 17.9 km/h Distance 6.63 km</desc>
<time>2010-07-30T17:38:43.57</time>
<name>360</name>
</trkpt>
<trkpt lat="49.587893" lon="8.728435">
<ele>208.0</ele>
<speed>7.5</speed>
<course>13.5</course>
<desc>Speed 7.5 km/h Distance 6.63 km</desc>
<time>2010-07-30T17:38:45.57</time>
<name>361</name>
</trkpt>
<trkpt lat="49.587907" lon="8.728440">
<ele>208.0</ele>
<speed>5.5</speed>
<course>16.0</course>
<desc>Speed 5.5 km/h Distance 6.63 km</desc>
<time>2010-07-30T17:38:46.57</time>
<name>362</name>
</trkpt>
<trkpt lat="49.587918" lon="8.728445">
<ele>208.5</ele>
<speed>4.5</speed>
<course>12.6</course>
<desc>Speed 4.5 km/h Distance 6.63 km</desc>
<time>2010-07-30T17:38:47.58</time>
<name>363</name>
</trkpt>
<trkpt lat="49.587922" lon="8.728445">
<ele>208.5</ele>
<speed>1.0</speed>
<course>0.0</course>
<desc>Speed 1.0 km/h Distance 6.63 km</desc>
<time>2010-07-30T17:38:48.58</time>
<name>364</name>
</trkpt>
<trkpt lat="49.587923" lon="8.728445">
<ele>208.0</ele>
<speed>0.3</speed>
<course>0.0</course>
<desc>Speed 0.3 km/h Distance 6.63 km</desc>
<time>2010-07-30T17:38:49.58</time>
<name>365</name>
</trkpt>
<trkpt lat="49.587927" lon="8.728445">
<ele>208.0</ele>
<speed>0.8</speed>
<course>13.8</course>
<desc>Speed 0.8 km/h Distance 6.63 km</desc>
<time>2010-07-30T17:38:50.57</time>
<name>366</name>
</trkpt>
<trkpt lat="49.587935" lon="8.728448">
<ele>208.0</ele>
<speed>3.8</speed>
<course>20.4</course>
<desc>Speed 3.8 km/h Distance 6.64 km</desc>
<time>2010-07-30T17:38:51.57</time>
<name>367</name>
</trkpt>
<trkpt lat="49.588165" lon="8.728580">
<ele>210.5</ele>
<speed>32.1</speed>
<course>18.6</course>
<desc>Speed 32.1 km/h Distance 6.66 km</desc>
<time>2010-07-30T17:38:55.57</time>
<name>368</name>
</trkpt>
<trkpt lat="49.588245" lon="8.728622">
<ele>210.5</ele>
<speed>33.5</speed>
<course>17.6</course>
<desc>Speed 33.5 km/h Distance 6.67 km</desc>
<time>2010-07-30T17:38:56.57</time>
<name>369</name>
</trkpt>
<trkpt lat="49.588330" lon="8.728663">
<ele>210.5</ele>
<speed>35.7</speed>
<course>17.3</course>
<desc>Speed 35.7 km/h Distance 6.68 km</desc>
<time>2010-07-30T17:38:57.58</time>
<name>370</name>
</trkpt>
<trkpt lat="49.588413" lon="8.728703">
<ele>210.5</ele>
<speed>35.1</speed>
<course>17.6</course>
<desc>Speed 35.1 km/h Distance 6.69 km</desc>
<time>2010-07-30T17:38:58.57</time>
<name>371</name>
</trkpt>
<trkpt lat="49.588488" lon="8.728740">
<ele>210.5</ele>
<speed>30.5</speed>
<course>17.1</course>
<desc>Speed 30.5 km/h Distance 6.70 km</desc>
<time>2010-07-30T17:38:59.56</time>
<name>372</name>
</trkpt>
<trkpt lat="49.588552" lon="8.728770">
<ele>210.5</ele>
<speed>26.5</speed>
<course>16.9</course>
<desc>Speed 26.5 km/h Distance 6.71 km</desc>
<time>2010-07-30T17:39:00.56</time>
<name>373</name>
</trkpt>
<trkpt lat="49.588605" lon="8.728795">
<ele>211.0</ele>
<speed>22.0</speed>
<course>17.3</course>
<desc>Speed 22.0 km/h Distance 6.71 km</desc>
<time>2010-07-30T17:39:01.56</time>
<name>374</name>
</trkpt>
<trkpt lat="49.588650" lon="8.728817">
<ele>211.0</ele>
<speed>18.4</speed>
<course>16.5</course>
<desc>Speed 18.4 km/h Distance 6.72 km</desc>
<time>2010-07-30T17:39:02.56</time>
<name>375</name>
</trkpt>
<trkpt lat="49.588690" lon="8.728835">
<ele>210.5</ele>
<speed>16.0</speed>
<course>16.0</course>
<desc>Speed 16.0 km/h Distance 6.72 km</desc>
<time>2010-07-30T17:39:03.56</time>
<name>376</name>
</trkpt>
<trkpt lat="49.588720" lon="8.728848">
<ele>211.0</ele>
<speed>12.7</speed>
<course>9.6</course>
<desc>Speed 12.7 km/h Distance 6.73 km</desc>
<time>2010-07-30T17:39:04.56</time>
<name>377</name>
</trkpt>
<trkpt lat="49.588745" lon="8.728855">
<ele>211.5</ele>
<speed>10.0</speed>
<course>12.1</course>
<desc>Speed 10.0 km/h Distance 6.73 km</desc>
<time>2010-07-30T17:39:05.55</time>
<name>378</name>
</trkpt>
<trkpt lat="49.588765" lon="8.728862">
<ele>211.0</ele>
<speed>7.6</speed>
<course>16.0</course>
<desc>Speed 7.6 km/h Distance 6.73 km</desc>
<time>2010-07-30T17:39:06.55</time>
<name>379</name>
</trkpt>
<trkpt lat="49.588780" lon="8.728868">
<ele>211.5</ele>
<speed>5.9</speed>
<course>12.6</course>
<desc>Speed 5.9 km/h Distance 6.73 km</desc>
<time>2010-07-30T17:39:07.55</time>
<name>380</name>
</trkpt>
<trkpt lat="49.588785" lon="8.728870">
<ele>211.5</ele>
<speed>1.5</speed>
<course>29.2</course>
<desc>Speed 1.5 km/h Distance 6.74 km</desc>
<time>2010-07-30T17:39:08.55</time>
<name>381</name>
</trkpt>
<trkpt lat="49.588787" lon="8.728870">
<ele>211.5</ele>
<speed>0.0</speed>
<course>29.2</course>
<desc>Speed 0.0 km/h Distance 6.74 km</desc>
<time>2010-07-30T17:39:09.55</time>
<name>382</name>
</trkpt>
<trkpt lat="49.588787" lon="8.728870">
<ele>211.5</ele>
<speed>0.2</speed>
<course>90.0</course>
<desc>Speed 0.2 km/h Distance 6.74 km</desc>
<time>2010-07-30T17:39:10.56</time>
<name>383</name>
</trkpt>
<trkpt lat="49.588787" lon="8.728872">
<ele>211.5</ele>
<speed>0.3</speed>
<course>12.6</course>
<desc>Speed 0.3 km/h Distance 6.74 km</desc>
<time>2010-07-30T17:39:11.56</time>
<name>384</name>
</trkpt>
<trkpt lat="49.588788" lon="8.728872">
<ele>211.5</ele>
<speed>0.2</speed>
<course>90.0</course>
<desc>Speed 0.2 km/h Distance 6.74 km</desc>
<time>2010-07-30T17:39:12.56</time>
<name>385</name>
</trkpt>
<trkpt lat="49.588788" lon="8.728873">
<ele>211.5</ele>
<speed>0.9</speed>
<course>12.6</course>
<desc>Speed 0.9 km/h Distance 6.74 km</desc>
<time>2010-07-30T17:39:13.55</time>
<name>386</name>
</trkpt>
<trkpt lat="49.588790" lon="8.728873">
<ele>211.5</ele>
<speed>0.2</speed>
<course>12.6</course>
<desc>Speed 0.2 km/h Distance 6.74 km</desc>
<time>2010-07-30T17:39:14.55</time>
<name>387</name>
</trkpt>
<trkpt lat="49.588792" lon="8.728873">
<ele>211.5</ele>
<speed>0.1</speed>
<course>90.0</course>
<desc>Speed 0.1 km/h Distance 6.74 km</desc>
<time>2010-07-30T17:39:15.55</time>
<name>388</name>
</trkpt>
<trkpt lat="49.588792" lon="8.728875">
<ele>211.5</ele>
<speed>0.1</speed>
<course>12.6</course>
<desc>Speed 0.1 km/h Distance 6.74 km</desc>
<time>2010-07-30T17:39:16.55</time>
<name>389</name>
</trkpt>
<trkpt lat="49.588793" lon="8.728875">
<ele>211.5</ele>
<speed>0.2</speed>
<course>90.0</course>
<desc>Speed 0.2 km/h Distance 6.74 km</desc>
<time>2010-07-30T17:39:17.55</time>
<name>390</name>
</trkpt>
<trkpt lat="49.588793" lon="8.728877">
<ele>211.5</ele>
<speed>0.2</speed>
<course>90.0</course>
<desc>Speed 0.2 km/h Distance 6.74 km</desc>
<time>2010-07-30T17:39:18.55</time>
<name>391</name>
</trkpt>
<trkpt lat="49.588793" lon="8.728878">
<ele>211.5</ele>
<speed>0.0</speed>
<course>90.0</course>
<desc>Speed 0.0 km/h Distance 6.74 km</desc>
<time>2010-07-30T17:39:19.55</time>
<name>392</name>
</trkpt>
<trkpt lat="49.588793" lon="8.728878">
<ele>211.5</ele>
<speed>0.1</speed>
<course>90.0</course>
<desc>Speed 0.1 km/h Distance 6.74 km</desc>
<time>2010-07-30T17:39:20.55</time>
<name>393</name>
</trkpt>
<trkpt lat="49.588793" lon="8.728878">
<ele>211.5</ele>
<speed>0.1</speed>
<course>37.2</course>
<desc>Speed 0.1 km/h Distance 6.74 km</desc>
<time>2010-07-30T17:39:21.57</time>
<name>394</name>
</trkpt>
<trkpt lat="49.588795" lon="8.728880">
<ele>211.5</ele>
<speed>0.4</speed>
<course>171.9</course>
<desc>Speed 0.4 km/h Distance 6.74 km</desc>
<time>2010-07-30T17:39:22.55</time>
<name>395</name>
</trkpt>
<trkpt lat="49.588785" lon="8.728882">
<ele>213.0</ele>
<speed>4.6</speed>
<course>14.9</course>
<desc>Speed 4.6 km/h Distance 6.74 km</desc>
<time>2010-07-30T17:39:23.54</time>
<name>396</name>
</trkpt>
<trkpt lat="49.588793" lon="8.728885">
<ele>212.5</ele>
<speed>3.0</speed>
<course>12.6</course>
<desc>Speed 3.0 km/h Distance 6.74 km</desc>
<time>2010-07-30T17:39:24.54</time>
<name>397</name>
</trkpt>
<trkpt lat="49.588797" lon="8.728885">
<ele>212.0</ele>
<speed>0.4</speed>
<course>12.6</course>
<desc>Speed 0.4 km/h Distance 6.74 km</desc>
<time>2010-07-30T17:39:25.54</time>
<name>398</name>
</trkpt>
<trkpt lat="49.588800" lon="8.728885">
<ele>211.5</ele>
<speed>0.3</speed>
<course>90.0</course>
<desc>Speed 0.3 km/h Distance 6.74 km</desc>
<time>2010-07-30T17:39:26.54</time>
<name>399</name>
</trkpt>
<trkpt lat="49.588800" lon="8.728887">
<ele>211.5</ele>
<speed>0.3</speed>
<course>12.6</course>
<desc>Speed 0.3 km/h Distance 6.74 km</desc>
<time>2010-07-30T17:39:27.55</time>
<name>400</name>
</trkpt>
<trkpt lat="49.588802" lon="8.728887">
<ele>211.0</ele>
<speed>0.1</speed>
<course>12.6</course>
<desc>Speed 0.1 km/h Distance 6.74 km</desc>
<time>2010-07-30T17:39:28.54</time>
<name>401</name>
</trkpt>
<trkpt lat="49.588803" lon="8.728887">
<ele>211.0</ele>
<speed>0.1</speed>
<course>0.0</course>
<desc>Speed 0.1 km/h Distance 6.74 km</desc>
<time>2010-07-30T17:39:29.54</time>
<name>402</name>
</trkpt>
<trkpt lat="49.588805" lon="8.728887">
<ele>210.5</ele>
<speed>0.5</speed>
<course>12.6</course>
<desc>Speed 0.5 km/h Distance 6.74 km</desc>
<time>2010-07-30T17:39:30.54</time>
<name>403</name>
</trkpt>
<trkpt lat="49.588807" lon="8.728887">
<ele>210.0</ele>
<speed>0.3</speed>
<course>270.0</course>
<desc>Speed 0.3 km/h Distance 6.74 km</desc>
<time>2010-07-30T17:39:31.54</time>
<name>404</name>
</trkpt>
<trkpt lat="49.588807" lon="8.728885">
<ele>210.0</ele>
<speed>0.3</speed>
<course>270.0</course>
<desc>Speed 0.3 km/h Distance 6.74 km</desc>
<time>2010-07-30T17:39:32.54</time>
<name>405</name>
</trkpt>
<trkpt lat="49.588807" lon="8.728883">
<ele>209.5</ele>
<speed>0.1</speed>
<course>7.7</course>
<desc>Speed 0.1 km/h Distance 6.74 km</desc>
<time>2010-07-30T17:39:33.54</time>
<name>406</name>
</trkpt>
<trkpt lat="49.588815" lon="8.728885">
<ele>209.5</ele>
<speed>2.9</speed>
<course>16.3</course>
<desc>Speed 2.9 km/h Distance 6.74 km</desc>
<time>2010-07-30T17:39:34.54</time>
<name>407</name>
</trkpt>
<trkpt lat="49.588955" lon="8.728948">
<ele>210.5</ele>
<speed>24.2</speed>
<course>10.5</course>
<desc>Speed 24.2 km/h Distance 6.76 km</desc>
<time>2010-07-30T17:39:37.54</time>
<name>408</name>
</trkpt>
<trkpt lat="49.589025" lon="8.728968">
<ele>210.0</ele>
<speed>27.8</speed>
<course>11.9</course>
<desc>Speed 27.8 km/h Distance 6.77 km</desc>
<time>2010-07-30T17:39:38.53</time>
<name>409</name>
</trkpt>
<trkpt lat="49.589097" lon="8.728992">
<ele>209.5</ele>
<speed>29.8</speed>
<course>10.7</course>
<desc>Speed 29.8 km/h Distance 6.77 km</desc>
<time>2010-07-30T17:39:39.53</time>
<name>410</name>
</trkpt>
<trkpt lat="49.589177" lon="8.729015">
<ele>209.5</ele>
<speed>32.9</speed>
<course>7.9</course>
<desc>Speed 32.9 km/h Distance 6.78 km</desc>
<time>2010-07-30T17:39:40.53</time>
<name>411</name>
</trkpt>
<trkpt lat="49.589262" lon="8.729033">
<ele>209.5</ele>
<speed>35.2</speed>
<course>6.5</course>
<desc>Speed 35.2 km/h Distance 6.79 km</desc>
<time>2010-07-30T17:39:41.53</time>
<name>412</name>
</trkpt>
<trkpt lat="49.589357" lon="8.729050">
<ele>209.5</ele>
<speed>38.4</speed>
<course>3.7</course>
<desc>Speed 38.4 km/h Distance 6.80 km</desc>
<time>2010-07-30T17:39:42.53</time>
<name>413</name>
</trkpt>
<trkpt lat="49.589457" lon="8.729060">
<ele>209.5</ele>
<speed>41.0</speed>
<course>357.0</course>
<desc>Speed 41.0 km/h Distance 6.81 km</desc>
<time>2010-07-30T17:39:43.52</time>
<name>414</name>
</trkpt>
<trkpt lat="49.589708" lon="8.729040">
<ele>210.5</ele>
<speed>52.6</speed>
<course>351.7</course>
<desc>Speed 52.6 km/h Distance 6.84 km</desc>
<time>2010-07-30T17:39:45.52</time>
<name>415</name>
</trkpt>
<trkpt lat="49.589835" lon="8.729012">
<ele>210.5</ele>
<speed>51.0</speed>
<course>351.3</course>
<desc>Speed 51.0 km/h Distance 6.86 km</desc>
<time>2010-07-30T17:39:46.53</time>
<name>416</name>
</trkpt>
<trkpt lat="49.589962" lon="8.728982">
<ele>210.5</ele>
<speed>52.1</speed>
<course>351.1</course>
<desc>Speed 52.1 km/h Distance 6.87 km</desc>
<time>2010-07-30T17:39:47.52</time>
<name>417</name>
</trkpt>
<trkpt lat="49.590093" lon="8.728950">
<ele>210.0</ele>
<speed>52.9</speed>
<course>350.7</course>
<desc>Speed 52.9 km/h Distance 6.89 km</desc>
<time>2010-07-30T17:39:48.52</time>
<name>418</name>
</trkpt>
<trkpt lat="49.590225" lon="8.728917">
<ele>210.0</ele>
<speed>53.5</speed>
<course>351.5</course>
<desc>Speed 53.5 km/h Distance 6.90 km</desc>
<time>2010-07-30T17:39:49.52</time>
<name>419</name>
</trkpt>
<trkpt lat="49.590355" lon="8.728887">
<ele>210.0</ele>
<speed>52.3</speed>
<course>351.9</course>
<desc>Speed 52.3 km/h Distance 6.92 km</desc>
<time>2010-07-30T17:39:50.53</time>
<name>420</name>
</trkpt>
<trkpt lat="49.590483" lon="8.728858">
<ele>210.0</ele>
<speed>51.9</speed>
<course>354.8</course>
<desc>Speed 51.9 km/h Distance 6.93 km</desc>
<time>2010-07-30T17:39:51.52</time>
<name>421</name>
</trkpt>
<trkpt lat="49.590613" lon="8.728840">
<ele>210.0</ele>
<speed>52.1</speed>
<course>3.8</course>
<desc>Speed 52.1 km/h Distance 6.94 km</desc>
<time>2010-07-30T17:39:52.53</time>
<name>422</name>
</trkpt>
<trkpt lat="49.590743" lon="8.728853">
<ele>210.0</ele>
<speed>52.2</speed>
<course>9.0</course>
<desc>Speed 52.2 km/h Distance 6.96 km</desc>
<time>2010-07-30T17:39:53.52</time>
<name>423</name>
</trkpt>
<trkpt lat="49.590867" lon="8.728883">
<ele>209.0</ele>
<speed>50.0</speed>
<course>24.0</course>
<desc>Speed 50.0 km/h Distance 6.97 km</desc>
<time>2010-07-30T17:39:54.52</time>
<name>424</name>
</trkpt>
<trkpt lat="49.590995" lon="8.728972">
<ele>209.0</ele>
<speed>55.9</speed>
<course>20.9</course>
<desc>Speed 55.9 km/h Distance 6.99 km</desc>
<time>2010-07-30T17:39:55.52</time>
<name>425</name>
</trkpt>
<trkpt lat="49.591125" lon="8.729048">
<ele>208.0</ele>
<speed>55.2</speed>
<course>29.2</course>
<desc>Speed 55.2 km/h Distance 7.00 km</desc>
<time>2010-07-30T17:39:56.52</time>
<name>426</name>
</trkpt>
<trkpt lat="49.591245" lon="8.729152">
<ele>208.0</ele>
<speed>54.6</speed>
<course>29.0</course>
<desc>Speed 54.6 km/h Distance 7.02 km</desc>
<time>2010-07-30T17:39:57.52</time>
<name>427</name>
</trkpt>
<trkpt lat="49.591360" lon="8.729250">
<ele>208.0</ele>
<speed>51.9</speed>
<course>27.9</course>
<desc>Speed 51.9 km/h Distance 7.03 km</desc>
<time>2010-07-30T17:39:58.52</time>
<name>428</name>
</trkpt>
<trkpt lat="49.591470" lon="8.729340">
<ele>208.0</ele>
<speed>48.9</speed>
<course>28.2</course>
<desc>Speed 48.9 km/h Distance 7.05 km</desc>
<time>2010-07-30T17:39:59.52</time>
<name>429</name>
</trkpt>
<trkpt lat="49.591577" lon="8.729428">
<ele>208.0</ele>
<speed>47.8</speed>
<course>29.1</course>
<desc>Speed 47.8 km/h Distance 7.06 km</desc>
<time>2010-07-30T17:40:00.52</time>
<name>430</name>
</trkpt>
<trkpt lat="49.591683" lon="8.729520">
<ele>208.5</ele>
<speed>48.6</speed>
<course>28.8</course>
<desc>Speed 48.6 km/h Distance 7.07 km</desc>
<time>2010-07-30T17:40:01.51</time>
<name>431</name>
</trkpt>
<trkpt lat="49.591793" lon="8.729613">
<ele>209.0</ele>
<speed>49.6</speed>
<course>29.2</course>
<desc>Speed 49.6 km/h Distance 7.09 km</desc>
<time>2010-07-30T17:40:02.51</time>
<name>432</name>
</trkpt>
<trkpt lat="49.591903" lon="8.729708">
<ele>209.0</ele>
<speed>50.1</speed>
<course>29.6</course>
<desc>Speed 50.1 km/h Distance 7.10 km</desc>
<time>2010-07-30T17:40:03.51</time>
<name>433</name>
</trkpt>
<trkpt lat="49.592012" lon="8.729803">
<ele>209.0</ele>
<speed>49.8</speed>
<course>28.7</course>
<desc>Speed 49.8 km/h Distance 7.12 km</desc>
<time>2010-07-30T17:40:04.51</time>
<name>434</name>
</trkpt>
<trkpt lat="49.592120" lon="8.729895">
<ele>209.5</ele>
<speed>49.1</speed>
<course>28.7</course>
<desc>Speed 49.1 km/h Distance 7.13 km</desc>
<time>2010-07-30T17:40:05.51</time>
<name>435</name>
</trkpt>
<trkpt lat="49.592227" lon="8.729985">
<ele>209.5</ele>
<speed>48.7</speed>
<course>27.9</course>
<desc>Speed 48.7 km/h Distance 7.14 km</desc>
<time>2010-07-30T17:40:06.51</time>
<name>436</name>
</trkpt>
<trkpt lat="49.592335" lon="8.730073">
<ele>210.0</ele>
<speed>48.2</speed>
<course>28.1</course>
<desc>Speed 48.2 km/h Distance 7.16 km</desc>
<time>2010-07-30T17:40:07.51</time>
<name>437</name>
</trkpt>
<trkpt lat="49.592438" lon="8.730158">
<ele>210.5</ele>
<speed>46.7</speed>
<course>27.5</course>
<desc>Speed 46.7 km/h Distance 7.17 km</desc>
<time>2010-07-30T17:40:08.51</time>
<name>438</name>
</trkpt>
<trkpt lat="49.592540" lon="8.730240">
<ele>210.5</ele>
<speed>45.3</speed>
<course>27.8</course>
<desc>Speed 45.3 km/h Distance 7.18 km</desc>
<time>2010-07-30T17:40:09.51</time>
<name>439</name>
</trkpt>
<trkpt lat="49.592638" lon="8.730320">
<ele>210.5</ele>
<speed>44.3</speed>
<course>28.7</course>
<desc>Speed 44.3 km/h Distance 7.20 km</desc>
<time>2010-07-30T17:40:10.53</time>
<name>440</name>
</trkpt>
<trkpt lat="49.592735" lon="8.730402">
<ele>210.5</ele>
<speed>43.0</speed>
<course>28.6</course>
<desc>Speed 43.0 km/h Distance 7.21 km</desc>
<time>2010-07-30T17:40:11.51</time>
<name>441</name>
</trkpt>
<trkpt lat="49.592830" lon="8.730482">
<ele>210.5</ele>
<speed>42.5</speed>
<course>27.1</course>
<desc>Speed 42.5 km/h Distance 7.22 km</desc>
<time>2010-07-30T17:40:12.51</time>
<name>442</name>
</trkpt>
<trkpt lat="49.592925" lon="8.730557">
<ele>210.0</ele>
<speed>41.8</speed>
<course>23.4</course>
<desc>Speed 41.8 km/h Distance 7.23 km</desc>
<time>2010-07-30T17:40:13.51</time>
<name>443</name>
</trkpt>
<trkpt lat="49.593020" lon="8.730620">
<ele>210.0</ele>
<speed>40.9</speed>
<course>3.3</course>
<desc>Speed 40.9 km/h Distance 7.24 km</desc>
<time>2010-07-30T17:40:14.52</time>
<name>444</name>
</trkpt>
<trkpt lat="49.593130" lon="8.730630">
<ele>208.0</ele>
<speed>43.9</speed>
<course>2.5</course>
<desc>Speed 43.9 km/h Distance 7.26 km</desc>
<time>2010-07-30T17:40:15.51</time>
<name>445</name>
</trkpt>
<trkpt lat="49.593253" lon="8.730638">
<ele>208.0</ele>
<speed>48.8</speed>
<course>345.6</course>
<desc>Speed 48.8 km/h Distance 7.27 km</desc>
<time>2010-07-30T17:40:16.51</time>
<name>446</name>
</trkpt>
<trkpt lat="49.593375" lon="8.730590">
<ele>208.0</ele>
<speed>50.1</speed>
<course>332.0</course>
<desc>Speed 50.1 km/h Distance 7.28 km</desc>
<time>2010-07-30T17:40:17.52</time>
<name>447</name>
</trkpt>
<trkpt lat="49.593623" lon="8.730387">
<ele>209.0</ele>
<speed>52.4</speed>
<course>328.3</course>
<desc>Speed 52.4 km/h Distance 7.31 km</desc>
<time>2010-07-30T17:40:19.52</time>
<name>448</name>
</trkpt>
<trkpt lat="49.593728" lon="8.730287">
<ele>209.0</ele>
<speed>49.0</speed>
<course>329.8</course>
<desc>Speed 49.0 km/h Distance 7.33 km</desc>
<time>2010-07-30T17:40:20.51</time>
<name>449</name>
</trkpt>
<trkpt lat="49.593825" lon="8.730200">
<ele>208.5</ele>
<speed>44.4</speed>
<course>345.9</course>
<desc>Speed 44.4 km/h Distance 7.34 km</desc>
<time>2010-07-30T17:40:21.50</time>
<name>450</name>
</trkpt>
<trkpt lat="49.593937" lon="8.730157">
<ele>209.0</ele>
<speed>46.7</speed>
<course>342.7</course>
<desc>Speed 46.7 km/h Distance 7.35 km</desc>
<time>2010-07-30T17:40:22.50</time>
<name>451</name>
</trkpt>
<trkpt lat="49.594152" lon="8.730053">
<ele>209.0</ele>
<speed>29.2</speed>
<course>353.0</course>
<desc>Speed 29.2 km/h Distance 7.38 km</desc>
<time>2010-07-30T17:40:25.51</time>
<name>452</name>
</trkpt>
<trkpt lat="49.594213" lon="8.730042">
<ele>209.0</ele>
<speed>25.3</speed>
<course>352.2</course>
<desc>Speed 25.3 km/h Distance 7.39 km</desc>
<time>2010-07-30T17:40:26.51</time>
<name>453</name>
</trkpt>
<trkpt lat="49.594268" lon="8.730030">
<ele>209.0</ele>
<speed>23.5</speed>
<course>353.1</course>
<desc>Speed 23.5 km/h Distance 7.39 km</desc>
<time>2010-07-30T17:40:27.52</time>
<name>454</name>
</trkpt>
<trkpt lat="49.594322" lon="8.730020">
<ele>209.0</ele>
<speed>21.9</speed>
<course>357.7</course>
<desc>Speed 21.9 km/h Distance 7.40 km</desc>
<time>2010-07-30T17:40:28.51</time>
<name>455</name>
</trkpt>
<trkpt lat="49.594373" lon="8.730017">
<ele>209.0</ele>
<speed>21.3</speed>
<course>354.8</course>
<desc>Speed 21.3 km/h Distance 7.40 km</desc>
<time>2010-07-30T17:40:29.50</time>
<name>456</name>
</trkpt>
<trkpt lat="49.594422" lon="8.730010">
<ele>209.0</ele>
<speed>20.0</speed>
<course>2.5</course>
<desc>Speed 20.0 km/h Distance 7.41 km</desc>
<time>2010-07-30T17:40:30.50</time>
<name>457</name>
</trkpt>
<trkpt lat="49.594477" lon="8.730013">
<ele>209.0</ele>
<speed>22.9</speed>
<course>11.9</course>
<desc>Speed 22.9 km/h Distance 7.42 km</desc>
<time>2010-07-30T17:40:31.50</time>
<name>458</name>
</trkpt>
<trkpt lat="49.594533" lon="8.730032">
<ele>209.0</ele>
<speed>24.4</speed>
<course>16.5</course>
<desc>Speed 24.4 km/h Distance 7.42 km</desc>
<time>2010-07-30T17:40:32.50</time>
<name>459</name>
</trkpt>
<trkpt lat="49.594592" lon="8.730058">
<ele>209.0</ele>
<speed>25.5</speed>
<course>19.8</course>
<desc>Speed 25.5 km/h Distance 7.43 km</desc>
<time>2010-07-30T17:40:33.50</time>
<name>460</name>
</trkpt>
<trkpt lat="49.594652" lon="8.730092">
<ele>209.5</ele>
<speed>25.8</speed>
<course>25.9</course>
<desc>Speed 25.8 km/h Distance 7.44 km</desc>
<time>2010-07-30T17:40:34.50</time>
<name>461</name>
</trkpt>
<trkpt lat="49.594712" lon="8.730137">
<ele>209.5</ele>
<speed>27.9</speed>
<course>28.6</course>
<desc>Speed 27.9 km/h Distance 7.44 km</desc>
<time>2010-07-30T17:40:35.49</time>
<name>462</name>
</trkpt>
<trkpt lat="49.594775" lon="8.730190">
<ele>210.0</ele>
<speed>29.6</speed>
<course>31.6</course>
<desc>Speed 29.6 km/h Distance 7.45 km</desc>
<time>2010-07-30T17:40:36.50</time>
<name>463</name>
</trkpt>
<trkpt lat="49.594840" lon="8.730252">
<ele>210.5</ele>
<speed>31.6</speed>
<course>36.9</course>
<desc>Speed 31.6 km/h Distance 7.46 km</desc>
<time>2010-07-30T17:40:37.49</time>
<name>464</name>
</trkpt>
<trkpt lat="49.594903" lon="8.730325">
<ele>211.0</ele>
<speed>32.4</speed>
<course>40.2</course>
<desc>Speed 32.4 km/h Distance 7.47 km</desc>
<time>2010-07-30T17:40:38.50</time>
<name>465</name>
</trkpt>
<trkpt lat="49.594963" lon="8.730403">
<ele>211.0</ele>
<speed>31.2</speed>
<course>39.8</course>
<desc>Speed 31.2 km/h Distance 7.48 km</desc>
<time>2010-07-30T17:40:39.49</time>
<name>466</name>
</trkpt>
<trkpt lat="49.595022" lon="8.730478">
<ele>211.0</ele>
<speed>30.5</speed>
<course>65.1</course>
<desc>Speed 30.5 km/h Distance 7.49 km</desc>
<time>2010-07-30T17:40:40.49</time>
<name>467</name>
</trkpt>
<trkpt lat="49.595063" lon="8.730617">
<ele>211.0</ele>
<speed>17.8</speed>
<course>68.9</course>
<desc>Speed 17.8 km/h Distance 7.50 km</desc>
<time>2010-07-30T17:40:42.49</time>
<name>468</name>
</trkpt>
<trkpt lat="49.595078" lon="8.730677">
<ele>211.0</ele>
<speed>17.0</speed>
<course>61.3</course>
<desc>Speed 17.0 km/h Distance 7.50 km</desc>
<time>2010-07-30T17:40:43.49</time>
<name>469</name>
</trkpt>
<trkpt lat="49.595097" lon="8.730728">
<ele>211.0</ele>
<speed>15.2</speed>
<course>55.8</course>
<desc>Speed 15.2 km/h Distance 7.51 km</desc>
<time>2010-07-30T17:40:44.49</time>
<name>470</name>
</trkpt>
<trkpt lat="49.595115" lon="8.730770">
<ele>211.0</ele>
<speed>12.9</speed>
<course>46.3</course>
<desc>Speed 12.9 km/h Distance 7.51 km</desc>
<time>2010-07-30T17:40:45.49</time>
<name>471</name>
</trkpt>
<trkpt lat="49.595137" lon="8.730805">
<ele>211.0</ele>
<speed>12.7</speed>
<course>46.8</course>
<desc>Speed 12.7 km/h Distance 7.51 km</desc>
<time>2010-07-30T17:40:46.49</time>
<name>472</name>
</trkpt>
<trkpt lat="49.595160" lon="8.730843">
<ele>211.0</ele>
<speed>13.8</speed>
<course>45.8</course>
<desc>Speed 13.8 km/h Distance 7.52 km</desc>
<time>2010-07-30T17:40:47.49</time>
<name>473</name>
</trkpt>
<trkpt lat="49.595180" lon="8.730875">
<ele>211.0</ele>
<speed>11.3</speed>
<course>39.8</course>
<desc>Speed 11.3 km/h Distance 7.52 km</desc>
<time>2010-07-30T17:40:48.49</time>
<name>474</name>
</trkpt>
<trkpt lat="49.595203" lon="8.730905">
<ele>211.0</ele>
<speed>11.8</speed>
<course>65.6</course>
<desc>Speed 11.8 km/h Distance 7.52 km</desc>
<time>2010-07-30T17:40:49.50</time>
<name>475</name>
</trkpt>
<trkpt lat="49.595212" lon="8.730933">
<ele>211.0</ele>
<speed>7.3</speed>
<course>40.3</course>
<desc>Speed 7.3 km/h Distance 7.53 km</desc>
<time>2010-07-30T17:40:50.49</time>
<name>476</name>
</trkpt>
<trkpt lat="49.595233" lon="8.730962">
<ele>211.0</ele>
<speed>10.2</speed>
<course>24.0</course>
<desc>Speed 10.2 km/h Distance 7.53 km</desc>
<time>2010-07-30T17:40:51.49</time>
<name>477</name>
</trkpt>
<trkpt lat="49.595425" lon="8.731093">
<ele>210.5</ele>
<speed>29.7</speed>
<course>19.3</course>
<desc>Speed 29.7 km/h Distance 7.55 km</desc>
<time>2010-07-30T17:40:54.48</time>
<name>478</name>
</trkpt>
<trkpt lat="49.595508" lon="8.731138">
<ele>210.5</ele>
<speed>35.5</speed>
<course>10.0</course>
<desc>Speed 35.5 km/h Distance 7.56 km</desc>
<time>2010-07-30T17:40:55.48</time>
<name>479</name>
</trkpt>
<trkpt lat="49.595607" lon="8.731165">
<ele>210.5</ele>
<speed>38.9</speed>
<course>8.1</course>
<desc>Speed 38.9 km/h Distance 7.57 km</desc>
<time>2010-07-30T17:40:56.49</time>
<name>480</name>
</trkpt>
<trkpt lat="49.595705" lon="8.731187">
<ele>210.0</ele>
<speed>39.6</speed>
<course>3.5</course>
<desc>Speed 39.6 km/h Distance 7.58 km</desc>
<time>2010-07-30T17:40:57.49</time>
<name>481</name>
</trkpt>
<trkpt lat="49.595810" lon="8.731197">
<ele>210.0</ele>
<speed>41.6</speed>
<course>3.0</course>
<desc>Speed 41.6 km/h Distance 7.60 km</desc>
<time>2010-07-30T17:40:58.49</time>
<name>482</name>
</trkpt>
<trkpt lat="49.595913" lon="8.731205">
<ele>210.0</ele>
<speed>41.3</speed>
<course>3.2</course>
<desc>Speed 41.3 km/h Distance 7.61 km</desc>
<time>2010-07-30T17:40:59.49</time>
<name>483</name>
</trkpt>
<trkpt lat="49.596012" lon="8.731213">
<ele>210.0</ele>
<speed>38.8</speed>
<course>4.0</course>
<desc>Speed 38.8 km/h Distance 7.62 km</desc>
<time>2010-07-30T17:41:00.48</time>
<name>484</name>
</trkpt>
<trkpt lat="49.596105" lon="8.731223">
<ele>210.0</ele>
<speed>37.3</speed>
<course>6.8</course>
<desc>Speed 37.3 km/h Distance 7.63 km</desc>
<time>2010-07-30T17:41:01.48</time>
<name>485</name>
</trkpt>
<trkpt lat="49.596195" lon="8.731240">
<ele>210.0</ele>
<speed>35.9</speed>
<course>12.0</course>
<desc>Speed 35.9 km/h Distance 7.64 km</desc>
<time>2010-07-30T17:41:02.48</time>
<name>486</name>
</trkpt>
<trkpt lat="49.596277" lon="8.731267">
<ele>210.0</ele>
<speed>32.0</speed>
<course>16.2</course>
<desc>Speed 32.0 km/h Distance 7.65 km</desc>
<time>2010-07-30T17:41:03.48</time>
<name>487</name>
</trkpt>
<trkpt lat="49.596340" lon="8.731295">
<ele>209.0</ele>
<speed>25.2</speed>
<course>20.0</course>
<desc>Speed 25.2 km/h Distance 7.65 km</desc>
<time>2010-07-30T17:41:04.47</time>
<name>488</name>
</trkpt>
<trkpt lat="49.596393" lon="8.731325">
<ele>209.0</ele>
<speed>21.4</speed>
<course>18.6</course>
<desc>Speed 21.4 km/h Distance 7.66 km</desc>
<time>2010-07-30T17:41:05.47</time>
<name>489</name>
</trkpt>
<trkpt lat="49.596438" lon="8.731348">
<ele>209.5</ele>
<speed>17.4</speed>
<course>18.6</course>
<desc>Speed 17.4 km/h Distance 7.67 km</desc>
<time>2010-07-30T17:41:06.47</time>
<name>490</name>
</trkpt>
<trkpt lat="49.596480" lon="8.731370">
<ele>209.5</ele>
<speed>16.4</speed>
<course>20.9</course>
<desc>Speed 16.4 km/h Distance 7.67 km</desc>
<time>2010-07-30T17:41:07.48</time>
<name>491</name>
</trkpt>
<trkpt lat="49.596517" lon="8.731392">
<ele>209.5</ele>
<speed>15.9</speed>
<course>10.1</course>
<desc>Speed 15.9 km/h Distance 7.68 km</desc>
<time>2010-07-30T17:41:08.48</time>
<name>492</name>
</trkpt>
<trkpt lat="49.596638" lon="8.731425">
<ele>210.0</ele>
<speed>24.3</speed>
<course>13.1</course>
<desc>Speed 24.3 km/h Distance 7.69 km</desc>
<time>2010-07-30T17:41:10.48</time>
<name>493</name>
</trkpt>
<trkpt lat="49.596703" lon="8.731448">
<ele>210.0</ele>
<speed>26.6</speed>
<course>18.0</course>
<desc>Speed 26.6 km/h Distance 7.70 km</desc>
<time>2010-07-30T17:41:11.48</time>
<name>494</name>
</trkpt>
<trkpt lat="49.596767" lon="8.731480">
<ele>210.0</ele>
<speed>26.5</speed>
<course>18.5</course>
<desc>Speed 26.5 km/h Distance 7.70 km</desc>
<time>2010-07-30T17:41:12.48</time>
<name>495</name>
</trkpt>
<trkpt lat="49.596822" lon="8.731508">
<ele>210.0</ele>
<speed>22.8</speed>
<course>19.2</course>
<desc>Speed 22.8 km/h Distance 7.71 km</desc>
<time>2010-07-30T17:41:13.47</time>
<name>496</name>
</trkpt>
<trkpt lat="49.596868" lon="8.731533">
<ele>210.5</ele>
<speed>19.3</speed>
<course>18.6</course>
<desc>Speed 19.3 km/h Distance 7.72 km</desc>
<time>2010-07-30T17:41:14.48</time>
<name>497</name>
</trkpt>
<trkpt lat="49.596913" lon="8.731557">
<ele>210.5</ele>
<speed>18.8</speed>
<course>20.5</course>
<desc>Speed 18.8 km/h Distance 7.72 km</desc>
<time>2010-07-30T17:41:15.47</time>
<name>498</name>
</trkpt>
<trkpt lat="49.596957" lon="8.731582">
<ele>210.5</ele>
<speed>17.9</speed>
<course>14.9</course>
<desc>Speed 17.9 km/h Distance 7.73 km</desc>
<time>2010-07-30T17:41:16.47</time>
<name>499</name>
</trkpt>
<trkpt lat="49.597013" lon="8.731605">
<ele>212.5</ele>
<speed>23.7</speed>
<course>13.1</course>
<desc>Speed 23.7 km/h Distance 7.73 km</desc>
<time>2010-07-30T17:41:17.48</time>
<name>500</name>
</trkpt>
<trkpt lat="49.597073" lon="8.731627">
<ele>213.0</ele>
<speed>14.0</speed>
<course>19.4</course>
<desc>Speed 14.0 km/h Distance 7.74 km</desc>
<time>2010-07-30T17:41:19.47</time>
<name>501</name>
</trkpt>
<trkpt lat="49.597092" lon="8.731637">
<ele>213.0</ele>
<speed>8.9</speed>
<course>17.5</course>
<desc>Speed 8.9 km/h Distance 7.74 km</desc>
<time>2010-07-30T17:41:20.47</time>
<name>502</name>
</trkpt>
<trkpt lat="49.597105" lon="8.731643">
<ele>213.5</ele>
<speed>8.3</speed>
<course>14.3</course>
<desc>Speed 8.3 km/h Distance 7.74 km</desc>
<time>2010-07-30T17:41:21.47</time>
<name>503</name>
</trkpt>
<trkpt lat="49.597122" lon="8.731650">
<ele>214.0</ele>
<speed>10.7</speed>
<course>32.9</course>
<desc>Speed 10.7 km/h Distance 7.75 km</desc>
<time>2010-07-30T17:41:22.47</time>
<name>504</name>
</trkpt>
<trkpt lat="49.597145" lon="8.731673">
<ele>214.5</ele>
<speed>11.3</speed>
<course>28.1</course>
<desc>Speed 11.3 km/h Distance 7.75 km</desc>
<time>2010-07-30T17:41:24.47</time>
<name>505</name>
</trkpt>
<trkpt lat="49.597173" lon="8.731697">
<ele>214.5</ele>
<speed>13.6</speed>
<course>29.7</course>
<desc>Speed 13.6 km/h Distance 7.75 km</desc>
<time>2010-07-30T17:41:25.47</time>
<name>506</name>
</trkpt>
<trkpt lat="49.597202" lon="8.731722">
<ele>214.5</ele>
<speed>13.3</speed>
<course>34.8</course>
<desc>Speed 13.3 km/h Distance 7.76 km</desc>
<time>2010-07-30T17:41:26.47</time>
<name>507</name>
</trkpt>
<trkpt lat="49.597225" lon="8.731747">
<ele>215.0</ele>
<speed>11.6</speed>
<course>37.9</course>
<desc>Speed 11.6 km/h Distance 7.76 km</desc>
<time>2010-07-30T17:41:27.47</time>
<name>508</name>
</trkpt>
<trkpt lat="49.597242" lon="8.731767">
<ele>215.0</ele>
<speed>8.1</speed>
<course>156.2</course>
<desc>Speed 8.1 km/h Distance 7.76 km</desc>
<time>2010-07-30T17:41:28.46</time>
<name>509</name>
</trkpt>
<trkpt lat="49.597237" lon="8.731770">
<ele>215.0</ele>
<speed>2.7</speed>
<course>29.2</course>
<desc>Speed 2.7 km/h Distance 7.76 km</desc>
<time>2010-07-30T17:41:29.46</time>
<name>510</name>
</trkpt>
<trkpt lat="49.597238" lon="8.731772">
<ele>214.5</ele>
<speed>0.3</speed>
<course>25.4</course>
<desc>Speed 0.3 km/h Distance 7.76 km</desc>
<time>2010-07-30T17:41:30.47</time>
<name>511</name>
</trkpt>
<trkpt lat="49.597243" lon="8.731775">
<ele>214.5</ele>
<speed>0.5</speed>
<course>22.2</course>
<desc>Speed 0.5 km/h Distance 7.76 km</desc>
<time>2010-07-30T17:41:31.47</time>
<name>512</name>
</trkpt>
<trkpt lat="49.597248" lon="8.731778">
<ele>214.5</ele>
<speed>0.7</speed>
<course>25.6</course>
<desc>Speed 0.7 km/h Distance 7.76 km</desc>
<time>2010-07-30T17:41:32.47</time>
<name>513</name>
</trkpt>
<trkpt lat="49.597262" lon="8.731788">
<ele>214.5</ele>
<speed>2.3</speed>
<course>32.9</course>
<desc>Speed 2.3 km/h Distance 7.77 km</desc>
<time>2010-07-30T17:41:33.47</time>
<name>514</name>
</trkpt>
<trkpt lat="49.597303" lon="8.731830">
<ele>214.0</ele>
<speed>6.6</speed>
<course>32.9</course>
<desc>Speed 6.6 km/h Distance 7.77 km</desc>
<time>2010-07-30T17:41:35.47</time>
<name>515</name>
</trkpt>
<trkpt lat="49.597328" lon="8.731855">
<ele>214.0</ele>
<speed>9.0</speed>
<course>45.2</course>
<desc>Speed 9.0 km/h Distance 7.77 km</desc>
<time>2010-07-30T17:41:36.47</time>
<name>516</name>
</trkpt>
<trkpt lat="49.597343" lon="8.731878">
<ele>214.0</ele>
<speed>7.5</speed>
<course>40.9</course>
<desc>Speed 7.5 km/h Distance 7.78 km</desc>
<time>2010-07-30T17:41:37.47</time>
<name>517</name>
</trkpt>
<trkpt lat="49.597358" lon="8.731898">
<ele>214.0</ele>
<speed>7.6</speed>
<course>43.2</course>
<desc>Speed 7.6 km/h Distance 7.78 km</desc>
<time>2010-07-30T17:41:38.47</time>
<name>518</name>
</trkpt>
<trkpt lat="49.597373" lon="8.731920">
<ele>214.0</ele>
<speed>8.1</speed>
<course>43.5</course>
<desc>Speed 8.1 km/h Distance 7.78 km</desc>
<time>2010-07-30T17:41:39.47</time>
<name>519</name>
</trkpt>
<trkpt lat="49.597438" lon="8.732015">
<ele>214.0</ele>
<speed>16.9</speed>
<course>63.5</course>
<desc>Speed 16.9 km/h Distance 7.79 km</desc>
<time>2010-07-30T17:41:41.47</time>
<name>520</name>
</trkpt>
<trkpt lat="49.597457" lon="8.732072">
<ele>214.5</ele>
<speed>15.5</speed>
<course>59.0</course>
<desc>Speed 15.5 km/h Distance 7.80 km</desc>
<time>2010-07-30T17:41:42.46</time>
<name>521</name>
</trkpt>
<trkpt lat="49.597480" lon="8.732132">
<ele>215.5</ele>
<speed>15.7</speed>
<course>77.2</course>
<desc>Speed 15.7 km/h Distance 7.80 km</desc>
<time>2010-07-30T17:41:43.48</time>
<name>522</name>
</trkpt>
<trkpt lat="49.597488" lon="8.732188">
<ele>216.0</ele>
<speed>14.1</speed>
<course>90.0</course>
<desc>Speed 14.1 km/h Distance 7.80 km</desc>
<time>2010-07-30T17:41:44.45</time>
<name>523</name>
</trkpt>
<trkpt lat="49.597488" lon="8.732250">
<ele>217.0</ele>
<speed>14.6</speed>
<course>102.4</course>
<desc>Speed 14.6 km/h Distance 7.81 km</desc>
<time>2010-07-30T17:41:45.46</time>
<name>524</name>
</trkpt>
<trkpt lat="49.597482" lon="8.732297">
<ele>217.0</ele>
<speed>12.3</speed>
<course>104.9</course>
<desc>Speed 12.3 km/h Distance 7.81 km</desc>
<time>2010-07-30T17:41:46.46</time>
<name>525</name>
</trkpt>
<trkpt lat="49.597473" lon="8.732345">
<ele>217.5</ele>
<speed>12.5</speed>
<course>105.9</course>
<desc>Speed 12.5 km/h Distance 7.82 km</desc>
<time>2010-07-30T17:41:47.46</time>
<name>526</name>
</trkpt>
<trkpt lat="49.597465" lon="8.732390">
<ele>217.5</ele>
<speed>11.9</speed>
<course>105.7</course>
<desc>Speed 11.9 km/h Distance 7.82 km</desc>
<time>2010-07-30T17:41:48.45</time>
<name>527</name>
</trkpt>
<trkpt lat="49.597458" lon="8.732427">
<ele>217.5</ele>
<speed>10.0</speed>
<course>106.4</course>
<desc>Speed 10.0 km/h Distance 7.82 km</desc>
<time>2010-07-30T17:41:49.45</time>
<name>528</name>
</trkpt>
<trkpt lat="49.597452" lon="8.732462">
<ele>217.5</ele>
<speed>8.8</speed>
<course>126.5</course>
<desc>Speed 8.8 km/h Distance 7.83 km</desc>
<time>2010-07-30T17:41:50.45</time>
<name>529</name>
</trkpt>
<trkpt lat="49.597432" lon="8.732503">
<ele>217.5</ele>
<speed>12.0</speed>
<course>53.2</course>
<desc>Speed 12.0 km/h Distance 7.83 km</desc>
<time>2010-07-30T17:41:51.45</time>
<name>530</name>
</trkpt>
<trkpt lat="49.597458" lon="8.732558">
<ele>218.0</ele>
<speed>19.1</speed>
<course>102.4</course>
<desc>Speed 19.1 km/h Distance 7.83 km</desc>
<time>2010-07-30T17:41:52.45</time>
<name>531</name>
</trkpt>
<trkpt lat="49.597448" lon="8.732628">
<ele>218.0</ele>
<speed>18.6</speed>
<course>109.1</course>
<desc>Speed 18.6 km/h Distance 7.84 km</desc>
<time>2010-07-30T17:41:53.45</time>
<name>532</name>
</trkpt>
<trkpt lat="49.597430" lon="8.732710">
<ele>218.0</ele>
<speed>21.8</speed>
<course>107.1</course>
<desc>Speed 21.8 km/h Distance 7.85 km</desc>
<time>2010-07-30T17:41:54.45</time>
<name>533</name>
</trkpt>
<trkpt lat="49.597413" lon="8.732793">
<ele>218.0</ele>
<speed>22.7</speed>
<course>101.5</course>
<desc>Speed 22.7 km/h Distance 7.85 km</desc>
<time>2010-07-30T17:41:55.45</time>
<name>534</name>
</trkpt>
<trkpt lat="49.597402" lon="8.732882">
<ele>218.0</ele>
<speed>23.1</speed>
<course>82.0</course>
<desc>Speed 23.1 km/h Distance 7.86 km</desc>
<time>2010-07-30T17:41:56.45</time>
<name>535</name>
</trkpt>
<trkpt lat="49.597410" lon="8.732973">
<ele>217.5</ele>
<speed>23.4</speed>
<course>90.0</course>
<desc>Speed 23.4 km/h Distance 7.86 km</desc>
<time>2010-07-30T17:41:57.45</time>
<name>536</name>
</trkpt>
<trkpt lat="49.597410" lon="8.733065">
<ele>217.0</ele>
<speed>23.4</speed>
<course>102.2</course>
<desc>Speed 23.4 km/h Distance 7.87 km</desc>
<time>2010-07-30T17:41:58.45</time>
<name>537</name>
</trkpt>
<trkpt lat="49.597398" lon="8.733148">
<ele>217.0</ele>
<speed>22.2</speed>
<course>106.4</course>
<desc>Speed 22.2 km/h Distance 7.88 km</desc>
<time>2010-07-30T17:41:59.44</time>
<name>538</name>
</trkpt>
<trkpt lat="49.597385" lon="8.733218">
<ele>217.0</ele>
<speed>18.6</speed>
<course>108.1</course>
<desc>Speed 18.6 km/h Distance 7.88 km</desc>
<time>2010-07-30T17:42:00.45</time>
<name>539</name>
</trkpt>
<trkpt lat="49.597373" lon="8.733273">
<ele>217.0</ele>
<speed>14.9</speed>
<course>139.2</course>
<desc>Speed 14.9 km/h Distance 7.89 km</desc>
<time>2010-07-30T17:42:01.44</time>
<name>540</name>
</trkpt>
<trkpt lat="49.597353" lon="8.733300">
<ele>217.0</ele>
<speed>9.9</speed>
<course>157.4</course>
<desc>Speed 9.9 km/h Distance 7.89 km</desc>
<time>2010-07-30T17:42:02.45</time>
<name>541</name>
</trkpt>
<trkpt lat="49.597330" lon="8.733315">
<ele>217.5</ele>
<speed>11.9</speed>
<course>21.7</course>
<desc>Speed 11.9 km/h Distance 7.89 km</desc>
<time>2010-07-30T17:42:03.44</time>
<name>542</name>
</trkpt>
<trkpt lat="49.597352" lon="8.733328">
<ele>218.0</ele>
<speed>1.3</speed>
<course>17.6</course>
<desc>Speed 1.3 km/h Distance 7.90 km</desc>
<time>2010-07-30T17:42:05.45</time>
<name>543</name>
</trkpt>
<trkpt lat="49.597362" lon="8.733333">
<ele>218.5</ele>
<speed>0.1</speed>
<course>12.6</course>
<desc>Speed 0.1 km/h Distance 7.90 km</desc>
<time>2010-07-30T17:42:06.45</time>
<name>544</name>
</trkpt>
<trkpt lat="49.597363" lon="8.733335">
<ele>218.5</ele>
<speed>0.4</speed>
<course>0.0</course>
<desc>Speed 0.4 km/h Distance 7.90 km</desc>
<time>2010-07-30T17:42:07.45</time>
<name>545</name>
</trkpt>
<trkpt lat="49.597365" lon="8.733335">
<ele>218.5</ele>
<speed>0.3</speed>
<course>12.6</course>
<desc>Speed 0.3 km/h Distance 7.90 km</desc>
<time>2010-07-30T17:42:08.45</time>
<name>546</name>
</trkpt>
<trkpt lat="49.597368" lon="8.733337">
<ele>218.5</ele>
<speed>0.1</speed>
<course>18.8</course>
<desc>Speed 0.1 km/h Distance 7.90 km</desc>
<time>2010-07-30T17:42:09.46</time>
<name>547</name>
</trkpt>
<trkpt lat="49.597372" lon="8.733338">
<ele>218.5</ele>
<speed>0.2</speed>
<course>12.6</course>
<desc>Speed 0.2 km/h Distance 7.90 km</desc>
<time>2010-07-30T17:42:10.44</time>
<name>548</name>
</trkpt>
<trkpt lat="49.597377" lon="8.733340">
<ele>219.0</ele>
<speed>0.6</speed>
<course>12.6</course>
<desc>Speed 0.6 km/h Distance 7.90 km</desc>
<time>2010-07-30T17:42:11.49</time>
<name>549</name>
</trkpt>
<trkpt lat="49.597382" lon="8.733342">
<ele>219.0</ele>
<speed>0.3</speed>
<course>0.0</course>
<desc>Speed 0.3 km/h Distance 7.90 km</desc>
<time>2010-07-30T17:42:12.46</time>
<name>550</name>
</trkpt>
<trkpt lat="49.597383" lon="8.733342">
<ele>219.0</ele>
<speed>0.1</speed>
<course>12.6</course>
<desc>Speed 0.1 km/h Distance 7.90 km</desc>
<time>2010-07-30T17:42:13.44</time>
<name>551</name>
</trkpt>
<trkpt lat="49.597385" lon="8.733342">
<ele>219.0</ele>
<speed>0.6</speed>
<course>68.9</course>
<desc>Speed 0.6 km/h Distance 7.90 km</desc>
<time>2010-07-30T17:42:14.44</time>
<name>552</name>
</trkpt>
<trkpt lat="49.597388" lon="8.733355">
<ele>219.0</ele>
<speed>3.0</speed>
<course>129.6</course>
<desc>Speed 3.0 km/h Distance 7.90 km</desc>
<time>2010-07-30T17:42:15.43</time>
<name>553</name>
</trkpt>
<trkpt lat="49.597340" lon="8.733445">
<ele>221.0</ele>
<speed>15.7</speed>
<course>101.6</course>
<desc>Speed 15.7 km/h Distance 7.91 km</desc>
<time>2010-07-30T17:42:17.44</time>
<name>554</name>
</trkpt>
<trkpt lat="49.597330" lon="8.733520">
<ele>221.0</ele>
<speed>19.6</speed>
<course>113.0</course>
<desc>Speed 19.6 km/h Distance 7.91 km</desc>
<time>2010-07-30T17:42:18.44</time>
<name>555</name>
</trkpt>
<trkpt lat="49.597307" lon="8.733605">
<ele>221.0</ele>
<speed>24.2</speed>
<course>97.3</course>
<desc>Speed 24.2 km/h Distance 7.92 km</desc>
<time>2010-07-30T17:42:19.43</time>
<name>556</name>
</trkpt>
<trkpt lat="49.597298" lon="8.733705">
<ele>221.5</ele>
<speed>25.6</speed>
<course>99.2</course>
<desc>Speed 25.6 km/h Distance 7.93 km</desc>
<time>2010-07-30T17:42:20.43</time>
<name>557</name>
</trkpt>
<trkpt lat="49.597287" lon="8.733817">
<ele>221.5</ele>
<speed>29.6</speed>
<course>106.2</course>
<desc>Speed 29.6 km/h Distance 7.94 km</desc>
<time>2010-07-30T17:42:21.44</time>
<name>558</name>
</trkpt>
<trkpt lat="49.597265" lon="8.733932">
<ele>221.5</ele>
<speed>32.8</speed>
<course>101.7</course>
<desc>Speed 32.8 km/h Distance 7.94 km</desc>
<time>2010-07-30T17:42:22.43</time>
<name>559</name>
</trkpt>
<trkpt lat="49.597233" lon="8.734168">
<ele>221.5</ele>
<speed>31.5</speed>
<course>105.9</course>
<desc>Speed 31.5 km/h Distance 7.96 km</desc>
<time>2010-07-30T17:42:24.44</time>
<name>560</name>
</trkpt>
<trkpt lat="49.597213" lon="8.734277">
<ele>221.5</ele>
<speed>29.4</speed>
<course>103.2</course>
<desc>Speed 29.4 km/h Distance 7.97 km</desc>
<time>2010-07-30T17:42:25.45</time>
<name>561</name>
</trkpt>
<trkpt lat="49.597197" lon="8.734387">
<ele>221.5</ele>
<speed>29.3</speed>
<course>110.2</course>
<desc>Speed 29.3 km/h Distance 7.98 km</desc>
<time>2010-07-30T17:42:26.45</time>
<name>562</name>
</trkpt>
<trkpt lat="49.597170" lon="8.734498">
<ele>222.0</ele>
<speed>30.6</speed>
<course>98.5</course>
<desc>Speed 30.6 km/h Distance 7.99 km</desc>
<time>2010-07-30T17:42:27.45</time>
<name>563</name>
</trkpt>
<trkpt lat="49.597158" lon="8.734618">
<ele>222.0</ele>
<speed>31.9</speed>
<course>74.6</course>
<desc>Speed 31.9 km/h Distance 8.00 km</desc>
<time>2010-07-30T17:42:28.45</time>
<name>564</name>
</trkpt>
<trkpt lat="49.597183" lon="8.734758">
<ele>224.0</ele>
<speed>33.7</speed>
<course>82.8</course>
<desc>Speed 33.7 km/h Distance 8.01 km</desc>
<time>2010-07-30T17:42:29.46</time>
<name>565</name>
</trkpt>
<trkpt lat="49.597195" lon="8.734902">
<ele>225.5</ele>
<speed>35.5</speed>
<course>101.6</course>
<desc>Speed 35.5 km/h Distance 8.02 km</desc>
<time>2010-07-30T17:42:30.45</time>
<name>566</name>
</trkpt>
<trkpt lat="49.597177" lon="8.735040">
<ele>225.5</ele>
<speed>35.8</speed>
<course>101.1</course>
<desc>Speed 35.8 km/h Distance 8.03 km</desc>
<time>2010-07-30T17:42:31.46</time>
<name>567</name>
</trkpt>
<trkpt lat="49.597160" lon="8.735172">
<ele>225.5</ele>
<speed>34.5</speed>
<course>95.0</course>
<desc>Speed 34.5 km/h Distance 8.04 km</desc>
<time>2010-07-30T17:42:32.45</time>
<name>568</name>
</trkpt>
<trkpt lat="49.597153" lon="8.735288">
<ele>225.0</ele>
<speed>29.0</speed>
<course>96.0</course>
<desc>Speed 29.0 km/h Distance 8.05 km</desc>
<time>2010-07-30T17:42:33.45</time>
<name>569</name>
</trkpt>
<trkpt lat="49.597147" lon="8.735387">
<ele>225.0</ele>
<speed>24.9</speed>
<course>77.9</course>
<desc>Speed 24.9 km/h Distance 8.05 km</desc>
<time>2010-07-30T17:42:34.44</time>
<name>570</name>
</trkpt>
<trkpt lat="49.597163" lon="8.735507">
<ele>225.0</ele>
<speed>15.3</speed>
<course>75.6</course>
<desc>Speed 15.3 km/h Distance 8.06 km</desc>
<time>2010-07-30T17:42:36.45</time>
<name>571</name>
</trkpt>
<trkpt lat="49.597173" lon="8.735567">
<ele>224.5</ele>
<speed>15.1</speed>
<course>66.5</course>
<desc>Speed 15.1 km/h Distance 8.07 km</desc>
<time>2010-07-30T17:42:37.45</time>
<name>572</name>
</trkpt>
<trkpt lat="49.597188" lon="8.735620">
<ele>224.0</ele>
<speed>12.6</speed>
<course>59.6</course>
<desc>Speed 12.6 km/h Distance 8.07 km</desc>
<time>2010-07-30T17:42:38.44</time>
<name>573</name>
</trkpt>
<trkpt lat="49.597202" lon="8.735655">
<ele>223.5</ele>
<speed>9.0</speed>
<course>48.7</course>
<desc>Speed 9.0 km/h Distance 8.07 km</desc>
<time>2010-07-30T17:42:39.45</time>
<name>574</name>
</trkpt>
<trkpt lat="49.597208" lon="8.735667">
<ele>222.5</ele>
<speed>5.0</speed>
<course>61.2</course>
<desc>Speed 5.0 km/h Distance 8.07 km</desc>
<time>2010-07-30T17:42:40.45</time>
<name>575</name>
</trkpt>
<trkpt lat="49.597217" lon="8.735690">
<ele>223.0</ele>
<speed>5.9</speed>
<course>51.9</course>
<desc>Speed 5.9 km/h Distance 8.08 km</desc>
<time>2010-07-30T17:42:41.44</time>
<name>576</name>
</trkpt>
<trkpt lat="49.597218" lon="8.735693">
<ele>221.5</ele>
<speed>1.7</speed>
<course>90.0</course>
<desc>Speed 1.7 km/h Distance 8.08 km</desc>
<time>2010-07-30T17:42:42.45</time>
<name>577</name>
</trkpt>
<trkpt lat="49.597218" lon="8.735695">
<ele>222.0</ele>
<speed>0.4</speed>
<course>47.8</course>
<desc>Speed 0.4 km/h Distance 8.08 km</desc>
<time>2010-07-30T17:42:43.44</time>
<name>578</name>
</trkpt>
<trkpt lat="49.597223" lon="8.735703">
<ele>222.0</ele>
<speed>2.2</speed>
<course>336.7</course>
<desc>Speed 2.2 km/h Distance 8.08 km</desc>
<time>2010-07-30T17:42:44.44</time>
<name>579</name>
</trkpt>
<trkpt lat="49.597238" lon="8.735693">
<ele>222.5</ele>
<speed>8.4</speed>
<course>315.5</course>
<desc>Speed 8.4 km/h Distance 8.08 km</desc>
<time>2010-07-30T17:42:45.44</time>
<name>580</name>
</trkpt>
<trkpt lat="49.597245" lon="8.735683">
<ele>222.5</ele>
<speed>3.6</speed>
<course>97.6</course>
<desc>Speed 3.6 km/h Distance 8.08 km</desc>
<time>2010-07-30T17:42:46.44</time>
<name>581</name>
</trkpt>
<trkpt lat="49.597242" lon="8.735722">
<ele>223.5</ele>
<speed>9.8</speed>
<course>54.5</course>
<desc>Speed 9.8 km/h Distance 8.08 km</desc>
<time>2010-07-30T17:42:47.43</time>
<name>582</name>
</trkpt>
<trkpt lat="49.597262" lon="8.735765">
<ele>223.5</ele>
<speed>13.1</speed>
<course>74.9</course>
<desc>Speed 13.1 km/h Distance 8.09 km</desc>
<time>2010-07-30T17:42:48.43</time>
<name>583</name>
</trkpt>
<trkpt lat="49.597273" lon="8.735832">
<ele>224.0</ele>
<speed>17.4</speed>
<course>79.3</course>
<desc>Speed 17.4 km/h Distance 8.09 km</desc>
<time>2010-07-30T17:42:49.43</time>
<name>584</name>
</trkpt>
<trkpt lat="49.597283" lon="8.735913">
<ele>223.5</ele>
<speed>21.1</speed>
<course>68.0</course>
<desc>Speed 21.1 km/h Distance 8.10 km</desc>
<time>2010-07-30T17:42:50.43</time>
<name>585</name>
</trkpt>
<trkpt lat="49.597302" lon="8.735983">
<ele>223.0</ele>
<speed>19.0</speed>
<course>67.6</course>
<desc>Speed 19.0 km/h Distance 8.10 km</desc>
<time>2010-07-30T17:42:51.43</time>
<name>586</name>
</trkpt>
<trkpt lat="49.597322" lon="8.736058">
<ele>223.5</ele>
<speed>20.7</speed>
<course>57.9</course>
<desc>Speed 20.7 km/h Distance 8.11 km</desc>
<time>2010-07-30T17:42:52.43</time>
<name>587</name>
</trkpt>
<trkpt lat="49.597343" lon="8.736112">
<ele>223.5</ele>
<speed>15.4</speed>
<course>57.7</course>
<desc>Speed 15.4 km/h Distance 8.11 km</desc>
<time>2010-07-30T17:42:53.43</time>
<name>588</name>
</trkpt>
<trkpt lat="49.597358" lon="8.736148">
<ele>221.5</ele>
<speed>10.9</speed>
<course>61.0</course>
<desc>Speed 10.9 km/h Distance 8.12 km</desc>
<time>2010-07-30T17:42:54.44</time>
<name>589</name>
</trkpt>
<trkpt lat="49.597373" lon="8.736190">
<ele>220.5</ele>
<speed>12.2</speed>
<course>62.0</course>
<desc>Speed 12.2 km/h Distance 8.12 km</desc>
<time>2010-07-30T17:42:55.44</time>
<name>590</name>
</trkpt>
<trkpt lat="49.597390" lon="8.736238">
<ele>220.5</ele>
<speed>13.8</speed>
<course>66.1</course>
<desc>Speed 13.8 km/h Distance 8.12 km</desc>
<time>2010-07-30T17:42:56.43</time>
<name>591</name>
</trkpt>
<trkpt lat="49.597442" lon="8.736418">
<ele>221.0</ele>
<speed>25.1</speed>
<course>66.0</course>
<desc>Speed 25.1 km/h Distance 8.14 km</desc>
<time>2010-07-30T17:42:58.43</time>
<name>592</name>
</trkpt>
<trkpt lat="49.597470" lon="8.736517">
<ele>221.0</ele>
<speed>27.6</speed>
<course>68.6</course>
<desc>Speed 27.6 km/h Distance 8.15 km</desc>
<time>2010-07-30T17:42:59.43</time>
<name>593</name>
</trkpt>
<trkpt lat="49.597497" lon="8.736622">
<ele>221.0</ele>
<speed>27.8</speed>
<course>65.4</course>
<desc>Speed 27.8 km/h Distance 8.15 km</desc>
<time>2010-07-30T17:43:00.43</time>
<name>594</name>
</trkpt>
<trkpt lat="49.597528" lon="8.736728">
<ele>221.0</ele>
<speed>29.7</speed>
<course>60.7</course>
<desc>Speed 29.7 km/h Distance 8.16 km</desc>
<time>2010-07-30T17:43:01.43</time>
<name>595</name>
</trkpt>
<trkpt lat="49.597562" lon="8.736820">
<ele>221.0</ele>
<speed>27.4</speed>
<course>55.0</course>
<desc>Speed 27.4 km/h Distance 8.17 km</desc>
<time>2010-07-30T17:43:02.43</time>
<name>596</name>
</trkpt>
<trkpt lat="49.597603" lon="8.736912">
<ele>221.0</ele>
<speed>28.6</speed>
<course>44.5</course>
<desc>Speed 28.6 km/h Distance 8.18 km</desc>
<time>2010-07-30T17:43:03.43</time>
<name>597</name>
</trkpt>
<trkpt lat="49.597658" lon="8.736995">
<ele>221.0</ele>
<speed>30.2</speed>
<course>18.4</course>
<desc>Speed 30.2 km/h Distance 8.19 km</desc>
<time>2010-07-30T17:43:04.42</time>
<name>598</name>
</trkpt>
<trkpt lat="49.597720" lon="8.737027">
<ele>221.0</ele>
<speed>24.5</speed>
<course>18.4</course>
<desc>Speed 24.5 km/h Distance 8.19 km</desc>
<time>2010-07-30T17:43:05.43</time>
<name>599</name>
</trkpt>
<trkpt lat="49.597788" lon="8.737062">
<ele>221.0</ele>
<speed>28.3</speed>
<course>357.7</course>
<desc>Speed 28.3 km/h Distance 8.20 km</desc>
<time>2010-07-30T17:43:06.42</time>
<name>600</name>
</trkpt>
<trkpt lat="49.598117" lon="8.737042">
<ele>221.5</ele>
<speed>38.6</speed>
<course>351.6</course>
<desc>Speed 38.6 km/h Distance 8.24 km</desc>
<time>2010-07-30T17:43:09.42</time>
<name>601</name>
</trkpt>
<trkpt lat="49.598212" lon="8.737020">
<ele>221.5</ele>
<speed>36.7</speed>
<course>354.7</course>
<desc>Speed 36.7 km/h Distance 8.25 km</desc>
<time>2010-07-30T17:43:10.43</time>
<name>602</name>
</trkpt>
<trkpt lat="49.598305" lon="8.737007">
<ele>221.5</ele>
<speed>36.6</speed>
<course>14.2</course>
<desc>Speed 36.6 km/h Distance 8.26 km</desc>
<time>2010-07-30T17:43:11.42</time>
<name>603</name>
</trkpt>
<trkpt lat="49.598382" lon="8.737037">
<ele>223.0</ele>
<speed>30.7</speed>
<course>18.6</course>
<desc>Speed 30.7 km/h Distance 8.27 km</desc>
<time>2010-07-30T17:43:12.42</time>
<name>604</name>
</trkpt>
<trkpt lat="49.598465" lon="8.737080">
<ele>223.0</ele>
<speed>33.8</speed>
<course>31.7</course>
<desc>Speed 33.8 km/h Distance 8.28 km</desc>
<time>2010-07-30T17:43:13.42</time>
<name>605</name>
</trkpt>
<trkpt lat="49.598535" lon="8.737147">
<ele>223.0</ele>
<speed>33.0</speed>
<course>34.9</course>
<desc>Speed 33.0 km/h Distance 8.29 km</desc>
<time>2010-07-30T17:43:14.42</time>
<name>606</name>
</trkpt>
<trkpt lat="49.598600" lon="8.737217">
<ele>223.0</ele>
<speed>31.3</speed>
<course>44.4</course>
<desc>Speed 31.3 km/h Distance 8.30 km</desc>
<time>2010-07-30T17:43:15.42</time>
<name>607</name>
</trkpt>
<trkpt lat="49.598733" lon="8.737418">
<ele>223.0</ele>
<speed>34.7</speed>
<course>54.0</course>
<desc>Speed 34.7 km/h Distance 8.32 km</desc>
<time>2010-07-30T17:43:17.42</time>
<name>608</name>
</trkpt>
<trkpt lat="49.598787" lon="8.737532">
<ele>223.0</ele>
<speed>35.2</speed>
<course>53.2</course>
<desc>Speed 35.2 km/h Distance 8.33 km</desc>
<time>2010-07-30T17:43:18.42</time>
<name>609</name>
</trkpt>
<trkpt lat="49.598843" lon="8.737648">
<ele>223.0</ele>
<speed>37.0</speed>
<course>65.1</course>
<desc>Speed 37.0 km/h Distance 8.34 km</desc>
<time>2010-07-30T17:43:19.42</time>
<name>610</name>
</trkpt>
<trkpt lat="49.598885" lon="8.737787">
<ele>223.0</ele>
<speed>38.9</speed>
<course>65.3</course>
<desc>Speed 38.9 km/h Distance 8.35 km</desc>
<time>2010-07-30T17:43:20.42</time>
<name>611</name>
</trkpt>
<trkpt lat="49.598927" lon="8.737927">
<ele>222.5</ele>
<speed>39.0</speed>
<course>71.8</course>
<desc>Speed 39.0 km/h Distance 8.36 km</desc>
<time>2010-07-30T17:43:21.42</time>
<name>612</name>
</trkpt>
<trkpt lat="49.598958" lon="8.738075">
<ele>222.5</ele>
<speed>39.4</speed>
<course>73.2</course>
<desc>Speed 39.4 km/h Distance 8.37 km</desc>
<time>2010-07-30T17:43:22.42</time>
<name>613</name>
</trkpt>
<trkpt lat="49.598988" lon="8.738228">
<ele>222.5</ele>
<speed>41.0</speed>
<course>73.0</course>
<desc>Speed 41.0 km/h Distance 8.38 km</desc>
<time>2010-07-30T17:43:23.42</time>
<name>614</name>
</trkpt>
<trkpt lat="49.599018" lon="8.738380">
<ele>222.5</ele>
<speed>41.1</speed>
<course>70.3</course>
<desc>Speed 41.1 km/h Distance 8.39 km</desc>
<time>2010-07-30T17:43:24.42</time>
<name>615</name>
</trkpt>
<trkpt lat="49.599055" lon="8.738538">
<ele>222.5</ele>
<speed>43.6</speed>
<course>71.5</course>
<desc>Speed 43.6 km/h Distance 8.41 km</desc>
<time>2010-07-30T17:43:25.41</time>
<name>616</name>
</trkpt>
<trkpt lat="49.599090" lon="8.738700">
<ele>222.5</ele>
<speed>44.3</speed>
<course>73.3</course>
<desc>Speed 44.3 km/h Distance 8.42 km</desc>
<time>2010-07-30T17:43:26.41</time>
<name>617</name>
</trkpt>
<trkpt lat="49.599123" lon="8.738872">
<ele>222.5</ele>
<speed>46.4</speed>
<course>78.7</course>
<desc>Speed 46.4 km/h Distance 8.43 km</desc>
<time>2010-07-30T17:43:27.42</time>
<name>618</name>
</trkpt>
<trkpt lat="49.599147" lon="8.739052">
<ele>221.5</ele>
<speed>48.3</speed>
<course>70.5</course>
<desc>Speed 48.3 km/h Distance 8.44 km</desc>
<time>2010-07-30T17:43:28.42</time>
<name>619</name>
</trkpt>
<trkpt lat="49.599183" lon="8.739212">
<ele>221.0</ele>
<speed>44.7</speed>
<course>72.9</course>
<desc>Speed 44.7 km/h Distance 8.46 km</desc>
<time>2010-07-30T17:43:29.41</time>
<name>620</name>
</trkpt>
<trkpt lat="49.599218" lon="8.739387">
<ele>221.0</ele>
<speed>47.2</speed>
<course>74.9</course>
<desc>Speed 47.2 km/h Distance 8.47 km</desc>
<time>2010-07-30T17:43:30.42</time>
<name>621</name>
</trkpt>
<trkpt lat="49.599252" lon="8.739577">
<ele>221.0</ele>
<speed>47.9</speed>
<course>70.7</course>
<desc>Speed 47.9 km/h Distance 8.48 km</desc>
<time>2010-07-30T17:43:31.41</time>
<name>622</name>
</trkpt>
<trkpt lat="49.599293" lon="8.739760">
<ele>221.0</ele>
<speed>49.7</speed>
<course>66.7</course>
<desc>Speed 49.7 km/h Distance 8.50 km</desc>
<time>2010-07-30T17:43:32.41</time>
<name>623</name>
</trkpt>
<trkpt lat="49.599345" lon="8.739945">
<ele>221.0</ele>
<speed>50.5</speed>
<course>59.4</course>
<desc>Speed 50.5 km/h Distance 8.51 km</desc>
<time>2010-07-30T17:43:33.41</time>
<name>624</name>
</trkpt>
<trkpt lat="49.599408" lon="8.740110">
<ele>221.0</ele>
<speed>51.3</speed>
<course>44.2</course>
<desc>Speed 51.3 km/h Distance 8.53 km</desc>
<time>2010-07-30T17:43:34.41</time>
<name>625</name>
</trkpt>
<trkpt lat="49.599615" lon="8.740420">
<ele>220.0</ele>
<speed>56.9</speed>
<course>38.1</course>
<desc>Speed 56.9 km/h Distance 8.56 km</desc>
<time>2010-07-30T17:43:36.40</time>
<name>626</name>
</trkpt>
<trkpt lat="49.599718" lon="8.740545">
<ele>219.5</ele>
<speed>53.3</speed>
<course>38.6</course>
<desc>Speed 53.3 km/h Distance 8.57 km</desc>
<time>2010-07-30T17:43:37.40</time>
<name>627</name>
</trkpt>
<trkpt lat="49.599818" lon="8.740668">
<ele>219.5</ele>
<speed>50.8</speed>
<course>38.8</course>
<desc>Speed 50.8 km/h Distance 8.59 km</desc>
<time>2010-07-30T17:43:38.41</time>
<name>628</name>
</trkpt>
<trkpt lat="49.599915" lon="8.740788">
<ele>220.0</ele>
<speed>49.9</speed>
<course>38.3</course>
<desc>Speed 49.9 km/h Distance 8.60 km</desc>
<time>2010-07-30T17:43:39.40</time>
<name>629</name>
</trkpt>
<trkpt lat="49.600013" lon="8.740908">
<ele>219.5</ele>
<speed>51.6</speed>
<course>37.7</course>
<desc>Speed 51.6 km/h Distance 8.62 km</desc>
<time>2010-07-30T17:43:40.40</time>
<name>630</name>
</trkpt>
<trkpt lat="49.600117" lon="8.741032">
<ele>219.5</ele>
<speed>53.0</speed>
<course>36.4</course>
<desc>Speed 53.0 km/h Distance 8.63 km</desc>
<time>2010-07-30T17:43:41.40</time>
<name>631</name>
</trkpt>
<trkpt lat="49.600227" lon="8.741157">
<ele>219.5</ele>
<speed>55.6</speed>
<course>37.3</course>
<desc>Speed 55.6 km/h Distance 8.65 km</desc>
<time>2010-07-30T17:43:42.40</time>
<name>632</name>
</trkpt>
<trkpt lat="49.600342" lon="8.741292">
<ele>219.5</ele>
<speed>58.6</speed>
<course>39.1</course>
<desc>Speed 58.6 km/h Distance 8.66 km</desc>
<time>2010-07-30T17:43:43.40</time>
<name>633</name>
</trkpt>
<trkpt lat="49.600460" lon="8.741440">
<ele>219.5</ele>
<speed>61.1</speed>
<course>40.4</course>
<desc>Speed 61.1 km/h Distance 8.68 km</desc>
<time>2010-07-30T17:43:44.40</time>
<name>634</name>
</trkpt>
<trkpt lat="49.600582" lon="8.741600">
<ele>219.5</ele>
<speed>63.6</speed>
<course>43.6</course>
<desc>Speed 63.6 km/h Distance 8.70 km</desc>
<time>2010-07-30T17:43:45.40</time>
<name>635</name>
</trkpt>
<trkpt lat="49.601020" lon="8.742243">
<ele>219.5</ele>
<speed>85.1</speed>
<course>49.0</course>
<desc>Speed 85.1 km/h Distance 8.76 km</desc>
<time>2010-07-30T17:43:48.40</time>
<name>636</name>
</trkpt>
<trkpt lat="49.601702" lon="8.743455">
<ele>220.0</ele>
<speed>107</speed>
<course>41.2</course>
<desc>Speed 107 km/h Distance 8.88 km</desc>
<time>2010-07-30T17:43:52.40</time>
<name>637</name>
</trkpt>
<trkpt lat="49.601910" lon="8.743737">
<ele>220.0</ele>
<speed>111</speed>
<course>38.8</course>
<desc>Speed 111 km/h Distance 8.91 km</desc>
<time>2010-07-30T17:43:53.40</time>
<name>638</name>
</trkpt>
<trkpt lat="49.602132" lon="8.744012">
<ele>220.5</ele>
<speed>115</speed>
<course>37.9</course>
<desc>Speed 115 km/h Distance 8.94 km</desc>
<time>2010-07-30T17:43:54.40</time>
<name>639</name>
</trkpt>
<trkpt lat="49.602357" lon="8.744282">
<ele>220.5</ele>
<speed>115</speed>
<course>37.5</course>
<desc>Speed 115 km/h Distance 8.97 km</desc>
<time>2010-07-30T17:43:55.40</time>
<name>640</name>
</trkpt>
<trkpt lat="49.602582" lon="8.744548">
<ele>220.0</ele>
<speed>113</speed>
<course>39.0</course>
<desc>Speed 113 km/h Distance 9.00 km</desc>
<time>2010-07-30T17:43:56.40</time>
<name>641</name>
</trkpt>
<trkpt lat="49.602797" lon="8.744817">
<ele>220.0</ele>
<speed>111</speed>
<course>40.3</course>
<desc>Speed 111 km/h Distance 9.04 km</desc>
<time>2010-07-30T17:43:57.40</time>
<name>642</name>
</trkpt>
<trkpt lat="49.603003" lon="8.745087">
<ele>220.0</ele>
<speed>108</speed>
<course>42.5</course>
<desc>Speed 108 km/h Distance 9.07 km</desc>
<time>2010-07-30T17:43:58.40</time>
<name>643</name>
</trkpt>
<trkpt lat="49.603200" lon="8.745365">
<ele>220.0</ele>
<speed>107</speed>
<course>46.5</course>
<desc>Speed 107 km/h Distance 9.10 km</desc>
<time>2010-07-30T17:43:59.40</time>
<name>644</name>
</trkpt>
<trkpt lat="49.603375" lon="8.745650">
<ele>219.5</ele>
<speed>102</speed>
<course>49.3</course>
<desc>Speed 102 km/h Distance 9.12 km</desc>
<time>2010-07-30T17:44:00.41</time>
<name>645</name>
</trkpt>
<trkpt lat="49.603543" lon="8.745952">
<ele>219.5</ele>
<speed>104</speed>
<course>52.6</course>
<desc>Speed 104 km/h Distance 9.15 km</desc>
<time>2010-07-30T17:44:01.39</time>
<name>646</name>
</trkpt>
<trkpt lat="49.603700" lon="8.746268">
<ele>220.0</ele>
<speed>104</speed>
<course>60.3</course>
<desc>Speed 104 km/h Distance 9.18 km</desc>
<time>2010-07-30T17:44:02.40</time>
<name>647</name>
</trkpt>
<trkpt lat="49.603830" lon="8.746620">
<ele>219.5</ele>
<speed>105</speed>
<course>61.8</course>
<desc>Speed 105 km/h Distance 9.21 km</desc>
<time>2010-07-30T17:44:03.39</time>
<name>648</name>
</trkpt>
<trkpt lat="49.603952" lon="8.746970">
<ele>218.5</ele>
<speed>103</speed>
<course>65.9</course>
<desc>Speed 103 km/h Distance 9.24 km</desc>
<time>2010-07-30T17:44:04.39</time>
<name>649</name>
</trkpt>
<trkpt lat="49.604058" lon="8.747338">
<ele>218.5</ele>
<speed>105</speed>
<course>66.2</course>
<desc>Speed 105 km/h Distance 9.27 km</desc>
<time>2010-07-30T17:44:05.39</time>
<name>650</name>
</trkpt>
<trkpt lat="49.604162" lon="8.747700">
<ele>218.5</ele>
<speed>103</speed>
<course>65.2</course>
<desc>Speed 103 km/h Distance 9.30 km</desc>
<time>2010-07-30T17:44:06.39</time>
<name>651</name>
</trkpt>
<trkpt lat="49.604360" lon="8.748363">
<ele>217.5</ele>
<speed>93.7</speed>
<course>67.0</course>
<desc>Speed 93.7 km/h Distance 9.35 km</desc>
<time>2010-07-30T17:44:08.39</time>
<name>652</name>
</trkpt>
<trkpt lat="49.604447" lon="8.748678">
<ele>218.0</ele>
<speed>88.8</speed>
<course>62.1</course>
<desc>Speed 88.8 km/h Distance 9.37 km</desc>
<time>2010-07-30T17:44:09.39</time>
<name>653</name>
</trkpt>
<trkpt lat="49.604545" lon="8.748965">
<ele>218.0</ele>
<speed>84.3</speed>
<course>55.8</course>
<desc>Speed 84.3 km/h Distance 9.40 km</desc>
<time>2010-07-30T17:44:10.39</time>
<name>654</name>
</trkpt>
<trkpt lat="49.604662" lon="8.749230">
<ele>219.0</ele>
<speed>82.9</speed>
<course>49.1</course>
<desc>Speed 82.9 km/h Distance 9.42 km</desc>
<time>2010-07-30T17:44:11.38</time>
<name>655</name>
</trkpt>
<trkpt lat="49.604798" lon="8.749473">
<ele>219.0</ele>
<speed>83.8</speed>
<course>40.5</course>
<desc>Speed 83.8 km/h Distance 9.44 km</desc>
<time>2010-07-30T17:44:12.39</time>
<name>656</name>
</trkpt>
<trkpt lat="49.604957" lon="8.749682">
<ele>219.5</ele>
<speed>83.1</speed>
<course>35.9</course>
<desc>Speed 83.1 km/h Distance 9.47 km</desc>
<time>2010-07-30T17:44:13.39</time>
<name>657</name>
</trkpt>
<trkpt lat="49.605128" lon="8.749873">
<ele>220.5</ele>
<speed>84.5</speed>
<course>30.3</course>
<desc>Speed 84.5 km/h Distance 9.49 km</desc>
<time>2010-07-30T17:44:14.39</time>
<name>658</name>
</trkpt>
<trkpt lat="49.605317" lon="8.750043">
<ele>221.5</ele>
<speed>87.0</speed>
<course>27.4</course>
<desc>Speed 87.0 km/h Distance 9.51 km</desc>
<time>2010-07-30T17:44:15.38</time>
<name>659</name>
</trkpt>
<trkpt lat="49.605525" lon="8.750210">
<ele>223.0</ele>
<speed>93.9</speed>
<course>23.1</course>
<desc>Speed 93.9 km/h Distance 9.54 km</desc>
<time>2010-07-30T17:44:16.39</time>
<name>660</name>
</trkpt>
<trkpt lat="49.605750" lon="8.750358">
<ele>221.5</ele>
<speed>97.0</speed>
<course>25.0</course>
<desc>Speed 97.0 km/h Distance 9.57 km</desc>
<time>2010-07-30T17:44:17.38</time>
<name>661</name>
</trkpt>
<trkpt lat="49.606513" lon="8.750908">
<ele>221.0</ele>
<speed>112</speed>
<course>31.8</course>
<desc>Speed 112 km/h Distance 9.66 km</desc>
<time>2010-07-30T17:44:20.38</time>
<name>662</name>
</trkpt>
<trkpt lat="49.606737" lon="8.751122">
<ele>221.0</ele>
<speed>105</speed>
<course>38.2</course>
<desc>Speed 105 km/h Distance 9.69 km</desc>
<time>2010-07-30T17:44:21.38</time>
<name>663</name>
</trkpt>
<trkpt lat="49.606932" lon="8.751358">
<ele>221.5</ele>
<speed>99.2</speed>
<course>40.8</course>
<desc>Speed 99.2 km/h Distance 9.72 km</desc>
<time>2010-07-30T17:44:22.39</time>
<name>664</name>
</trkpt>
<trkpt lat="49.607108" lon="8.751593">
<ele>222.0</ele>
<speed>93.6</speed>
<course>42.1</course>
<desc>Speed 93.6 km/h Distance 9.74 km</desc>
<time>2010-07-30T17:44:23.38</time>
<name>665</name>
</trkpt>
<trkpt lat="49.607273" lon="8.751823">
<ele>222.5</ele>
<speed>89.5</speed>
<course>42.4</course>
<desc>Speed 89.5 km/h Distance 9.77 km</desc>
<time>2010-07-30T17:44:24.38</time>
<name>666</name>
</trkpt>
<trkpt lat="49.607432" lon="8.752047">
<ele>223.0</ele>
<speed>85.2</speed>
<course>42.4</course>
<desc>Speed 85.2 km/h Distance 9.79 km</desc>
<time>2010-07-30T17:44:25.38</time>
<name>667</name>
</trkpt>
<trkpt lat="49.607582" lon="8.752258">
<ele>223.0</ele>
<speed>81.3</speed>
<course>41.8</course>
<desc>Speed 81.3 km/h Distance 9.82 km</desc>
<time>2010-07-30T17:44:26.38</time>
<name>668</name>
</trkpt>
<trkpt lat="49.607727" lon="8.752458">
<ele>223.5</ele>
<speed>77.5</speed>
<course>41.4</course>
<desc>Speed 77.5 km/h Distance 9.84 km</desc>
<time>2010-07-30T17:44:27.38</time>
<name>669</name>
</trkpt>
<trkpt lat="49.607865" lon="8.752647">
<ele>223.5</ele>
<speed>73.3</speed>
<course>39.8</course>
<desc>Speed 73.3 km/h Distance 9.86 km</desc>
<time>2010-07-30T17:44:28.39</time>
<name>670</name>
</trkpt>
<trkpt lat="49.607998" lon="8.752818">
<ele>223.5</ele>
<speed>68.7</speed>
<course>37.9</course>
<desc>Speed 68.7 km/h Distance 9.88 km</desc>
<time>2010-07-30T17:44:29.37</time>
<name>671</name>
</trkpt>
<trkpt lat="49.608122" lon="8.752967">
<ele>223.0</ele>
<speed>62.7</speed>
<course>36.3</course>
<desc>Speed 62.7 km/h Distance 9.89 km</desc>
<time>2010-07-30T17:44:30.38</time>
<name>672</name>
</trkpt>
<trkpt lat="49.608235" lon="8.753095">
<ele>222.5</ele>
<speed>55.7</speed>
<course>35.8</course>
<desc>Speed 55.7 km/h Distance 9.91 km</desc>
<time>2010-07-30T17:44:31.38</time>
<name>673</name>
</trkpt>
<trkpt lat="49.608338" lon="8.753210">
<ele>222.5</ele>
<speed>50.5</speed>
<course>34.3</course>
<desc>Speed 50.5 km/h Distance 9.92 km</desc>
<time>2010-07-30T17:44:32.37</time>
<name>674</name>
</trkpt>
<trkpt lat="49.608435" lon="8.753312">
<ele>222.5</ele>
<speed>47.0</speed>
<course>32.5</course>
<desc>Speed 47.0 km/h Distance 9.94 km</desc>
<time>2010-07-30T17:44:33.37</time>
<name>675</name>
</trkpt>
<trkpt lat="49.608525" lon="8.753400">
<ele>223.0</ele>
<speed>42.3</speed>
<course>33.7</course>
<desc>Speed 42.3 km/h Distance 9.95 km</desc>
<time>2010-07-30T17:44:34.37</time>
<name>676</name>
</trkpt>
<trkpt lat="49.608688" lon="8.753568">
<ele>223.0</ele>
<speed>4.8</speed>
<course>32.9</course>
<desc>Speed 4.8 km/h Distance 9.97 km</desc>
<time>2010-07-30T17:44:40.37</time>
<name>677</name>
</trkpt>
<trkpt lat="49.608703" lon="8.753583">
<ele>223.0</ele>
<speed>7.0</speed>
<course>26.5</course>
<desc>Speed 7.0 km/h Distance 9.97 km</desc>
<time>2010-07-30T17:44:41.37</time>
<name>678</name>
</trkpt>
<trkpt lat="49.608725" lon="8.753600">
<ele>222.5</ele>
<speed>9.4</speed>
<course>28.3</course>
<desc>Speed 9.4 km/h Distance 9.98 km</desc>
<time>2010-07-30T17:44:42.37</time>
<name>679</name>
</trkpt>
<trkpt lat="49.608745" lon="8.753617">
<ele>223.0</ele>
<speed>9.5</speed>
<course>25.9</course>
<desc>Speed 9.5 km/h Distance 9.98 km</desc>
<time>2010-07-30T17:44:43.37</time>
<name>680</name>
</trkpt>
<trkpt lat="49.608772" lon="8.753637">
<ele>223.0</ele>
<speed>11.2</speed>
<course>26.4</course>
<desc>Speed 11.2 km/h Distance 9.98 km</desc>
<time>2010-07-30T17:44:44.37</time>
<name>681</name>
</trkpt>
<trkpt lat="49.608800" lon="8.753658">
<ele>223.0</ele>
<speed>12.6</speed>
<course>26.4</course>
<desc>Speed 12.6 km/h Distance 9.99 km</desc>
<time>2010-07-30T17:44:45.37</time>
<name>682</name>
</trkpt>
<trkpt lat="49.608828" lon="8.753680">
<ele>223.0</ele>
<speed>12.5</speed>
<course>24.0</course>
<desc>Speed 12.5 km/h Distance 9.99 km</desc>
<time>2010-07-30T17:44:46.36</time>
<name>683</name>
</trkpt>
<trkpt lat="49.608855" lon="8.753698">
<ele>223.0</ele>
<speed>11.8</speed>
<course>24.2</course>
<desc>Speed 11.8 km/h Distance 9.99 km</desc>
<time>2010-07-30T17:44:47.36</time>
<name>684</name>
</trkpt>
<trkpt lat="49.608877" lon="8.753713">
<ele>223.0</ele>
<speed>9.4</speed>
<course>28.4</course>
<desc>Speed 9.4 km/h Distance 10.00 km</desc>
<time>2010-07-30T17:44:48.38</time>
<name>685</name>
</trkpt>
<trkpt lat="49.608897" lon="8.753730">
<ele>222.5</ele>
<speed>8.5</speed>
<course>22.7</course>
<desc>Speed 8.5 km/h Distance 10.00 km</desc>
<time>2010-07-30T17:44:49.36</time>
<name>686</name>
</trkpt>
<trkpt lat="49.608920" lon="8.753745">
<ele>222.5</ele>
<speed>9.4</speed>
<course>22.8</course>
<desc>Speed 9.4 km/h Distance 10.00 km</desc>
<time>2010-07-30T17:44:50.36</time>
<name>687</name>
</trkpt>
<trkpt lat="49.608948" lon="8.753763">
<ele>222.5</ele>
<speed>12.3</speed>
<course>21.5</course>
<desc>Speed 12.3 km/h Distance 10.00 km</desc>
<time>2010-07-30T17:44:51.36</time>
<name>688</name>
</trkpt>
<trkpt lat="49.608987" lon="8.753787">
<ele>223.0</ele>
<speed>16.3</speed>
<course>22.4</course>
<desc>Speed 16.3 km/h Distance 10.01 km</desc>
<time>2010-07-30T17:44:52.37</time>
<name>689</name>
</trkpt>
<trkpt lat="49.609023" lon="8.753810">
<ele>223.0</ele>
<speed>16.5</speed>
<course>19.4</course>
<desc>Speed 16.5 km/h Distance 10.01 km</desc>
<time>2010-07-30T17:44:53.36</time>
<name>690</name>
</trkpt>
<trkpt lat="49.609060" lon="8.753830">
<ele>223.0</ele>
<speed>15.4</speed>
<course>22.7</course>
<desc>Speed 15.4 km/h Distance 10.02 km</desc>
<time>2010-07-30T17:44:54.36</time>
<name>691</name>
</trkpt>
<trkpt lat="49.609088" lon="8.753848">
<ele>223.0</ele>
<speed>12.7</speed>
<course>24.1</course>
<desc>Speed 12.7 km/h Distance 10.02 km</desc>
<time>2010-07-30T17:44:55.36</time>
<name>692</name>
</trkpt>
<trkpt lat="49.609115" lon="8.753867">
<ele>223.0</ele>
<speed>11.2</speed>
<course>21.2</course>
<desc>Speed 11.2 km/h Distance 10.02 km</desc>
<time>2010-07-30T17:44:56.37</time>
<name>693</name>
</trkpt>
<trkpt lat="49.609140" lon="8.753882">
<ele>223.5</ele>
<speed>11.1</speed>
<course>17.9</course>
<desc>Speed 11.1 km/h Distance 10.03 km</desc>
<time>2010-07-30T17:44:57.36</time>
<name>694</name>
</trkpt>
<trkpt lat="49.609173" lon="8.753898">
<ele>223.5</ele>
<speed>14.1</speed>
<course>15.3</course>
<desc>Speed 14.1 km/h Distance 10.03 km</desc>
<time>2010-07-30T17:44:58.36</time>
<name>695</name>
</trkpt>
<trkpt lat="49.609217" lon="8.753917">
<ele>223.5</ele>
<speed>17.6</speed>
<course>19.0</course>
<desc>Speed 17.6 km/h Distance 10.04 km</desc>
<time>2010-07-30T17:44:59.37</time>
<name>696</name>
</trkpt>
<trkpt lat="49.609270" lon="8.753945">
<ele>223.5</ele>
<speed>22.8</speed>
<course>32.9</course>
<desc>Speed 22.8 km/h Distance 10.04 km</desc>
<time>2010-07-30T17:45:00.36</time>
<name>697</name>
</trkpt>
<trkpt lat="49.609332" lon="8.754007">
<ele>222.0</ele>
<speed>29.1</speed>
<course>44.2</course>
<desc>Speed 29.1 km/h Distance 10.05 km</desc>
<time>2010-07-30T17:45:01.36</time>
<name>698</name>
</trkpt>
<trkpt lat="49.609375" lon="8.754072">
<ele>222.0</ele>
<speed>24.7</speed>
<course>60.6</course>
<desc>Speed 24.7 km/h Distance 10.06 km</desc>
<time>2010-07-30T17:45:02.35</time>
<name>699</name>
</trkpt>
<trkpt lat="49.609463" lon="8.754313">
<ele>221.5</ele>
<speed>37.7</speed>
<course>88.7</course>
<desc>Speed 37.7 km/h Distance 10.08 km</desc>
<time>2010-07-30T17:45:04.37</time>
<name>700</name>
</trkpt>
<trkpt lat="49.609468" lon="8.754663">
<ele>222.5</ele>
<speed>47.1</speed>
<course>102.5</course>
<desc>Speed 47.1 km/h Distance 10.10 km</desc>
<time>2010-07-30T17:45:06.36</time>
<name>701</name>
</trkpt>
<trkpt lat="49.609443" lon="8.754837">
<ele>223.5</ele>
<speed>45.8</speed>
<course>109.4</course>
<desc>Speed 45.8 km/h Distance 10.11 km</desc>
<time>2010-07-30T17:45:07.36</time>
<name>702</name>
</trkpt>
<trkpt lat="49.609403" lon="8.755012">
<ele>224.5</ele>
<speed>47.7</speed>
<course>111.8</course>
<desc>Speed 47.7 km/h Distance 10.13 km</desc>
<time>2010-07-30T17:45:08.36</time>
<name>703</name>
</trkpt>
<trkpt lat="49.609357" lon="8.755192">
<ele>225.5</ele>
<speed>49.8</speed>
<course>115.4</course>
<desc>Speed 49.8 km/h Distance 10.14 km</desc>
<time>2010-07-30T17:45:09.36</time>
<name>704</name>
</trkpt>
<trkpt lat="49.609298" lon="8.755382">
<ele>227.0</ele>
<speed>53.8</speed>
<course>117.8</course>
<desc>Speed 53.8 km/h Distance 10.16 km</desc>
<time>2010-07-30T17:45:10.36</time>
<name>705</name>
</trkpt>
<trkpt lat="49.609232" lon="8.755577">
<ele>228.0</ele>
<speed>56.6</speed>
<course>118.0</course>
<desc>Speed 56.6 km/h Distance 10.17 km</desc>
<time>2010-07-30T17:45:11.35</time>
<name>706</name>
</trkpt>
<trkpt lat="49.609162" lon="8.755780">
<ele>229.0</ele>
<speed>59.8</speed>
<course>118.4</course>
<desc>Speed 59.8 km/h Distance 10.19 km</desc>
<time>2010-07-30T17:45:12.36</time>
<name>707</name>
</trkpt>
<trkpt lat="49.609092" lon="8.755980">
<ele>230.0</ele>
<speed>58.6</speed>
<course>122.3</course>
<desc>Speed 58.6 km/h Distance 10.21 km</desc>
<time>2010-07-30T17:45:13.35</time>
<name>708</name>
</trkpt>
<trkpt lat="49.609012" lon="8.756175">
<ele>231.5</ele>
<speed>59.4</speed>
<course>126.4</course>
<desc>Speed 59.4 km/h Distance 10.22 km</desc>
<time>2010-07-30T17:45:14.36</time>
<name>709</name>
</trkpt>
<trkpt lat="49.608923" lon="8.756360">
<ele>231.5</ele>
<speed>59.3</speed>
<course>135.2</course>
<desc>Speed 59.3 km/h Distance 10.24 km</desc>
<time>2010-07-30T17:45:15.36</time>
<name>710</name>
</trkpt>
<trkpt lat="49.608813" lon="8.756528">
<ele>232.5</ele>
<speed>61.6</speed>
<course>145.4</course>
<desc>Speed 61.6 km/h Distance 10.26 km</desc>
<time>2010-07-30T17:45:16.36</time>
<name>711</name>
</trkpt>
<trkpt lat="49.608682" lon="8.756668">
<ele>232.5</ele>
<speed>63.6</speed>
<course>157.1</course>
<desc>Speed 63.6 km/h Distance 10.27 km</desc>
<time>2010-07-30T17:45:17.35</time>
<name>712</name>
</trkpt>
<trkpt lat="49.608538" lon="8.756762">
<ele>232.5</ele>
<speed>61.7</speed>
<course>166.4</course>
<desc>Speed 61.7 km/h Distance 10.29 km</desc>
<time>2010-07-30T17:45:18.35</time>
<name>713</name>
</trkpt>
<trkpt lat="49.608400" lon="8.756813">
<ele>232.5</ele>
<speed>57.1</speed>
<course>164.4</course>
<desc>Speed 57.1 km/h Distance 10.31 km</desc>
<time>2010-07-30T17:45:19.35</time>
<name>714</name>
</trkpt>
<trkpt lat="49.608257" lon="8.756875">
<ele>233.0</ele>
<speed>59.2</speed>
<course>162.4</course>
<desc>Speed 59.2 km/h Distance 10.32 km</desc>
<time>2010-07-30T17:45:20.35</time>
<name>715</name>
</trkpt>
<trkpt lat="49.608110" lon="8.756947">
<ele>233.5</ele>
<speed>61.3</speed>
<course>162.0</course>
<desc>Speed 61.3 km/h Distance 10.34 km</desc>
<time>2010-07-30T17:45:21.35</time>
<name>716</name>
</trkpt>
<trkpt lat="49.607957" lon="8.757023">
<ele>234.5</ele>
<speed>64.2</speed>
<course>163.4</course>
<desc>Speed 64.2 km/h Distance 10.36 km</desc>
<time>2010-07-30T17:45:22.35</time>
<name>717</name>
</trkpt>
<trkpt lat="49.607793" lon="8.757098">
<ele>234.5</ele>
<speed>67.1</speed>
<course>162.0</course>
<desc>Speed 67.1 km/h Distance 10.38 km</desc>
<time>2010-07-30T17:45:23.35</time>
<name>718</name>
</trkpt>
<trkpt lat="49.607623" lon="8.757183">
<ele>235.0</ele>
<speed>70.7</speed>
<course>162.4</course>
<desc>Speed 70.7 km/h Distance 10.40 km</desc>
<time>2010-07-30T17:45:24.36</time>
<name>719</name>
</trkpt>
<trkpt lat="49.607450" lon="8.757268">
<ele>236.0</ele>
<speed>72.1</speed>
<course>162.2</course>
<desc>Speed 72.1 km/h Distance 10.42 km</desc>
<time>2010-07-30T17:45:25.35</time>
<name>720</name>
</trkpt>
<trkpt lat="49.607275" lon="8.757355">
<ele>237.0</ele>
<speed>72.9</speed>
<course>164.3</course>
<desc>Speed 72.9 km/h Distance 10.44 km</desc>
<time>2010-07-30T17:45:26.34</time>
<name>721</name>
</trkpt>
<trkpt lat="49.607113" lon="8.757425">
<ele>237.0</ele>
<speed>67.0</speed>
<course>163.0</course>
<desc>Speed 67.0 km/h Distance 10.46 km</desc>
<time>2010-07-30T17:45:27.35</time>
<name>722</name>
</trkpt>
<trkpt lat="49.606958" lon="8.757498">
<ele>237.5</ele>
<speed>65.1</speed>
<course>163.0</course>
<desc>Speed 65.1 km/h Distance 10.48 km</desc>
<time>2010-07-30T17:45:28.35</time>
<name>723</name>
</trkpt>
<trkpt lat="49.606807" lon="8.757570">
<ele>238.5</ele>
<speed>62.8</speed>
<course>163.3</course>
<desc>Speed 62.8 km/h Distance 10.49 km</desc>
<time>2010-07-30T17:45:29.36</time>
<name>724</name>
</trkpt>
<trkpt lat="49.606667" lon="8.757635">
<ele>239.5</ele>
<speed>57.9</speed>
<course>164.1</course>
<desc>Speed 57.9 km/h Distance 10.51 km</desc>
<time>2010-07-30T17:45:30.35</time>
<name>725</name>
</trkpt>
<trkpt lat="49.606542" lon="8.757690">
<ele>239.5</ele>
<speed>52.4</speed>
<course>162.5</course>
<desc>Speed 52.4 km/h Distance 10.52 km</desc>
<time>2010-07-30T17:45:31.35</time>
<name>726</name>
</trkpt>
<trkpt lat="49.606415" lon="8.757752">
<ele>240.0</ele>
<speed>53.0</speed>
<course>162.3</course>
<desc>Speed 53.0 km/h Distance 10.54 km</desc>
<time>2010-07-30T17:45:32.34</time>
<name>727</name>
</trkpt>
<trkpt lat="49.606280" lon="8.757818">
<ele>240.5</ele>
<speed>57.0</speed>
<course>174.1</course>
<desc>Speed 57.0 km/h Distance 10.55 km</desc>
<time>2010-07-30T17:45:33.35</time>
<name>728</name>
</trkpt>
<trkpt lat="49.605957" lon="8.757870">
<ele>242.0</ele>
<speed>63.4</speed>
<course>195.9</course>
<desc>Speed 63.4 km/h Distance 10.59 km</desc>
<time>2010-07-30T17:45:35.35</time>
<name>729</name>
</trkpt>
<trkpt lat="49.605657" lon="8.757738">
<ele>242.0</ele>
<speed>75.8</speed>
<course>203.0</course>
<desc>Speed 75.8 km/h Distance 10.63 km</desc>
<time>2010-07-30T17:45:37.35</time>
<name>730</name>
</trkpt>
<trkpt lat="49.605473" lon="8.757618">
<ele>240.5</ele>
<speed>79.2</speed>
<course>203.8</course>
<desc>Speed 79.2 km/h Distance 10.65 km</desc>
<time>2010-07-30T17:45:38.35</time>
<name>731</name>
</trkpt>
<trkpt lat="49.605280" lon="8.757487">
<ele>241.0</ele>
<speed>84.5</speed>
<course>204.0</course>
<desc>Speed 84.5 km/h Distance 10.67 km</desc>
<time>2010-07-30T17:45:39.34</time>
<name>732</name>
</trkpt>
<trkpt lat="49.605073" lon="8.757345">
<ele>242.5</ele>
<speed>90.5</speed>
<course>203.7</course>
<desc>Speed 90.5 km/h Distance 10.70 km</desc>
<time>2010-07-30T17:45:40.35</time>
<name>733</name>
</trkpt>
<trkpt lat="49.604862" lon="8.757202">
<ele>244.0</ele>
<speed>92.2</speed>
<course>204.2</course>
<desc>Speed 92.2 km/h Distance 10.72 km</desc>
<time>2010-07-30T17:45:41.34</time>
<name>734</name>
</trkpt>
<trkpt lat="49.604643" lon="8.757050">
<ele>245.0</ele>
<speed>95.3</speed>
<course>205.0</course>
<desc>Speed 95.3 km/h Distance 10.75 km</desc>
<time>2010-07-30T17:45:42.35</time>
<name>735</name>
</trkpt>
<trkpt lat="49.604428" lon="8.756895">
<ele>245.0</ele>
<speed>94.8</speed>
<course>202.3</course>
<desc>Speed 94.8 km/h Distance 10.78 km</desc>
<time>2010-07-30T17:45:43.34</time>
<name>736</name>
</trkpt>
<trkpt lat="49.604037" lon="8.756647">
<ele>245.0</ele>
<speed>82.0</speed>
<course>194.3</course>
<desc>Speed 82.0 km/h Distance 10.82 km</desc>
<time>2010-07-30T17:45:45.34</time>
<name>737</name>
</trkpt>
<trkpt lat="49.603842" lon="8.756570">
<ele>246.5</ele>
<speed>79.2</speed>
<course>180.3</course>
<desc>Speed 79.2 km/h Distance 10.84 km</desc>
<time>2010-07-30T17:45:46.34</time>
<name>738</name>
</trkpt>
<trkpt lat="49.603643" lon="8.756568">
<ele>246.5</ele>
<speed>79.0</speed>
<course>171.4</course>
<desc>Speed 79.0 km/h Distance 10.87 km</desc>
<time>2010-07-30T17:45:47.34</time>
<name>739</name>
</trkpt>
<trkpt lat="49.603313" lon="8.756645">
<ele>247.0</ele>
<speed>71.2</speed>
<course>155.2</course>
<desc>Speed 71.2 km/h Distance 10.90 km</desc>
<time>2010-07-30T17:45:49.34</time>
<name>740</name>
</trkpt>
<trkpt lat="49.602693" lon="8.757087">
<ele>248.0</ele>
<speed>87.6</speed>
<course>156.7</course>
<desc>Speed 87.6 km/h Distance 10.98 km</desc>
<time>2010-07-30T17:45:52.33</time>
<name>741</name>
</trkpt>
<trkpt lat="49.602485" lon="8.757225">
<ele>250.0</ele>
<speed>91.2</speed>
<course>163.7</course>
<desc>Speed 91.2 km/h Distance 11.01 km</desc>
<time>2010-07-30T17:45:53.33</time>
<name>742</name>
</trkpt>
<trkpt lat="49.602257" lon="8.757328">
<ele>250.0</ele>
<speed>94.6</speed>
<course>167.5</course>
<desc>Speed 94.6 km/h Distance 11.03 km</desc>
<time>2010-07-30T17:45:54.33</time>
<name>743</name>
</trkpt>
<trkpt lat="49.601847" lon="8.757468">
<ele>250.0</ele>
<speed>88.9</speed>
<course>184.8</course>
<desc>Speed 88.9 km/h Distance 11.08 km</desc>
<time>2010-07-30T17:45:56.34</time>
<name>744</name>
</trkpt>
<trkpt lat="49.601088" lon="8.757370">
<ele>251.5</ele>
<speed>94.0</speed>
<course>171.8</course>
<desc>Speed 94.0 km/h Distance 11.16 km</desc>
<time>2010-07-30T17:45:59.33</time>
<name>745</name>
</trkpt>
<trkpt lat="49.600263" lon="8.757553">
<ele>253.5</ele>
<speed>57.7</speed>
<course>136.3</course>
<desc>Speed 57.7 km/h Distance 11.26 km</desc>
<time>2010-07-30T17:46:04.34</time>
<name>746</name>
</trkpt>
<trkpt lat="49.600165" lon="8.757698">
<ele>254.0</ele>
<speed>54.4</speed>
<course>121.2</course>
<desc>Speed 54.4 km/h Distance 11.27 km</desc>
<time>2010-07-30T17:46:05.34</time>
<name>747</name>
</trkpt>
<trkpt lat="49.599440" lon="8.759547">
<ele>263.5</ele>
<speed>97.1</speed>
<course>131.1</course>
<desc>Speed 97.1 km/h Distance 11.43 km</desc>
<time>2010-07-30T17:46:11.33</time>
<name>748</name>
</trkpt>
<trkpt lat="49.598938" lon="8.760433">
<ele>266.5</ele>
<speed>72.0</speed>
<course>168.0</course>
<desc>Speed 72.0 km/h Distance 11.51 km</desc>
<time>2010-07-30T17:46:15.32</time>
<name>749</name>
</trkpt>
<trkpt lat="49.597802" lon="8.760807">
<ele>269.5</ele>
<speed>107</speed>
<course>176.7</course>
<desc>Speed 107 km/h Distance 11.64 km</desc>
<time>2010-07-30T17:46:20.32</time>
<name>750</name>
</trkpt>
<trkpt lat="49.597208" lon="8.760860">
<ele>269.5</ele>
<speed>107</speed>
<course>175.9</course>
<desc>Speed 107 km/h Distance 11.71 km</desc>
<time>2010-07-30T17:46:22.32</time>
<name>751</name>
</trkpt>
<trkpt lat="49.596635" lon="8.760923">
<ele>269.5</ele>
<speed>105</speed>
<course>170.2</course>
<desc>Speed 105 km/h Distance 11.77 km</desc>
<time>2010-07-30T17:46:24.33</time>
<name>752</name>
</trkpt>
<trkpt lat="49.595712" lon="8.761168">
<ele>271.0</ele>
<speed>76.2</speed>
<course>95.6</course>
<desc>Speed 76.2 km/h Distance 11.88 km</desc>
<time>2010-07-30T17:46:29.32</time>
<name>753</name>
</trkpt>
<trkpt lat="49.595682" lon="8.761643">
<ele>275.0</ele>
<speed>76.2</speed>
<course>72.9</course>
<desc>Speed 76.2 km/h Distance 11.91 km</desc>
<time>2010-07-30T17:46:34.32</time>
<name>754</name>
</trkpt>
<trkpt lat="49.595737" lon="8.761918">
<ele>276.5</ele>
<speed>76.2</speed>
<course>105.8</course>
<desc>Speed 76.2 km/h Distance 11.93 km</desc>
<time>2010-07-30T17:46:35.32</time>
<name>755</name>
</trkpt>
<trkpt lat="49.595402" lon="8.763742">
<ele>286.5</ele>
<speed>65.1</speed>
<course>125.0</course>
<desc>Speed 65.1 km/h Distance 12.07 km</desc>
<time>2010-07-30T17:46:40.31</time>
<name>756</name>
</trkpt>
<trkpt lat="49.595248" lon="8.764080">
<ele>288.0</ele>
<speed>65.1</speed>
<course>175.5</course>
<desc>Speed 65.1 km/h Distance 12.10 km</desc>
<time>2010-07-30T17:46:42.31</time>
<name>757</name>
</trkpt>
<trkpt lat="49.594152" lon="8.764213">
<ele>288.5</ele>
<speed>93.3</speed>
<course>184.0</course>
<desc>Speed 93.3 km/h Distance 12.22 km</desc>
<time>2010-07-30T17:46:48.30</time>
<name>758</name>
</trkpt>
<trkpt lat="49.593918" lon="8.764188">
<ele>289.0</ele>
<speed>91.8</speed>
<course>185.6</course>
<desc>Speed 91.8 km/h Distance 12.25 km</desc>
<time>2010-07-30T17:46:49.30</time>
<name>759</name>
</trkpt>
<trkpt lat="49.593698" lon="8.764155">
<ele>289.0</ele>
<speed>90.6</speed>
<course>180.9</course>
<desc>Speed 90.6 km/h Distance 12.27 km</desc>
<time>2010-07-30T17:46:50.30</time>
<name>760</name>
</trkpt>
<trkpt lat="49.593275" lon="8.764145">
<ele>289.5</ele>
<speed>94.2</speed>
<course>124.0</course>
<desc>Speed 94.2 km/h Distance 12.32 km</desc>
<time>2010-07-30T17:46:52.30</time>
<name>761</name>
</trkpt>
<trkpt lat="49.593017" lon="8.764737">
<ele>290.0</ele>
<speed>62.0</speed>
<course>80.7</course>
<desc>Speed 62.0 km/h Distance 12.37 km</desc>
<time>2010-07-30T17:46:57.30</time>
<name>762</name>
</trkpt>
<trkpt lat="49.593068" lon="8.765222">
<ele>290.0</ele>
<speed>61.5</speed>
<course>100.4</course>
<desc>Speed 61.5 km/h Distance 12.40 km</desc>
<time>2010-07-30T17:46:59.30</time>
<name>763</name>
</trkpt>
<trkpt lat="49.593042" lon="8.765447">
<ele>290.0</ele>
<speed>58.5</speed>
<course>97.3</course>
<desc>Speed 58.5 km/h Distance 12.42 km</desc>
<time>2010-07-30T17:47:00.30</time>
<name>764</name>
</trkpt>
<trkpt lat="49.592998" lon="8.765965">
<ele>291.0</ele>
<speed>65.5</speed>
<course>78.6</course>
<desc>Speed 65.5 km/h Distance 12.46 km</desc>
<time>2010-07-30T17:47:02.46</time>
<name>765</name>
</trkpt>
<trkpt lat="49.593105" lon="8.766778">
<ele>291.0</ele>
<speed>72.4</speed>
<course>68.9</course>
<desc>Speed 72.4 km/h Distance 12.52 km</desc>
<time>2010-07-30T17:47:05.30</time>
<name>766</name>
</trkpt>
<trkpt lat="49.593265" lon="8.767418">
<ele>291.5</ele>
<speed>52.6</speed>
<course>99.6</course>
<desc>Speed 52.6 km/h Distance 12.57 km</desc>
<time>2010-07-30T17:47:09.29</time>
<name>767</name>
</trkpt>
<trkpt lat="49.593218" lon="8.767843">
<ele>291.5</ele>
<speed>56.6</speed>
<course>116.5</course>
<desc>Speed 56.6 km/h Distance 12.60 km</desc>
<time>2010-07-30T17:47:12.29</time>
<name>768</name>
</trkpt>
<trkpt lat="49.593075" lon="8.768287">
<ele>291.5</ele>
<speed>65.8</speed>
<course>104.4</course>
<desc>Speed 65.8 km/h Distance 12.64 km</desc>
<time>2010-07-30T17:47:14.29</time>
<name>769</name>
</trkpt>
<trkpt lat="49.592958" lon="8.768990">
<ele>292.5</ele>
<speed>43.3</speed>
<course>135.7</course>
<desc>Speed 43.3 km/h Distance 12.69 km</desc>
<time>2010-07-30T17:47:18.29</time>
<name>770</name>
</trkpt>
<trkpt lat="49.592803" lon="8.769223">
<ele>292.5</ele>
<speed>41.9</speed>
<course>155.1</course>
<desc>Speed 41.9 km/h Distance 12.71 km</desc>
<time>2010-07-30T17:47:20.29</time>
<name>771</name>
</trkpt>
<trkpt lat="49.592297" lon="8.769587">
<ele>294.0</ele>
<speed>47.9</speed>
<course>157.3</course>
<desc>Speed 47.9 km/h Distance 12.77 km</desc>
<time>2010-07-30T17:47:23.91</time>
<name>772</name>
</trkpt>
<trkpt lat="49.592033" lon="8.769757">
<ele>294.5</ele>
<speed>47.9</speed>
<course>78.8</course>
<desc>Speed 47.9 km/h Distance 12.81 km</desc>
<time>2010-07-30T17:47:26.28</time>
<name>773</name>
</trkpt>
<trkpt lat="49.592152" lon="8.770675">
<ele>294.0</ele>
<speed>47.9</speed>
<course>82.0</course>
<desc>Speed 47.9 km/h Distance 12.87 km</desc>
<time>2010-07-30T17:47:31.28</time>
<name>774</name>
</trkpt>
<trkpt lat="49.592222" lon="8.771440">
<ele>292.0</ele>
<speed>66.9</speed>
<course>125.5</course>
<desc>Speed 66.9 km/h Distance 12.93 km</desc>
<time>2010-07-30T17:47:34.28</time>
<name>775</name>
</trkpt>
<trkpt lat="49.592025" lon="8.771865">
<ele>290.5</ele>
<speed>66.2</speed>
<course>141.7</course>
<desc>Speed 66.2 km/h Distance 12.97 km</desc>
<time>2010-07-30T17:47:36.27</time>
<name>776</name>
</trkpt>
<trkpt lat="49.591623" lon="8.772355">
<ele>293.5</ele>
<speed>91.5</speed>
<course>174.5</course>
<desc>Speed 91.5 km/h Distance 13.02 km</desc>
<time>2010-07-30T17:47:40.26</time>
<name>777</name>
</trkpt>
<trkpt lat="49.590818" lon="8.772475">
<ele>298.5</ele>
<speed>69.6</speed>
<course>130.4</course>
<desc>Speed 69.6 km/h Distance 13.11 km</desc>
<time>2010-07-30T17:47:44.27</time>
<name>778</name>
</trkpt>
<trkpt lat="49.590590" lon="8.772888">
<ele>300.5</ele>
<speed>61.5</speed>
<course>97.2</course>
<desc>Speed 61.5 km/h Distance 13.15 km</desc>
<time>2010-07-30T17:47:46.26</time>
<name>779</name>
</trkpt>
<trkpt lat="49.590560" lon="8.773253">
<ele>303.0</ele>
<speed>61.5</speed>
<course>105.8</course>
<desc>Speed 61.5 km/h Distance 13.18 km</desc>
<time>2010-07-30T17:47:48.26</time>
<name>780</name>
</trkpt>
<trkpt lat="49.590437" lon="8.773927">
<ele>304.5</ele>
<speed>62.9</speed>
<course>109.7</course>
<desc>Speed 62.9 km/h Distance 13.23 km</desc>
<time>2010-07-30T17:47:52.25</time>
<name>781</name>
</trkpt>
<trkpt lat="49.590337" lon="8.774357">
<ele>305.5</ele>
<speed>62.9</speed>
<course>118.5</course>
<desc>Speed 62.9 km/h Distance 13.26 km</desc>
<time>2010-07-30T17:47:54.25</time>
<name>782</name>
</trkpt>
<trkpt lat="49.590193" lon="8.774763">
<ele>309.5</ele>
<speed>62.9</speed>
<course>109.9</course>
<desc>Speed 62.9 km/h Distance 13.30 km</desc>
<time>2010-07-30T17:47:56.25</time>
<name>783</name>
</trkpt>
<trkpt lat="49.590073" lon="8.775273">
<ele>309.0</ele>
<speed>73.1</speed>
<course>107.0</course>
<desc>Speed 73.1 km/h Distance 13.34 km</desc>
<time>2010-07-30T17:47:58.26</time>
<name>784</name>
</trkpt>
<trkpt lat="49.589910" lon="8.776098">
<ele>309.5</ele>
<speed>73.1</speed>
<course>103.5</course>
<desc>Speed 73.1 km/h Distance 13.40 km</desc>
<time>2010-07-30T17:48:01.25</time>
<name>785</name>
</trkpt>
<trkpt lat="49.589790" lon="8.776868">
<ele>315.0</ele>
<speed>73.1</speed>
<course>225.4</course>
<desc>Speed 73.1 km/h Distance 13.45 km</desc>
<time>2010-07-30T17:48:06.24</time>
<name>786</name>
</trkpt>
<trkpt lat="49.588770" lon="8.775275">
<ele>320.5</ele>
<speed>73.1</speed>
<course>169.2</course>
<desc>Speed 73.1 km/h Distance 13.62 km</desc>
<time>2010-07-30T17:48:22.24</time>
<name>787</name>
</trkpt>
<trkpt lat="49.587018" lon="8.775792">
<ele>328.0</ele>
<speed>57.3</speed>
<course>93.2</course>
<desc>Speed 57.3 km/h Distance 13.81 km</desc>
<time>2010-07-30T17:48:28.22</time>
<name>788</name>
</trkpt>
<trkpt lat="49.587002" lon="8.776247">
<ele>330.0</ele>
<speed>57.3</speed>
<course>77.1</course>
<desc>Speed 57.3 km/h Distance 13.85 km</desc>
<time>2010-07-30T17:48:31.22</time>
<name>789</name>
</trkpt>
<trkpt lat="49.587078" lon="8.776763">
<ele>332.5</ele>
<speed>57.2</speed>
<course>91.2</course>
<desc>Speed 57.2 km/h Distance 13.89 km</desc>
<time>2010-07-30T17:48:33.22</time>
<name>790</name>
</trkpt>
<trkpt lat="49.587073" lon="8.777125">
<ele>333.0</ele>
<speed>57.2</speed>
<course>116.5</course>
<desc>Speed 57.2 km/h Distance 13.91 km</desc>
<time>2010-07-30T17:48:35.22</time>
<name>791</name>
</trkpt>
<trkpt lat="49.584190" lon="8.786053">
<ele>336.0</ele>
<speed>66.4</speed>
<course>140.0</course>
<desc>Speed 66.4 km/h Distance 14.63 km</desc>
<time>2010-07-30T17:49:18.20</time>
<name>792</name>
</trkpt>
<trkpt lat="49.583355" lon="8.787133">
<ele>346.5</ele>
<speed>76.8</speed>
<course>139.2</course>
<desc>Speed 76.8 km/h Distance 14.75 km</desc>
<time>2010-07-30T17:49:23.19</time>
<name>793</name>
</trkpt>
<trkpt lat="49.582815" lon="8.787853">
<ele>375.0</ele>
<speed>71.2</speed>
<course>91.8</course>
<desc>Speed 71.2 km/h Distance 14.83 km</desc>
<time>2010-07-30T17:49:26.19</time>
<name>794</name>
</trkpt>
<trkpt lat="49.582805" lon="8.788337">
<ele>379.0</ele>
<speed>64.3</speed>
<course>96.1</course>
<desc>Speed 64.3 km/h Distance 14.87 km</desc>
<time>2010-07-30T17:49:28.19</time>
<name>795</name>
</trkpt>
<trkpt lat="49.582777" lon="8.788748">
<ele>383.0</ele>
<speed>64.3</speed>
<course>136.1</course>
<desc>Speed 64.3 km/h Distance 14.90 km</desc>
<time>2010-07-30T17:49:30.19</time>
<name>796</name>
</trkpt>
<trkpt lat="49.582482" lon="8.789187">
<ele>397.5</ele>
<speed>64.3</speed>
<course>150.2</course>
<desc>Speed 64.3 km/h Distance 14.94 km</desc>
<time>2010-07-30T17:49:34.18</time>
<name>797</name>
</trkpt>
<trkpt lat="49.581352" lon="8.790183">
<ele>403.5</ele>
<speed>98.0</speed>
<course>170.3</course>
<desc>Speed 98.0 km/h Distance 15.09 km</desc>
<time>2010-07-30T17:49:39.18</time>
<name>798</name>
</trkpt>
<trkpt lat="49.579988" lon="8.790542">
<ele>412.5</ele>
<speed>67.8</speed>
<course>146.9</course>
<desc>Speed 67.8 km/h Distance 15.24 km</desc>
<time>2010-07-30T17:49:44.18</time>
<name>799</name>
</trkpt>
<trkpt lat="49.579742" lon="8.790790">
<ele>415.0</ele>
<speed>67.8</speed>
<course>111.5</course>
<desc>Speed 67.8 km/h Distance 15.27 km</desc>
<time>2010-07-30T17:49:46.17</time>
<name>800</name>
</trkpt>
<trkpt lat="49.579637" lon="8.791202">
<ele>416.5</ele>
<speed>56.6</speed>
<course>81.8</course>
<desc>Speed 56.6 km/h Distance 15.31 km</desc>
<time>2010-07-30T17:49:48.17</time>
<name>801</name>
</trkpt>
<trkpt lat="49.579677" lon="8.791630">
<ele>419.5</ele>
<speed>56.6</speed>
<course>63.0</course>
<desc>Speed 56.6 km/h Distance 15.34 km</desc>
<time>2010-07-30T17:49:50.18</time>
<name>802</name>
</trkpt>
<trkpt lat="49.579777" lon="8.791933">
<ele>424.5</ele>
<speed>56.6</speed>
<course>79.3</course>
<desc>Speed 56.6 km/h Distance 15.36 km</desc>
<time>2010-07-30T17:49:52.18</time>
<name>803</name>
</trkpt>
<trkpt lat="49.579825" lon="8.792328">
<ele>426.0</ele>
<speed>56.6</speed>
<course>100.4</course>
<desc>Speed 56.6 km/h Distance 15.39 km</desc>
<time>2010-07-30T17:49:57.16</time>
<name>804</name>
</trkpt>
<trkpt lat="49.579722" lon="8.793198">
<ele>426.5</ele>
<speed>48.5</speed>
<course>43.0</course>
<desc>Speed 48.5 km/h Distance 15.46 km</desc>
<time>2010-07-30T17:50:01.17</time>
<name>805</name>
</trkpt>
<trkpt lat="49.580505" lon="8.794327">
<ele>424.5</ele>
<speed>64.9</speed>
<course>51.2</course>
<desc>Speed 64.9 km/h Distance 15.57 km</desc>
<time>2010-07-30T17:50:06.17</time>
<name>806</name>
</trkpt>
<trkpt lat="49.580695" lon="8.794692">
<ele>426.0</ele>
<speed>55.9</speed>
<course>73.3</course>
<desc>Speed 55.9 km/h Distance 15.61 km</desc>
<time>2010-07-30T17:50:08.17</time>
<name>807</name>
</trkpt>
<trkpt lat="49.580783" lon="8.795145">
<ele>429.0</ele>
<speed>58.2</speed>
<course>99.6</course>
<desc>Speed 58.2 km/h Distance 15.64 km</desc>
<time>2010-07-30T17:50:10.16</time>
<name>808</name>
</trkpt>
<trkpt lat="49.580738" lon="8.795553">
<ele>439.0</ele>
<speed>58.2</speed>
<course>126.2</course>
<desc>Speed 58.2 km/h Distance 15.67 km</desc>
<time>2010-07-30T17:50:12.16</time>
<name>809</name>
</trkpt>
<trkpt lat="49.580448" lon="8.796163">
<ele>443.0</ele>
<speed>78.0</speed>
<course>135.4</course>
<desc>Speed 78.0 km/h Distance 15.73 km</desc>
<time>2010-07-30T17:50:15.15</time>
<name>810</name>
</trkpt>
<trkpt lat="49.580150" lon="8.796617">
<ele>445.5</ele>
<speed>79.0</speed>
<course>133.9</course>
<desc>Speed 79.0 km/h Distance 15.77 km</desc>
<time>2010-07-30T17:50:17.15</time>
<name>811</name>
</trkpt>
<trkpt lat="49.579852" lon="8.797095">
<ele>447.5</ele>
<speed>79.3</speed>
<course>127.2</course>
<desc>Speed 79.3 km/h Distance 15.82 km</desc>
<time>2010-07-30T17:50:19.15</time>
<name>812</name>
</trkpt>
<trkpt lat="49.579583" lon="8.797640">
<ele>447.5</ele>
<speed>86.1</speed>
<course>134.4</course>
<desc>Speed 86.1 km/h Distance 15.87 km</desc>
<time>2010-07-30T17:50:21.16</time>
<name>813</name>
</trkpt>
<trkpt lat="49.579250" lon="8.798165">
<ele>449.0</ele>
<speed>85.6</speed>
<course>125.4</course>
<desc>Speed 85.6 km/h Distance 15.92 km</desc>
<time>2010-07-30T17:50:23.16</time>
<name>814</name>
</trkpt>
<trkpt lat="49.578932" lon="8.798855">
<ele>450.5</ele>
<speed>67.1</speed>
<course>96.6</course>
<desc>Speed 67.1 km/h Distance 15.99 km</desc>
<time>2010-07-30T17:50:26.15</time>
<name>815</name>
</trkpt>
<trkpt lat="49.578895" lon="8.799345">
<ele>450.0</ele>
<speed>64.6</speed>
<course>92.5</course>
<desc>Speed 64.6 km/h Distance 16.02 km</desc>
<time>2010-07-30T17:50:28.15</time>
<name>816</name>
</trkpt>
<trkpt lat="49.578882" lon="8.799810">
<ele>450.0</ele>
<speed>57.6</speed>
<course>113.0</course>
<desc>Speed 57.6 km/h Distance 16.05 km</desc>
<time>2010-07-30T17:50:30.16</time>
<name>817</name>
</trkpt>
<trkpt lat="49.578782" lon="8.800173">
<ele>450.0</ele>
<speed>54.2</speed>
<course>129.1</course>
<desc>Speed 54.2 km/h Distance 16.08 km</desc>
<time>2010-07-30T17:50:32.15</time>
<name>818</name>
</trkpt>
<trkpt lat="49.578613" lon="8.800493">
<ele>450.0</ele>
<speed>54.2</speed>
<course>146.4</course>
<desc>Speed 54.2 km/h Distance 16.11 km</desc>
<time>2010-07-30T17:50:34.15</time>
<name>819</name>
</trkpt>
<trkpt lat="49.578278" lon="8.800837">
<ele>448.5</ele>
<speed>53.1</speed>
<course>148.4</course>
<desc>Speed 53.1 km/h Distance 16.16 km</desc>
<time>2010-07-30T17:50:38.14</time>
<name>820</name>
</trkpt>
<trkpt lat="49.578050" lon="8.801053">
<ele>448.5</ele>
<speed>53.1</speed>
<course>155.3</course>
<desc>Speed 53.1 km/h Distance 16.19 km</desc>
<time>2010-07-30T17:50:40.14</time>
<name>821</name>
</trkpt>
<trkpt lat="49.577843" lon="8.801200">
<ele>448.5</ele>
<speed>53.1</speed>
<course>178.6</course>
<desc>Speed 53.1 km/h Distance 16.21 km</desc>
<time>2010-07-30T17:50:42.14</time>
<name>822</name>
</trkpt>
<trkpt lat="49.577625" lon="8.801208">
<ele>449.5</ele>
<speed>53.1</speed>
<course>163.1</course>
<desc>Speed 53.1 km/h Distance 16.24 km</desc>
<time>2010-07-30T17:50:47.14</time>
<name>823</name>
</trkpt>
<trkpt lat="49.577368" lon="8.801328">
<ele>451.5</ele>
<speed>53.1</speed>
<course>190.1</course>
<desc>Speed 53.1 km/h Distance 16.27 km</desc>
<time>2010-07-30T17:50:51.13</time>
<name>824</name>
</trkpt>
<trkpt lat="49.576993" lon="8.801225">
<ele>453.0</ele>
<speed>55.3</speed>
<course>225.3</course>
<desc>Speed 55.3 km/h Distance 16.31 km</desc>
<time>2010-07-30T17:50:55.13</time>
<name>825</name>
</trkpt>
<trkpt lat="49.576620" lon="8.800643">
<ele>454.0</ele>
<speed>59.8</speed>
<course>221.6</course>
<desc>Speed 59.8 km/h Distance 16.37 km</desc>
<time>2010-07-30T17:50:58.13</time>
<name>826</name>
</trkpt>
<trkpt lat="49.576375" lon="8.800308">
<ele>454.5</ele>
<speed>59.8</speed>
<course>203.9</course>
<desc>Speed 59.8 km/h Distance 16.40 km</desc>
<time>2010-07-30T17:51:00.13</time>
<name>827</name>
</trkpt>
<trkpt lat="49.575712" lon="8.799855">
<ele>457.0</ele>
<speed>59.8</speed>
<course>171.0</course>
<desc>Speed 59.8 km/h Distance 16.49 km</desc>
<time>2010-07-30T17:51:04.13</time>
<name>828</name>
</trkpt>
<trkpt lat="49.575398" lon="8.799932">
<ele>456.0</ele>
<speed>59.8</speed>
<course>144.1</course>
<desc>Speed 59.8 km/h Distance 16.52 km</desc>
<time>2010-07-30T17:51:07.13</time>
<name>829</name>
</trkpt>
<trkpt lat="49.574177" lon="8.801293">
<ele>453.5</ele>
<speed>64.9</speed>
<course>131.5</course>
<desc>Speed 64.9 km/h Distance 16.69 km</desc>
<time>2010-07-30T17:51:14.13</time>
<name>830</name>
</trkpt>
<trkpt lat="49.573753" lon="8.802030">
<ele>453.0</ele>
<speed>72.0</speed>
<course>72.6</course>
<desc>Speed 72.0 km/h Distance 16.76 km</desc>
<time>2010-07-30T17:51:17.12</time>
<name>831</name>
</trkpt>
<trkpt lat="49.573843" lon="8.802472">
<ele>453.0</ele>
<speed>64.2</speed>
<course>68.8</course>
<desc>Speed 64.2 km/h Distance 16.79 km</desc>
<time>2010-07-30T17:51:19.12</time>
<name>832</name>
</trkpt>
<trkpt lat="49.573962" lon="8.802942">
<ele>453.5</ele>
<speed>64.2</speed>
<course>110.1</course>
<desc>Speed 64.2 km/h Distance 16.83 km</desc>
<time>2010-07-30T17:51:22.11</time>
<name>833</name>
</trkpt>
<trkpt lat="49.573883" lon="8.803272">
<ele>454.0</ele>
<speed>64.2</speed>
<course>91.6</course>
<desc>Speed 64.2 km/h Distance 16.85 km</desc>
<time>2010-07-30T17:51:27.12</time>
<name>834</name>
</trkpt>
<trkpt lat="49.573872" lon="8.803913">
<ele>455.0</ele>
<speed>31.3</speed>
<course>89.5</course>
<desc>Speed 31.3 km/h Distance 16.90 km</desc>
<time>2010-07-30T17:51:33.11</time>
<name>835</name>
</trkpt>
<trkpt lat="49.573873" lon="8.804202">
<ele>455.5</ele>
<speed>31.3</speed>
<course>96.0</course>
<desc>Speed 31.3 km/h Distance 16.92 km</desc>
<time>2010-07-30T17:51:35.11</time>
<name>836</name>
</trkpt>
<trkpt lat="49.573857" lon="8.804445">
<ele>455.5</ele>
<speed>31.3</speed>
<course>97.1</course>
<desc>Speed 31.3 km/h Distance 16.94 km</desc>
<time>2010-07-30T17:51:37.11</time>
<name>837</name>
</trkpt>
<trkpt lat="49.573842" lon="8.804630">
<ele>456.0</ele>
<speed>31.3</speed>
<course>93.0</course>
<desc>Speed 31.3 km/h Distance 16.95 km</desc>
<time>2010-07-30T17:51:39.11</time>
<name>838</name>
</trkpt>
<trkpt lat="49.573813" lon="8.805465">
<ele>456.0</ele>
<speed>58.5</speed>
<course>116.4</course>
<desc>Speed 58.5 km/h Distance 17.01 km</desc>
<time>2010-07-30T17:51:43.11</time>
<name>839</name>
</trkpt>
<trkpt lat="49.573647" lon="8.805983">
<ele>455.5</ele>
<speed>22.0</speed>
<course>165.9</course>
<desc>Speed 22.0 km/h Distance 17.06 km</desc>
<time>2010-07-30T17:51:49.09</time>
<name>840</name>
</trkpt>
<trkpt lat="49.572322" lon="8.806498">
<ele>455.0</ele>
<speed>22.0</speed>
<course>119.2</course>
<desc>Speed 22.0 km/h Distance 17.21 km</desc>
<time>2010-07-30T17:51:53.09</time>
<name>841</name>
</trkpt>
<trkpt lat="49.572260" lon="8.806668">
<ele>455.0</ele>
<speed>22.0</speed>
<course>153.4</course>
<desc>Speed 22.0 km/h Distance 17.22 km</desc>
<time>2010-07-30T17:51:55.09</time>
<name>842</name>
</trkpt>
<trkpt lat="49.571507" lon="8.807250">
<ele>455.5</ele>
<speed>74.8</speed>
<course>134.8</course>
<desc>Speed 74.8 km/h Distance 17.32 km</desc>
<time>2010-07-30T17:51:59.10</time>
<name>843</name>
</trkpt>
<trkpt lat="49.571230" lon="8.807680">
<ele>456.0</ele>
<speed>74.8</speed>
<course>150.1</course>
<desc>Speed 74.8 km/h Distance 17.36 km</desc>
<time>2010-07-30T17:52:01.11</time>
<name>844</name>
</trkpt>
<trkpt lat="49.570665" lon="8.808182">
<ele>455.5</ele>
<speed>58.6</speed>
<course>163.6</course>
<desc>Speed 58.6 km/h Distance 17.43 km</desc>
<time>2010-07-30T17:52:04.09</time>
<name>845</name>
</trkpt>
<trkpt lat="49.570132" lon="8.808423">
<ele>455.5</ele>
<speed>51.9</speed>
<course>172.0</course>
<desc>Speed 51.9 km/h Distance 17.49 km</desc>
<time>2010-07-30T17:52:07.09</time>
<name>846</name>
</trkpt>
<trkpt lat="49.569855" lon="8.808483">
<ele>455.0</ele>
<speed>33.8</speed>
<course>209.1</course>
<desc>Speed 33.8 km/h Distance 17.52 km</desc>
<time>2010-07-30T17:52:10.09</time>
<name>847</name>
</trkpt>
<trkpt lat="49.569678" lon="8.808332">
<ele>455.5</ele>
<speed>33.8</speed>
<course>237.1</course>
<desc>Speed 33.8 km/h Distance 17.55 km</desc>
<time>2010-07-30T17:52:13.09</time>
<name>848</name>
</trkpt>
<trkpt lat="49.569608" lon="8.808165">
<ele>456.5</ele>
<speed>33.8</speed>
<course>206.0</course>
<desc>Speed 33.8 km/h Distance 17.56 km</desc>
<time>2010-07-30T17:52:15.08</time>
<name>849</name>
</trkpt>
<trkpt lat="49.568000" lon="8.806955">
<ele>462.5</ele>
<speed>126</speed>
<course>216.3</course>
<desc>Speed 126 km/h Distance 17.76 km</desc>
<time>2010-07-30T17:52:21.08</time>
<name>850</name>
</trkpt>
<trkpt lat="49.567077" lon="8.805910">
<ele>462.5</ele>
<speed>62.2</speed>
<course>219.1</course>
<desc>Speed 62.2 km/h Distance 17.89 km</desc>
<time>2010-07-30T17:52:27.06</time>
<name>851</name>
</trkpt>
<trkpt lat="49.566887" lon="8.805672">
<ele>462.5</ele>
<speed>62.2</speed>
<course>204.8</course>
<desc>Speed 62.2 km/h Distance 17.92 km</desc>
<time>2010-07-30T17:52:29.06</time>
<name>852</name>
</trkpt>
<trkpt lat="49.566523" lon="8.805413">
<ele>462.5</ele>
<speed>62.2</speed>
<course>140.9</course>
<desc>Speed 62.2 km/h Distance 17.96 km</desc>
<time>2010-07-30T17:52:34.05</time>
<name>853</name>
</trkpt>
<trkpt lat="49.565622" lon="8.806543">
<ele>461.5</ele>
<speed>62.2</speed>
<course>122.4</course>
<desc>Speed 62.2 km/h Distance 18.09 km</desc>
<time>2010-07-30T17:52:42.04</time>
<name>854</name>
</trkpt>
<trkpt lat="49.565442" lon="8.806980">
<ele>461.0</ele>
<speed>62.2</speed>
<course>98.8</course>
<desc>Speed 62.2 km/h Distance 18.13 km</desc>
<time>2010-07-30T17:52:44.05</time>
<name>855</name>
</trkpt>
<trkpt lat="49.565400" lon="8.807393">
<ele>461.5</ele>
<speed>62.2</speed>
<course>94.0</course>
<desc>Speed 62.2 km/h Distance 18.16 km</desc>
<time>2010-07-30T17:52:46.05</time>
<name>856</name>
</trkpt>
<trkpt lat="49.565380" lon="8.807838">
<ele>460.5</ele>
<speed>59.4</speed>
<course>117.7</course>
<desc>Speed 59.4 km/h Distance 18.19 km</desc>
<time>2010-07-30T17:52:48.05</time>
<name>857</name>
</trkpt>
<trkpt lat="49.565235" lon="8.808265">
<ele>461.0</ele>
<speed>59.4</speed>
<course>129.8</course>
<desc>Speed 59.4 km/h Distance 18.22 km</desc>
<time>2010-07-30T17:52:50.05</time>
<name>858</name>
</trkpt>
<trkpt lat="49.565057" lon="8.808595">
<ele>462.5</ele>
<speed>57.6</speed>
<course>142.4</course>
<desc>Speed 57.6 km/h Distance 18.25 km</desc>
<time>2010-07-30T17:52:52.04</time>
<name>859</name>
</trkpt>
<trkpt lat="49.564790" lon="8.808912">
<ele>463.5</ele>
<speed>68.1</speed>
<course>139.7</course>
<desc>Speed 68.1 km/h Distance 18.29 km</desc>
<time>2010-07-30T17:52:54.04</time>
<name>860</name>
</trkpt>
<trkpt lat="49.564115" lon="8.809793">
<ele>477.5</ele>
<speed>59.8</speed>
<course>139.2</course>
<desc>Speed 59.8 km/h Distance 18.39 km</desc>
<time>2010-07-30T17:52:58.03</time>
<name>861</name>
</trkpt>
<trkpt lat="49.563998" lon="8.809948">
<ele>478.0</ele>
<speed>59.4</speed>
<course>135.6</course>
<desc>Speed 59.4 km/h Distance 18.41 km</desc>
<time>2010-07-30T17:52:59.03</time>
<name>862</name>
</trkpt>
<trkpt lat="49.563883" lon="8.810122">
<ele>478.5</ele>
<speed>62.0</speed>
<course>130.2</course>
<desc>Speed 62.0 km/h Distance 18.43 km</desc>
<time>2010-07-30T17:53:00.03</time>
<name>863</name>
</trkpt>
<trkpt lat="49.563778" lon="8.810313">
<ele>478.5</ele>
<speed>62.7</speed>
<course>124.6</course>
<desc>Speed 62.7 km/h Distance 18.44 km</desc>
<time>2010-07-30T17:53:01.03</time>
<name>864</name>
</trkpt>
<trkpt lat="49.563687" lon="8.810518">
<ele>479.0</ele>
<speed>62.2</speed>
<course>124.0</course>
<desc>Speed 62.2 km/h Distance 18.46 km</desc>
<time>2010-07-30T17:53:02.03</time>
<name>865</name>
</trkpt>
<trkpt lat="49.563593" lon="8.810732">
<ele>478.5</ele>
<speed>64.7</speed>
<course>126.0</course>
<desc>Speed 64.7 km/h Distance 18.48 km</desc>
<time>2010-07-30T17:53:03.03</time>
<name>866</name>
</trkpt>
<trkpt lat="49.563497" lon="8.810937">
<ele>478.5</ele>
<speed>65.5</speed>
<course>126.3</course>
<desc>Speed 65.5 km/h Distance 18.50 km</desc>
<time>2010-07-30T17:53:04.03</time>
<name>867</name>
</trkpt>
<trkpt lat="49.563397" lon="8.811147">
<ele>478.5</ele>
<speed>67.0</speed>
<course>125.8</course>
<desc>Speed 67.0 km/h Distance 18.52 km</desc>
<time>2010-07-30T17:53:05.03</time>
<name>868</name>
</trkpt>
<trkpt lat="49.563298" lon="8.811357">
<ele>478.0</ele>
<speed>66.7</speed>
<course>125.2</course>
<desc>Speed 66.7 km/h Distance 18.54 km</desc>
<time>2010-07-30T17:53:06.05</time>
<name>869</name>
</trkpt>
<trkpt lat="49.563122" lon="8.811743">
<ele>478.5</ele>
<speed>58.5</speed>
<course>128.4</course>
<desc>Speed 58.5 km/h Distance 18.57 km</desc>
<time>2010-07-30T17:53:08.07</time>
<name>870</name>
</trkpt>
<trkpt lat="49.562970" lon="8.812038">
<ele>479.5</ele>
<speed>58.5</speed>
<course>129.8</course>
<desc>Speed 58.5 km/h Distance 18.60 km</desc>
<time>2010-07-30T17:53:10.03</time>
<name>871</name>
</trkpt>
<trkpt lat="49.562850" lon="8.812260">
<ele>478.5</ele>
<speed>2.2</speed>
<course>52.4</course>
<desc>Speed 2.2 km/h Distance 18.62 km</desc>
<time>2010-07-30T17:53:16.03</time>
<name>872</name>
</trkpt>
<trkpt lat="49.562858" lon="8.812277">
<ele>478.0</ele>
<speed>3.7</speed>
<course>101.3</course>
<desc>Speed 3.7 km/h Distance 18.62 km</desc>
<time>2010-07-30T17:53:18.02</time>
<name>873</name>
</trkpt>
<trkpt lat="49.562845" lon="8.812380">
<ele>479.0</ele>
<speed>15.0</speed>
<course>75.1</course>
<desc>Speed 15.0 km/h Distance 18.63 km</desc>
<time>2010-07-30T17:53:20.02</time>
<name>874</name>
</trkpt>
<trkpt lat="49.562853" lon="8.812428">
<ele>479.0</ele>
<speed>13.3</speed>
<course>70.4</course>
<desc>Speed 13.3 km/h Distance 18.63 km</desc>
<time>2010-07-30T17:53:21.04</time>
<name>875</name>
</trkpt>
<trkpt lat="49.562863" lon="8.812472">
<ele>479.0</ele>
<speed>11.6</speed>
<course>70.2</course>
<desc>Speed 11.6 km/h Distance 18.63 km</desc>
<time>2010-07-30T17:53:22.02</time>
<name>876</name>
</trkpt>
<trkpt lat="49.562875" lon="8.812522">
<ele>479.0</ele>
<speed>13.3</speed>
<course>65.0</course>
<desc>Speed 13.3 km/h Distance 18.64 km</desc>
<time>2010-07-30T17:53:23.02</time>
<name>877</name>
</trkpt>
<trkpt lat="49.562963" lon="8.812813">
<ele>478.5</ele>
<speed>32.4</speed>
<course>55.1</course>
<desc>Speed 32.4 km/h Distance 18.66 km</desc>
<time>2010-07-30T17:53:26.03</time>
<name>878</name>
</trkpt>
<trkpt lat="49.563012" lon="8.812920">
<ele>478.5</ele>
<speed>33.4</speed>
<course>47.5</course>
<desc>Speed 33.4 km/h Distance 18.67 km</desc>
<time>2010-07-30T17:53:27.02</time>
<name>879</name>
</trkpt>
<trkpt lat="49.563075" lon="8.813027">
<ele>479.0</ele>
<speed>37.3</speed>
<course>38.7</course>
<desc>Speed 37.3 km/h Distance 18.68 km</desc>
<time>2010-07-30T17:53:28.03</time>
<name>880</name>
</trkpt>
<trkpt lat="49.563153" lon="8.813123">
<ele>478.0</ele>
<speed>39.7</speed>
<course>22.9</course>
<desc>Speed 39.7 km/h Distance 18.69 km</desc>
<time>2010-07-30T17:53:29.02</time>
<name>881</name>
</trkpt>
<trkpt lat="49.563258" lon="8.813192">
<ele>477.5</ele>
<speed>44.7</speed>
<course>17.0</course>
<desc>Speed 44.7 km/h Distance 18.71 km</desc>
<time>2010-07-30T17:53:30.01</time>
<name>882</name>
</trkpt>
<trkpt lat="49.563372" lon="8.813245">
<ele>477.0</ele>
<speed>45.7</speed>
<course>6.8</course>
<desc>Speed 45.7 km/h Distance 18.72 km</desc>
<time>2010-07-30T17:53:31.02</time>
<name>883</name>
</trkpt>
<trkpt lat="49.563490" lon="8.813267">
<ele>478.0</ele>
<speed>46.3</speed>
<course>7.5</course>
<desc>Speed 46.3 km/h Distance 18.73 km</desc>
<time>2010-07-30T17:53:32.02</time>
<name>884</name>
</trkpt>
<trkpt lat="49.563613" lon="8.813292">
<ele>477.5</ele>
<speed>48.3</speed>
<course>7.3</course>
<desc>Speed 48.3 km/h Distance 18.75 km</desc>
<time>2010-07-30T17:53:33.02</time>
<name>885</name>
</trkpt>
<trkpt lat="49.563740" lon="8.813317">
<ele>477.0</ele>
<speed>50.9</speed>
<course>7.6</course>
<desc>Speed 50.9 km/h Distance 18.76 km</desc>
<time>2010-07-30T17:53:34.01</time>
<name>886</name>
</trkpt>
<trkpt lat="49.563878" lon="8.813345">
<ele>476.0</ele>
<speed>55.2</speed>
<course>9.8</course>
<desc>Speed 55.2 km/h Distance 18.78 km</desc>
<time>2010-07-30T17:53:35.01</time>
<name>887</name>
</trkpt>
<trkpt lat="49.564017" lon="8.813382">
<ele>476.0</ele>
<speed>56.7</speed>
<course>8.6</course>
<desc>Speed 56.7 km/h Distance 18.79 km</desc>
<time>2010-07-30T17:53:36.02</time>
<name>888</name>
</trkpt>
<trkpt lat="49.564160" lon="8.813415">
<ele>475.5</ele>
<speed>58.2</speed>
<course>11.9</course>
<desc>Speed 58.2 km/h Distance 18.81 km</desc>
<time>2010-07-30T17:53:37.01</time>
<name>889</name>
</trkpt>
<trkpt lat="49.564447" lon="8.813508">
<ele>475.0</ele>
<speed>59.0</speed>
<course>15.0</course>
<desc>Speed 59.0 km/h Distance 18.84 km</desc>
<time>2010-07-30T17:53:39.02</time>
<name>890</name>
</trkpt>
<trkpt lat="49.564592" lon="8.813568">
<ele>475.0</ele>
<speed>60.3</speed>
<course>17.2</course>
<desc>Speed 60.3 km/h Distance 18.86 km</desc>
<time>2010-07-30T17:53:40.00</time>
<name>891</name>
</trkpt>
<trkpt lat="49.564738" lon="8.813638">
<ele>475.0</ele>
<speed>61.3</speed>
<course>15.9</course>
<desc>Speed 61.3 km/h Distance 18.87 km</desc>
<time>2010-07-30T17:53:41.01</time>
<name>892</name>
</trkpt>
<trkpt lat="49.564890" lon="8.813705">
<ele>474.5</ele>
<speed>63.0</speed>
<course>14.7</course>
<desc>Speed 63.0 km/h Distance 18.89 km</desc>
<time>2010-07-30T17:53:42.01</time>
<name>893</name>
</trkpt>
<trkpt lat="49.565047" lon="8.813768">
<ele>474.0</ele>
<speed>64.5</speed>
<course>14.4</course>
<desc>Speed 64.5 km/h Distance 18.91 km</desc>
<time>2010-07-30T17:53:43.00</time>
<name>894</name>
</trkpt>
<trkpt lat="49.565198" lon="8.813828">
<ele>473.0</ele>
<speed>62.4</speed>
<course>15.0</course>
<desc>Speed 62.4 km/h Distance 18.93 km</desc>
<time>2010-07-30T17:53:44.01</time>
<name>895</name>
</trkpt>
<trkpt lat="49.565343" lon="8.813888">
<ele>472.5</ele>
<speed>59.9</speed>
<course>13.2</course>
<desc>Speed 59.9 km/h Distance 18.94 km</desc>
<time>2010-07-30T17:53:45.01</time>
<name>896</name>
</trkpt>
<trkpt lat="49.565482" lon="8.813938">
<ele>471.5</ele>
<speed>57.1</speed>
<course>2.7</course>
<desc>Speed 57.1 km/h Distance 18.96 km</desc>
<time>2010-07-30T17:53:46.00</time>
<name>897</name>
</trkpt>
<trkpt lat="49.565617" lon="8.813948">
<ele>471.5</ele>
<speed>54.3</speed>
<course>355.3</course>
<desc>Speed 54.3 km/h Distance 18.97 km</desc>
<time>2010-07-30T17:53:47.00</time>
<name>898</name>
</trkpt>
<trkpt lat="49.565760" lon="8.813930">
<ele>471.0</ele>
<speed>56.9</speed>
<course>347.7</course>
<desc>Speed 56.9 km/h Distance 18.99 km</desc>
<time>2010-07-30T17:53:48.00</time>
<name>899</name>
</trkpt>
<trkpt lat="49.565898" lon="8.813883">
<ele>471.0</ele>
<speed>55.9</speed>
<course>347.5</course>
<desc>Speed 55.9 km/h Distance 19.01 km</desc>
<time>2010-07-30T17:53:49.00</time>
<name>900</name>
</trkpt>
<trkpt lat="49.566045" lon="8.813833">
<ele>470.0</ele>
<speed>59.1</speed>
<course>348.2</course>
<desc>Speed 59.1 km/h Distance 19.02 km</desc>
<time>2010-07-30T17:53:50.00</time>
<name>901</name>
</trkpt>
<trkpt lat="49.566195" lon="8.813785">
<ele>470.0</ele>
<speed>60.0</speed>
<course>348.8</course>
<desc>Speed 60.0 km/h Distance 19.04 km</desc>
<time>2010-07-30T17:53:51.00</time>
<name>902</name>
</trkpt>
<trkpt lat="49.566337" lon="8.813742">
<ele>469.5</ele>
<speed>57.5</speed>
<course>348.5</course>
<desc>Speed 57.5 km/h Distance 19.06 km</desc>
<time>2010-07-30T17:53:52.00</time>
<name>903</name>
</trkpt>
<trkpt lat="49.566470" lon="8.813700">
<ele>469.5</ele>
<speed>54.1</speed>
<course>353.8</course>
<desc>Speed 54.1 km/h Distance 19.07 km</desc>
<time>2010-07-30T17:53:53.00</time>
<name>904</name>
</trkpt>
<trkpt lat="49.566600" lon="8.813678">
<ele>469.0</ele>
<speed>51.2</speed>
<course>5.4</course>
<desc>Speed 51.2 km/h Distance 19.09 km</desc>
<time>2010-07-30T17:53:54.00</time>
<name>905</name>
</trkpt>
<trkpt lat="49.566715" lon="8.813695">
<ele>468.5</ele>
<speed>45.1</speed>
<course>17.5</course>
<desc>Speed 45.1 km/h Distance 19.10 km</desc>
<time>2010-07-30T17:53:55.00</time>
<name>906</name>
</trkpt>
<trkpt lat="49.566972" lon="8.813820">
<ele>466.5</ele>
<speed>54.3</speed>
<course>35.4</course>
<desc>Speed 54.3 km/h Distance 19.13 km</desc>
<time>2010-07-30T17:53:57.00</time>
<name>907</name>
</trkpt>
<trkpt lat="49.567077" lon="8.813935">
<ele>467.0</ele>
<speed>51.3</speed>
<course>45.5</course>
<desc>Speed 51.3 km/h Distance 19.14 km</desc>
<time>2010-07-30T17:53:58.00</time>
<name>908</name>
</trkpt>
<trkpt lat="49.567162" lon="8.814068">
<ele>466.5</ele>
<speed>48.9</speed>
<course>63.8</course>
<desc>Speed 48.9 km/h Distance 19.16 km</desc>
<time>2010-07-30T17:53:59.07</time>
<name>909</name>
</trkpt>
<trkpt lat="49.567287" lon="8.814460">
<ele>465.0</ele>
<speed>61.3</speed>
<course>81.1</course>
<desc>Speed 61.3 km/h Distance 19.19 km</desc>
<time>2010-07-30T17:54:01.12</time>
<name>910</name>
</trkpt>
<trkpt lat="49.567337" lon="8.814950">
<ele>464.5</ele>
<speed>65.6</speed>
<course>76.2</course>
<desc>Speed 65.6 km/h Distance 19.22 km</desc>
<time>2010-07-30T17:54:02.98</time>
<name>911</name>
</trkpt>
<trkpt lat="49.567375" lon="8.815190">
<ele>464.0</ele>
<speed>64.4</speed>
<course>70.6</course>
<desc>Speed 64.4 km/h Distance 19.24 km</desc>
<time>2010-07-30T17:54:03.99</time>
<name>912</name>
</trkpt>
<trkpt lat="49.567427" lon="8.815417">
<ele>462.5</ele>
<speed>62.8</speed>
<course>65.2</course>
<desc>Speed 62.8 km/h Distance 19.26 km</desc>
<time>2010-07-30T17:54:04.98</time>
<name>913</name>
</trkpt>
<trkpt lat="49.567777" lon="8.816587">
<ele>456.0</ele>
<speed>90.6</speed>
<course>66.2</course>
<desc>Speed 90.6 km/h Distance 19.35 km</desc>
<time>2010-07-30T17:54:08.98</time>
<name>914</name>
</trkpt>
<trkpt lat="49.567863" lon="8.816890">
<ele>455.5</ele>
<speed>86.9</speed>
<course>64.8</course>
<desc>Speed 86.9 km/h Distance 19.38 km</desc>
<time>2010-07-30T17:54:09.99</time>
<name>915</name>
</trkpt>
<trkpt lat="49.567955" lon="8.817190">
<ele>455.0</ele>
<speed>86.7</speed>
<course>62.7</course>
<desc>Speed 86.7 km/h Distance 19.40 km</desc>
<time>2010-07-30T17:54:10.99</time>
<name>916</name>
</trkpt>
<trkpt lat="49.568047" lon="8.817463">
<ele>453.5</ele>
<speed>81.0</speed>
<course>63.7</course>
<desc>Speed 81.0 km/h Distance 19.42 km</desc>
<time>2010-07-30T17:54:11.99</time>
<name>917</name>
</trkpt>
<trkpt lat="49.568132" lon="8.817728">
<ele>452.0</ele>
<speed>77.4</speed>
<course>64.5</course>
<desc>Speed 77.4 km/h Distance 19.44 km</desc>
<time>2010-07-30T17:54:12.99</time>
<name>918</name>
</trkpt>
<trkpt lat="49.568210" lon="8.817982">
<ele>451.0</ele>
<speed>73.7</speed>
<course>67.0</course>
<desc>Speed 73.7 km/h Distance 19.46 km</desc>
<time>2010-07-30T17:54:13.98</time>
<name>919</name>
</trkpt>
<trkpt lat="49.568277" lon="8.818223">
<ele>450.5</ele>
<speed>68.8</speed>
<course>63.6</course>
<desc>Speed 68.8 km/h Distance 19.48 km</desc>
<time>2010-07-30T17:54:14.98</time>
<name>920</name>
</trkpt>
<trkpt lat="49.568352" lon="8.818457">
<ele>450.5</ele>
<speed>68.5</speed>
<course>60.6</course>
<desc>Speed 68.5 km/h Distance 19.50 km</desc>
<time>2010-07-30T17:54:15.98</time>
<name>921</name>
</trkpt>
<trkpt lat="49.568428" lon="8.818667">
<ele>449.0</ele>
<speed>63.3</speed>
<course>55.2</course>
<desc>Speed 63.3 km/h Distance 19.52 km</desc>
<time>2010-07-30T17:54:16.97</time>
<name>922</name>
</trkpt>
<trkpt lat="49.568513" lon="8.818855">
<ele>448.0</ele>
<speed>59.6</speed>
<course>55.5</course>
<desc>Speed 59.6 km/h Distance 19.54 km</desc>
<time>2010-07-30T17:54:17.97</time>
<name>923</name>
</trkpt>
<trkpt lat="49.568602" lon="8.819053">
<ele>447.0</ele>
<speed>62.7</speed>
<course>51.2</course>
<desc>Speed 62.7 km/h Distance 19.55 km</desc>
<time>2010-07-30T17:54:18.97</time>
<name>924</name>
</trkpt>
<trkpt lat="49.568700" lon="8.819242">
<ele>445.5</ele>
<speed>63.8</speed>
<course>47.7</course>
<desc>Speed 63.8 km/h Distance 19.57 km</desc>
<time>2010-07-30T17:54:19.97</time>
<name>925</name>
</trkpt>
<trkpt lat="49.568808" lon="8.819425">
<ele>444.5</ele>
<speed>64.7</speed>
<course>47.2</course>
<desc>Speed 64.7 km/h Distance 19.59 km</desc>
<time>2010-07-30T17:54:20.98</time>
<name>926</name>
</trkpt>
<trkpt lat="49.568918" lon="8.819608">
<ele>443.0</ele>
<speed>64.8</speed>
<course>46.3</course>
<desc>Speed 64.8 km/h Distance 19.61 km</desc>
<time>2010-07-30T17:54:22.04</time>
<name>927</name>
</trkpt>
<trkpt lat="49.569030" lon="8.819788">
<ele>442.0</ele>
<speed>64.3</speed>
<course>46.7</course>
<desc>Speed 64.3 km/h Distance 19.62 km</desc>
<time>2010-07-30T17:54:22.97</time>
<name>928</name>
</trkpt>
<trkpt lat="49.569242" lon="8.820135">
<ele>440.0</ele>
<speed>60.4</speed>
<course>44.7</course>
<desc>Speed 60.4 km/h Distance 19.66 km</desc>
<time>2010-07-30T17:54:24.97</time>
<name>929</name>
</trkpt>
<trkpt lat="49.569347" lon="8.820295">
<ele>438.5</ele>
<speed>58.1</speed>
<course>44.5</course>
<desc>Speed 58.1 km/h Distance 19.67 km</desc>
<time>2010-07-30T17:54:25.96</time>
<name>930</name>
</trkpt>
<trkpt lat="49.569450" lon="8.820452">
<ele>437.5</ele>
<speed>57.4</speed>
<course>45.6</course>
<desc>Speed 57.4 km/h Distance 19.69 km</desc>
<time>2010-07-30T17:54:26.97</time>
<name>931</name>
</trkpt>
<trkpt lat="49.569552" lon="8.820612">
<ele>436.5</ele>
<speed>57.7</speed>
<course>43.6</course>
<desc>Speed 57.7 km/h Distance 19.71 km</desc>
<time>2010-07-30T17:54:27.97</time>
<name>932</name>
</trkpt>
<trkpt lat="49.569655" lon="8.820763">
<ele>436.0</ele>
<speed>56.6</speed>
<course>38.6</course>
<desc>Speed 56.6 km/h Distance 19.72 km</desc>
<time>2010-07-30T17:54:28.98</time>
<name>933</name>
</trkpt>
<trkpt lat="49.569763" lon="8.820897">
<ele>435.0</ele>
<speed>54.5</speed>
<course>31.4</course>
<desc>Speed 54.5 km/h Distance 19.74 km</desc>
<time>2010-07-30T17:54:29.96</time>
<name>934</name>
</trkpt>
<trkpt lat="49.569875" lon="8.821002">
<ele>434.0</ele>
<speed>51.8</speed>
<course>17.1</course>
<desc>Speed 51.8 km/h Distance 19.75 km</desc>
<time>2010-07-30T17:54:30.96</time>
<name>935</name>
</trkpt>
<trkpt lat="49.570002" lon="8.821062">
<ele>433.0</ele>
<speed>52.3</speed>
<course>12.3</course>
<desc>Speed 52.3 km/h Distance 19.77 km</desc>
<time>2010-07-30T17:54:31.96</time>
<name>936</name>
</trkpt>
<trkpt lat="49.570135" lon="8.821107">
<ele>432.0</ele>
<speed>53.2</speed>
<course>3.5</course>
<desc>Speed 53.2 km/h Distance 19.78 km</desc>
<time>2010-07-30T17:54:32.96</time>
<name>937</name>
</trkpt>
<trkpt lat="49.570275" lon="8.821120">
<ele>431.0</ele>
<speed>55.5</speed>
<course>0.4</course>
<desc>Speed 55.5 km/h Distance 19.80 km</desc>
<time>2010-07-30T17:54:33.97</time>
<name>938</name>
</trkpt>
<trkpt lat="49.570415" lon="8.821120">
<ele>430.0</ele>
<speed>55.1</speed>
<course>356.0</course>
<desc>Speed 55.1 km/h Distance 19.81 km</desc>
<time>2010-07-30T17:54:34.97</time>
<name>939</name>
</trkpt>
<trkpt lat="49.570553" lon="8.821105">
<ele>429.0</ele>
<speed>54.5</speed>
<course>353.8</course>
<desc>Speed 54.5 km/h Distance 19.83 km</desc>
<time>2010-07-30T17:54:35.96</time>
<name>940</name>
</trkpt>
<trkpt lat="49.570683" lon="8.821083">
<ele>428.0</ele>
<speed>52.1</speed>
<course>351.5</course>
<desc>Speed 52.1 km/h Distance 19.84 km</desc>
<time>2010-07-30T17:54:36.96</time>
<name>941</name>
</trkpt>
<trkpt lat="49.570813" lon="8.821053">
<ele>427.5</ele>
<speed>52.7</speed>
<course>350.1</course>
<desc>Speed 52.7 km/h Distance 19.86 km</desc>
<time>2010-07-30T17:54:37.96</time>
<name>942</name>
</trkpt>
<trkpt lat="49.570943" lon="8.821018">
<ele>427.0</ele>
<speed>52.9</speed>
<course>349.3</course>
<desc>Speed 52.9 km/h Distance 19.87 km</desc>
<time>2010-07-30T17:54:38.96</time>
<name>943</name>
</trkpt>
<trkpt lat="49.571075" lon="8.820980">
<ele>426.5</ele>
<speed>54.1</speed>
<course>349.0</course>
<desc>Speed 54.1 km/h Distance 19.89 km</desc>
<time>2010-07-30T17:54:39.95</time>
<name>944</name>
</trkpt>
<trkpt lat="49.571208" lon="8.820940">
<ele>425.5</ele>
<speed>54.8</speed>
<course>350.2</course>
<desc>Speed 54.8 km/h Distance 19.90 km</desc>
<time>2010-07-30T17:54:40.95</time>
<name>945</name>
</trkpt>
<trkpt lat="49.571340" lon="8.820905">
<ele>425.0</ele>
<speed>53.1</speed>
<course>350.2</course>
<desc>Speed 53.1 km/h Distance 19.92 km</desc>
<time>2010-07-30T17:54:41.96</time>
<name>946</name>
</trkpt>
<trkpt lat="49.571465" lon="8.820872">
<ele>424.5</ele>
<speed>51.4</speed>
<course>349.8</course>
<desc>Speed 51.4 km/h Distance 19.93 km</desc>
<time>2010-07-30T17:54:42.95</time>
<name>947</name>
</trkpt>
<trkpt lat="49.571592" lon="8.820837">
<ele>423.5</ele>
<speed>51.4</speed>
<course>348.0</course>
<desc>Speed 51.4 km/h Distance 19.95 km</desc>
<time>2010-07-30T17:54:43.95</time>
<name>948</name>
</trkpt>
<trkpt lat="49.571718" lon="8.820795">
<ele>423.0</ele>
<speed>51.7</speed>
<course>346.1</course>
<desc>Speed 51.7 km/h Distance 19.96 km</desc>
<time>2010-07-30T17:54:45.02</time>
<name>949</name>
</trkpt>
<trkpt lat="49.571845" lon="8.820747">
<ele>422.5</ele>
<speed>52.2</speed>
<course>344.0</course>
<desc>Speed 52.2 km/h Distance 19.98 km</desc>
<time>2010-07-30T17:54:45.94</time>
<name>950</name>
</trkpt>
<trkpt lat="49.571973" lon="8.820690">
<ele>421.5</ele>
<speed>53.0</speed>
<course>342.4</course>
<desc>Speed 53.0 km/h Distance 19.99 km</desc>
<time>2010-07-30T17:54:47.09</time>
<name>951</name>
</trkpt>
<trkpt lat="49.572222" lon="8.820568">
<ele>420.0</ele>
<speed>51.8</speed>
<course>343.4</course>
<desc>Speed 51.8 km/h Distance 20.02 km</desc>
<time>2010-07-30T17:54:48.94</time>
<name>952</name>
</trkpt>
<trkpt lat="49.572342" lon="8.820513">
<ele>419.0</ele>
<speed>50.2</speed>
<course>344.9</course>
<desc>Speed 50.2 km/h Distance 20.03 km</desc>
<time>2010-07-30T17:54:49.94</time>
<name>953</name>
</trkpt>
<trkpt lat="49.572462" lon="8.820463">
<ele>418.5</ele>
<speed>49.6</speed>
<course>348.0</course>
<desc>Speed 49.6 km/h Distance 20.05 km</desc>
<time>2010-07-30T17:54:50.94</time>
<name>954</name>
</trkpt>
<trkpt lat="49.572583" lon="8.820423">
<ele>417.5</ele>
<speed>49.5</speed>
<course>355.8</course>
<desc>Speed 49.5 km/h Distance 20.06 km</desc>
<time>2010-07-30T17:54:51.95</time>
<name>955</name>
</trkpt>
<trkpt lat="49.572847" lon="8.820393">
<ele>417.5</ele>
<speed>49.6</speed>
<course>357.5</course>
<desc>Speed 49.6 km/h Distance 20.09 km</desc>
<time>2010-07-30T17:54:53.94</time>
<name>956</name>
</trkpt>
<trkpt lat="49.572972" lon="8.820385">
<ele>417.5</ele>
<speed>49.7</speed>
<course>0.9</course>
<desc>Speed 49.7 km/h Distance 20.10 km</desc>
<time>2010-07-30T17:54:54.94</time>
<name>957</name>
</trkpt>
<trkpt lat="49.573100" lon="8.820388">
<ele>417.0</ele>
<speed>51.7</speed>
<course>0.4</course>
<desc>Speed 51.7 km/h Distance 20.12 km</desc>
<time>2010-07-30T17:54:55.93</time>
<name>958</name>
</trkpt>
<trkpt lat="49.573220" lon="8.820388">
<ele>416.5</ele>
<speed>48.0</speed>
<course>0.0</course>
<desc>Speed 48.0 km/h Distance 20.13 km</desc>
<time>2010-07-30T17:54:56.94</time>
<name>959</name>
</trkpt>
<trkpt lat="49.573335" lon="8.820388">
<ele>416.5</ele>
<speed>46.4</speed>
<course>359.6</course>
<desc>Speed 46.4 km/h Distance 20.14 km</desc>
<time>2010-07-30T17:54:57.94</time>
<name>960</name>
</trkpt>
<trkpt lat="49.573448" lon="8.820387">
<ele>416.0</ele>
<speed>45.4</speed>
<course>358.9</course>
<desc>Speed 45.4 km/h Distance 20.16 km</desc>
<time>2010-07-30T17:54:58.94</time>
<name>961</name>
</trkpt>
<trkpt lat="49.573558" lon="8.820383">
<ele>415.0</ele>
<speed>44.3</speed>
<course>0.0</course>
<desc>Speed 44.3 km/h Distance 20.17 km</desc>
<time>2010-07-30T17:54:59.94</time>
<name>962</name>
</trkpt>
<trkpt lat="49.573667" lon="8.820383">
<ele>415.0</ele>
<speed>43.0</speed>
<course>358.8</course>
<desc>Speed 43.0 km/h Distance 20.18 km</desc>
<time>2010-07-30T17:55:00.93</time>
<name>963</name>
</trkpt>
<trkpt lat="49.573773" lon="8.820380">
<ele>415.0</ele>
<speed>43.3</speed>
<course>0.0</course>
<desc>Speed 43.3 km/h Distance 20.19 km</desc>
<time>2010-07-30T17:55:01.94</time>
<name>964</name>
</trkpt>
<trkpt lat="49.573888" lon="8.820380">
<ele>414.5</ele>
<speed>46.2</speed>
<course>3.2</course>
<desc>Speed 46.2 km/h Distance 20.21 km</desc>
<time>2010-07-30T17:55:02.92</time>
<name>965</name>
</trkpt>
<trkpt lat="49.574003" lon="8.820390">
<ele>414.5</ele>
<speed>46.2</speed>
<course>6.9</course>
<desc>Speed 46.2 km/h Distance 20.22 km</desc>
<time>2010-07-30T17:55:03.93</time>
<name>966</name>
</trkpt>
<trkpt lat="49.574120" lon="8.820412">
<ele>414.0</ele>
<speed>46.7</speed>
<course>15.3</course>
<desc>Speed 46.7 km/h Distance 20.23 km</desc>
<time>2010-07-30T17:55:04.92</time>
<name>967</name>
</trkpt>
<trkpt lat="49.574227" lon="8.820457">
<ele>414.0</ele>
<speed>43.8</speed>
<course>24.6</course>
<desc>Speed 43.8 km/h Distance 20.24 km</desc>
<time>2010-07-30T17:55:05.94</time>
<name>968</name>
</trkpt>
<trkpt lat="49.574323" lon="8.820525">
<ele>413.5</ele>
<speed>42.9</speed>
<course>30.2</course>
<desc>Speed 42.9 km/h Distance 20.26 km</desc>
<time>2010-07-30T17:55:06.93</time>
<name>969</name>
</trkpt>
<trkpt lat="49.574422" lon="8.820613">
<ele>414.0</ele>
<speed>45.9</speed>
<course>50.9</course>
<desc>Speed 45.9 km/h Distance 20.27 km</desc>
<time>2010-07-30T17:55:08.01</time>
<name>970</name>
</trkpt>
<trkpt lat="49.574552" lon="8.820860">
<ele>414.0</ele>
<speed>44.1</speed>
<course>72.2</course>
<desc>Speed 44.1 km/h Distance 20.29 km</desc>
<time>2010-07-30T17:55:10.07</time>
<name>971</name>
</trkpt>
<trkpt lat="49.574620" lon="8.821188">
<ele>413.5</ele>
<speed>45.8</speed>
<course>91.8</course>
<desc>Speed 45.8 km/h Distance 20.32 km</desc>
<time>2010-07-30T17:55:11.93</time>
<name>972</name>
</trkpt>
<trkpt lat="49.574617" lon="8.821348">
<ele>413.5</ele>
<speed>42.0</speed>
<course>96.8</course>
<desc>Speed 42.0 km/h Distance 20.33 km</desc>
<time>2010-07-30T17:55:12.93</time>
<name>973</name>
</trkpt>
<trkpt lat="49.574595" lon="8.821630">
<ele>413.5</ele>
<speed>39.7</speed>
<course>102.4</course>
<desc>Speed 39.7 km/h Distance 20.35 km</desc>
<time>2010-07-30T17:55:14.93</time>
<name>974</name>
</trkpt>
<trkpt lat="49.574577" lon="8.821758">
<ele>413.5</ele>
<speed>39.7</speed>
<course>128.7</course>
<desc>Speed 39.7 km/h Distance 20.36 km</desc>
<time>2010-07-30T17:55:15.93</time>
<name>975</name>
</trkpt>
<trkpt lat="49.574508" lon="8.821890">
<ele>413.5</ele>
<speed>41.8</speed>
<course>130.9</course>
<desc>Speed 41.8 km/h Distance 20.37 km</desc>
<time>2010-07-30T17:55:16.92</time>
<name>976</name>
</trkpt>
<trkpt lat="49.574440" lon="8.822012">
<ele>413.5</ele>
<speed>40.1</speed>
<course>141.1</course>
<desc>Speed 40.1 km/h Distance 20.38 km</desc>
<time>2010-07-30T17:55:17.92</time>
<name>977</name>
</trkpt>
<trkpt lat="49.574358" lon="8.822113">
<ele>413.5</ele>
<speed>38.2</speed>
<course>135.3</course>
<desc>Speed 38.2 km/h Distance 20.39 km</desc>
<time>2010-07-30T17:55:18.92</time>
<name>978</name>
</trkpt>
<trkpt lat="49.574292" lon="8.822215">
<ele>413.5</ele>
<speed>37.7</speed>
<course>125.7</course>
<desc>Speed 37.7 km/h Distance 20.40 km</desc>
<time>2010-07-30T17:55:19.92</time>
<name>979</name>
</trkpt>
<trkpt lat="49.574233" lon="8.822340">
<ele>413.5</ele>
<speed>40.9</speed>
<course>135.6</course>
<desc>Speed 40.9 km/h Distance 20.42 km</desc>
<time>2010-07-30T17:55:20.92</time>
<name>980</name>
</trkpt>
<trkpt lat="49.574162" lon="8.822448">
<ele>413.5</ele>
<speed>39.4</speed>
<course>135.3</course>
<desc>Speed 39.4 km/h Distance 20.43 km</desc>
<time>2010-07-30T17:55:21.91</time>
<name>981</name>
</trkpt>
<trkpt lat="49.574092" lon="8.822555">
<ele>413.0</ele>
<speed>39.7</speed>
<course>135.1</course>
<desc>Speed 39.7 km/h Distance 20.44 km</desc>
<time>2010-07-30T17:55:22.92</time>
<name>982</name>
</trkpt>
<trkpt lat="49.574020" lon="8.822665">
<ele>413.0</ele>
<speed>40.3</speed>
<course>132.9</course>
<desc>Speed 40.3 km/h Distance 20.45 km</desc>
<time>2010-07-30T17:55:23.92</time>
<name>983</name>
</trkpt>
<trkpt lat="49.573952" lon="8.822778">
<ele>413.0</ele>
<speed>40.5</speed>
<course>136.4</course>
<desc>Speed 40.5 km/h Distance 20.46 km</desc>
<time>2010-07-30T17:55:24.91</time>
<name>984</name>
</trkpt>
<trkpt lat="49.573877" lon="8.822888">
<ele>413.0</ele>
<speed>41.4</speed>
<course>134.0</course>
<desc>Speed 41.4 km/h Distance 20.47 km</desc>
<time>2010-07-30T17:55:25.91</time>
<name>985</name>
</trkpt>
<trkpt lat="49.573807" lon="8.823000">
<ele>412.5</ele>
<speed>41.4</speed>
<course>136.2</course>
<desc>Speed 41.4 km/h Distance 20.48 km</desc>
<time>2010-07-30T17:55:26.91</time>
<name>986</name>
</trkpt>
<trkpt lat="49.573733" lon="8.823108">
<ele>412.5</ele>
<speed>41.4</speed>
<course>134.9</course>
<desc>Speed 41.4 km/h Distance 20.49 km</desc>
<time>2010-07-30T17:55:27.90</time>
<name>987</name>
</trkpt>
<trkpt lat="49.573663" lon="8.823217">
<ele>412.5</ele>
<speed>40.4</speed>
<course>144.2</course>
<desc>Speed 40.4 km/h Distance 20.51 km</desc>
<time>2010-07-30T17:55:28.91</time>
<name>988</name>
</trkpt>
<trkpt lat="49.573573" lon="8.823317">
<ele>412.5</ele>
<speed>44.9</speed>
<course>138.4</course>
<desc>Speed 44.9 km/h Distance 20.52 km</desc>
<time>2010-07-30T17:55:29.91</time>
<name>989</name>
</trkpt>
<trkpt lat="49.573497" lon="8.823422">
<ele>412.5</ele>
<speed>41.0</speed>
<course>142.2</course>
<desc>Speed 41.0 km/h Distance 20.53 km</desc>
<time>2010-07-30T17:55:30.97</time>
<name>990</name>
</trkpt>
<trkpt lat="49.573420" lon="8.823513">
<ele>412.5</ele>
<speed>41.3</speed>
<course>150.3</course>
<desc>Speed 41.3 km/h Distance 20.54 km</desc>
<time>2010-07-30T17:55:31.91</time>
<name>991</name>
</trkpt>
<trkpt lat="49.573267" lon="8.823648">
<ele>412.5</ele>
<speed>37.6</speed>
<course>149.4</course>
<desc>Speed 37.6 km/h Distance 20.56 km</desc>
<time>2010-07-30T17:55:33.90</time>
<name>992</name>
</trkpt>
<trkpt lat="49.573152" lon="8.823753">
<ele>412.5</ele>
<speed>29.9</speed>
<course>141.0</course>
<desc>Speed 29.9 km/h Distance 20.57 km</desc>
<time>2010-07-30T17:55:35.90</time>
<name>993</name>
</trkpt>
<trkpt lat="49.573098" lon="8.823820">
<ele>412.5</ele>
<speed>28.1</speed>
<course>158.0</course>
<desc>Speed 28.1 km/h Distance 20.58 km</desc>
<time>2010-07-30T17:55:36.89</time>
<name>994</name>
</trkpt>
<trkpt lat="49.572935" lon="8.823922">
<ele>412.5</ele>
<speed>36.5</speed>
<course>154.9</course>
<desc>Speed 36.5 km/h Distance 20.60 km</desc>
<time>2010-07-30T17:55:38.89</time>
<name>995</name>
</trkpt>
<trkpt lat="49.572857" lon="8.823978">
<ele>412.5</ele>
<speed>35.6</speed>
<course>145.0</course>
<desc>Speed 35.6 km/h Distance 20.61 km</desc>
<time>2010-07-30T17:55:39.90</time>
<name>996</name>
</trkpt>
<trkpt lat="49.572793" lon="8.824047">
<ele>412.5</ele>
<speed>33.0</speed>
<course>148.8</course>
<desc>Speed 33.0 km/h Distance 20.62 km</desc>
<time>2010-07-30T17:55:40.89</time>
<name>997</name>
</trkpt>
<trkpt lat="49.572692" lon="8.824142">
<ele>412.5</ele>
<speed>33.0</speed>
<course>156.0</course>
<desc>Speed 33.0 km/h Distance 20.63 km</desc>
<time>2010-07-30T17:55:42.89</time>
<name>998</name>
</trkpt>
<trkpt lat="49.572602" lon="8.824203">
<ele>412.5</ele>
<speed>33.0</speed>
<course>140.5</course>
<desc>Speed 33.0 km/h Distance 20.64 km</desc>
<time>2010-07-30T17:55:44.88</time>
<name>999</name>
</trkpt>
<trkpt lat="49.572448" lon="8.824398">
<ele>414.0</ele>
<speed>44.6</speed>
<course>135.8</course>
<desc>Speed 44.6 km/h Distance 20.67 km</desc>
<time>2010-07-30T17:55:47.89</time>
<name>1000</name>
</trkpt>
<trkpt lat="49.572375" lon="8.824508">
<ele>414.0</ele>
<speed>37.8</speed>
<course>128.8</course>
<desc>Speed 37.8 km/h Distance 20.68 km</desc>
<time>2010-07-30T17:55:48.88</time>
<name>1001</name>
</trkpt>
<trkpt lat="49.572312" lon="8.824630">
<ele>414.0</ele>
<speed>37.3</speed>
<course>128.4</course>
<desc>Speed 37.3 km/h Distance 20.69 km</desc>
<time>2010-07-30T17:55:49.88</time>
<name>1002</name>
</trkpt>
<trkpt lat="49.572247" lon="8.824757">
<ele>414.0</ele>
<speed>38.3</speed>
<course>126.2</course>
<desc>Speed 38.3 km/h Distance 20.70 km</desc>
<time>2010-07-30T17:55:50.88</time>
<name>1003</name>
</trkpt>
<trkpt lat="49.572198" lon="8.824858">
<ele>414.0</ele>
<speed>38.3</speed>
<course>115.8</course>
<desc>Speed 38.3 km/h Distance 20.71 km</desc>
<time>2010-07-30T17:55:51.88</time>
<name>1004</name>
</trkpt>
<trkpt lat="49.572102" lon="8.825167">
<ele>412.5</ele>
<speed>37.2</speed>
<course>112.8</course>
<desc>Speed 37.2 km/h Distance 20.73 km</desc>
<time>2010-07-30T17:55:53.88</time>
<name>1005</name>
</trkpt>
<trkpt lat="49.572067" lon="8.825295">
<ele>412.0</ele>
<speed>37.2</speed>
<course>96.0</course>
<desc>Speed 37.2 km/h Distance 20.74 km</desc>
<time>2010-07-30T17:55:54.88</time>
<name>1006</name>
</trkpt>
<trkpt lat="49.572055" lon="8.825467">
<ele>411.5</ele>
<speed>37.7</speed>
<course>99.3</course>
<desc>Speed 37.7 km/h Distance 20.76 km</desc>
<time>2010-07-30T17:55:55.94</time>
<name>1007</name>
</trkpt>
<trkpt lat="49.572042" lon="8.825592">
<ele>411.5</ele>
<speed>37.7</speed>
<course>117.7</course>
<desc>Speed 37.7 km/h Distance 20.77 km</desc>
<time>2010-07-30T17:55:56.90</time>
<name>1008</name>
</trkpt>
<trkpt lat="49.571958" lon="8.825837">
<ele>411.5</ele>
<speed>22.2</speed>
<course>106.4</course>
<desc>Speed 22.2 km/h Distance 20.79 km</desc>
<time>2010-07-30T17:55:59.87</time>
<name>1009</name>
</trkpt>
<trkpt lat="49.571937" lon="8.825950">
<ele>411.5</ele>
<speed>11.9</speed>
<course>116.3</course>
<desc>Speed 11.9 km/h Distance 20.79 km</desc>
<time>2010-07-30T17:56:01.87</time>
<name>1010</name>
</trkpt>
<trkpt lat="49.571923" lon="8.825992">
<ele>411.0</ele>
<speed>11.5</speed>
<course>155.8</course>
<desc>Speed 11.5 km/h Distance 20.80 km</desc>
<time>2010-07-30T17:56:02.87</time>
<name>1011</name>
</trkpt>
<trkpt lat="49.571902" lon="8.826007">
<ele>411.0</ele>
<speed>5.2</speed>
<course>158.3</course>
<desc>Speed 5.2 km/h Distance 20.80 km</desc>
<time>2010-07-30T17:56:03.87</time>
<name>1012</name>
</trkpt>
<trkpt lat="49.571880" lon="8.826020">
<ele>411.0</ele>
<speed>6.3</speed>
<course>180.0</course>
<desc>Speed 6.3 km/h Distance 20.80 km</desc>
<time>2010-07-30T17:56:04.87</time>
<name>1013</name>
</trkpt>
<trkpt lat="49.571875" lon="8.826020">
<ele>412.5</ele>
<speed>2.3</speed>
<course>185.0</course>
<desc>Speed 2.3 km/h Distance 20.80 km</desc>
<time>2010-07-30T17:56:05.88</time>
<name>1014</name>
</trkpt>
<trkpt lat="49.571867" lon="8.826018">
<ele>412.5</ele>
<speed>0.9</speed>
<course>198.8</course>
<desc>Speed 0.9 km/h Distance 20.80 km</desc>
<time>2010-07-30T17:56:06.88</time>
<name>1015</name>
</trkpt>
<trkpt lat="49.571863" lon="8.826017">
<ele>412.0</ele>
<speed>0.9</speed>
<course>193.5</course>
<desc>Speed 0.9 km/h Distance 20.80 km</desc>
<time>2010-07-30T17:56:07.87</time>
<name>1016</name>
</trkpt>
<trkpt lat="49.571850" lon="8.826012">
<ele>412.0</ele>
<speed>1.4</speed>
<course>270.0</course>
<desc>Speed 1.4 km/h Distance 20.81 km</desc>
<time>2010-07-30T17:56:08.87</time>
<name>1017</name>
</trkpt>
<trkpt lat="49.571850" lon="8.826010">
<ele>412.0</ele>
<speed>0.6</speed>
<course>220.9</course>
<desc>Speed 0.6 km/h Distance 20.81 km</desc>
<time>2010-07-30T17:56:09.87</time>
<name>1018</name>
</trkpt>
<trkpt lat="49.571845" lon="8.826003">
<ele>411.5</ele>
<speed>1.7</speed>
<course>167.4</course>
<desc>Speed 1.7 km/h Distance 20.81 km</desc>
<time>2010-07-30T17:56:10.86</time>
<name>1019</name>
</trkpt>
<trkpt lat="49.571843" lon="8.826003">
<ele>411.5</ele>
<speed>0.3</speed>
<course>193.5</course>
<desc>Speed 0.3 km/h Distance 20.81 km</desc>
<time>2010-07-30T17:56:11.87</time>
<name>1020</name>
</trkpt>
<trkpt lat="49.571830" lon="8.825998">
<ele>411.5</ele>
<speed>1.1</speed>
<course>196.0</course>
<desc>Speed 1.1 km/h Distance 20.81 km</desc>
<time>2010-07-30T17:56:12.87</time>
<name>1021</name>
</trkpt>
<trkpt lat="49.571815" lon="8.825992">
<ele>411.5</ele>
<speed>0.5</speed>
<course>194.9</course>
<desc>Speed 0.5 km/h Distance 20.81 km</desc>
<time>2010-07-30T17:56:13.87</time>
<name>1022</name>
</trkpt>
<trkpt lat="49.571803" lon="8.825987">
<ele>411.5</ele>
<speed>0.3</speed>
<course>198.8</course>
<desc>Speed 0.3 km/h Distance 20.81 km</desc>
<time>2010-07-30T17:56:14.86</time>
<name>1023</name>
</trkpt>
<trkpt lat="49.571797" lon="8.825983">
<ele>411.0</ele>
<speed>0.6</speed>
<course>4.4</course>
<desc>Speed 0.6 km/h Distance 20.81 km</desc>
<time>2010-07-30T17:56:15.86</time>
<name>1024</name>
</trkpt>
<trkpt lat="49.571807" lon="8.825983">
<ele>411.0</ele>
<speed>4.6</speed>
<course>208.6</course>
<desc>Speed 4.6 km/h Distance 20.81 km</desc>
<time>2010-07-30T17:56:16.93</time>
<name>1025</name>
</trkpt>
<trkpt lat="49.571797" lon="8.825975">
<ele>410.5</ele>
<speed>0.8</speed>
<course>198.8</course>
<desc>Speed 0.8 km/h Distance 20.82 km</desc>
<time>2010-07-30T17:56:17.86</time>
<name>1026</name>
</trkpt>
<trkpt lat="49.571790" lon="8.825972">
<ele>410.5</ele>
<speed>0.9</speed>
<course>194.9</course>
<desc>Speed 0.9 km/h Distance 20.82 km</desc>
<time>2010-07-30T17:56:18.98</time>
<name>1027</name>
</trkpt>
<trkpt lat="49.571782" lon="8.825968">
<ele>410.5</ele>
<speed>1.5</speed>
<course>29.2</course>
<desc>Speed 1.5 km/h Distance 20.82 km</desc>
<time>2010-07-30T17:56:19.86</time>
<name>1028</name>
</trkpt>
<trkpt lat="49.571783" lon="8.825970">
<ele>410.0</ele>
<speed>0.3</speed>
<course>12.6</course>
<desc>Speed 0.3 km/h Distance 20.82 km</desc>
<time>2010-07-30T17:56:20.85</time>
<name>1029</name>
</trkpt>
<trkpt lat="49.571785" lon="8.825972">
<ele>410.0</ele>
<speed>0.2</speed>
<course>51.9</course>
<desc>Speed 0.2 km/h Distance 20.82 km</desc>
<time>2010-07-30T17:56:21.86</time>
<name>1030</name>
</trkpt>
<trkpt lat="49.571787" lon="8.825975">
<ele>410.0</ele>
<speed>0.3</speed>
<course>90.0</course>
<desc>Speed 0.3 km/h Distance 20.82 km</desc>
<time>2010-07-30T17:56:22.88</time>
<name>1031</name>
</trkpt>
<trkpt lat="49.571787" lon="8.825977">
<ele>409.5</ele>
<speed>0.5</speed>
<course>27.9</course>
<desc>Speed 0.5 km/h Distance 20.82 km</desc>
<time>2010-07-30T17:56:23.85</time>
<name>1032</name>
</trkpt>
<trkpt lat="49.571795" lon="8.825983">
<ele>409.5</ele>
<speed>3.2</speed>
<course>47.1</course>
<desc>Speed 3.2 km/h Distance 20.82 km</desc>
<time>2010-07-30T17:56:24.85</time>
<name>1033</name>
</trkpt>
<trkpt lat="49.571800" lon="8.825992">
<ele>409.5</ele>
<speed>3.2</speed>
<course>55.6</course>
<desc>Speed 3.2 km/h Distance 20.82 km</desc>
<time>2010-07-30T17:56:25.87</time>
<name>1034</name>
</trkpt>
<trkpt lat="49.571807" lon="8.826007">
<ele>409.5</ele>
<speed>3.2</speed>
<course>133.2</course>
<desc>Speed 3.2 km/h Distance 20.82 km</desc>
<time>2010-07-30T17:56:26.85</time>
<name>1035</name>
</trkpt>
<trkpt lat="49.571635" lon="8.826288">
<ele>407.5</ele>
<speed>27.1</speed>
<course>116.9</course>
<desc>Speed 27.1 km/h Distance 20.85 km</desc>
<time>2010-07-30T17:56:30.84</time>
<name>1036</name>
</trkpt>
<trkpt lat="49.571557" lon="8.826527">
<ele>407.0</ele>
<speed>33.2</speed>
<course>127.2</course>
<desc>Speed 33.2 km/h Distance 20.87 km</desc>
<time>2010-07-30T17:56:32.85</time>
<name>1037</name>
</trkpt>
<trkpt lat="49.571507" lon="8.826628">
<ele>406.5</ele>
<speed>33.2</speed>
<course>128.5</course>
<desc>Speed 33.2 km/h Distance 20.88 km</desc>
<time>2010-07-30T17:56:33.84</time>
<name>1038</name>
</trkpt>
<trkpt lat="49.571453" lon="8.826732">
<ele>406.0</ele>
<speed>33.2</speed>
<course>106.0</course>
<desc>Speed 33.2 km/h Distance 20.89 km</desc>
<time>2010-07-30T17:56:34.84</time>
<name>1039</name>
</trkpt>
<trkpt lat="49.571427" lon="8.826875">
<ele>406.0</ele>
<speed>38.6</speed>
<course>115.5</course>
<desc>Speed 38.6 km/h Distance 20.90 km</desc>
<time>2010-07-30T17:56:35.85</time>
<name>1040</name>
</trkpt>
<trkpt lat="49.571343" lon="8.827145">
<ele>405.5</ele>
<speed>38.6</speed>
<course>140.6</course>
<desc>Speed 38.6 km/h Distance 20.92 km</desc>
<time>2010-07-30T17:56:37.84</time>
<name>1041</name>
</trkpt>
<trkpt lat="49.571137" lon="8.827407">
<ele>405.0</ele>
<speed>37.4</speed>
<course>111.8</course>
<desc>Speed 37.4 km/h Distance 20.95 km</desc>
<time>2010-07-30T17:56:39.91</time>
<name>1042</name>
</trkpt>
<trkpt lat="49.571102" lon="8.827542">
<ele>404.5</ele>
<speed>36.8</speed>
<course>126.9</course>
<desc>Speed 36.8 km/h Distance 20.96 km</desc>
<time>2010-07-30T17:56:40.83</time>
<name>1043</name>
</trkpt>
<trkpt lat="49.571037" lon="8.827675">
<ele>404.5</ele>
<speed>41.7</speed>
<course>115.5</course>
<desc>Speed 41.7 km/h Distance 20.97 km</desc>
<time>2010-07-30T17:56:41.96</time>
<name>1044</name>
</trkpt>
<trkpt lat="49.570942" lon="8.827982">
<ele>404.5</ele>
<speed>42.9</speed>
<course>121.4</course>
<desc>Speed 42.9 km/h Distance 21.00 km</desc>
<time>2010-07-30T17:56:43.84</time>
<name>1045</name>
</trkpt>
<trkpt lat="49.570885" lon="8.828125">
<ele>404.5</ele>
<speed>43.2</speed>
<course>108.2</course>
<desc>Speed 43.2 km/h Distance 21.01 km</desc>
<time>2010-07-30T17:56:44.84</time>
<name>1046</name>
</trkpt>
<trkpt lat="49.570852" lon="8.828282">
<ele>404.5</ele>
<speed>42.6</speed>
<course>116.4</course>
<desc>Speed 42.6 km/h Distance 21.02 km</desc>
<time>2010-07-30T17:56:45.84</time>
<name>1047</name>
</trkpt>
<trkpt lat="49.570803" lon="8.828432">
<ele>404.5</ele>
<speed>43.3</speed>
<course>117.5</course>
<desc>Speed 43.3 km/h Distance 21.03 km</desc>
<time>2010-07-30T17:56:46.83</time>
<name>1048</name>
</trkpt>
<trkpt lat="49.570755" lon="8.828575">
<ele>404.0</ele>
<speed>42.5</speed>
<course>116.2</course>
<desc>Speed 42.5 km/h Distance 21.04 km</desc>
<time>2010-07-30T17:56:47.84</time>
<name>1049</name>
</trkpt>
<trkpt lat="49.570667" lon="8.828852">
<ele>404.0</ele>
<speed>44.6</speed>
<course>116.2</course>
<desc>Speed 44.6 km/h Distance 21.07 km</desc>
<time>2010-07-30T17:56:49.83</time>
<name>1050</name>
</trkpt>
<trkpt lat="49.570615" lon="8.829013">
<ele>404.0</ele>
<speed>44.3</speed>
<course>112.6</course>
<desc>Speed 44.3 km/h Distance 21.08 km</desc>
<time>2010-07-30T17:56:50.83</time>
<name>1051</name>
</trkpt>
<trkpt lat="49.570570" lon="8.829180">
<ele>403.5</ele>
<speed>44.7</speed>
<course>112.7</course>
<desc>Speed 44.7 km/h Distance 21.09 km</desc>
<time>2010-07-30T17:56:51.83</time>
<name>1052</name>
</trkpt>
<trkpt lat="49.570533" lon="8.829315">
<ele>403.5</ele>
<speed>44.7</speed>
<course>112.6</course>
<desc>Speed 44.7 km/h Distance 21.10 km</desc>
<time>2010-07-30T17:56:52.83</time>
<name>1053</name>
</trkpt>
<trkpt lat="49.570457" lon="8.829598">
<ele>403.0</ele>
<speed>46.6</speed>
<course>112.7</course>
<desc>Speed 46.6 km/h Distance 21.12 km</desc>
<time>2010-07-30T17:56:54.83</time>
<name>1054</name>
</trkpt>
<trkpt lat="49.570410" lon="8.829770">
<ele>402.5</ele>
<speed>47.7</speed>
<course>112.5</course>
<desc>Speed 47.7 km/h Distance 21.14 km</desc>
<time>2010-07-30T17:56:55.83</time>
<name>1055</name>
</trkpt>
<trkpt lat="49.570363" lon="8.829943">
<ele>402.0</ele>
<speed>48.3</speed>
<course>117.0</course>
<desc>Speed 48.3 km/h Distance 21.15 km</desc>
<time>2010-07-30T17:56:56.82</time>
<name>1056</name>
</trkpt>
<trkpt lat="49.570307" lon="8.830115">
<ele>402.0</ele>
<speed>49.2</speed>
<course>129.9</course>
<desc>Speed 49.2 km/h Distance 21.17 km</desc>
<time>2010-07-30T17:56:57.82</time>
<name>1057</name>
</trkpt>
<trkpt lat="49.570220" lon="8.830275">
<ele>401.5</ele>
<speed>52.7</speed>
<course>123.9</course>
<desc>Speed 52.7 km/h Distance 21.18 km</desc>
<time>2010-07-30T17:56:58.81</time>
<name>1058</name>
</trkpt>
<trkpt lat="49.570147" lon="8.830443">
<ele>401.0</ele>
<speed>51.7</speed>
<course>124.3</course>
<desc>Speed 51.7 km/h Distance 21.20 km</desc>
<time>2010-07-30T17:56:59.81</time>
<name>1059</name>
</trkpt>
<trkpt lat="49.570070" lon="8.830617">
<ele>400.0</ele>
<speed>51.7</speed>
<course>124.8</course>
<desc>Speed 51.7 km/h Distance 21.21 km</desc>
<time>2010-07-30T17:57:00.82</time>
<name>1060</name>
</trkpt>
<trkpt lat="49.569902" lon="8.830990">
<ele>399.0</ele>
<speed>55.6</speed>
<course>126.8</course>
<desc>Speed 55.6 km/h Distance 21.24 km</desc>
<time>2010-07-30T17:57:02.82</time>
<name>1061</name>
</trkpt>
<trkpt lat="49.569817" lon="8.831165">
<ele>398.5</ele>
<speed>54.8</speed>
<course>123.5</course>
<desc>Speed 54.8 km/h Distance 21.26 km</desc>
<time>2010-07-30T17:57:03.81</time>
<name>1062</name>
</trkpt>
<trkpt lat="49.569742" lon="8.831340">
<ele>398.5</ele>
<speed>54.9</speed>
<course>127.6</course>
<desc>Speed 54.9 km/h Distance 21.27 km</desc>
<time>2010-07-30T17:57:04.81</time>
<name>1063</name>
</trkpt>
<trkpt lat="49.569655" lon="8.831513">
<ele>397.5</ele>
<speed>57.2</speed>
<course>128.0</course>
<desc>Speed 57.2 km/h Distance 21.29 km</desc>
<time>2010-07-30T17:57:05.81</time>
<name>1064</name>
</trkpt>
<trkpt lat="49.569458" lon="8.831902">
<ele>396.5</ele>
<speed>63.1</speed>
<course>125.8</course>
<desc>Speed 63.1 km/h Distance 21.33 km</desc>
<time>2010-07-30T17:57:07.81</time>
<name>1065</name>
</trkpt>
<trkpt lat="49.569265" lon="8.832315">
<ele>396.0</ele>
<speed>63.1</speed>
<course>129.3</course>
<desc>Speed 63.1 km/h Distance 21.36 km</desc>
<time>2010-07-30T17:57:10.93</time>
<name>1066</name>
</trkpt>
<trkpt lat="49.569067" lon="8.832688">
<ele>395.5</ele>
<speed>58.2</speed>
<course>134.1</course>
<desc>Speed 58.2 km/h Distance 21.40 km</desc>
<time>2010-07-30T17:57:12.80</time>
<name>1067</name>
</trkpt>
<trkpt lat="49.568960" lon="8.832858">
<ele>396.0</ele>
<speed>56.4</speed>
<course>128.7</course>
<desc>Speed 56.4 km/h Distance 21.41 km</desc>
<time>2010-07-30T17:57:13.80</time>
<name>1068</name>
</trkpt>
<trkpt lat="49.568873" lon="8.833025">
<ele>396.0</ele>
<speed>54.8</speed>
<course>131.9</course>
<desc>Speed 54.8 km/h Distance 21.43 km</desc>
<time>2010-07-30T17:57:14.80</time>
<name>1069</name>
</trkpt>
<trkpt lat="49.568778" lon="8.833188">
<ele>396.0</ele>
<speed>54.1</speed>
<course>127.1</course>
<desc>Speed 54.1 km/h Distance 21.45 km</desc>
<time>2010-07-30T17:57:15.80</time>
<name>1070</name>
</trkpt>
<trkpt lat="49.568697" lon="8.833355">
<ele>396.0</ele>
<speed>51.4</speed>
<course>129.9</course>
<desc>Speed 51.4 km/h Distance 21.46 km</desc>
<time>2010-07-30T17:57:16.79</time>
<name>1071</name>
</trkpt>
<trkpt lat="49.568612" lon="8.833512">
<ele>395.5</ele>
<speed>52.6</speed>
<course>116.6</course>
<desc>Speed 52.6 km/h Distance 21.48 km</desc>
<time>2010-07-30T17:57:17.79</time>
<name>1072</name>
</trkpt>
<trkpt lat="49.568552" lon="8.833697">
<ele>396.0</ele>
<speed>51.7</speed>
<course>104.5</course>
<desc>Speed 51.7 km/h Distance 21.49 km</desc>
<time>2010-07-30T17:57:18.79</time>
<name>1073</name>
</trkpt>
<trkpt lat="49.568517" lon="8.833905">
<ele>396.0</ele>
<speed>53.4</speed>
<course>97.2</course>
<desc>Speed 53.4 km/h Distance 21.51 km</desc>
<time>2010-07-30T17:57:19.79</time>
<name>1074</name>
</trkpt>
<trkpt lat="49.568480" lon="8.834352">
<ele>395.5</ele>
<speed>55.2</speed>
<course>90.0</course>
<desc>Speed 55.2 km/h Distance 21.54 km</desc>
<time>2010-07-30T17:57:21.79</time>
<name>1075</name>
</trkpt>
<trkpt lat="49.568480" lon="8.834565">
<ele>395.0</ele>
<speed>53.4</speed>
<course>89.7</course>
<desc>Speed 53.4 km/h Distance 21.55 km</desc>
<time>2010-07-30T17:57:22.78</time>
<name>1076</name>
</trkpt>
<trkpt lat="49.568482" lon="8.835088">
<ele>392.5</ele>
<speed>39.0</speed>
<course>91.7</course>
<desc>Speed 39.0 km/h Distance 21.59 km</desc>
<time>2010-07-30T17:57:26.78</time>
<name>1077</name>
</trkpt>
<trkpt lat="49.568478" lon="8.835258">
<ele>391.5</ele>
<speed>38.4</speed>
<course>93.9</course>
<desc>Speed 38.4 km/h Distance 21.60 km</desc>
<time>2010-07-30T17:57:27.78</time>
<name>1078</name>
</trkpt>
<trkpt lat="49.568472" lon="8.835410">
<ele>391.0</ele>
<speed>40.4</speed>
<course>93.3</course>
<desc>Speed 40.4 km/h Distance 21.61 km</desc>
<time>2010-07-30T17:57:28.78</time>
<name>1079</name>
</trkpt>
<trkpt lat="49.568465" lon="8.835587">
<ele>390.5</ele>
<speed>43.6</speed>
<course>91.6</course>
<desc>Speed 43.6 km/h Distance 21.63 km</desc>
<time>2010-07-30T17:57:29.78</time>
<name>1080</name>
</trkpt>
<trkpt lat="49.568462" lon="8.835770">
<ele>389.5</ele>
<speed>45.5</speed>
<course>90.8</course>
<desc>Speed 45.5 km/h Distance 21.64 km</desc>
<time>2010-07-30T17:57:30.78</time>
<name>1081</name>
</trkpt>
<trkpt lat="49.568460" lon="8.835965">
<ele>389.0</ele>
<speed>47.2</speed>
<course>86.8</course>
<desc>Speed 47.2 km/h Distance 21.66 km</desc>
<time>2010-07-30T17:57:31.77</time>
<name>1082</name>
</trkpt>
<trkpt lat="49.568467" lon="8.836148">
<ele>388.5</ele>
<speed>49.1</speed>
<course>76.8</course>
<desc>Speed 49.1 km/h Distance 21.67 km</desc>
<time>2010-07-30T17:57:32.80</time>
<name>1083</name>
</trkpt>
<trkpt lat="49.568527" lon="8.836543">
<ele>388.0</ele>
<speed>50.9</speed>
<course>72.3</course>
<desc>Speed 50.9 km/h Distance 21.70 km</desc>
<time>2010-07-30T17:57:34.78</time>
<name>1084</name>
</trkpt>
<trkpt lat="49.568567" lon="8.836737">
<ele>388.0</ele>
<speed>52.2</speed>
<course>60.3</course>
<desc>Speed 52.2 km/h Distance 21.71 km</desc>
<time>2010-07-30T17:57:35.76</time>
<name>1085</name>
</trkpt>
<trkpt lat="49.568633" lon="8.836917">
<ele>388.0</ele>
<speed>54.5</speed>
<course>50.7</course>
<desc>Speed 54.5 km/h Distance 21.73 km</desc>
<time>2010-07-30T17:57:36.77</time>
<name>1086</name>
</trkpt>
<trkpt lat="49.568825" lon="8.837278">
<ele>387.0</ele>
<speed>41.9</speed>
<course>51.0</course>
<desc>Speed 41.9 km/h Distance 21.76 km</desc>
<time>2010-07-30T17:57:39.76</time>
<name>1087</name>
</trkpt>
<trkpt lat="49.568895" lon="8.837412">
<ele>386.5</ele>
<speed>41.6</speed>
<course>48.4</course>
<desc>Speed 41.6 km/h Distance 21.77 km</desc>
<time>2010-07-30T17:57:40.76</time>
<name>1088</name>
</trkpt>
<trkpt lat="49.568972" lon="8.837545">
<ele>386.0</ele>
<speed>41.6</speed>
<course>49.7</course>
<desc>Speed 41.6 km/h Distance 21.79 km</desc>
<time>2010-07-30T17:57:41.76</time>
<name>1089</name>
</trkpt>
<trkpt lat="49.569045" lon="8.837678">
<ele>386.0</ele>
<speed>45.4</speed>
<course>50.7</course>
<desc>Speed 45.4 km/h Distance 21.80 km</desc>
<time>2010-07-30T17:57:42.75</time>
<name>1090</name>
</trkpt>
<trkpt lat="49.569117" lon="8.837813">
<ele>386.0</ele>
<speed>45.4</speed>
<course>57.4</course>
<desc>Speed 45.4 km/h Distance 21.81 km</desc>
<time>2010-07-30T17:57:43.75</time>
<name>1091</name>
</trkpt>
<trkpt lat="49.569173" lon="8.837950">
<ele>386.0</ele>
<speed>42.4</speed>
<course>58.2</course>
<desc>Speed 42.4 km/h Distance 21.82 km</desc>
<time>2010-07-30T17:57:44.75</time>
<name>1092</name>
</trkpt>
<trkpt lat="49.569228" lon="8.838087">
<ele>385.5</ele>
<speed>48.4</speed>
<course>53.7</course>
<desc>Speed 48.4 km/h Distance 21.83 km</desc>
<time>2010-07-30T17:57:45.79</time>
<name>1093</name>
</trkpt>
<trkpt lat="49.569297" lon="8.838230">
<ele>385.0</ele>
<speed>49.0</speed>
<course>49.0</course>
<desc>Speed 49.0 km/h Distance 21.85 km</desc>
<time>2010-07-30T17:57:46.75</time>
<name>1094</name>
</trkpt>
<trkpt lat="49.569378" lon="8.838375">
<ele>385.0</ele>
<speed>49.1</speed>
<course>50.5</course>
<desc>Speed 49.1 km/h Distance 21.86 km</desc>
<time>2010-07-30T17:57:47.85</time>
<name>1095</name>
</trkpt>
<trkpt lat="49.569455" lon="8.838518">
<ele>384.5</ele>
<speed>48.9</speed>
<course>47.5</course>
<desc>Speed 48.9 km/h Distance 21.87 km</desc>
<time>2010-07-30T17:57:48.75</time>
<name>1096</name>
</trkpt>
<trkpt lat="49.569613" lon="8.838785">
<ele>383.5</ele>
<speed>43.7</speed>
<course>47.6</course>
<desc>Speed 43.7 km/h Distance 21.90 km</desc>
<time>2010-07-30T17:57:50.74</time>
<name>1097</name>
</trkpt>
<trkpt lat="49.569683" lon="8.838903">
<ele>383.5</ele>
<speed>42.8</speed>
<course>53.7</course>
<desc>Speed 42.8 km/h Distance 21.91 km</desc>
<time>2010-07-30T17:57:51.74</time>
<name>1098</name>
</trkpt>
<trkpt lat="49.569797" lon="8.839142">
<ele>383.0</ele>
<speed>43.1</speed>
<course>52.0</course>
<desc>Speed 43.1 km/h Distance 21.93 km</desc>
<time>2010-07-30T17:57:53.76</time>
<name>1099</name>
</trkpt>
<trkpt lat="49.569863" lon="8.839273">
<ele>383.0</ele>
<speed>44.1</speed>
<course>52.4</course>
<desc>Speed 44.1 km/h Distance 21.95 km</desc>
<time>2010-07-30T17:57:54.74</time>
<name>1100</name>
</trkpt>
<trkpt lat="49.569930" lon="8.839407">
<ele>383.0</ele>
<speed>44.2</speed>
<course>55.3</course>
<desc>Speed 44.2 km/h Distance 21.96 km</desc>
<time>2010-07-30T17:57:55.74</time>
<name>1101</name>
</trkpt>
<trkpt lat="49.569995" lon="8.839552">
<ele>382.5</ele>
<speed>45.9</speed>
<course>57.9</course>
<desc>Speed 45.9 km/h Distance 21.97 km</desc>
<time>2010-07-30T17:57:56.74</time>
<name>1102</name>
</trkpt>
<trkpt lat="49.570053" lon="8.839695">
<ele>380.5</ele>
<speed>41.8</speed>
<course>69.8</course>
<desc>Speed 41.8 km/h Distance 21.98 km</desc>
<time>2010-07-30T17:57:57.74</time>
<name>1103</name>
</trkpt>
<trkpt lat="49.570138" lon="8.840052">
<ele>378.5</ele>
<speed>48.3</speed>
<course>90.0</course>
<desc>Speed 48.3 km/h Distance 22.01 km</desc>
<time>2010-07-30T17:57:59.74</time>
<name>1104</name>
</trkpt>
<trkpt lat="49.570138" lon="8.840232">
<ele>378.5</ele>
<speed>46.5</speed>
<course>102.2</course>
<desc>Speed 46.5 km/h Distance 22.02 km</desc>
<time>2010-07-30T17:58:00.73</time>
<name>1105</name>
</trkpt>
<trkpt lat="49.570113" lon="8.840410">
<ele>378.0</ele>
<speed>47.6</speed>
<course>110.4</course>
<desc>Speed 47.6 km/h Distance 22.04 km</desc>
<time>2010-07-30T17:58:01.75</time>
<name>1106</name>
</trkpt>
<trkpt lat="49.570070" lon="8.840590">
<ele>378.0</ele>
<speed>50.1</speed>
<course>108.4</course>
<desc>Speed 50.1 km/h Distance 22.05 km</desc>
<time>2010-07-30T17:58:02.74</time>
<name>1107</name>
</trkpt>
<trkpt lat="49.570030" lon="8.840775">
<ele>378.0</ele>
<speed>51.3</speed>
<course>121.4</course>
<desc>Speed 51.3 km/h Distance 22.06 km</desc>
<time>2010-07-30T17:58:03.74</time>
<name>1108</name>
</trkpt>
<trkpt lat="49.569963" lon="8.840943">
<ele>377.5</ele>
<speed>51.8</speed>
<course>125.3</course>
<desc>Speed 51.8 km/h Distance 22.08 km</desc>
<time>2010-07-30T17:58:04.74</time>
<name>1109</name>
</trkpt>
<trkpt lat="49.569898" lon="8.841085">
<ele>377.5</ele>
<speed>47.1</speed>
<course>133.8</course>
<desc>Speed 47.1 km/h Distance 22.09 km</desc>
<time>2010-07-30T17:58:05.74</time>
<name>1110</name>
</trkpt>
<trkpt lat="49.569822" lon="8.841208">
<ele>377.0</ele>
<speed>47.7</speed>
<course>125.8</course>
<desc>Speed 47.7 km/h Distance 22.10 km</desc>
<time>2010-07-30T17:58:06.73</time>
<name>1111</name>
</trkpt>
<trkpt lat="49.569762" lon="8.841337">
<ele>376.5</ele>
<speed>43.4</speed>
<course>137.4</course>
<desc>Speed 43.4 km/h Distance 22.12 km</desc>
<time>2010-07-30T17:58:07.73</time>
<name>1112</name>
</trkpt>
<trkpt lat="49.569647" lon="8.841500">
<ele>375.5</ele>
<speed>43.4</speed>
<course>150.5</course>
<desc>Speed 43.4 km/h Distance 22.13 km</desc>
<time>2010-07-30T17:58:09.73</time>
<name>1113</name>
</trkpt>
<trkpt lat="49.569465" lon="8.841658">
<ele>375.0</ele>
<speed>43.4</speed>
<course>173.9</course>
<desc>Speed 43.4 km/h Distance 22.16 km</desc>
<time>2010-07-30T17:58:12.72</time>
<name>1114</name>
</trkpt>
<trkpt lat="49.568987" lon="8.841737">
<ele>374.0</ele>
<speed>42.2</speed>
<course>163.7</course>
<desc>Speed 42.2 km/h Distance 22.21 km</desc>
<time>2010-07-30T17:58:15.72</time>
<name>1115</name>
</trkpt>
<trkpt lat="49.568887" lon="8.841782">
<ele>373.5</ele>
<speed>40.9</speed>
<course>164.6</course>
<desc>Speed 40.9 km/h Distance 22.22 km</desc>
<time>2010-07-30T17:58:16.81</time>
<name>1116</name>
</trkpt>
<trkpt lat="49.568785" lon="8.841825">
<ele>373.5</ele>
<speed>41.2</speed>
<course>166.0</course>
<desc>Speed 41.2 km/h Distance 22.23 km</desc>
<time>2010-07-30T17:58:17.72</time>
<name>1117</name>
</trkpt>
<trkpt lat="49.568677" lon="8.841867">
<ele>373.5</ele>
<speed>42.3</speed>
<course>165.1</course>
<desc>Speed 42.3 km/h Distance 22.24 km</desc>
<time>2010-07-30T17:58:18.92</time>
<name>1118</name>
</trkpt>
<trkpt lat="49.568457" lon="8.841957">
<ele>373.0</ele>
<speed>47.1</speed>
<course>166.7</course>
<desc>Speed 47.1 km/h Distance 22.27 km</desc>
<time>2010-07-30T17:58:20.73</time>
<name>1119</name>
</trkpt>
<trkpt lat="49.568333" lon="8.842002">
<ele>373.0</ele>
<speed>49.2</speed>
<course>166.6</course>
<desc>Speed 49.2 km/h Distance 22.28 km</desc>
<time>2010-07-30T17:58:21.72</time>
<name>1120</name>
</trkpt>
<trkpt lat="49.568207" lon="8.842048">
<ele>373.0</ele>
<speed>50.7</speed>
<course>165.5</course>
<desc>Speed 50.7 km/h Distance 22.30 km</desc>
<time>2010-07-30T17:58:22.72</time>
<name>1121</name>
</trkpt>
<trkpt lat="49.568073" lon="8.842102">
<ele>373.0</ele>
<speed>52.8</speed>
<course>164.1</course>
<desc>Speed 52.8 km/h Distance 22.31 km</desc>
<time>2010-07-30T17:58:23.72</time>
<name>1122</name>
</trkpt>
<trkpt lat="49.567933" lon="8.842163">
<ele>372.5</ele>
<speed>54.6</speed>
<course>158.6</course>
<desc>Speed 54.6 km/h Distance 22.33 km</desc>
<time>2010-07-30T17:58:24.72</time>
<name>1123</name>
</trkpt>
<trkpt lat="49.567798" lon="8.842245">
<ele>372.5</ele>
<speed>54.9</speed>
<course>156.4</course>
<desc>Speed 54.9 km/h Distance 22.35 km</desc>
<time>2010-07-30T17:58:25.72</time>
<name>1124</name>
</trkpt>
<trkpt lat="49.567665" lon="8.842335">
<ele>372.0</ele>
<speed>60.5</speed>
<course>146.7</course>
<desc>Speed 60.5 km/h Distance 22.36 km</desc>
<time>2010-07-30T17:58:26.71</time>
<name>1125</name>
</trkpt>
<trkpt lat="49.567550" lon="8.842452">
<ele>372.0</ele>
<speed>54.8</speed>
<course>144.0</course>
<desc>Speed 54.8 km/h Distance 22.38 km</desc>
<time>2010-07-30T17:58:27.72</time>
<name>1126</name>
</trkpt>
<trkpt lat="49.567438" lon="8.842577">
<ele>372.0</ele>
<speed>54.3</speed>
<course>140.8</course>
<desc>Speed 54.3 km/h Distance 22.39 km</desc>
<time>2010-07-30T17:58:28.71</time>
<name>1127</name>
</trkpt>
<trkpt lat="49.567342" lon="8.842698">
<ele>372.0</ele>
<speed>49.6</speed>
<course>144.5</course>
<desc>Speed 49.6 km/h Distance 22.41 km</desc>
<time>2010-07-30T17:58:29.71</time>
<name>1128</name>
</trkpt>
<trkpt lat="49.567243" lon="8.842807">
<ele>372.0</ele>
<speed>47.0</speed>
<course>143.9</course>
<desc>Speed 47.0 km/h Distance 22.42 km</desc>
<time>2010-07-30T17:58:30.71</time>
<name>1129</name>
</trkpt>
<trkpt lat="49.567148" lon="8.842913">
<ele>372.0</ele>
<speed>45.7</speed>
<course>142.0</course>
<desc>Speed 45.7 km/h Distance 22.43 km</desc>
<time>2010-07-30T17:58:31.71</time>
<name>1130</name>
</trkpt>
<trkpt lat="49.567010" lon="8.843080">
<ele>372.0</ele>
<speed>45.7</speed>
<course>139.3</course>
<desc>Speed 45.7 km/h Distance 22.45 km</desc>
<time>2010-07-30T17:58:33.70</time>
<name>1131</name>
</trkpt>
<trkpt lat="49.566923" lon="8.843195">
<ele>371.5</ele>
<speed>43.6</speed>
<course>142.6</course>
<desc>Speed 43.6 km/h Distance 22.47 km</desc>
<time>2010-07-30T17:58:34.70</time>
<name>1132</name>
</trkpt>
<trkpt lat="49.566830" lon="8.843305">
<ele>371.5</ele>
<speed>42.3</speed>
<course>141.5</course>
<desc>Speed 42.3 km/h Distance 22.48 km</desc>
<time>2010-07-30T17:58:35.70</time>
<name>1133</name>
</trkpt>
<trkpt lat="49.566742" lon="8.843413">
<ele>371.5</ele>
<speed>40.4</speed>
<course>141.7</course>
<desc>Speed 40.4 km/h Distance 22.49 km</desc>
<time>2010-07-30T17:58:36.71</time>
<name>1134</name>
</trkpt>
<trkpt lat="49.566673" lon="8.843497">
<ele>371.5</ele>
<speed>40.4</speed>
<course>139.8</course>
<desc>Speed 40.4 km/h Distance 22.50 km</desc>
<time>2010-07-30T17:58:37.70</time>
<name>1135</name>
</trkpt>
<trkpt lat="49.566542" lon="8.843668">
<ele>371.5</ele>
<speed>33.0</speed>
<course>145.1</course>
<desc>Speed 33.0 km/h Distance 22.52 km</desc>
<time>2010-07-30T17:58:39.69</time>
<name>1136</name>
</trkpt>
<trkpt lat="49.566477" lon="8.843738">
<ele>371.5</ele>
<speed>29.4</speed>
<course>147.0</course>
<desc>Speed 29.4 km/h Distance 22.53 km</desc>
<time>2010-07-30T17:58:40.69</time>
<name>1137</name>
</trkpt>
<trkpt lat="49.566410" lon="8.843805">
<ele>371.5</ele>
<speed>27.9</speed>
<course>141.1</course>
<desc>Speed 27.9 km/h Distance 22.54 km</desc>
<time>2010-07-30T17:58:41.70</time>
<name>1138</name>
</trkpt>
<trkpt lat="49.566267" lon="8.843983">
<ele>371.5</ele>
<speed>36.5</speed>
<course>141.4</course>
<desc>Speed 36.5 km/h Distance 22.56 km</desc>
<time>2010-07-30T17:58:43.69</time>
<name>1139</name>
</trkpt>
<trkpt lat="49.565793" lon="8.844565">
<ele>371.5</ele>
<speed>65.7</speed>
<course>164.5</course>
<desc>Speed 65.7 km/h Distance 22.63 km</desc>
<time>2010-07-30T17:58:47.82</time>
<name>1140</name>
</trkpt>
<trkpt lat="49.565458" lon="8.844708">
<ele>371.5</ele>
<speed>66.3</speed>
<course>164.9</course>
<desc>Speed 66.3 km/h Distance 22.66 km</desc>
<time>2010-07-30T17:58:49.68</time>
<name>1141</name>
</trkpt>
<trkpt lat="49.565298" lon="8.844775">
<ele>371.0</ele>
<speed>65.7</speed>
<course>162.7</course>
<desc>Speed 65.7 km/h Distance 22.68 km</desc>
<time>2010-07-30T17:58:50.68</time>
<name>1142</name>
</trkpt>
<trkpt lat="49.565138" lon="8.844852">
<ele>371.0</ele>
<speed>66.2</speed>
<course>158.7</course>
<desc>Speed 66.2 km/h Distance 22.70 km</desc>
<time>2010-07-30T17:58:51.67</time>
<name>1143</name>
</trkpt>
<trkpt lat="49.564975" lon="8.844950">
<ele>371.0</ele>
<speed>69.6</speed>
<course>148.2</course>
<desc>Speed 69.6 km/h Distance 22.72 km</desc>
<time>2010-07-30T17:58:52.68</time>
<name>1144</name>
</trkpt>
<trkpt lat="49.564825" lon="8.845093">
<ele>371.0</ele>
<speed>70.6</speed>
<course>111.4</course>
<desc>Speed 70.6 km/h Distance 22.74 km</desc>
<time>2010-07-30T17:58:53.68</time>
<name>1145</name>
</trkpt>
<trkpt lat="49.564710" lon="8.845545">
<ele>371.0</ele>
<speed>69.0</speed>
<course>125.8</course>
<desc>Speed 69.0 km/h Distance 22.78 km</desc>
<time>2010-07-30T17:58:55.67</time>
<name>1146</name>
</trkpt>
<trkpt lat="49.564512" lon="8.845968">
<ele>371.0</ele>
<speed>78.7</speed>
<course>133.3</course>
<desc>Speed 78.7 km/h Distance 22.81 km</desc>
<time>2010-07-30T17:58:57.67</time>
<name>1147</name>
</trkpt>
<trkpt lat="49.564233" lon="8.846423">
<ele>371.0</ele>
<speed>77.1</speed>
<course>137.4</course>
<desc>Speed 77.1 km/h Distance 22.86 km</desc>
<time>2010-07-30T17:58:59.67</time>
<name>1148</name>
</trkpt>
<trkpt lat="49.564085" lon="8.846633">
<ele>371.0</ele>
<speed>73.2</speed>
<course>138.0</course>
<desc>Speed 73.2 km/h Distance 22.88 km</desc>
<time>2010-07-30T17:59:00.66</time>
<name>1149</name>
</trkpt>
<trkpt lat="49.563948" lon="8.846823">
<ele>371.0</ele>
<speed>67.2</speed>
<course>135.0</course>
<desc>Speed 67.2 km/h Distance 22.90 km</desc>
<time>2010-07-30T17:59:01.66</time>
<name>1150</name>
</trkpt>
<trkpt lat="49.563835" lon="8.846998">
<ele>371.0</ele>
<speed>63.8</speed>
<course>147.0</course>
<desc>Speed 63.8 km/h Distance 22.92 km</desc>
<time>2010-07-30T17:59:02.67</time>
<name>1151</name>
</trkpt>
<trkpt lat="49.563710" lon="8.847123">
<ele>371.0</ele>
<speed>58.6</speed>
<course>160.2</course>
<desc>Speed 58.6 km/h Distance 22.94 km</desc>
<time>2010-07-30T17:59:03.67</time>
<name>1152</name>
</trkpt>
<trkpt lat="49.563407" lon="8.847292">
<ele>371.0</ele>
<speed>48.7</speed>
<course>181.1</course>
<desc>Speed 48.7 km/h Distance 22.97 km</desc>
<time>2010-07-30T17:59:06.67</time>
<name>1153</name>
</trkpt>
<trkpt lat="49.562003" lon="8.847248">
<ele>371.0</ele>
<speed>79.4</speed>
<course>189.0</course>
<desc>Speed 79.4 km/h Distance 23.13 km</desc>
<time>2010-07-30T17:59:12.66</time>
<name>1154</name>
</trkpt>
<trkpt lat="49.561620" lon="8.847155">
<ele>369.0</ele>
<speed>87.1</speed>
<course>202.9</course>
<desc>Speed 87.1 km/h Distance 23.17 km</desc>
<time>2010-07-30T17:59:14.69</time>
<name>1155</name>
</trkpt>
<trkpt lat="49.561228" lon="8.846900">
<ele>367.0</ele>
<speed>84.9</speed>
<course>187.3</course>
<desc>Speed 84.9 km/h Distance 23.22 km</desc>
<time>2010-07-30T17:59:16.77</time>
<name>1156</name>
</trkpt>
<trkpt lat="49.560800" lon="8.846815">
<ele>367.0</ele>
<speed>95.5</speed>
<course>185.5</course>
<desc>Speed 95.5 km/h Distance 23.27 km</desc>
<time>2010-07-30T17:59:18.82</time>
<name>1157</name>
</trkpt>
<trkpt lat="49.560610" lon="8.846787">
<ele>367.0</ele>
<speed>95.5</speed>
<course>185.5</course>
<desc>Speed 95.5 km/h Distance 23.29 km</desc>
<time>2010-07-30T17:59:19.65</time>
<name>1158</name>
</trkpt>
<trkpt lat="49.560375" lon="8.846752">
<ele>367.0</ele>
<speed>92.0</speed>
<course>183.8</course>
<desc>Speed 92.0 km/h Distance 23.31 km</desc>
<time>2010-07-30T17:59:20.65</time>
<name>1159</name>
</trkpt>
<trkpt lat="49.559798" lon="8.846693">
<ele>367.5</ele>
<speed>86.1</speed>
<course>180.0</course>
<desc>Speed 86.1 km/h Distance 23.38 km</desc>
<time>2010-07-30T17:59:23.65</time>
<name>1160</name>
</trkpt>
<trkpt lat="49.559305" lon="8.846693">
<ele>366.5</ele>
<speed>78.0</speed>
<course>154.8</course>
<desc>Speed 78.0 km/h Distance 23.43 km</desc>
<time>2010-07-30T17:59:26.64</time>
<name>1161</name>
</trkpt>
<trkpt lat="49.558808" lon="8.847053">
<ele>365.0</ele>
<speed>78.0</speed>
<course>115.8</course>
<desc>Speed 78.0 km/h Distance 23.50 km</desc>
<time>2010-07-30T17:59:32.65</time>
<name>1162</name>
</trkpt>
<trkpt lat="49.558185" lon="8.849040">
<ele>364.5</ele>
<speed>78.0</speed>
<course>126.3</course>
<desc>Speed 78.0 km/h Distance 23.65 km</desc>
<time>2010-07-30T17:59:38.65</time>
<name>1163</name>
</trkpt>
<trkpt lat="49.557935" lon="8.849565">
<ele>365.0</ele>
<speed>78.0</speed>
<course>169.4</course>
<desc>Speed 78.0 km/h Distance 23.70 km</desc>
<time>2010-07-30T17:59:40.62</time>
<name>1164</name>
</trkpt>
<trkpt lat="49.557570" lon="8.849670">
<ele>365.5</ele>
<speed>78.0</speed>
<course>149.7</course>
<desc>Speed 78.0 km/h Distance 23.74 km</desc>
<time>2010-07-30T17:59:42.62</time>
<name>1165</name>
</trkpt>
<trkpt lat="49.557298" lon="8.849915">
<ele>365.0</ele>
<speed>78.0</speed>
<course>138.7</course>
<desc>Speed 78.0 km/h Distance 23.78 km</desc>
<time>2010-07-30T17:59:45.65</time>
<name>1166</name>
</trkpt>
<trkpt lat="49.556782" lon="8.850615">
<ele>363.5</ele>
<speed>78.0</speed>
<course>159.5</course>
<desc>Speed 78.0 km/h Distance 23.85 km</desc>
<time>2010-07-30T17:59:49.76</time>
<name>1167</name>
</trkpt>
<trkpt lat="49.555540" lon="8.851330">
<ele>362.0</ele>
<speed>78.0</speed>
<course>143.5</course>
<desc>Speed 78.0 km/h Distance 24.00 km</desc>
<time>2010-07-30T17:59:53.65</time>
<name>1168</name>
</trkpt>
<trkpt lat="49.554022" lon="8.853063">
<ele>360.5</ele>
<speed>111</speed>
<course>114.7</course>
<desc>Speed 111 km/h Distance 24.21 km</desc>
<time>2010-07-30T17:59:59.60</time>
<name>1169</name>
</trkpt>
<trkpt lat="49.553905" lon="8.853455">
<ele>362.0</ele>
<speed>111</speed>
<course>115.2</course>
<desc>Speed 111 km/h Distance 24.24 km</desc>
<time>2010-07-30T18:00:00.61</time>
<name>1170</name>
</trkpt>
<trkpt lat="49.553545" lon="8.854632">
<ele>363.5</ele>
<speed>86.8</speed>
<course>122.6</course>
<desc>Speed 86.8 km/h Distance 24.34 km</desc>
<time>2010-07-30T18:00:04.61</time>
<name>1171</name>
</trkpt>
<trkpt lat="49.553232" lon="8.855388">
<ele>362.5</ele>
<speed>61.6</speed>
<course>161.3</course>
<desc>Speed 61.6 km/h Distance 24.40 km</desc>
<time>2010-07-30T18:00:08.60</time>
<name>1172</name>
</trkpt>
<trkpt lat="49.552495" lon="8.855772">
<ele>364.5</ele>
<speed>61.6</speed>
<course>184.8</course>
<desc>Speed 61.6 km/h Distance 24.49 km</desc>
<time>2010-07-30T18:00:12.60</time>
<name>1173</name>
</trkpt>
<trkpt lat="49.551293" lon="8.855617">
<ele>362.0</ele>
<speed>61.6</speed>
<course>190.1</course>
<desc>Speed 61.6 km/h Distance 24.62 km</desc>
<time>2010-07-30T18:00:15.62</time>
<name>1174</name>
</trkpt>
<trkpt lat="49.549915" lon="8.855238">
<ele>361.0</ele>
<speed>104</speed>
<course>170.7</course>
<desc>Speed 104 km/h Distance 24.78 km</desc>
<time>2010-07-30T18:00:20.71</time>
<name>1175</name>
</trkpt>
<trkpt lat="49.549150" lon="8.855432">
<ele>362.0</ele>
<speed>123</speed>
<course>154.4</course>
<desc>Speed 123 km/h Distance 24.87 km</desc>
<time>2010-07-30T18:00:23.59</time>
<name>1176</name>
</trkpt>
<trkpt lat="49.548108" lon="8.856202">
<ele>361.5</ele>
<speed>103</speed>
<course>163.9</course>
<desc>Speed 103 km/h Distance 24.99 km</desc>
<time>2010-07-30T18:00:28.58</time>
<name>1177</name>
</trkpt>
<trkpt lat="49.547428" lon="8.856505">
<ele>361.5</ele>
<speed>84.0</speed>
<course>186.0</course>
<desc>Speed 84.0 km/h Distance 25.07 km</desc>
<time>2010-07-30T18:00:31.58</time>
<name>1178</name>
</trkpt>
<trkpt lat="49.546423" lon="8.856342">
<ele>361.0</ele>
<speed>84.0</speed>
<course>194.0</course>
<desc>Speed 84.0 km/h Distance 25.19 km</desc>
<time>2010-07-30T18:00:35.63</time>
<name>1179</name>
</trkpt>
<trkpt lat="49.545870" lon="8.856128">
<ele>362.0</ele>
<speed>84.0</speed>
<course>173.8</course>
<desc>Speed 84.0 km/h Distance 25.25 km</desc>
<time>2010-07-30T18:00:39.57</time>
<name>1180</name>
</trkpt>
<trkpt lat="49.545443" lon="8.856200">
<ele>358.5</ele>
<speed>84.0</speed>
<course>137.6</course>
<desc>Speed 84.0 km/h Distance 25.30 km</desc>
<time>2010-07-30T18:00:45.56</time>
<name>1181</name>
</trkpt>
<trkpt lat="49.543642" lon="8.858733">
<ele>356.0</ele>
<speed>84.0</speed>
<course>166.9</course>
<desc>Speed 84.0 km/h Distance 25.57 km</desc>
<time>2010-07-30T18:00:55.55</time>
<name>1182</name>
</trkpt>
<trkpt lat="49.541158" lon="8.859627">
<ele>353.5</ele>
<speed>94.7</speed>
<course>140.1</course>
<desc>Speed 94.7 km/h Distance 25.85 km</desc>
<time>2010-07-30T18:01:00.56</time>
<name>1183</name>
</trkpt>
<trkpt lat="49.540745" lon="8.860160">
<ele>353.0</ele>
<speed>92.1</speed>
<course>128.8</course>
<desc>Speed 92.1 km/h Distance 25.91 km</desc>
<time>2010-07-30T18:01:02.55</time>
<name>1184</name>
</trkpt>
<trkpt lat="49.540422" lon="8.860780">
<ele>353.0</ele>
<speed>102</speed>
<course>113.7</course>
<desc>Speed 102 km/h Distance 25.97 km</desc>
<time>2010-07-30T18:01:04.55</time>
<name>1185</name>
</trkpt>
<trkpt lat="49.540235" lon="8.861435">
<ele>351.0</ele>
<speed>109</speed>
<course>110.1</course>
<desc>Speed 109 km/h Distance 26.02 km</desc>
<time>2010-07-30T18:01:06.59</time>
<name>1186</name>
</trkpt>
<trkpt lat="49.540050" lon="8.862215">
<ele>345.5</ele>
<speed>96.5</speed>
<course>119.6</course>
<desc>Speed 96.5 km/h Distance 26.08 km</desc>
<time>2010-07-30T18:01:08.65</time>
<name>1187</name>
</trkpt>
<trkpt lat="49.539573" lon="8.863507">
<ele>340.0</ele>
<speed>40.2</speed>
<course>166.2</course>
<desc>Speed 40.2 km/h Distance 26.19 km</desc>
<time>2010-07-30T18:01:14.54</time>
<name>1188</name>
</trkpt>
<trkpt lat="49.539402" lon="8.863572">
<ele>339.0</ele>
<speed>35.9</speed>
<course>150.6</course>
<desc>Speed 35.9 km/h Distance 26.21 km</desc>
<time>2010-07-30T18:01:16.54</time>
<name>1189</name>
</trkpt>
<trkpt lat="49.539327" lon="8.863637">
<ele>337.5</ele>
<speed>35.9</speed>
<course>115.2</course>
<desc>Speed 35.9 km/h Distance 26.22 km</desc>
<time>2010-07-30T18:01:17.53</time>
<name>1190</name>
</trkpt>
<trkpt lat="49.539273" lon="8.863812">
<ele>333.0</ele>
<speed>11.2</speed>
<course>71.4</course>
<desc>Speed 11.2 km/h Distance 26.23 km</desc>
<time>2010-07-30T18:01:21.53</time>
<name>1191</name>
</trkpt>
<trkpt lat="49.539343" lon="8.864132">
<ele>329.0</ele>
<speed>30.2</speed>
<course>68.0</course>
<desc>Speed 30.2 km/h Distance 26.26 km</desc>
<time>2010-07-30T18:01:24.53</time>
<name>1192</name>
</trkpt>
<trkpt lat="49.539372" lon="8.864240">
<ele>329.0</ele>
<speed>30.2</speed>
<course>59.7</course>
<desc>Speed 30.2 km/h Distance 26.26 km</desc>
<time>2010-07-30T18:01:25.52</time>
<name>1193</name>
</trkpt>
<trkpt lat="49.539477" lon="8.864517">
<ele>328.0</ele>
<speed>44.1</speed>
<course>57.1</course>
<desc>Speed 44.1 km/h Distance 26.29 km</desc>
<time>2010-07-30T18:01:27.53</time>
<name>1194</name>
</trkpt>
<trkpt lat="49.539622" lon="8.864862">
<ele>326.5</ele>
<speed>53.3</speed>
<course>60.9</course>
<desc>Speed 53.3 km/h Distance 26.32 km</desc>
<time>2010-07-30T18:01:29.52</time>
<name>1195</name>
</trkpt>
<trkpt lat="49.539850" lon="8.865493">
<ele>325.5</ele>
<speed>65.1</speed>
<course>58.7</course>
<desc>Speed 65.1 km/h Distance 26.37 km</desc>
<time>2010-07-30T18:01:32.52</time>
<name>1196</name>
</trkpt>
<trkpt lat="49.539998" lon="8.865870">
<ele>325.5</ele>
<speed>59.5</speed>
<course>49.6</course>
<desc>Speed 59.5 km/h Distance 26.40 km</desc>
<time>2010-07-30T18:01:34.52</time>
<name>1197</name>
</trkpt>
<trkpt lat="49.540103" lon="8.866060">
<ele>327.0</ele>
<speed>65.4</speed>
<course>36.7</course>
<desc>Speed 65.4 km/h Distance 26.42 km</desc>
<time>2010-07-30T18:01:35.60</time>
<name>1198</name>
</trkpt>
<trkpt lat="49.540380" lon="8.866378">
<ele>323.0</ele>
<speed>62.1</speed>
<course>27.1</course>
<desc>Speed 62.1 km/h Distance 26.46 km</desc>
<time>2010-07-30T18:01:37.67</time>
<name>1199</name>
</trkpt>
<trkpt lat="49.540663" lon="8.866602">
<ele>321.0</ele>
<speed>59.7</speed>
<course>30.5</course>
<desc>Speed 59.7 km/h Distance 26.49 km</desc>
<time>2010-07-30T18:01:39.50</time>
<name>1200</name>
</trkpt>
<trkpt lat="49.540790" lon="8.866717">
<ele>321.5</ele>
<speed>57.7</speed>
<course>33.7</course>
<desc>Speed 57.7 km/h Distance 26.51 km</desc>
<time>2010-07-30T18:01:40.51</time>
<name>1201</name>
</trkpt>
<trkpt lat="49.540910" lon="8.866840">
<ele>321.0</ele>
<speed>56.5</speed>
<course>40.0</course>
<desc>Speed 56.5 km/h Distance 26.53 km</desc>
<time>2010-07-30T18:01:41.50</time>
<name>1202</name>
</trkpt>
<trkpt lat="49.541018" lon="8.866980">
<ele>321.5</ele>
<speed>56.7</speed>
<course>42.9</course>
<desc>Speed 56.7 km/h Distance 26.54 km</desc>
<time>2010-07-30T18:01:42.51</time>
<name>1203</name>
</trkpt>
<trkpt lat="49.541127" lon="8.867135">
<ele>322.5</ele>
<speed>59.1</speed>
<course>49.9</course>
<desc>Speed 59.1 km/h Distance 26.56 km</desc>
<time>2010-07-30T18:01:43.50</time>
<name>1204</name>
</trkpt>
<trkpt lat="49.541213" lon="8.867293">
<ele>322.0</ele>
<speed>54.6</speed>
<course>49.6</course>
<desc>Speed 54.6 km/h Distance 26.57 km</desc>
<time>2010-07-30T18:01:44.50</time>
<name>1205</name>
</trkpt>
<trkpt lat="49.541312" lon="8.867472">
<ele>322.5</ele>
<speed>60.6</speed>
<course>53.6</course>
<desc>Speed 60.6 km/h Distance 26.59 km</desc>
<time>2010-07-30T18:01:45.51</time>
<name>1206</name>
</trkpt>
<trkpt lat="49.541525" lon="8.867918">
<ele>322.5</ele>
<speed>73.4</speed>
<course>55.2</course>
<desc>Speed 73.4 km/h Distance 26.63 km</desc>
<time>2010-07-30T18:01:47.51</time>
<name>1207</name>
</trkpt>
<trkpt lat="49.541638" lon="8.868170">
<ele>322.5</ele>
<speed>79.7</speed>
<course>53.9</course>
<desc>Speed 79.7 km/h Distance 26.65 km</desc>
<time>2010-07-30T18:01:48.50</time>
<name>1208</name>
</trkpt>
<trkpt lat="49.541760" lon="8.868427">
<ele>322.5</ele>
<speed>83.3</speed>
<course>52.7</course>
<desc>Speed 83.3 km/h Distance 26.67 km</desc>
<time>2010-07-30T18:01:49.51</time>
<name>1209</name>
</trkpt>
<trkpt lat="49.541887" lon="8.868683">
<ele>322.5</ele>
<speed>84.7</speed>
<course>53.3</course>
<desc>Speed 84.7 km/h Distance 26.70 km</desc>
<time>2010-07-30T18:01:50.49</time>
<name>1210</name>
</trkpt>
<trkpt lat="49.542015" lon="8.868948">
<ele>322.5</ele>
<speed>86.7</speed>
<course>54.4</course>
<desc>Speed 86.7 km/h Distance 26.72 km</desc>
<time>2010-07-30T18:01:51.49</time>
<name>1211</name>
</trkpt>
<trkpt lat="49.542145" lon="8.869228">
<ele>322.5</ele>
<speed>90.9</speed>
<course>54.7</course>
<desc>Speed 90.9 km/h Distance 26.75 km</desc>
<time>2010-07-30T18:01:52.49</time>
<name>1212</name>
</trkpt>
<trkpt lat="49.542275" lon="8.869512">
<ele>322.0</ele>
<speed>90.4</speed>
<course>53.7</course>
<desc>Speed 90.4 km/h Distance 26.77 km</desc>
<time>2010-07-30T18:01:53.49</time>
<name>1213</name>
</trkpt>
<trkpt lat="49.542408" lon="8.869792">
<ele>322.0</ele>
<speed>90.8</speed>
<course>48.3</course>
<desc>Speed 90.8 km/h Distance 26.80 km</desc>
<time>2010-07-30T18:01:54.48</time>
<name>1214</name>
</trkpt>
<trkpt lat="49.542568" lon="8.870068">
<ele>322.0</ele>
<speed>97.3</speed>
<course>46.2</course>
<desc>Speed 97.3 km/h Distance 26.82 km</desc>
<time>2010-07-30T18:01:55.49</time>
<name>1215</name>
</trkpt>
<trkpt lat="49.542738" lon="8.870342">
<ele>321.5</ele>
<speed>99.3</speed>
<course>47.0</course>
<desc>Speed 99.3 km/h Distance 26.85 km</desc>
<time>2010-07-30T18:01:56.49</time>
<name>1216</name>
</trkpt>
<trkpt lat="49.543077" lon="8.870900">
<ele>322.0</ele>
<speed>88.8</speed>
<course>38.5</course>
<desc>Speed 88.8 km/h Distance 26.91 km</desc>
<time>2010-07-30T18:01:58.49</time>
<name>1217</name>
</trkpt>
<trkpt lat="49.543918" lon="8.871933">
<ele>322.0</ele>
<speed>98.1</speed>
<course>30.8</course>
<desc>Speed 98.1 km/h Distance 27.03 km</desc>
<time>2010-07-30T18:02:02.51</time>
<name>1218</name>
</trkpt>
<trkpt lat="49.544345" lon="8.872325">
<ele>322.0</ele>
<speed>91.7</speed>
<course>30.4</course>
<desc>Speed 91.7 km/h Distance 27.08 km</desc>
<time>2010-07-30T18:02:04.57</time>
<name>1219</name>
</trkpt>
<trkpt lat="49.544533" lon="8.872495">
<ele>322.0</ele>
<speed>87.3</speed>
<course>11.9</course>
<desc>Speed 87.3 km/h Distance 27.11 km</desc>
<time>2010-07-30T18:02:05.48</time>
<name>1220</name>
</trkpt>
<trkpt lat="49.545792" lon="8.872905">
<ele>321.5</ele>
<speed>130</speed>
<course>23.2</course>
<desc>Speed 130 km/h Distance 27.25 km</desc>
<time>2010-07-30T18:02:11.47</time>
<name>1221</name>
</trkpt>
<trkpt lat="49.546737" lon="8.873530">
<ele>322.0</ele>
<speed>120</speed>
<course>31.0</course>
<desc>Speed 120 km/h Distance 27.36 km</desc>
<time>2010-07-30T18:02:17.45</time>
<name>1222</name>
</trkpt>
<trkpt lat="49.547445" lon="8.874185">
<ele>322.0</ele>
<speed>106</speed>
<course>16.5</course>
<desc>Speed 106 km/h Distance 27.46 km</desc>
<time>2010-07-30T18:02:20.46</time>
<name>1223</name>
</trkpt>
<trkpt lat="49.548185" lon="8.874523">
<ele>322.0</ele>
<speed>97.3</speed>
<course>355.2</course>
<desc>Speed 97.3 km/h Distance 27.54 km</desc>
<time>2010-07-30T18:02:23.43</time>
<name>1224</name>
</trkpt>
<trkpt lat="49.549268" lon="8.874382">
<ele>322.0</ele>
<speed>88.7</speed>
<course>8.7</course>
<desc>Speed 88.7 km/h Distance 27.66 km</desc>
<time>2010-07-30T18:02:28.44</time>
<name>1225</name>
</trkpt>
<trkpt lat="49.550320" lon="8.874630">
<ele>322.0</ele>
<speed>90.1</speed>
<course>11.4</course>
<desc>Speed 90.1 km/h Distance 27.78 km</desc>
<time>2010-07-30T18:02:32.45</time>
<name>1226</name>
</trkpt>
<trkpt lat="49.551180" lon="8.874898">
<ele>322.0</ele>
<speed>55.5</speed>
<course>9.1</course>
<desc>Speed 55.5 km/h Distance 27.88 km</desc>
<time>2010-07-30T18:02:37.44</time>
<name>1227</name>
</trkpt>
<trkpt lat="49.551390" lon="8.874950">
<ele>322.5</ele>
<speed>55.5</speed>
<course>75.8</course>
<desc>Speed 55.5 km/h Distance 27.90 km</desc>
<time>2010-07-30T18:02:39.44</time>
<name>1228</name>
</trkpt>
<trkpt lat="49.551460" lon="8.875377">
<ele>322.5</ele>
<speed>55.5</speed>
<course>77.9</course>
<desc>Speed 55.5 km/h Distance 27.93 km</desc>
<time>2010-07-30T18:02:42.59</time>
<name>1229</name>
</trkpt>
<trkpt lat="49.551518" lon="8.875795">
<ele>322.5</ele>
<speed>55.5</speed>
<course>83.6</course>
<desc>Speed 55.5 km/h Distance 27.96 km</desc>
<time>2010-07-30T18:02:44.43</time>
<name>1230</name>
</trkpt>
<trkpt lat="49.551772" lon="8.879300">
<ele>323.5</ele>
<speed>65.5</speed>
<course>23.6</course>
<desc>Speed 65.5 km/h Distance 28.22 km</desc>
<time>2010-07-30T18:02:57.43</time>
<name>1231</name>
</trkpt>
<trkpt lat="49.554667" lon="8.881248">
<ele>326.0</ele>
<speed>72.1</speed>
<course>356.8</course>
<desc>Speed 72.1 km/h Distance 28.57 km</desc>
<time>2010-07-30T18:03:07.43</time>
<name>1232</name>
</trkpt>
<trkpt lat="49.555975" lon="8.881135">
<ele>328.0</ele>
<speed>86.8</speed>
<course>300.6</course>
<desc>Speed 86.8 km/h Distance 28.72 km</desc>
<time>2010-07-30T18:03:12.42</time>
<name>1233</name>
</trkpt>
<trkpt lat="49.556255" lon="8.880405">
<ele>332.5</ele>
<speed>20.8</speed>
<course>263.8</course>
<desc>Speed 20.8 km/h Distance 28.78 km</desc>
<time>2010-07-30T18:03:21.40</time>
<name>1234</name>
</trkpt>
<trkpt lat="49.556248" lon="8.880310">
<ele>336.0</ele>
<speed>23.6</speed>
<course>6.8</course>
<desc>Speed 23.6 km/h Distance 28.78 km</desc>
<time>2010-07-30T18:03:22.40</time>
<name>1235</name>
</trkpt>
<trkpt lat="49.556693" lon="8.880392">
<ele>339.5</ele>
<speed>30.7</speed>
<course>355.8</course>
<desc>Speed 30.7 km/h Distance 28.83 km</desc>
<time>2010-07-30T18:03:28.39</time>
<name>1236</name>
</trkpt>
<trkpt lat="49.556797" lon="8.880380">
<ele>342.0</ele>
<speed>18.0</speed>
<course>43.1</course>
<desc>Speed 18.0 km/h Distance 28.85 km</desc>
<time>2010-07-30T18:03:31.40</time>
<name>1237</name>
</trkpt>
<trkpt lat="49.556853" lon="8.880462">
<ele>344.5</ele>
<speed>30.8</speed>
<course>10.8</course>
<desc>Speed 30.8 km/h Distance 28.85 km</desc>
<time>2010-07-30T18:03:33.39</time>
<name>1238</name>
</trkpt>
<trkpt lat="49.557047" lon="8.880518">
<ele>346.5</ele>
<speed>44.1</speed>
<course>8.3</course>
<desc>Speed 44.1 km/h Distance 28.88 km</desc>
<time>2010-07-30T18:03:35.39</time>
<name>1239</name>
</trkpt>
<trkpt lat="49.557447" lon="8.880608">
<ele>349.0</ele>
<speed>38.7</speed>
<course>10.7</course>
<desc>Speed 38.7 km/h Distance 28.92 km</desc>
<time>2010-07-30T18:03:39.39</time>
<name>1240</name>
</trkpt>
<trkpt lat="49.557705" lon="8.880683">
<ele>352.0</ele>
<speed>31.1</speed>
<course>14.7</course>
<desc>Speed 31.1 km/h Distance 28.95 km</desc>
<time>2010-07-30T18:03:41.38</time>
<name>1241</name>
</trkpt>
<trkpt lat="49.558013" lon="8.880808">
<ele>353.5</ele>
<speed>28.8</speed>
<course>22.0</course>
<desc>Speed 28.8 km/h Distance 28.99 km</desc>
<time>2010-07-30T18:03:44.38</time>
<name>1242</name>
</trkpt>
<trkpt lat="49.558102" lon="8.880863">
<ele>356.0</ele>
<speed>10.8</speed>
<course>38.9</course>
<desc>Speed 10.8 km/h Distance 29.00 km</desc>
<time>2010-07-30T18:03:47.38</time>
<name>1243</name>
</trkpt>
<trkpt lat="49.558183" lon="8.880965">
<ele>357.0</ele>
<speed>13.9</speed>
<course>36.8</course>
<desc>Speed 13.9 km/h Distance 29.01 km</desc>
<time>2010-07-30T18:03:49.37</time>
<name>1244</name>
</trkpt>
<trkpt lat="49.558260" lon="8.881053">
<ele>356.0</ele>
<speed>13.4</speed>
<course>18.0</course>
<desc>Speed 13.4 km/h Distance 29.02 km</desc>
<time>2010-07-30T18:03:52.37</time>
<name>1245</name>
</trkpt>
<trkpt lat="49.558300" lon="8.881073">
<ele>355.5</ele>
<speed>13.6</speed>
<course>20.5</course>
<desc>Speed 13.6 km/h Distance 29.02 km</desc>
<time>2010-07-30T18:03:53.37</time>
<name>1246</name>
</trkpt>
<trkpt lat="49.558343" lon="8.881098">
<ele>356.0</ele>
<speed>14.4</speed>
<course>24.6</course>
<desc>Speed 14.4 km/h Distance 29.03 km</desc>
<time>2010-07-30T18:03:54.37</time>
<name>1247</name>
</trkpt>
<trkpt lat="49.558603" lon="8.881282">
<ele>353.5</ele>
<speed>18.1</speed>
<course>54.0</course>
<desc>Speed 18.1 km/h Distance 29.06 km</desc>
<time>2010-07-30T18:03:57.37</time>
<name>1248</name>
</trkpt>
<trkpt lat="49.558897" lon="8.881905">
<ele>356.5</ele>
<speed>29.7</speed>
<course>94.2</course>
<desc>Speed 29.7 km/h Distance 29.12 km</desc>
<time>2010-07-30T18:04:08.35</time>
<name>1249</name>
</trkpt>
<trkpt lat="49.558855" lon="8.882777">
<ele>360.5</ele>
<speed>49.5</speed>
<course>99.2</course>
<desc>Speed 49.5 km/h Distance 29.18 km</desc>
<time>2010-07-30T18:04:12.34</time>
<name>1250</name>
</trkpt>
<trkpt lat="49.558650" lon="8.884727">
<ele>361.0</ele>
<speed>68.4</speed>
<course>100.2</course>
<desc>Speed 68.4 km/h Distance 29.32 km</desc>
<time>2010-07-30T18:04:19.33</time>
<name>1251</name>
</trkpt>
<trkpt lat="49.558618" lon="8.884997">
<ele>361.0</ele>
<speed>63.9</speed>
<course>94.2</course>
<desc>Speed 63.9 km/h Distance 29.34 km</desc>
<time>2010-07-30T18:04:20.33</time>
<name>1252</name>
</trkpt>
<trkpt lat="49.558595" lon="8.885482">
<ele>362.0</ele>
<speed>56.0</speed>
<course>88.5</course>
<desc>Speed 56.0 km/h Distance 29.38 km</desc>
<time>2010-07-30T18:04:22.33</time>
<name>1253</name>
</trkpt>
<trkpt lat="49.558598" lon="8.885673">
<ele>362.0</ele>
<speed>51.6</speed>
<course>99.2</course>
<desc>Speed 51.6 km/h Distance 29.39 km</desc>
<time>2010-07-30T18:04:23.33</time>
<name>1254</name>
</trkpt>
<trkpt lat="49.558555" lon="8.886085">
<ele>363.0</ele>
<speed>16.5</speed>
<course>239.3</course>
<desc>Speed 16.5 km/h Distance 29.42 km</desc>
<time>2010-07-30T18:04:28.32</time>
<name>1255</name>
</trkpt>
<trkpt lat="49.558505" lon="8.885955">
<ele>363.0</ele>
<speed>25.7</speed>
<course>268.5</course>
<desc>Speed 25.7 km/h Distance 29.43 km</desc>
<time>2010-07-30T18:04:30.32</time>
<name>1256</name>
</trkpt>
<trkpt lat="49.558503" lon="8.885857">
<ele>363.0</ele>
<speed>30.9</speed>
<course>249.1</course>
<desc>Speed 30.9 km/h Distance 29.44 km</desc>
<time>2010-07-30T18:04:31.32</time>
<name>1257</name>
</trkpt>
<trkpt lat="49.558458" lon="8.885675">
<ele>363.0</ele>
<speed>29.2</speed>
<course>244.3</course>
<desc>Speed 29.2 km/h Distance 29.45 km</desc>
<time>2010-07-30T18:04:33.32</time>
<name>1258</name>
</trkpt>
<trkpt lat="49.558240" lon="8.884975">
<ele>363.0</ele>
<speed>52.0</speed>
<course>243.2</course>
<desc>Speed 52.0 km/h Distance 29.51 km</desc>
<time>2010-07-30T18:04:37.32</time>
<name>1259</name>
</trkpt>
<trkpt lat="49.558148" lon="8.884695">
<ele>363.0</ele>
<speed>42.5</speed>
<course>207.5</course>
<desc>Speed 42.5 km/h Distance 29.53 km</desc>
<time>2010-07-30T18:04:39.31</time>
<name>1260</name>
</trkpt>
<trkpt lat="49.557987" lon="8.884565">
<ele>363.0</ele>
<speed>29.4</speed>
<course>179.6</course>
<desc>Speed 29.4 km/h Distance 29.55 km</desc>
<time>2010-07-30T18:04:42.32</time>
<name>1261</name>
</trkpt>
<trkpt lat="49.557803" lon="8.884567">
<ele>363.0</ele>
<speed>38.5</speed>
<course>106.7</course>
<desc>Speed 38.5 km/h Distance 29.57 km</desc>
<time>2010-07-30T18:04:44.31</time>
<name>1262</name>
</trkpt>
<trkpt lat="49.557540" lon="8.885917">
<ele>363.0</ele>
<speed>61.3</speed>
<course>105.1</course>
<desc>Speed 61.3 km/h Distance 29.67 km</desc>
<time>2010-07-30T18:04:52.31</time>
<name>1263</name>
</trkpt>
<trkpt lat="49.557453" lon="8.886413">
<ele>366.0</ele>
<speed>71.0</speed>
<course>109.6</course>
<desc>Speed 71.0 km/h Distance 29.71 km</desc>
<time>2010-07-30T18:04:54.30</time>
<name>1264</name>
</trkpt>
<trkpt lat="49.557325" lon="8.886970">
<ele>367.0</ele>
<speed>74.7</speed>
<course>112.9</course>
<desc>Speed 74.7 km/h Distance 29.75 km</desc>
<time>2010-07-30T18:04:56.30</time>
<name>1265</name>
</trkpt>
<trkpt lat="49.557253" lon="8.887232">
<ele>368.0</ele>
<speed>75.0</speed>
<course>112.5</course>
<desc>Speed 75.0 km/h Distance 29.78 km</desc>
<time>2010-07-30T18:04:57.29</time>
<name>1266</name>
</trkpt>
<trkpt lat="49.557183" lon="8.887492">
<ele>369.0</ele>
<speed>77.0</speed>
<course>112.2</course>
<desc>Speed 77.0 km/h Distance 29.80 km</desc>
<time>2010-07-30T18:04:58.29</time>
<name>1267</name>
</trkpt>
<trkpt lat="49.557113" lon="8.887757">
<ele>369.5</ele>
<speed>75.5</speed>
<course>104.5</course>
<desc>Speed 75.5 km/h Distance 29.82 km</desc>
<time>2010-07-30T18:04:59.29</time>
<name>1268</name>
</trkpt>
<trkpt lat="49.557065" lon="8.888045">
<ele>371.0</ele>
<speed>75.5</speed>
<course>109.8</course>
<desc>Speed 75.5 km/h Distance 29.84 km</desc>
<time>2010-07-30T18:05:00.29</time>
<name>1269</name>
</trkpt>
<trkpt lat="49.557000" lon="8.888323">
<ele>372.5</ele>
<speed>78.3</speed>
<course>106.0</course>
<desc>Speed 78.3 km/h Distance 29.86 km</desc>
<time>2010-07-30T18:05:01.29</time>
<name>1270</name>
</trkpt>
<trkpt lat="49.556882" lon="8.888960">
<ele>375.5</ele>
<speed>88.2</speed>
<course>103.0</course>
<desc>Speed 88.2 km/h Distance 29.91 km</desc>
<time>2010-07-30T18:05:03.29</time>
<name>1271</name>
</trkpt>
<trkpt lat="49.556832" lon="8.889293">
<ele>377.0</ele>
<speed>90.8</speed>
<course>99.3</course>
<desc>Speed 90.8 km/h Distance 29.93 km</desc>
<time>2010-07-30T18:05:04.29</time>
<name>1272</name>
</trkpt>
<trkpt lat="49.556795" lon="8.889637">
<ele>377.5</ele>
<speed>91.5</speed>
<course>93.6</course>
<desc>Speed 91.5 km/h Distance 29.96 km</desc>
<time>2010-07-30T18:05:05.28</time>
<name>1273</name>
</trkpt>
<trkpt lat="49.556745" lon="8.890863">
<ele>378.0</ele>
<speed>109</speed>
<course>96.0</course>
<desc>Speed 109 km/h Distance 30.05 km</desc>
<time>2010-07-30T18:05:08.28</time>
<name>1274</name>
</trkpt>
<trkpt lat="49.556693" lon="8.891622">
<ele>378.5</ele>
<speed>98.1</speed>
<course>87.6</course>
<desc>Speed 98.1 km/h Distance 30.10 km</desc>
<time>2010-07-30T18:05:10.29</time>
<name>1275</name>
</trkpt>
<trkpt lat="49.556703" lon="8.891993">
<ele>379.0</ele>
<speed>95.9</speed>
<course>86.2</course>
<desc>Speed 95.9 km/h Distance 30.13 km</desc>
<time>2010-07-30T18:05:11.28</time>
<name>1276</name>
</trkpt>
<trkpt lat="49.556718" lon="8.892340">
<ele>379.5</ele>
<speed>89.8</speed>
<course>87.6</course>
<desc>Speed 89.8 km/h Distance 30.15 km</desc>
<time>2010-07-30T18:05:12.28</time>
<name>1277</name>
</trkpt>
<trkpt lat="49.556728" lon="8.892705">
<ele>379.5</ele>
<speed>94.6</speed>
<course>93.4</course>
<desc>Speed 94.6 km/h Distance 30.18 km</desc>
<time>2010-07-30T18:05:13.27</time>
<name>1278</name>
</trkpt>
<trkpt lat="49.556715" lon="8.893053">
<ele>379.5</ele>
<speed>90.4</speed>
<course>89.6</course>
<desc>Speed 90.4 km/h Distance 30.20 km</desc>
<time>2010-07-30T18:05:14.28</time>
<name>1279</name>
</trkpt>
<trkpt lat="49.556717" lon="8.893400">
<ele>379.5</ele>
<speed>89.6</speed>
<course>85.0</course>
<desc>Speed 89.6 km/h Distance 30.23 km</desc>
<time>2010-07-30T18:05:15.28</time>
<name>1280</name>
</trkpt>
<trkpt lat="49.556750" lon="8.893987">
<ele>379.5</ele>
<speed>75.5</speed>
<course>57.8</course>
<desc>Speed 75.5 km/h Distance 30.27 km</desc>
<time>2010-07-30T18:05:17.27</time>
<name>1281</name>
</trkpt>
<trkpt lat="49.557052" lon="8.894725">
<ele>379.5</ele>
<speed>57.5</speed>
<course>24.9</course>
<desc>Speed 57.5 km/h Distance 30.33 km</desc>
<time>2010-07-30T18:05:21.27</time>
<name>1282</name>
</trkpt>
<trkpt lat="49.557322" lon="8.894918">
<ele>379.0</ele>
<speed>66.3</speed>
<course>32.6</course>
<desc>Speed 66.3 km/h Distance 30.37 km</desc>
<time>2010-07-30T18:05:23.27</time>
<name>1283</name>
</trkpt>
<trkpt lat="49.557457" lon="8.895052">
<ele>379.0</ele>
<speed>63.1</speed>
<course>30.6</course>
<desc>Speed 63.1 km/h Distance 30.39 km</desc>
<time>2010-07-30T18:05:24.27</time>
<name>1284</name>
</trkpt>
<trkpt lat="49.557782" lon="8.895348">
<ele>378.0</ele>
<speed>56.8</speed>
<course>26.4</course>
<desc>Speed 56.8 km/h Distance 30.43 km</desc>
<time>2010-07-30T18:05:27.28</time>
<name>1285</name>
</trkpt>
<trkpt lat="49.557895" lon="8.895435">
<ele>377.5</ele>
<speed>56.8</speed>
<course>13.4</course>
<desc>Speed 56.8 km/h Distance 30.44 km</desc>
<time>2010-07-30T18:05:28.27</time>
<name>1286</name>
</trkpt>
<trkpt lat="49.558122" lon="8.895518">
<ele>375.5</ele>
<speed>56.8</speed>
<course>0.9</course>
<desc>Speed 56.8 km/h Distance 30.47 km</desc>
<time>2010-07-30T18:05:30.26</time>
<name>1287</name>
</trkpt>
<trkpt lat="49.558273" lon="8.895522">
<ele>373.5</ele>
<speed>56.8</speed>
<course>352.1</course>
<desc>Speed 56.8 km/h Distance 30.48 km</desc>
<time>2010-07-30T18:05:31.26</time>
<name>1288</name>
</trkpt>
<trkpt lat="49.558500" lon="8.895473">
<ele>372.0</ele>
<speed>56.8</speed>
<course>342.1</course>
<desc>Speed 56.8 km/h Distance 30.51 km</desc>
<time>2010-07-30T18:05:33.26</time>
<name>1289</name>
</trkpt>
<trkpt lat="49.558812" lon="8.895318">
<ele>369.0</ele>
<speed>50.1</speed>
<course>7.9</course>
<desc>Speed 50.1 km/h Distance 30.55 km</desc>
<time>2010-07-30T18:05:35.26</time>
<name>1290</name>
</trkpt>
<trkpt lat="49.559230" lon="8.895408">
<ele>365.0</ele>
<speed>40.2</speed>
<course>14.2</course>
<desc>Speed 40.2 km/h Distance 30.59 km</desc>
<time>2010-07-30T18:05:38.29</time>
<name>1291</name>
</trkpt>
<trkpt lat="49.559358" lon="8.895458">
<ele>365.0</ele>
<speed>40.2</speed>
<course>89.5</course>
<desc>Speed 40.2 km/h Distance 30.61 km</desc>
<time>2010-07-30T18:05:40.35</time>
<name>1292</name>
</trkpt>
<trkpt lat="49.559360" lon="8.895773">
<ele>366.0</ele>
<speed>42.5</speed>
<course>105.8</course>
<desc>Speed 42.5 km/h Distance 30.63 km</desc>
<time>2010-07-30T18:05:42.25</time>
<name>1293</name>
</trkpt>
<trkpt lat="49.559313" lon="8.896028">
<ele>364.5</ele>
<speed>42.5</speed>
<course>160.9</course>
<desc>Speed 42.5 km/h Distance 30.65 km</desc>
<time>2010-07-30T18:05:45.24</time>
<name>1294</name>
</trkpt>
<trkpt lat="49.559145" lon="8.896118">
<ele>364.0</ele>
<speed>42.5</speed>
<course>164.5</course>
<desc>Speed 42.5 km/h Distance 30.67 km</desc>
<time>2010-07-30T18:05:47.24</time>
<name>1295</name>
</trkpt>
<trkpt lat="49.559052" lon="8.896158">
<ele>365.0</ele>
<speed>42.5</speed>
<course>186.5</course>
<desc>Speed 42.5 km/h Distance 30.68 km</desc>
<time>2010-07-30T18:05:48.24</time>
<name>1296</name>
</trkpt>
<trkpt lat="49.557397" lon="8.895868">
<ele>351.5</ele>
<speed>104</speed>
<course>175.7</course>
<desc>Speed 104 km/h Distance 30.87 km</desc>
<time>2010-07-30T18:05:54.23</time>
<name>1297</name>
</trkpt>
<trkpt lat="49.556325" lon="8.895992">
<ele>348.5</ele>
<speed>75.3</speed>
<course>154.9</course>
<desc>Speed 75.3 km/h Distance 30.99 km</desc>
<time>2010-07-30T18:05:59.22</time>
<name>1298</name>
</trkpt>
<trkpt lat="49.555928" lon="8.896278">
<ele>348.0</ele>
<speed>86.4</speed>
<course>160.5</course>
<desc>Speed 86.4 km/h Distance 31.03 km</desc>
<time>2010-07-30T18:06:01.22</time>
<name>1299</name>
</trkpt>
<trkpt lat="49.555507" lon="8.896508">
<ele>346.5</ele>
<speed>79.8</speed>
<course>159.6</course>
<desc>Speed 79.8 km/h Distance 31.08 km</desc>
<time>2010-07-30T18:06:03.22</time>
<name>1300</name>
</trkpt>
<trkpt lat="49.555312" lon="8.896620">
<ele>346.5</ele>
<speed>80.2</speed>
<course>150.8</course>
<desc>Speed 80.2 km/h Distance 31.11 km</desc>
<time>2010-07-30T18:06:04.21</time>
<name>1301</name>
</trkpt>
<trkpt lat="49.554832" lon="8.897033">
<ele>348.0</ele>
<speed>80.2</speed>
<course>135.0</course>
<desc>Speed 80.2 km/h Distance 31.17 km</desc>
<time>2010-07-30T18:06:08.22</time>
<name>1302</name>
</trkpt>
<trkpt lat="49.554437" lon="8.897642">
<ele>350.5</ele>
<speed>80.2</speed>
<course>153.3</course>
<desc>Speed 80.2 km/h Distance 31.23 km</desc>
<time>2010-07-30T18:06:14.21</time>
<name>1303</name>
</trkpt>
<trkpt lat="49.554123" lon="8.897885">
<ele>351.5</ele>
<speed>80.2</speed>
<course>152.0</course>
<desc>Speed 80.2 km/h Distance 31.27 km</desc>
<time>2010-07-30T18:06:16.20</time>
<name>1304</name>
</trkpt>
<trkpt lat="49.552738" lon="8.899018">
<ele>351.5</ele>
<speed>77.6</speed>
<course>129.3</course>
<desc>Speed 77.6 km/h Distance 31.44 km</desc>
<time>2010-07-30T18:06:21.20</time>
<name>1305</name>
</trkpt>
<trkpt lat="49.552608" lon="8.899263">
<ele>350.5</ele>
<speed>77.6</speed>
<course>137.3</course>
<desc>Speed 77.6 km/h Distance 31.47 km</desc>
<time>2010-07-30T18:06:22.19</time>
<name>1306</name>
</trkpt>
<trkpt lat="49.551977" lon="8.900162">
<ele>350.0</ele>
<speed>77.6</speed>
<course>172.4</course>
<desc>Speed 77.6 km/h Distance 31.56 km</desc>
<time>2010-07-30T18:06:25.19</time>
<name>1307</name>
</trkpt>
<trkpt lat="49.549895" lon="8.900588">
<ele>348.5</ele>
<speed>73.3</speed>
<course>143.5</course>
<desc>Speed 73.3 km/h Distance 31.80 km</desc>
<time>2010-07-30T18:06:32.18</time>
<name>1308</name>
</trkpt>
<trkpt lat="49.549363" lon="8.901195">
<ele>345.5</ele>
<speed>77.1</speed>
<course>129.6</course>
<desc>Speed 77.1 km/h Distance 31.87 km</desc>
<time>2010-07-30T18:06:35.18</time>
<name>1309</name>
</trkpt>
<trkpt lat="49.549228" lon="8.901447">
<ele>345.0</ele>
<speed>78.8</speed>
<course>132.1</course>
<desc>Speed 78.8 km/h Distance 31.89 km</desc>
<time>2010-07-30T18:06:36.24</time>
<name>1310</name>
</trkpt>
<trkpt lat="49.548963" lon="8.901898">
<ele>344.5</ele>
<speed>74.7</speed>
<course>147.5</course>
<desc>Speed 74.7 km/h Distance 31.94 km</desc>
<time>2010-07-30T18:06:38.31</time>
<name>1311</name>
</trkpt>
<trkpt lat="49.548500" lon="8.902353">
<ele>344.5</ele>
<speed>47.0</speed>
<course>179.6</course>
<desc>Speed 47.0 km/h Distance 32.00 km</desc>
<time>2010-07-30T18:06:42.16</time>
<name>1312</name>
</trkpt>
<trkpt lat="49.547562" lon="8.902363">
<ele>341.5</ele>
<speed>81.9</speed>
<course>192.9</course>
<desc>Speed 81.9 km/h Distance 32.10 km</desc>
<time>2010-07-30T18:06:47.16</time>
<name>1313</name>
</trkpt>
<trkpt lat="49.547227" lon="8.902245">
<ele>338.5</ele>
<speed>72.0</speed>
<course>180.8</course>
<desc>Speed 72.0 km/h Distance 32.14 km</desc>
<time>2010-07-30T18:06:49.15</time>
<name>1314</name>
</trkpt>
<trkpt lat="49.546898" lon="8.902238">
<ele>336.5</ele>
<speed>70.3</speed>
<course>166.7</course>
<desc>Speed 70.3 km/h Distance 32.18 km</desc>
<time>2010-07-30T18:06:51.15</time>
<name>1315</name>
</trkpt>
<trkpt lat="49.546720" lon="8.902303">
<ele>336.5</ele>
<speed>72.1</speed>
<course>158.0</course>
<desc>Speed 72.1 km/h Distance 32.20 km</desc>
<time>2010-07-30T18:06:52.15</time>
<name>1316</name>
</trkpt>
<trkpt lat="49.546548" lon="8.902410">
<ele>336.0</ele>
<speed>74.1</speed>
<course>161.5</course>
<desc>Speed 74.1 km/h Distance 32.22 km</desc>
<time>2010-07-30T18:06:53.15</time>
<name>1317</name>
</trkpt>
<trkpt lat="49.546377" lon="8.902498">
<ele>336.0</ele>
<speed>73.3</speed>
<course>160.4</course>
<desc>Speed 73.3 km/h Distance 32.24 km</desc>
<time>2010-07-30T18:06:54.15</time>
<name>1318</name>
</trkpt>
<trkpt lat="49.546207" lon="8.902592">
<ele>335.5</ele>
<speed>74.0</speed>
<course>161.4</course>
<desc>Speed 74.0 km/h Distance 32.26 km</desc>
<time>2010-07-30T18:06:55.14</time>
<name>1319</name>
</trkpt>
<trkpt lat="49.546037" lon="8.902680">
<ele>335.0</ele>
<speed>73.9</speed>
<course>159.9</course>
<desc>Speed 73.9 km/h Distance 32.28 km</desc>
<time>2010-07-30T18:06:56.14</time>
<name>1320</name>
</trkpt>
<trkpt lat="49.545857" lon="8.902782">
<ele>334.5</ele>
<speed>76.6</speed>
<course>159.1</course>
<desc>Speed 76.6 km/h Distance 32.30 km</desc>
<time>2010-07-30T18:06:57.14</time>
<name>1321</name>
</trkpt>
<trkpt lat="49.545662" lon="8.902897">
<ele>333.5</ele>
<speed>78.8</speed>
<course>154.5</course>
<desc>Speed 78.8 km/h Distance 32.32 km</desc>
<time>2010-07-30T18:06:58.14</time>
<name>1322</name>
</trkpt>
<trkpt lat="49.545478" lon="8.903032">
<ele>333.5</ele>
<speed>80.7</speed>
<course>150.3</course>
<desc>Speed 80.7 km/h Distance 32.35 km</desc>
<time>2010-07-30T18:06:59.14</time>
<name>1323</name>
</trkpt>
<trkpt lat="49.544648" lon="8.903762">
<ele>332.0</ele>
<speed>94.5</speed>
<course>155.8</course>
<desc>Speed 94.5 km/h Distance 32.45 km</desc>
<time>2010-07-30T18:07:03.14</time>
<name>1324</name>
</trkpt>
<trkpt lat="49.544448" lon="8.903900">
<ele>332.0</ele>
<speed>87.4</speed>
<course>153.5</course>
<desc>Speed 87.4 km/h Distance 32.48 km</desc>
<time>2010-07-30T18:07:04.13</time>
<name>1325</name>
</trkpt>
<trkpt lat="49.544255" lon="8.904048">
<ele>331.5</ele>
<speed>86.0</speed>
<course>146.9</course>
<desc>Speed 86.0 km/h Distance 32.50 km</desc>
<time>2010-07-30T18:07:05.14</time>
<name>1326</name>
</trkpt>
<trkpt lat="49.543925" lon="8.904380">
<ele>331.0</ele>
<speed>76.9</speed>
<course>136.6</course>
<desc>Speed 76.9 km/h Distance 32.55 km</desc>
<time>2010-07-30T18:07:07.20</time>
<name>1327</name>
</trkpt>
<trkpt lat="49.543638" lon="8.904798">
<ele>330.0</ele>
<speed>74.4</speed>
<course>136.4</course>
<desc>Speed 74.4 km/h Distance 32.59 km</desc>
<time>2010-07-30T18:07:09.26</time>
<name>1328</name>
</trkpt>
<trkpt lat="49.543375" lon="8.905185">
<ele>330.0</ele>
<speed>71.8</speed>
<course>145.0</course>
<desc>Speed 71.8 km/h Distance 32.63 km</desc>
<time>2010-07-30T18:07:11.12</time>
<name>1329</name>
</trkpt>
<trkpt lat="49.543227" lon="8.905345">
<ele>329.5</ele>
<speed>71.5</speed>
<course>158.7</course>
<desc>Speed 71.5 km/h Distance 32.65 km</desc>
<time>2010-07-30T18:07:12.13</time>
<name>1330</name>
</trkpt>
<trkpt lat="49.543052" lon="8.905450">
<ele>329.5</ele>
<speed>73.8</speed>
<course>163.2</course>
<desc>Speed 73.8 km/h Distance 32.67 km</desc>
<time>2010-07-30T18:07:13.12</time>
<name>1331</name>
</trkpt>
<trkpt lat="49.542877" lon="8.905532">
<ele>329.5</ele>
<speed>73.1</speed>
<course>176.1</course>
<desc>Speed 73.1 km/h Distance 32.69 km</desc>
<time>2010-07-30T18:07:14.12</time>
<name>1332</name>
</trkpt>
<trkpt lat="49.542700" lon="8.905550">
<ele>329.5</ele>
<speed>70.9</speed>
<course>186.2</course>
<desc>Speed 70.9 km/h Distance 32.71 km</desc>
<time>2010-07-30T18:07:15.12</time>
<name>1333</name>
</trkpt>
<trkpt lat="49.542522" lon="8.905520">
<ele>329.5</ele>
<speed>71.5</speed>
<course>194.2</course>
<desc>Speed 71.5 km/h Distance 32.73 km</desc>
<time>2010-07-30T18:07:16.13</time>
<name>1334</name>
</trkpt>
<trkpt lat="49.542338" lon="8.905448">
<ele>329.5</ele>
<speed>76.3</speed>
<course>192.1</course>
<desc>Speed 76.3 km/h Distance 32.75 km</desc>
<time>2010-07-30T18:07:17.12</time>
<name>1335</name>
</trkpt>
<trkpt lat="49.542142" lon="8.905383">
<ele>329.0</ele>
<speed>81.0</speed>
<course>191.3</course>
<desc>Speed 81.0 km/h Distance 32.77 km</desc>
<time>2010-07-30T18:07:18.13</time>
<name>1336</name>
</trkpt>
<trkpt lat="49.541947" lon="8.905323">
<ele>329.0</ele>
<speed>80.5</speed>
<course>185.8</course>
<desc>Speed 80.5 km/h Distance 32.80 km</desc>
<time>2010-07-30T18:07:19.13</time>
<name>1337</name>
</trkpt>
<trkpt lat="49.541753" lon="8.905293">
<ele>328.5</ele>
<speed>79.5</speed>
<course>180.0</course>
<desc>Speed 79.5 km/h Distance 32.82 km</desc>
<time>2010-07-30T18:07:20.12</time>
<name>1338</name>
</trkpt>
<trkpt lat="49.541558" lon="8.905293">
<ele>328.0</ele>
<speed>80.4</speed>
<course>179.2</course>
<desc>Speed 80.4 km/h Distance 32.84 km</desc>
<time>2010-07-30T18:07:21.12</time>
<name>1339</name>
</trkpt>
<trkpt lat="49.541342" lon="8.905298">
<ele>328.0</ele>
<speed>87.0</speed>
<course>166.3</course>
<desc>Speed 87.0 km/h Distance 32.86 km</desc>
<time>2010-07-30T18:07:22.12</time>
<name>1340</name>
</trkpt>
<trkpt lat="49.541147" lon="8.905372">
<ele>328.0</ele>
<speed>79.9</speed>
<course>154.0</course>
<desc>Speed 79.9 km/h Distance 32.89 km</desc>
<time>2010-07-30T18:07:23.12</time>
<name>1341</name>
</trkpt>
<trkpt lat="49.540597" lon="8.905785">
<ele>327.0</ele>
<speed>85.8</speed>
<course>140.1</course>
<desc>Speed 85.8 km/h Distance 32.95 km</desc>
<time>2010-07-30T18:07:26.13</time>
<name>1342</name>
</trkpt>
<trkpt lat="49.540430" lon="8.906000">
<ele>326.5</ele>
<speed>89.0</speed>
<course>140.9</course>
<desc>Speed 89.0 km/h Distance 32.98 km</desc>
<time>2010-07-30T18:07:27.13</time>
<name>1343</name>
</trkpt>
<trkpt lat="49.540247" lon="8.906230">
<ele>326.0</ele>
<speed>93.9</speed>
<course>138.9</course>
<desc>Speed 93.9 km/h Distance 33.00 km</desc>
<time>2010-07-30T18:07:28.13</time>
<name>1344</name>
</trkpt>
<trkpt lat="49.540062" lon="8.906478">
<ele>326.0</ele>
<speed>98.0</speed>
<course>136.6</course>
<desc>Speed 98.0 km/h Distance 33.03 km</desc>
<time>2010-07-30T18:07:29.13</time>
<name>1345</name>
</trkpt>
<trkpt lat="49.539883" lon="8.906738">
<ele>326.0</ele>
<speed>97.5</speed>
<course>134.5</course>
<desc>Speed 97.5 km/h Distance 33.06 km</desc>
<time>2010-07-30T18:07:30.13</time>
<name>1346</name>
</trkpt>
<trkpt lat="49.539713" lon="8.907005">
<ele>325.5</ele>
<speed>96.0</speed>
<course>134.6</course>
<desc>Speed 96.0 km/h Distance 33.09 km</desc>
<time>2010-07-30T18:07:31.14</time>
<name>1347</name>
</trkpt>
<trkpt lat="49.539545" lon="8.907268">
<ele>325.5</ele>
<speed>95.1</speed>
<course>134.5</course>
<desc>Speed 95.1 km/h Distance 33.11 km</desc>
<time>2010-07-30T18:07:32.12</time>
<name>1348</name>
</trkpt>
<trkpt lat="49.539378" lon="8.907530">
<ele>325.5</ele>
<speed>94.6</speed>
<course>134.6</course>
<desc>Speed 94.6 km/h Distance 33.14 km</desc>
<time>2010-07-30T18:07:33.12</time>
<name>1349</name>
</trkpt>
<trkpt lat="49.539212" lon="8.907790">
<ele>325.5</ele>
<speed>93.8</speed>
<course>134.8</course>
<desc>Speed 93.8 km/h Distance 33.17 km</desc>
<time>2010-07-30T18:07:34.12</time>
<name>1350</name>
</trkpt>
<trkpt lat="49.539045" lon="8.908048">
<ele>325.0</ele>
<speed>94.0</speed>
<course>138.2</course>
<desc>Speed 94.0 km/h Distance 33.19 km</desc>
<time>2010-07-30T18:07:35.12</time>
<name>1351</name>
</trkpt>
<trkpt lat="49.538873" lon="8.908285">
<ele>325.0</ele>
<speed>92.1</speed>
<course>148.6</course>
<desc>Speed 92.1 km/h Distance 33.22 km</desc>
<time>2010-07-30T18:07:36.15</time>
<name>1352</name>
</trkpt>
<trkpt lat="49.538513" lon="8.908623">
<ele>325.0</ele>
<speed>85.5</speed>
<course>153.4</course>
<desc>Speed 85.5 km/h Distance 33.27 km</desc>
<time>2010-07-30T18:07:38.21</time>
<name>1353</name>
</trkpt>
<trkpt lat="49.538140" lon="8.908912">
<ele>325.0</ele>
<speed>83.1</speed>
<course>157.0</course>
<desc>Speed 83.1 km/h Distance 33.31 km</desc>
<time>2010-07-30T18:07:40.27</time>
<name>1354</name>
</trkpt>
<trkpt lat="49.537775" lon="8.909150">
<ele>325.0</ele>
<speed>79.7</speed>
<course>150.2</course>
<desc>Speed 79.7 km/h Distance 33.36 km</desc>
<time>2010-07-30T18:07:42.11</time>
<name>1355</name>
</trkpt>
<trkpt lat="49.537605" lon="8.909300">
<ele>325.0</ele>
<speed>78.6</speed>
<course>149.8</course>
<desc>Speed 78.6 km/h Distance 33.38 km</desc>
<time>2010-07-30T18:07:43.11</time>
<name>1356</name>
</trkpt>
<trkpt lat="49.537442" lon="8.909447">
<ele>325.0</ele>
<speed>75.6</speed>
<course>149.5</course>
<desc>Speed 75.6 km/h Distance 33.40 km</desc>
<time>2010-07-30T18:07:44.10</time>
<name>1357</name>
</trkpt>
<trkpt lat="49.537282" lon="8.909592">
<ele>325.0</ele>
<speed>73.5</speed>
<course>147.0</course>
<desc>Speed 73.5 km/h Distance 33.42 km</desc>
<time>2010-07-30T18:07:45.10</time>
<name>1358</name>
</trkpt>
<trkpt lat="49.537125" lon="8.909748">
<ele>325.0</ele>
<speed>74.6</speed>
<course>134.4</course>
<desc>Speed 74.6 km/h Distance 33.44 km</desc>
<time>2010-07-30T18:07:46.10</time>
<name>1359</name>
</trkpt>
<trkpt lat="49.536843" lon="8.910192">
<ele>325.0</ele>
<speed>79.7</speed>
<course>130.0</course>
<desc>Speed 79.7 km/h Distance 33.48 km</desc>
<time>2010-07-30T18:07:48.11</time>
<name>1360</name>
</trkpt>
<trkpt lat="49.536722" lon="8.910415">
<ele>325.0</ele>
<speed>75.6</speed>
<course>121.7</course>
<desc>Speed 75.6 km/h Distance 33.51 km</desc>
<time>2010-07-30T18:07:49.09</time>
<name>1361</name>
</trkpt>
<trkpt lat="49.536627" lon="8.910652">
<ele>325.0</ele>
<speed>72.1</speed>
<course>122.8</course>
<desc>Speed 72.1 km/h Distance 33.53 km</desc>
<time>2010-07-30T18:07:50.10</time>
<name>1362</name>
</trkpt>
<trkpt lat="49.536525" lon="8.910895">
<ele>324.5</ele>
<speed>74.6</speed>
<course>123.0</course>
<desc>Speed 74.6 km/h Distance 33.55 km</desc>
<time>2010-07-30T18:07:51.10</time>
<name>1363</name>
</trkpt>
<trkpt lat="49.536422" lon="8.911140">
<ele>324.5</ele>
<speed>75.3</speed>
<course>121.6</course>
<desc>Speed 75.3 km/h Distance 33.57 km</desc>
<time>2010-07-30T18:07:52.10</time>
<name>1364</name>
</trkpt>
<trkpt lat="49.536315" lon="8.911407">
<ele>324.5</ele>
<speed>80.1</speed>
<course>122.9</course>
<desc>Speed 80.1 km/h Distance 33.59 km</desc>
<time>2010-07-30T18:07:53.09</time>
<name>1365</name>
</trkpt>
<trkpt lat="49.536210" lon="8.911657">
<ele>324.5</ele>
<speed>76.3</speed>
<course>121.3</course>
<desc>Speed 76.3 km/h Distance 33.61 km</desc>
<time>2010-07-30T18:07:54.09</time>
<name>1366</name>
</trkpt>
<trkpt lat="49.536110" lon="8.911910">
<ele>324.0</ele>
<speed>75.7</speed>
<course>122.3</course>
<desc>Speed 75.7 km/h Distance 33.63 km</desc>
<time>2010-07-30T18:07:55.10</time>
<name>1367</name>
</trkpt>
<trkpt lat="49.536012" lon="8.912150">
<ele>323.5</ele>
<speed>73.9</speed>
<course>125.3</course>
<desc>Speed 73.9 km/h Distance 33.65 km</desc>
<time>2010-07-30T18:07:56.10</time>
<name>1368</name>
</trkpt>
<trkpt lat="49.535915" lon="8.912360">
<ele>322.0</ele>
<speed>73.5</speed>
<course>134.3</course>
<desc>Speed 73.5 km/h Distance 33.67 km</desc>
<time>2010-07-30T18:07:57.09</time>
<name>1369</name>
</trkpt>
<trkpt lat="49.535688" lon="8.912718">
<ele>320.0</ele>
<speed>71.1</speed>
<course>137.3</course>
<desc>Speed 71.1 km/h Distance 33.71 km</desc>
<time>2010-07-30T18:07:59.09</time>
<name>1370</name>
</trkpt>
<trkpt lat="49.535562" lon="8.912898">
<ele>319.5</ele>
<speed>70.6</speed>
<course>136.2</course>
<desc>Speed 70.6 km/h Distance 33.73 km</desc>
<time>2010-07-30T18:08:00.09</time>
<name>1371</name>
</trkpt>
<trkpt lat="49.535443" lon="8.913073">
<ele>319.0</ele>
<speed>68.7</speed>
<course>134.8</course>
<desc>Speed 68.7 km/h Distance 33.75 km</desc>
<time>2010-07-30T18:08:01.09</time>
<name>1372</name>
</trkpt>
<trkpt lat="49.535332" lon="8.913247">
<ele>318.5</ele>
<speed>66.6</speed>
<course>134.0</course>
<desc>Speed 66.6 km/h Distance 33.76 km</desc>
<time>2010-07-30T18:08:02.08</time>
<name>1373</name>
</trkpt>
<trkpt lat="49.535225" lon="8.913417">
<ele>317.5</ele>
<speed>65.5</speed>
<course>131.4</course>
<desc>Speed 65.5 km/h Distance 33.78 km</desc>
<time>2010-07-30T18:08:03.08</time>
<name>1374</name>
</trkpt>
<trkpt lat="49.535127" lon="8.913588">
<ele>317.0</ele>
<speed>64.8</speed>
<course>129.1</course>
<desc>Speed 64.8 km/h Distance 33.80 km</desc>
<time>2010-07-30T18:08:04.09</time>
<name>1375</name>
</trkpt>
<trkpt lat="49.535033" lon="8.913765">
<ele>315.5</ele>
<speed>64.3</speed>
<course>127.6</course>
<desc>Speed 64.3 km/h Distance 33.81 km</desc>
<time>2010-07-30T18:08:05.08</time>
<name>1376</name>
</trkpt>
<trkpt lat="49.534942" lon="8.913948">
<ele>314.5</ele>
<speed>63.6</speed>
<course>126.4</course>
<desc>Speed 63.6 km/h Distance 33.83 km</desc>
<time>2010-07-30T18:08:06.09</time>
<name>1377</name>
</trkpt>
<trkpt lat="49.534852" lon="8.914137">
<ele>314.0</ele>
<speed>61.9</speed>
<course>124.2</course>
<desc>Speed 61.9 km/h Distance 33.85 km</desc>
<time>2010-07-30T18:08:07.09</time>
<name>1378</name>
</trkpt>
<trkpt lat="49.534765" lon="8.914333">
<ele>313.5</ele>
<speed>60.6</speed>
<course>123.4</course>
<desc>Speed 60.6 km/h Distance 33.86 km</desc>
<time>2010-07-30T18:08:08.09</time>
<name>1379</name>
</trkpt>
<trkpt lat="49.534682" lon="8.914528">
<ele>312.5</ele>
<speed>59.4</speed>
<course>128.4</course>
<desc>Speed 59.4 km/h Distance 33.88 km</desc>
<time>2010-07-30T18:08:09.15</time>
<name>1380</name>
</trkpt>
<trkpt lat="49.534597" lon="8.914693">
<ele>312.0</ele>
<speed>57.4</speed>
<course>132.5</course>
<desc>Speed 57.4 km/h Distance 33.90 km</desc>
<time>2010-07-30T18:08:10.08</time>
<name>1381</name>
</trkpt>
<trkpt lat="49.534423" lon="8.914985">
<ele>312.0</ele>
<speed>52.7</speed>
<course>134.2</course>
<desc>Speed 52.7 km/h Distance 33.93 km</desc>
<time>2010-07-30T18:08:12.08</time>
<name>1382</name>
</trkpt>
<trkpt lat="49.534335" lon="8.915125">
<ele>311.5</ele>
<speed>50.4</speed>
<course>136.0</course>
<desc>Speed 50.4 km/h Distance 33.94 km</desc>
<time>2010-07-30T18:08:13.08</time>
<name>1383</name>
</trkpt>
<trkpt lat="49.534247" lon="8.915257">
<ele>310.5</ele>
<speed>48.7</speed>
<course>138.4</course>
<desc>Speed 48.7 km/h Distance 33.95 km</desc>
<time>2010-07-30T18:08:14.08</time>
<name>1384</name>
</trkpt>
<trkpt lat="49.534157" lon="8.915380">
<ele>310.5</ele>
<speed>47.4</speed>
<course>137.3</course>
<desc>Speed 47.4 km/h Distance 33.97 km</desc>
<time>2010-07-30T18:08:15.08</time>
<name>1385</name>
</trkpt>
<trkpt lat="49.534073" lon="8.915498">
<ele>310.0</ele>
<speed>45.3</speed>
<course>136.6</course>
<desc>Speed 45.3 km/h Distance 33.98 km</desc>
<time>2010-07-30T18:08:16.08</time>
<name>1386</name>
</trkpt>
<trkpt lat="49.533997" lon="8.915610">
<ele>309.5</ele>
<speed>42.2</speed>
<course>122.5</course>
<desc>Speed 42.2 km/h Distance 33.99 km</desc>
<time>2010-07-30T18:08:17.08</time>
<name>1387</name>
</trkpt>
<trkpt lat="49.533905" lon="8.915832">
<ele>307.5</ele>
<speed>33.5</speed>
<course>129.5</course>
<desc>Speed 33.5 km/h Distance 34.01 km</desc>
<time>2010-07-30T18:08:19.09</time>
<name>1388</name>
</trkpt>
<trkpt lat="49.533853" lon="8.915928">
<ele>307.5</ele>
<speed>32.2</speed>
<course>129.5</course>
<desc>Speed 32.2 km/h Distance 34.02 km</desc>
<time>2010-07-30T18:08:20.08</time>
<name>1389</name>
</trkpt>
<trkpt lat="49.533803" lon="8.916022">
<ele>308.0</ele>
<speed>31.1</speed>
<course>121.4</course>
<desc>Speed 31.1 km/h Distance 34.03 km</desc>
<time>2010-07-30T18:08:21.08</time>
<name>1390</name>
</trkpt>
<trkpt lat="49.533765" lon="8.916118">
<ele>308.0</ele>
<speed>28.5</speed>
<course>118.5</course>
<desc>Speed 28.5 km/h Distance 34.04 km</desc>
<time>2010-07-30T18:08:22.08</time>
<name>1391</name>
</trkpt>
<trkpt lat="49.533733" lon="8.916208">
<ele>307.5</ele>
<speed>28.0</speed>
<course>114.4</course>
<desc>Speed 28.0 km/h Distance 34.04 km</desc>
<time>2010-07-30T18:08:23.08</time>
<name>1392</name>
</trkpt>
<trkpt lat="49.533703" lon="8.916310">
<ele>307.0</ele>
<speed>30.6</speed>
<course>120.9</course>
<desc>Speed 30.6 km/h Distance 34.05 km</desc>
<time>2010-07-30T18:08:24.07</time>
<name>1393</name>
</trkpt>
<trkpt lat="49.533660" lon="8.916422">
<ele>307.0</ele>
<speed>33.8</speed>
<course>122.6</course>
<desc>Speed 33.8 km/h Distance 34.06 km</desc>
<time>2010-07-30T18:08:25.07</time>
<name>1394</name>
</trkpt>
<trkpt lat="49.533612" lon="8.916538">
<ele>307.5</ele>
<speed>36.2</speed>
<course>112.4</course>
<desc>Speed 36.2 km/h Distance 34.07 km</desc>
<time>2010-07-30T18:08:26.07</time>
<name>1395</name>
</trkpt>
<trkpt lat="49.533573" lon="8.916682">
<ele>306.5</ele>
<speed>39.8</speed>
<course>118.8</course>
<desc>Speed 39.8 km/h Distance 34.08 km</desc>
<time>2010-07-30T18:08:27.08</time>
<name>1396</name>
</trkpt>
<trkpt lat="49.533530" lon="8.916803">
<ele>306.5</ele>
<speed>36.1</speed>
<course>115.9</course>
<desc>Speed 36.1 km/h Distance 34.09 km</desc>
<time>2010-07-30T18:08:28.07</time>
<name>1397</name>
</trkpt>
<trkpt lat="49.533465" lon="8.917010">
<ele>307.0</ele>
<speed>8.9</speed>
<course>113.8</course>
<desc>Speed 8.9 km/h Distance 34.11 km</desc>
<time>2010-07-30T18:08:32.07</time>
<name>1398</name>
</trkpt>
<trkpt lat="49.533458" lon="8.917033">
<ele>307.0</ele>
<speed>6.6</speed>
<course>104.6</course>
<desc>Speed 6.6 km/h Distance 34.11 km</desc>
<time>2010-07-30T18:08:33.07</time>
<name>1399</name>
</trkpt>
<trkpt lat="49.533457" lon="8.917043">
<ele>306.5</ele>
<speed>2.6</speed>
<course>167.4</course>
<desc>Speed 2.6 km/h Distance 34.11 km</desc>
<time>2010-07-30T18:08:34.06</time>
<name>1400</name>
</trkpt>
<trkpt lat="49.533455" lon="8.917045">
<ele>306.5</ele>
<speed>0.4</speed>
<course>107.5</course>
<desc>Speed 0.4 km/h Distance 34.11 km</desc>
<time>2010-07-30T18:08:35.06</time>
<name>1401</name>
</trkpt>
<trkpt lat="49.533453" lon="8.917053">
<ele>306.5</ele>
<speed>1.7</speed>
<course>57.5</course>
<desc>Speed 1.7 km/h Distance 34.11 km</desc>
<time>2010-07-30T18:08:36.06</time>
<name>1402</name>
</trkpt>
<trkpt lat="49.533565" lon="8.917323">
<ele>304.5</ele>
<speed>28.8</speed>
<course>53.8</course>
<desc>Speed 28.8 km/h Distance 34.14 km</desc>
<time>2010-07-30T18:08:40.11</time>
<name>1403</name>
</trkpt>
<trkpt lat="49.533612" lon="8.917422">
<ele>305.0</ele>
<speed>31.2</speed>
<course>53.8</course>
<desc>Speed 31.2 km/h Distance 34.14 km</desc>
<time>2010-07-30T18:08:41.06</time>
<name>1404</name>
</trkpt>
<trkpt lat="49.533658" lon="8.917520">
<ele>304.5</ele>
<speed>30.5</speed>
<course>57.1</course>
<desc>Speed 30.5 km/h Distance 34.15 km</desc>
<time>2010-07-30T18:08:42.17</time>
<name>1405</name>
</trkpt>
<trkpt lat="49.533702" lon="8.917623">
<ele>304.0</ele>
<speed>31.2</speed>
<course>57.7</course>
<desc>Speed 31.2 km/h Distance 34.16 km</desc>
<time>2010-07-30T18:08:43.06</time>
<name>1406</name>
</trkpt>
<trkpt lat="49.533743" lon="8.917725">
<ele>304.0</ele>
<speed>29.7</speed>
<course>66.4</course>
<desc>Speed 29.7 km/h Distance 34.17 km</desc>
<time>2010-07-30T18:08:44.06</time>
<name>1407</name>
</trkpt>
<trkpt lat="49.533768" lon="8.917813">
<ele>302.5</ele>
<speed>25.1</speed>
<course>60.8</course>
<desc>Speed 25.1 km/h Distance 34.18 km</desc>
<time>2010-07-30T18:08:45.05</time>
<name>1408</name>
</trkpt>
<trkpt lat="49.533803" lon="8.917910">
<ele>302.0</ele>
<speed>28.2</speed>
<course>62.4</course>
<desc>Speed 28.2 km/h Distance 34.19 km</desc>
<time>2010-07-30T18:08:46.06</time>
<name>1409</name>
</trkpt>
<trkpt lat="49.533838" lon="8.918013">
<ele>302.0</ele>
<speed>30.3</speed>
<course>65.0</course>
<desc>Speed 30.3 km/h Distance 34.19 km</desc>
<time>2010-07-30T18:08:47.05</time>
<name>1410</name>
</trkpt>
<trkpt lat="49.533872" lon="8.918123">
<ele>302.0</ele>
<speed>31.1</speed>
<course>58.4</course>
<desc>Speed 31.1 km/h Distance 34.20 km</desc>
<time>2010-07-30T18:08:48.05</time>
<name>1411</name>
</trkpt>
<trkpt lat="49.533915" lon="8.918232">
<ele>300.5</ele>
<speed>30.7</speed>
<course>59.0</course>
<desc>Speed 30.7 km/h Distance 34.21 km</desc>
<time>2010-07-30T18:08:49.05</time>
<name>1412</name>
</trkpt>
<trkpt lat="49.533957" lon="8.918338">
<ele>300.0</ele>
<speed>30.8</speed>
<course>58.8</course>
<desc>Speed 30.8 km/h Distance 34.22 km</desc>
<time>2010-07-30T18:08:50.04</time>
<name>1413</name>
</trkpt>
<trkpt lat="49.533997" lon="8.918440">
<ele>299.5</ele>
<speed>30.6</speed>
<course>54.3</course>
<desc>Speed 30.6 km/h Distance 34.23 km</desc>
<time>2010-07-30T18:08:51.05</time>
<name>1414</name>
</trkpt>
<trkpt lat="49.534042" lon="8.918537">
<ele>299.5</ele>
<speed>30.1</speed>
<course>51.3</course>
<desc>Speed 30.1 km/h Distance 34.24 km</desc>
<time>2010-07-30T18:08:52.04</time>
<name>1415</name>
</trkpt>
<trkpt lat="49.534087" lon="8.918623">
<ele>299.5</ele>
<speed>29.2</speed>
<course>50.2</course>
<desc>Speed 29.2 km/h Distance 34.25 km</desc>
<time>2010-07-30T18:08:53.04</time>
<name>1416</name>
</trkpt>
<trkpt lat="49.534130" lon="8.918703">
<ele>299.5</ele>
<speed>26.5</speed>
<course>49.3</course>
<desc>Speed 26.5 km/h Distance 34.25 km</desc>
<time>2010-07-30T18:08:54.04</time>
<name>1417</name>
</trkpt>
<trkpt lat="49.534170" lon="8.918775">
<ele>299.5</ele>
<speed>24.6</speed>
<course>48.1</course>
<desc>Speed 24.6 km/h Distance 34.26 km</desc>
<time>2010-07-30T18:08:55.04</time>
<name>1418</name>
</trkpt>
<trkpt lat="49.534212" lon="8.918847">
<ele>299.0</ele>
<speed>23.2</speed>
<course>46.2</course>
<desc>Speed 23.2 km/h Distance 34.27 km</desc>
<time>2010-07-30T18:08:56.04</time>
<name>1419</name>
</trkpt>
<trkpt lat="49.534250" lon="8.918908">
<ele>299.0</ele>
<speed>22.2</speed>
<course>42.1</course>
<desc>Speed 22.2 km/h Distance 34.27 km</desc>
<time>2010-07-30T18:08:57.03</time>
<name>1420</name>
</trkpt>
<trkpt lat="49.534288" lon="8.918962">
<ele>299.0</ele>
<speed>20.8</speed>
<course>45.1</course>
<desc>Speed 20.8 km/h Distance 34.28 km</desc>
<time>2010-07-30T18:08:58.03</time>
<name>1421</name>
</trkpt>
<trkpt lat="49.534325" lon="8.919018">
<ele>299.0</ele>
<speed>19.4</speed>
<course>46.3</course>
<desc>Speed 19.4 km/h Distance 34.28 km</desc>
<time>2010-07-30T18:08:59.03</time>
<name>1422</name>
</trkpt>
<trkpt lat="49.534355" lon="8.919067">
<ele>299.0</ele>
<speed>17.1</speed>
<course>48.6</course>
<desc>Speed 17.1 km/h Distance 34.29 km</desc>
<time>2010-07-30T18:09:00.04</time>
<name>1423</name>
</trkpt>
<trkpt lat="49.534382" lon="8.919113">
<ele>299.0</ele>
<speed>16.3</speed>
<course>26.8</course>
<desc>Speed 16.3 km/h Distance 34.29 km</desc>
<time>2010-07-30T18:09:01.04</time>
<name>1424</name>
</trkpt>
<trkpt lat="49.534427" lon="8.919148">
<ele>298.5</ele>
<speed>17.9</speed>
<course>49.2</course>
<desc>Speed 17.9 km/h Distance 34.30 km</desc>
<time>2010-07-30T18:09:02.03</time>
<name>1425</name>
</trkpt>
<trkpt lat="49.534450" lon="8.919190">
<ele>298.5</ele>
<speed>13.6</speed>
<course>49.9</course>
<desc>Speed 13.6 km/h Distance 34.30 km</desc>
<time>2010-07-30T18:09:03.03</time>
<name>1426</name>
</trkpt>
<trkpt lat="49.534470" lon="8.919227">
<ele>298.5</ele>
<speed>12.2</speed>
<course>48.3</course>
<desc>Speed 12.2 km/h Distance 34.31 km</desc>
<time>2010-07-30T18:09:04.04</time>
<name>1427</name>
</trkpt>
<trkpt lat="49.534488" lon="8.919258">
<ele>298.5</ele>
<speed>10.6</speed>
<course>46.7</course>
<desc>Speed 10.6 km/h Distance 34.31 km</desc>
<time>2010-07-30T18:09:05.04</time>
<name>1428</name>
</trkpt>
<trkpt lat="49.534507" lon="8.919288">
<ele>298.0</ele>
<speed>8.9</speed>
<course>43.3</course>
<desc>Speed 8.9 km/h Distance 34.31 km</desc>
<time>2010-07-30T18:09:06.03</time>
<name>1429</name>
</trkpt>
<trkpt lat="49.534525" lon="8.919315">
<ele>297.5</ele>
<speed>7.3</speed>
<course>67.2</course>
<desc>Speed 7.3 km/h Distance 34.32 km</desc>
<time>2010-07-30T18:09:07.02</time>
<name>1430</name>
</trkpt>
<trkpt lat="49.534530" lon="8.919333">
<ele>297.0</ele>
<speed>5.3</speed>
<course>55.6</course>
<desc>Speed 5.3 km/h Distance 34.32 km</desc>
<time>2010-07-30T18:09:08.03</time>
<name>1431</name>
</trkpt>
<trkpt lat="49.534537" lon="8.919348">
<ele>297.5</ele>
<speed>4.4</speed>
<course>58.2</course>
<desc>Speed 4.4 km/h Distance 34.32 km</desc>
<time>2010-07-30T18:09:09.03</time>
<name>1432</name>
</trkpt>
<trkpt lat="49.534540" lon="8.919357">
<ele>297.5</ele>
<speed>3.0</speed>
<course>33.7</course>
<desc>Speed 3.0 km/h Distance 34.32 km</desc>
<time>2010-07-30T18:09:10.02</time>
<name>1433</name>
</trkpt>
<trkpt lat="49.534543" lon="8.919360">
<ele>297.0</ele>
<speed>0.4</speed>
<course>142.8</course>
<desc>Speed 0.4 km/h Distance 34.32 km</desc>
<time>2010-07-30T18:09:11.06</time>
<name>1434</name>
</trkpt>
<trkpt lat="49.534542" lon="8.919362">
<ele>297.0</ele>
<speed>0.3</speed>
<course>128.1</course>
<desc>Speed 0.3 km/h Distance 34.32 km</desc>
<time>2010-07-30T18:09:12.02</time>
<name>1435</name>
</trkpt>
<trkpt lat="49.534540" lon="8.919365">
<ele>297.0</ele>
<speed>0.2</speed>
<course>90.0</course>
<desc>Speed 0.2 km/h Distance 34.32 km</desc>
<time>2010-07-30T18:09:13.12</time>
<name>1436</name>
</trkpt>
<trkpt lat="49.534540" lon="8.919370">
<ele>296.5</ele>
<speed>0.0</speed>
<course>150.8</course>
<desc>Speed 0.0 km/h Distance 34.32 km</desc>
<time>2010-07-30T18:09:14.02</time>
<name>1437</name>
</trkpt>
<trkpt lat="49.534538" lon="8.919372">
<ele>296.5</ele>
<speed>0.2</speed>
<course>142.8</course>
<desc>Speed 0.2 km/h Distance 34.32 km</desc>
<time>2010-07-30T18:09:15.18</time>
<name>1438</name>
</trkpt>
<trkpt lat="49.534537" lon="8.919373">
<ele>296.5</ele>
<speed>0.1</speed>
<course>90.0</course>
<desc>Speed 0.1 km/h Distance 34.32 km</desc>
<time>2010-07-30T18:09:16.02</time>
<name>1439</name>
</trkpt>
<trkpt lat="49.534537" lon="8.919377">
<ele>296.5</ele>
<speed>0.1</speed>
<course>142.8</course>
<desc>Speed 0.1 km/h Distance 34.32 km</desc>
<time>2010-07-30T18:09:17.02</time>
<name>1440</name>
</trkpt>
<trkpt lat="49.534535" lon="8.919378">
<ele>296.5</ele>
<speed>0.2</speed>
<course>142.8</course>
<desc>Speed 0.2 km/h Distance 34.32 km</desc>
<time>2010-07-30T18:09:18.03</time>
<name>1441</name>
</trkpt>
<trkpt lat="49.534533" lon="8.919380">
<ele>296.5</ele>
<speed>0.3</speed>
<course>90.0</course>
<desc>Speed 0.3 km/h Distance 34.32 km</desc>
<time>2010-07-30T18:09:19.01</time>
<name>1442</name>
</trkpt>
<trkpt lat="49.534533" lon="8.919382">
<ele>297.0</ele>
<speed>0.1</speed>
<course>142.8</course>
<desc>Speed 0.1 km/h Distance 34.32 km</desc>
<time>2010-07-30T18:09:20.01</time>
<name>1443</name>
</trkpt>
<trkpt lat="49.534532" lon="8.919383">
<ele>297.0</ele>
<speed>0.2</speed>
<course>51.9</course>
<desc>Speed 0.2 km/h Distance 34.32 km</desc>
<time>2010-07-30T18:09:21.02</time>
<name>1444</name>
</trkpt>
<trkpt lat="49.534535" lon="8.919390">
<ele>296.5</ele>
<speed>1.3</speed>
<course>38.7</course>
<desc>Speed 1.3 km/h Distance 34.32 km</desc>
<time>2010-07-30T18:09:22.01</time>
<name>1445</name>
</trkpt>
<trkpt lat="49.534775" lon="8.919687">
<ele>298.0</ele>
<speed>29.1</speed>
<course>43.8</course>
<desc>Speed 29.1 km/h Distance 34.36 km</desc>
<time>2010-07-30T18:09:27.01</time>
<name>1446</name>
</trkpt>
<trkpt lat="49.534897" lon="8.919867">
<ele>298.0</ele>
<speed>36.1</speed>
<course>41.6</course>
<desc>Speed 36.1 km/h Distance 34.38 km</desc>
<time>2010-07-30T18:09:29.00</time>
<name>1447</name>
</trkpt>
<trkpt lat="49.534973" lon="8.919972">
<ele>298.0</ele>
<speed>40.6</speed>
<course>44.6</course>
<desc>Speed 40.6 km/h Distance 34.39 km</desc>
<time>2010-07-30T18:09:30.00</time>
<name>1448</name>
</trkpt>
<trkpt lat="49.535050" lon="8.920088">
<ele>298.0</ele>
<speed>43.0</speed>
<course>46.3</course>
<desc>Speed 43.0 km/h Distance 34.40 km</desc>
<time>2010-07-30T18:09:31.00</time>
<name>1449</name>
</trkpt>
<trkpt lat="49.535132" lon="8.920220">
<ele>298.5</ele>
<speed>46.9</speed>
<course>40.3</course>
<desc>Speed 46.9 km/h Distance 34.41 km</desc>
<time>2010-07-30T18:09:32.00</time>
<name>1450</name>
</trkpt>
<trkpt lat="49.535348" lon="8.920503">
<ele>297.0</ele>
<speed>58.9</speed>
<course>28.4</course>
<desc>Speed 58.9 km/h Distance 34.44 km</desc>
<time>2010-07-30T18:09:34.00</time>
<name>1451</name>
</trkpt>
<trkpt lat="49.535648" lon="8.920753">
<ele>297.0</ele>
<speed>69.3</speed>
<course>25.8</course>
<desc>Speed 69.3 km/h Distance 34.48 km</desc>
<time>2010-07-30T18:09:36.01</time>
<name>1452</name>
</trkpt>
<trkpt lat="49.535983" lon="8.921003">
<ele>296.5</ele>
<speed>74.0</speed>
<course>26.2</course>
<desc>Speed 74.0 km/h Distance 34.52 km</desc>
<time>2010-07-30T18:09:38.00</time>
<name>1453</name>
</trkpt>
<trkpt lat="49.536157" lon="8.921135">
<ele>296.5</ele>
<speed>77.0</speed>
<course>25.6</course>
<desc>Speed 77.0 km/h Distance 34.55 km</desc>
<time>2010-07-30T18:09:38.99</time>
<name>1454</name>
</trkpt>
<trkpt lat="49.536335" lon="8.921267">
<ele>296.5</ele>
<speed>79.6</speed>
<course>23.5</course>
<desc>Speed 79.6 km/h Distance 34.57 km</desc>
<time>2010-07-30T18:09:40.00</time>
<name>1455</name>
</trkpt>
<trkpt lat="49.536527" lon="8.921395">
<ele>296.5</ele>
<speed>83.6</speed>
<course>13.8</course>
<desc>Speed 83.6 km/h Distance 34.59 km</desc>
<time>2010-07-30T18:09:41.00</time>
<name>1456</name>
</trkpt>
<trkpt lat="49.536983" lon="8.921568">
<ele>296.5</ele>
<speed>91.7</speed>
<course>10.5</course>
<desc>Speed 91.7 km/h Distance 34.64 km</desc>
<time>2010-07-30T18:09:43.00</time>
<name>1457</name>
</trkpt>
<trkpt lat="49.537222" lon="8.921637">
<ele>296.5</ele>
<speed>97.2</speed>
<course>9.9</course>
<desc>Speed 97.2 km/h Distance 34.67 km</desc>
<time>2010-07-30T18:09:44.00</time>
<name>1458</name>
</trkpt>
<trkpt lat="49.537463" lon="8.921702">
<ele>296.5</ele>
<speed>98.9</speed>
<course>9.8</course>
<desc>Speed 98.9 km/h Distance 34.70 km</desc>
<time>2010-07-30T18:09:45.00</time>
<name>1459</name>
</trkpt>
<trkpt lat="49.537702" lon="8.921765">
<ele>296.5</ele>
<speed>98.2</speed>
<course>7.8</course>
<desc>Speed 98.2 km/h Distance 34.72 km</desc>
<time>2010-07-30T18:09:46.00</time>
<name>1460</name>
</trkpt>
<trkpt lat="49.537947" lon="8.921817">
<ele>296.5</ele>
<speed>100</speed>
<course>358.0</course>
<desc>Speed 100 km/h Distance 34.75 km</desc>
<time>2010-07-30T18:09:46.99</time>
<name>1461</name>
</trkpt>
<trkpt lat="49.538197" lon="8.921803">
<ele>296.0</ele>
<speed>100</speed>
<course>357.5</course>
<desc>Speed 100 km/h Distance 34.78 km</desc>
<time>2010-07-30T18:09:47.99</time>
<name>1462</name>
</trkpt>
<trkpt lat="49.538445" lon="8.921787">
<ele>296.0</ele>
<speed>100</speed>
<course>356.3</course>
<desc>Speed 100 km/h Distance 34.81 km</desc>
<time>2010-07-30T18:09:48.99</time>
<name>1463</name>
</trkpt>
<trkpt lat="49.538697" lon="8.921762">
<ele>296.0</ele>
<speed>101</speed>
<course>356.9</course>
<desc>Speed 101 km/h Distance 34.84 km</desc>
<time>2010-07-30T18:09:49.99</time>
<name>1464</name>
</trkpt>
<trkpt lat="49.538938" lon="8.921742">
<ele>296.0</ele>
<speed>96.8</speed>
<course>4.6</course>
<desc>Speed 96.8 km/h Distance 34.86 km</desc>
<time>2010-07-30T18:09:50.99</time>
<name>1465</name>
</trkpt>
<trkpt lat="49.539710" lon="8.921838">
<ele>296.5</ele>
<speed>55.7</speed>
<course>23.3</course>
<desc>Speed 55.7 km/h Distance 34.95 km</desc>
<time>2010-07-30T18:09:55.99</time>
<name>1466</name>
</trkpt>
<trkpt lat="49.540207" lon="8.922168">
<ele>296.5</ele>
<speed>65.0</speed>
<course>2.0</course>
<desc>Speed 65.0 km/h Distance 35.01 km</desc>
<time>2010-07-30T18:09:58.99</time>
<name>1467</name>
</trkpt>
<trkpt lat="49.540582" lon="8.922188">
<ele>296.5</ele>
<speed>77.7</speed>
<course>8.5</course>
<desc>Speed 77.7 km/h Distance 35.05 km</desc>
<time>2010-07-30T18:10:00.98</time>
<name>1468</name>
</trkpt>
<trkpt lat="49.540993" lon="8.922283">
<ele>296.5</ele>
<speed>86.0</speed>
<course>17.5</course>
<desc>Speed 86.0 km/h Distance 35.10 km</desc>
<time>2010-07-30T18:10:02.98</time>
<name>1469</name>
</trkpt>
<trkpt lat="49.541445" lon="8.922503">
<ele>296.5</ele>
<speed>95.6</speed>
<course>23.2</course>
<desc>Speed 95.6 km/h Distance 35.15 km</desc>
<time>2010-07-30T18:10:04.98</time>
<name>1470</name>
</trkpt>
<trkpt lat="49.541992" lon="8.922865">
<ele>297.0</ele>
<speed>78.7</speed>
<course>39.8</course>
<desc>Speed 78.7 km/h Distance 35.22 km</desc>
<time>2010-07-30T18:10:07.98</time>
<name>1471</name>
</trkpt>
<trkpt lat="49.542307" lon="8.923270">
<ele>297.0</ele>
<speed>86.1</speed>
<course>42.7</course>
<desc>Speed 86.1 km/h Distance 35.26 km</desc>
<time>2010-07-30T18:10:09.98</time>
<name>1472</name>
</trkpt>
<trkpt lat="49.542577" lon="8.923653">
<ele>298.0</ele>
<speed>72.9</speed>
<course>61.9</course>
<desc>Speed 72.9 km/h Distance 35.30 km</desc>
<time>2010-07-30T18:10:11.99</time>
<name>1473</name>
</trkpt>
<trkpt lat="49.542745" lon="8.924138">
<ele>298.0</ele>
<speed>72.7</speed>
<course>71.8</course>
<desc>Speed 72.7 km/h Distance 35.34 km</desc>
<time>2010-07-30T18:10:13.97</time>
<name>1474</name>
</trkpt>
<trkpt lat="49.542877" lon="8.924755">
<ele>298.5</ele>
<speed>53.9</speed>
<course>40.9</course>
<desc>Speed 53.9 km/h Distance 35.39 km</desc>
<time>2010-07-30T18:10:16.98</time>
<name>1475</name>
</trkpt>
<trkpt lat="49.543087" lon="8.925035">
<ele>298.5</ele>
<speed>60.3</speed>
<course>25.0</course>
<desc>Speed 60.3 km/h Distance 35.42 km</desc>
<time>2010-07-30T18:10:18.98</time>
<name>1476</name>
</trkpt>
<trkpt lat="49.543592" lon="8.925398">
<ele>299.5</ele>
<speed>80.4</speed>
<course>30.0</course>
<desc>Speed 80.4 km/h Distance 35.48 km</desc>
<time>2010-07-30T18:10:21.97</time>
<name>1477</name>
</trkpt>
<trkpt lat="49.544730" lon="8.926412">
<ele>299.5</ele>
<speed>113</speed>
<course>31.1</course>
<desc>Speed 113 km/h Distance 35.63 km</desc>
<time>2010-07-30T18:10:26.97</time>
<name>1478</name>
</trkpt>
<trkpt lat="49.545407" lon="8.927040">
<ele>299.5</ele>
<speed>102</speed>
<course>37.4</course>
<desc>Speed 102 km/h Distance 35.72 km</desc>
<time>2010-07-30T18:10:29.96</time>
<name>1479</name>
</trkpt>
<trkpt lat="49.545970" lon="8.927703">
<ele>300.0</ele>
<speed>102</speed>
<course>59.1</course>
<desc>Speed 102 km/h Distance 35.79 km</desc>
<time>2010-07-30T18:10:34.96</time>
<name>1480</name>
</trkpt>
<trkpt lat="49.546192" lon="8.928273">
<ele>300.0</ele>
<speed>102</speed>
<course>61.3</course>
<desc>Speed 102 km/h Distance 35.84 km</desc>
<time>2010-07-30T18:10:40.94</time>
<name>1481</name>
</trkpt>
<trkpt lat="49.546532" lon="8.929232">
<ele>300.0</ele>
<speed>36.9</speed>
<course>28.8</course>
<desc>Speed 36.9 km/h Distance 35.92 km</desc>
<time>2010-07-30T18:10:47.10</time>
<name>1482</name>
</trkpt>
<trkpt lat="49.547062" lon="8.929682">
<ele>300.5</ele>
<speed>36.9</speed>
<course>3.1</course>
<desc>Speed 36.9 km/h Distance 35.99 km</desc>
<time>2010-07-30T18:10:50.94</time>
<name>1483</name>
</trkpt>
<trkpt lat="49.547282" lon="8.929700">
<ele>300.5</ele>
<speed>36.9</speed>
<course>20.9</course>
<desc>Speed 36.9 km/h Distance 36.01 km</desc>
<time>2010-07-30T18:10:52.93</time>
<name>1484</name>
</trkpt>
<trkpt lat="49.547508" lon="8.929833">
<ele>300.5</ele>
<speed>47.5</speed>
<course>21.3</course>
<desc>Speed 47.5 km/h Distance 36.04 km</desc>
<time>2010-07-30T18:10:54.93</time>
<name>1485</name>
</trkpt>
<trkpt lat="49.549412" lon="8.930975">
<ele>313.0</ele>
<speed>93.2</speed>
<course>32.3</course>
<desc>Speed 93.2 km/h Distance 36.27 km</desc>
<time>2010-07-30T18:10:59.93</time>
<name>1486</name>
</trkpt>
<trkpt lat="49.550377" lon="8.931917">
<ele>317.5</ele>
<speed>77.4</speed>
<course>46.4</course>
<desc>Speed 77.4 km/h Distance 36.40 km</desc>
<time>2010-07-30T18:11:03.92</time>
<name>1487</name>
</trkpt>
<trkpt lat="49.550498" lon="8.932113">
<ele>318.0</ele>
<speed>73.9</speed>
<course>49.8</course>
<desc>Speed 73.9 km/h Distance 36.41 km</desc>
<time>2010-07-30T18:11:04.92</time>
<name>1488</name>
</trkpt>
<trkpt lat="49.550622" lon="8.932338">
<ele>318.0</ele>
<speed>80.2</speed>
<course>79.8</course>
<desc>Speed 80.2 km/h Distance 36.44 km</desc>
<time>2010-07-30T18:11:05.92</time>
<name>1489</name>
</trkpt>
<trkpt lat="49.550658" lon="8.932652">
<ele>318.5</ele>
<speed>84.9</speed>
<course>79.8</course>
<desc>Speed 84.9 km/h Distance 36.46 km</desc>
<time>2010-07-30T18:11:06.92</time>
<name>1490</name>
</trkpt>
<trkpt lat="49.550728" lon="8.933252">
<ele>318.0</ele>
<speed>82.0</speed>
<course>116.2</course>
<desc>Speed 82.0 km/h Distance 36.50 km</desc>
<time>2010-07-30T18:11:08.92</time>
<name>1491</name>
</trkpt>
<trkpt lat="49.550632" lon="8.933555">
<ele>317.0</ele>
<speed>87.7</speed>
<course>125.4</course>
<desc>Speed 87.7 km/h Distance 36.53 km</desc>
<time>2010-07-30T18:11:09.92</time>
<name>1492</name>
</trkpt>
<trkpt lat="49.549963" lon="8.935007">
<ele>327.5</ele>
<speed>112</speed>
<course>122.9</course>
<desc>Speed 112 km/h Distance 36.66 km</desc>
<time>2010-07-30T18:11:13.92</time>
<name>1493</name>
</trkpt>
<trkpt lat="49.549803" lon="8.935388">
<ele>328.5</ele>
<speed>113</speed>
<course>128.2</course>
<desc>Speed 113 km/h Distance 36.69 km</desc>
<time>2010-07-30T18:11:14.92</time>
<name>1494</name>
</trkpt>
<trkpt lat="49.549220" lon="8.936530">
<ele>332.0</ele>
<speed>106</speed>
<course>122.9</course>
<desc>Speed 106 km/h Distance 36.79 km</desc>
<time>2010-07-30T18:11:18.04</time>
<name>1495</name>
</trkpt>
<trkpt lat="49.548572" lon="8.938073">
<ele>348.0</ele>
<speed>47.0</speed>
<course>90.8</course>
<desc>Speed 47.0 km/h Distance 36.93 km</desc>
<time>2010-07-30T18:11:23.90</time>
<name>1496</name>
</trkpt>
<trkpt lat="49.548568" lon="8.938442">
<ele>349.5</ele>
<speed>47.0</speed>
<course>50.8</course>
<desc>Speed 47.0 km/h Distance 36.95 km</desc>
<time>2010-07-30T18:11:25.90</time>
<name>1497</name>
</trkpt>
<trkpt lat="49.548830" lon="8.938937">
<ele>350.5</ele>
<speed>62.4</speed>
<course>56.3</course>
<desc>Speed 62.4 km/h Distance 37.00 km</desc>
<time>2010-07-30T18:11:28.91</time>
<name>1498</name>
</trkpt>
<trkpt lat="49.549027" lon="8.939392">
<ele>352.5</ele>
<speed>71.2</speed>
<course>81.1</course>
<desc>Speed 71.2 km/h Distance 37.04 km</desc>
<time>2010-07-30T18:11:30.90</time>
<name>1499</name>
</trkpt>
<trkpt lat="49.549052" lon="8.939638">
<ele>353.0</ele>
<speed>64.7</speed>
<course>87.7</course>
<desc>Speed 64.7 km/h Distance 37.06 km</desc>
<time>2010-07-30T18:11:31.90</time>
<name>1500</name>
</trkpt>
<trkpt lat="49.549058" lon="8.939890">
<ele>354.0</ele>
<speed>66.7</speed>
<course>95.0</course>
<desc>Speed 66.7 km/h Distance 37.08 km</desc>
<time>2010-07-30T18:11:32.90</time>
<name>1501</name>
</trkpt>
<trkpt lat="49.549035" lon="8.940302">
<ele>363.5</ele>
<speed>66.7</speed>
<course>115.9</course>
<desc>Speed 66.7 km/h Distance 37.10 km</desc>
<time>2010-07-30T18:11:34.90</time>
<name>1502</name>
</trkpt>
<trkpt lat="49.548967" lon="8.940518">
<ele>365.0</ele>
<speed>61.8</speed>
<course>97.5</course>
<desc>Speed 61.8 km/h Distance 37.12 km</desc>
<time>2010-07-30T18:11:35.89</time>
<name>1503</name>
</trkpt>
<trkpt lat="49.548932" lon="8.940930">
<ele>366.5</ele>
<speed>50.3</speed>
<course>101.5</course>
<desc>Speed 50.3 km/h Distance 37.15 km</desc>
<time>2010-07-30T18:11:37.88</time>
<name>1504</name>
</trkpt>
<trkpt lat="49.548885" lon="8.941283">
<ele>370.5</ele>
<speed>50.3</speed>
<course>57.7</course>
<desc>Speed 50.3 km/h Distance 37.18 km</desc>
<time>2010-07-30T18:11:41.01</time>
<name>1505</name>
</trkpt>
<trkpt lat="49.549012" lon="8.941592">
<ele>370.0</ele>
<speed>50.3</speed>
<course>54.9</course>
<desc>Speed 50.3 km/h Distance 37.20 km</desc>
<time>2010-07-30T18:11:45.88</time>
<name>1506</name>
</trkpt>
<trkpt lat="49.549508" lon="8.942680">
<ele>374.0</ele>
<speed>79.8</speed>
<course>52.8</course>
<desc>Speed 79.8 km/h Distance 37.30 km</desc>
<time>2010-07-30T18:11:50.87</time>
<name>1507</name>
</trkpt>
<trkpt lat="49.549772" lon="8.943215">
<ele>382.0</ele>
<speed>79.8</speed>
<course>8.4</course>
<desc>Speed 79.8 km/h Distance 37.35 km</desc>
<time>2010-07-30T18:11:53.86</time>
<name>1508</name>
</trkpt>
<trkpt lat="49.550228" lon="8.943318">
<ele>393.0</ele>
<speed>79.8</speed>
<course>318.6</course>
<desc>Speed 79.8 km/h Distance 37.40 km</desc>
<time>2010-07-30T18:11:59.85</time>
<name>1509</name>
</trkpt>
<trkpt lat="49.551637" lon="8.941407">
<ele>406.5</ele>
<speed>79.8</speed>
<course>348.7</course>
<desc>Speed 79.8 km/h Distance 37.61 km</desc>
<time>2010-07-30T18:12:05.84</time>
<name>1510</name>
</trkpt>
<trkpt lat="49.552623" lon="8.941102">
<ele>408.5</ele>
<speed>79.8</speed>
<course>342.0</course>
<desc>Speed 79.8 km/h Distance 37.72 km</desc>
<time>2010-07-30T18:12:09.90</time>
<name>1511</name>
</trkpt>
<trkpt lat="49.552790" lon="8.941018">
<ele>408.0</ele>
<speed>79.8</speed>
<course>359.0</course>
<desc>Speed 79.8 km/h Distance 37.74 km</desc>
<time>2010-07-30T18:12:10.83</time>
<name>1512</name>
</trkpt>
<trkpt lat="49.553485" lon="8.941000">
<ele>408.5</ele>
<speed>71.2</speed>
<course>10.5</course>
<desc>Speed 71.2 km/h Distance 37.82 km</desc>
<time>2010-07-30T18:12:13.84</time>
<name>1513</name>
</trkpt>
<trkpt lat="49.553868" lon="8.941110">
<ele>408.0</ele>
<speed>71.2</speed>
<course>15.5</course>
<desc>Speed 71.2 km/h Distance 37.86 km</desc>
<time>2010-07-30T18:12:15.83</time>
<name>1514</name>
</trkpt>
<trkpt lat="49.554055" lon="8.941190">
<ele>408.5</ele>
<speed>71.2</speed>
<course>78.5</course>
<desc>Speed 71.2 km/h Distance 37.88 km</desc>
<time>2010-07-30T18:12:16.83</time>
<name>1515</name>
</trkpt>
<trkpt lat="49.554222" lon="8.942453">
<ele>411.5</ele>
<speed>71.2</speed>
<course>24.4</course>
<desc>Speed 71.2 km/h Distance 37.98 km</desc>
<time>2010-07-30T18:12:21.83</time>
<name>1516</name>
</trkpt>
<trkpt lat="49.555072" lon="8.943048">
<ele>420.5</ele>
<speed>92.1</speed>
<course>13.1</course>
<desc>Speed 92.1 km/h Distance 38.08 km</desc>
<time>2010-07-30T18:12:26.07</time>
<name>1517</name>
</trkpt>
<trkpt lat="49.555743" lon="8.943288">
<ele>425.5</ele>
<speed>78.7</speed>
<course>15.5</course>
<desc>Speed 78.7 km/h Distance 38.16 km</desc>
<time>2010-07-30T18:12:28.82</time>
<name>1518</name>
</trkpt>
<trkpt lat="49.555942" lon="8.943373">
<ele>426.0</ele>
<speed>74.5</speed>
<course>22.9</course>
<desc>Speed 74.5 km/h Distance 38.18 km</desc>
<time>2010-07-30T18:12:29.82</time>
<name>1519</name>
</trkpt>
<trkpt lat="49.556270" lon="8.943587">
<ele>428.0</ele>
<speed>61.6</speed>
<course>27.2</course>
<desc>Speed 61.6 km/h Distance 38.22 km</desc>
<time>2010-07-30T18:12:31.83</time>
<name>1520</name>
</trkpt>
<trkpt lat="49.556415" lon="8.943702">
<ele>430.0</ele>
<speed>61.6</speed>
<course>29.9</course>
<desc>Speed 61.6 km/h Distance 38.24 km</desc>
<time>2010-07-30T18:12:32.82</time>
<name>1521</name>
</trkpt>
<trkpt lat="49.556533" lon="8.943807">
<ele>432.5</ele>
<speed>61.6</speed>
<course>59.3</course>
<desc>Speed 61.6 km/h Distance 38.25 km</desc>
<time>2010-07-30T18:12:33.82</time>
<name>1522</name>
</trkpt>
<trkpt lat="49.556703" lon="8.944248">
<ele>436.0</ele>
<speed>44.0</speed>
<course>108.1</course>
<desc>Speed 44.0 km/h Distance 38.29 km</desc>
<time>2010-07-30T18:12:36.82</time>
<name>1523</name>
</trkpt>
<trkpt lat="49.556588" lon="8.944790">
<ele>444.0</ele>
<speed>44.0</speed>
<course>59.2</course>
<desc>Speed 44.0 km/h Distance 38.33 km</desc>
<time>2010-07-30T18:12:39.82</time>
<name>1524</name>
</trkpt>
<trkpt lat="49.556668" lon="8.944997">
<ele>444.0</ele>
<speed>44.0</speed>
<course>89.5</course>
<desc>Speed 44.0 km/h Distance 38.35 km</desc>
<time>2010-07-30T18:12:41.81</time>
<name>1525</name>
</trkpt>
<trkpt lat="49.556683" lon="8.947855">
<ele>447.0</ele>
<speed>123</speed>
<course>81.3</course>
<desc>Speed 123 km/h Distance 38.56 km</desc>
<time>2010-07-30T18:12:47.79</time>
<name>1526</name>
</trkpt>
<trkpt lat="49.556847" lon="8.949508">
<ele>446.5</ele>
<speed>123</speed>
<course>83.6</course>
<desc>Speed 123 km/h Distance 38.68 km</desc>
<time>2010-07-30T18:12:52.89</time>
<name>1527</name>
</trkpt>
<trkpt lat="49.556912" lon="8.950403">
<ele>435.0</ele>
<speed>123</speed>
<course>58.8</course>
<desc>Speed 123 km/h Distance 38.74 km</desc>
<time>2010-07-30T18:12:54.95</time>
<name>1528</name>
</trkpt>
<trkpt lat="49.557823" lon="8.952727">
<ele>418.5</ele>
<speed>123</speed>
<course>68.3</course>
<desc>Speed 123 km/h Distance 38.94 km</desc>
<time>2010-07-30T18:12:59.78</time>
<name>1529</name>
</trkpt>
<trkpt lat="49.558243" lon="8.954355">
<ele>437.0</ele>
<speed>103</speed>
<course>60.9</course>
<desc>Speed 103 km/h Distance 39.06 km</desc>
<time>2010-07-30T18:13:03.77</time>
<name>1530</name>
</trkpt>
<trkpt lat="49.558643" lon="8.955465">
<ele>448.0</ele>
<speed>82.4</speed>
<course>71.3</course>
<desc>Speed 82.4 km/h Distance 39.16 km</desc>
<time>2010-07-30T18:13:06.76</time>
<name>1531</name>
</trkpt>
<trkpt lat="49.558795" lon="8.956157">
<ele>452.0</ele>
<speed>72.0</speed>
<course>64.8</course>
<desc>Speed 72.0 km/h Distance 39.21 km</desc>
<time>2010-07-30T18:13:08.77</time>
<name>1532</name>
</trkpt>
<trkpt lat="49.558872" lon="8.956408">
<ele>453.0</ele>
<speed>65.0</speed>
<course>91.5</course>
<desc>Speed 65.0 km/h Distance 39.23 km</desc>
<time>2010-07-30T18:13:09.77</time>
<name>1533</name>
</trkpt>
<trkpt lat="49.558857" lon="8.957312">
<ele>478.5</ele>
<speed>47.8</speed>
<course>84.8</course>
<desc>Speed 47.8 km/h Distance 39.29 km</desc>
<time>2010-07-30T18:13:12.75</time>
<name>1534</name>
</trkpt>
<trkpt lat="49.558883" lon="8.957767">
<ele>480.5</ele>
<speed>30.6</speed>
<course>121.7</course>
<desc>Speed 30.6 km/h Distance 39.33 km</desc>
<time>2010-07-30T18:13:15.75</time>
<name>1535</name>
</trkpt>
<trkpt lat="49.558775" lon="8.958037">
<ele>486.5</ele>
<speed>14.7</speed>
<course>224.7</course>
<desc>Speed 14.7 km/h Distance 39.35 km</desc>
<time>2010-07-30T18:13:18.75</time>
<name>1536</name>
</trkpt>
<trkpt lat="49.558037" lon="8.956912">
<ele>488.5</ele>
<speed>97.7</speed>
<course>228.1</course>
<desc>Speed 97.7 km/h Distance 39.46 km</desc>
<time>2010-07-30T18:13:24.54</time>
<name>1537</name>
</trkpt>
<trkpt lat="49.557228" lon="8.955522">
<ele>492.0</ele>
<speed>95.5</speed>
<course>227.3</course>
<desc>Speed 95.5 km/h Distance 39.60 km</desc>
<time>2010-07-30T18:13:28.74</time>
<name>1538</name>
</trkpt>
<trkpt lat="49.557067" lon="8.955252">
<ele>491.5</ele>
<speed>95.8</speed>
<course>225.4</course>
<desc>Speed 95.8 km/h Distance 39.63 km</desc>
<time>2010-07-30T18:13:29.74</time>
<name>1539</name>
</trkpt>
<trkpt lat="49.556898" lon="8.954988">
<ele>494.0</ele>
<speed>95.8</speed>
<course>228.2</course>
<desc>Speed 95.8 km/h Distance 39.65 km</desc>
<time>2010-07-30T18:13:30.75</time>
<name>1540</name>
</trkpt>
<trkpt lat="49.556735" lon="8.954707">
<ele>495.5</ele>
<speed>96.0</speed>
<course>238.8</course>
<desc>Speed 96.0 km/h Distance 39.68 km</desc>
<time>2010-07-30T18:13:31.73</time>
<name>1541</name>
</trkpt>
<trkpt lat="49.556485" lon="8.954070">
<ele>498.0</ele>
<speed>101</speed>
<course>243.1</course>
<desc>Speed 101 km/h Distance 39.73 km</desc>
<time>2010-07-30T18:13:33.74</time>
<name>1542</name>
</trkpt>
<trkpt lat="49.556255" lon="8.953370">
<ele>500.5</ele>
<speed>102</speed>
<course>243.3</course>
<desc>Speed 102 km/h Distance 39.79 km</desc>
<time>2010-07-30T18:13:35.74</time>
<name>1543</name>
</trkpt>
<trkpt lat="49.556142" lon="8.953023">
<ele>501.0</ele>
<speed>101</speed>
<course>242.1</course>
<desc>Speed 101 km/h Distance 39.82 km</desc>
<time>2010-07-30T18:13:36.73</time>
<name>1544</name>
</trkpt>
<trkpt lat="49.556028" lon="8.952693">
<ele>501.0</ele>
<speed>96.6</speed>
<course>242.1</course>
<desc>Speed 96.6 km/h Distance 39.85 km</desc>
<time>2010-07-30T18:13:37.73</time>
<name>1545</name>
</trkpt>
<trkpt lat="49.555918" lon="8.952373">
<ele>501.5</ele>
<speed>92.9</speed>
<course>236.1</course>
<desc>Speed 92.9 km/h Distance 39.87 km</desc>
<time>2010-07-30T18:13:38.73</time>
<name>1546</name>
</trkpt>
<trkpt lat="49.555787" lon="8.952072">
<ele>501.5</ele>
<speed>95.2</speed>
<course>231.9</course>
<desc>Speed 95.2 km/h Distance 39.90 km</desc>
<time>2010-07-30T18:13:39.73</time>
<name>1547</name>
</trkpt>
<trkpt lat="49.555642" lon="8.951787">
<ele>503.0</ele>
<speed>94.5</speed>
<course>229.0</course>
<desc>Speed 94.5 km/h Distance 39.92 km</desc>
<time>2010-07-30T18:13:40.73</time>
<name>1548</name>
</trkpt>
<trkpt lat="49.555487" lon="8.951512">
<ele>503.5</ele>
<speed>95.0</speed>
<course>229.9</course>
<desc>Speed 95.0 km/h Distance 39.95 km</desc>
<time>2010-07-30T18:13:41.72</time>
<name>1549</name>
</trkpt>
<trkpt lat="49.555340" lon="8.951243">
<ele>504.0</ele>
<speed>92.1</speed>
<course>237.0</course>
<desc>Speed 92.1 km/h Distance 39.98 km</desc>
<time>2010-07-30T18:13:42.73</time>
<name>1550</name>
</trkpt>
<trkpt lat="49.555215" lon="8.950947">
<ele>505.0</ele>
<speed>93.4</speed>
<course>239.3</course>
<desc>Speed 93.4 km/h Distance 40.00 km</desc>
<time>2010-07-30T18:13:43.72</time>
<name>1551</name>
</trkpt>
<trkpt lat="49.555095" lon="8.950635">
<ele>505.0</ele>
<speed>95.4</speed>
<course>247.8</course>
<desc>Speed 95.4 km/h Distance 40.03 km</desc>
<time>2010-07-30T18:13:44.73</time>
<name>1552</name>
</trkpt>
<trkpt lat="49.555003" lon="8.950288">
<ele>506.0</ele>
<speed>98.4</speed>
<course>251.0</course>
<desc>Speed 98.4 km/h Distance 40.05 km</desc>
<time>2010-07-30T18:13:45.72</time>
<name>1553</name>
</trkpt>
<trkpt lat="49.554923" lon="8.949930">
<ele>506.0</ele>
<speed>99.6</speed>
<course>254.3</course>
<desc>Speed 99.6 km/h Distance 40.08 km</desc>
<time>2010-07-30T18:13:46.72</time>
<name>1554</name>
</trkpt>
<trkpt lat="49.554745" lon="8.948950">
<ele>508.0</ele>
<speed>86.7</speed>
<course>224.6</course>
<desc>Speed 86.7 km/h Distance 40.16 km</desc>
<time>2010-07-30T18:13:49.73</time>
<name>1555</name>
</trkpt>
<trkpt lat="49.554303" lon="8.948278">
<ele>506.5</ele>
<speed>61.7</speed>
<course>192.9</course>
<desc>Speed 61.7 km/h Distance 40.22 km</desc>
<time>2010-07-30T18:13:53.71</time>
<name>1556</name>
</trkpt>
<trkpt lat="49.553955" lon="8.948155">
<ele>507.0</ele>
<speed>72.3</speed>
<course>158.3</course>
<desc>Speed 72.3 km/h Distance 40.26 km</desc>
<time>2010-07-30T18:13:55.72</time>
<name>1557</name>
</trkpt>
<trkpt lat="49.553343" lon="8.948530">
<ele>505.5</ele>
<speed>85.5</speed>
<course>151.2</course>
<desc>Speed 85.5 km/h Distance 40.34 km</desc>
<time>2010-07-30T18:13:58.71</time>
<name>1558</name>
</trkpt>
<trkpt lat="49.553002" lon="8.948820">
<ele>505.0</ele>
<speed>77.0</speed>
<course>165.4</course>
<desc>Speed 77.0 km/h Distance 40.38 km</desc>
<time>2010-07-30T18:14:00.71</time>
<name>1559</name>
</trkpt>
<trkpt lat="49.552807" lon="8.948898">
<ele>505.0</ele>
<speed>80.2</speed>
<course>170.0</course>
<desc>Speed 80.2 km/h Distance 40.40 km</desc>
<time>2010-07-30T18:14:01.72</time>
<name>1560</name>
</trkpt>
<trkpt lat="49.552617" lon="8.948950">
<ele>505.0</ele>
<speed>76.7</speed>
<course>180.4</course>
<desc>Speed 76.7 km/h Distance 40.42 km</desc>
<time>2010-07-30T18:14:02.71</time>
<name>1561</name>
</trkpt>
<trkpt lat="49.552415" lon="8.948948">
<ele>505.0</ele>
<speed>79.8</speed>
<course>203.9</course>
<desc>Speed 79.8 km/h Distance 40.45 km</desc>
<time>2010-07-30T18:14:03.78</time>
<name>1562</name>
</trkpt>
<trkpt lat="49.550715" lon="8.947787">
<ele>505.0</ele>
<speed>79.8</speed>
<course>207.0</course>
<desc>Speed 79.8 km/h Distance 40.65 km</desc>
<time>2010-07-30T18:14:17.68</time>
<name>1563</name>
</trkpt>
<trkpt lat="49.548438" lon="8.945995">
<ele>505.0</ele>
<speed>115</speed>
<course>202.9</course>
<desc>Speed 115 km/h Distance 40.94 km</desc>
<time>2010-07-30T18:14:22.69</time>
<name>1564</name>
</trkpt>
<trkpt lat="49.547633" lon="8.945470">
<ele>505.0</ele>
<speed>122</speed>
<course>201.1</course>
<desc>Speed 122 km/h Distance 41.04 km</desc>
<time>2010-07-30T18:14:25.68</time>
<name>1565</name>
</trkpt>
<trkpt lat="49.546578" lon="8.944842">
<ele>504.5</ele>
<speed>100</speed>
<course>212.2</course>
<desc>Speed 100 km/h Distance 41.16 km</desc>
<time>2010-07-30T18:14:29.68</time>
<name>1566</name>
</trkpt>
<trkpt lat="49.546040" lon="8.944318">
<ele>505.0</ele>
<speed>102</speed>
<course>250.7</course>
<desc>Speed 102 km/h Distance 41.23 km</desc>
<time>2010-07-30T18:14:32.68</time>
<name>1567</name>
</trkpt>
<trkpt lat="49.545792" lon="8.943228">
<ele>511.5</ele>
<speed>102</speed>
<course>261.2</course>
<desc>Speed 102 km/h Distance 41.32 km</desc>
<time>2010-07-30T18:14:37.86</time>
<name>1568</name>
</trkpt>
<trkpt lat="49.545685" lon="8.942168">
<ele>516.5</ele>
<speed>102</speed>
<course>240.9</course>
<desc>Speed 102 km/h Distance 41.39 km</desc>
<time>2010-07-30T18:14:40.67</time>
<name>1569</name>
</trkpt>
<trkpt lat="49.545460" lon="8.941545">
<ele>519.0</ele>
<speed>100</speed>
<course>249.2</course>
<desc>Speed 100 km/h Distance 41.45 km</desc>
<time>2010-07-30T18:14:42.66</time>
<name>1570</name>
</trkpt>
<trkpt lat="49.544725" lon="8.938570">
<ele>548.0</ele>
<speed>83.1</speed>
<course>231.3</course>
<desc>Speed 83.1 km/h Distance 41.68 km</desc>
<time>2010-07-30T18:14:48.66</time>
<name>1571</name>
</trkpt>
<trkpt lat="49.544478" lon="8.938095">
<ele>551.5</ele>
<speed>75.1</speed>
<course>215.2</course>
<desc>Speed 75.1 km/h Distance 41.72 km</desc>
<time>2010-07-30T18:14:50.66</time>
<name>1572</name>
</trkpt>
<trkpt lat="49.544127" lon="8.937713">
<ele>543.5</ele>
<speed>75.1</speed>
<course>180.5</course>
<desc>Speed 75.1 km/h Distance 41.77 km</desc>
<time>2010-07-30T18:14:53.66</time>
<name>1573</name>
</trkpt>
<trkpt lat="49.543533" lon="8.937705">
<ele>507.5</ele>
<speed>75.1</speed>
<course>149.3</course>
<desc>Speed 75.1 km/h Distance 41.83 km</desc>
<time>2010-07-30T18:14:57.65</time>
<name>1574</name>
</trkpt>
<trkpt lat="49.542005" lon="8.939102">
<ele>495.5</ele>
<speed>75.1</speed>
<course>199.3</course>
<desc>Speed 75.1 km/h Distance 42.03 km</desc>
<time>2010-07-30T18:15:09.63</time>
<name>1575</name>
</trkpt>
<trkpt lat="49.540485" lon="8.938280">
<ele>494.5</ele>
<speed>48.9</speed>
<course>181.7</course>
<desc>Speed 48.9 km/h Distance 42.21 km</desc>
<time>2010-07-30T18:15:16.63</time>
<name>1576</name>
</trkpt>
<trkpt lat="49.539772" lon="8.938247">
<ele>496.5</ele>
<speed>44.6</speed>
<course>174.3</course>
<desc>Speed 44.6 km/h Distance 42.29 km</desc>
<time>2010-07-30T18:15:20.73</time>
<name>1577</name>
</trkpt>
<trkpt lat="49.539598" lon="8.938273">
<ele>496.5</ele>
<speed>44.6</speed>
<course>160.6</course>
<desc>Speed 44.6 km/h Distance 42.31 km</desc>
<time>2010-07-30T18:15:22.62</time>
<name>1578</name>
</trkpt>
<trkpt lat="49.539402" lon="8.938380">
<ele>496.0</ele>
<speed>44.6</speed>
<course>154.0</course>
<desc>Speed 44.6 km/h Distance 42.33 km</desc>
<time>2010-07-30T18:15:25.77</time>
<name>1579</name>
</trkpt>
<trkpt lat="49.539315" lon="8.938445">
<ele>496.0</ele>
<speed>44.6</speed>
<course>148.4</course>
<desc>Speed 44.6 km/h Distance 42.34 km</desc>
<time>2010-07-30T18:15:26.62</time>
<name>1580</name>
</trkpt>
<trkpt lat="49.539220" lon="8.938535">
<ele>495.5</ele>
<speed>44.6</speed>
<course>142.3</course>
<desc>Speed 44.6 km/h Distance 42.36 km</desc>
<time>2010-07-30T18:15:27.62</time>
<name>1581</name>
</trkpt>
<trkpt lat="49.539080" lon="8.938702">
<ele>495.0</ele>
<speed>44.6</speed>
<course>119.9</course>
<desc>Speed 44.6 km/h Distance 42.38 km</desc>
<time>2010-07-30T18:15:29.62</time>
<name>1582</name>
</trkpt>
<trkpt lat="49.539018" lon="8.938867">
<ele>495.0</ele>
<speed>44.6</speed>
<course>138.6</course>
<desc>Speed 44.6 km/h Distance 42.39 km</desc>
<time>2010-07-30T18:15:30.62</time>
<name>1583</name>
</trkpt>
<trkpt lat="49.538833" lon="8.939118">
<ele>494.5</ele>
<speed>44.6</speed>
<course>144.9</course>
<desc>Speed 44.6 km/h Distance 42.42 km</desc>
<time>2010-07-30T18:15:32.62</time>
<name>1584</name>
</trkpt>
<trkpt lat="49.538435" lon="8.939550">
<ele>489.5</ele>
<speed>44.6</speed>
<course>146.1</course>
<desc>Speed 44.6 km/h Distance 42.47 km</desc>
<time>2010-07-30T18:15:35.62</time>
<name>1585</name>
</trkpt>
<trkpt lat="49.538257" lon="8.939735">
<ele>484.5</ele>
<speed>44.6</speed>
<course>152.4</course>
<desc>Speed 44.6 km/h Distance 42.49 km</desc>
<time>2010-07-30T18:15:37.61</time>
<name>1586</name>
</trkpt>
<trkpt lat="49.538085" lon="8.939873">
<ele>483.0</ele>
<speed>44.6</speed>
<course>208.5</course>
<desc>Speed 44.6 km/h Distance 42.52 km</desc>
<time>2010-07-30T18:15:39.61</time>
<name>1587</name>
</trkpt>
<trkpt lat="49.536095" lon="8.938207">
<ele>480.0</ele>
<speed>88.8</speed>
<course>241.1</course>
<desc>Speed 88.8 km/h Distance 42.77 km</desc>
<time>2010-07-30T18:15:46.69</time>
<name>1588</name>
</trkpt>
<trkpt lat="49.535608" lon="8.936850">
<ele>479.5</ele>
<speed>78.5</speed>
<course>236.4</course>
<desc>Speed 78.5 km/h Distance 42.88 km</desc>
<time>2010-07-30T18:15:50.60</time>
<name>1589</name>
</trkpt>
<trkpt lat="49.535503" lon="8.936607">
<ele>478.0</ele>
<speed>72.7</speed>
<course>231.4</course>
<desc>Speed 72.7 km/h Distance 42.90 km</desc>
<time>2010-07-30T18:15:51.60</time>
<name>1590</name>
</trkpt>
<trkpt lat="49.535385" lon="8.936378">
<ele>478.5</ele>
<speed>73.6</speed>
<course>222.4</course>
<desc>Speed 73.6 km/h Distance 42.92 km</desc>
<time>2010-07-30T18:15:52.60</time>
<name>1591</name>
</trkpt>
<trkpt lat="49.534875" lon="8.935660">
<ele>478.0</ele>
<speed>32.5</speed>
<course>128.5</course>
<desc>Speed 32.5 km/h Distance 43.00 km</desc>
<time>2010-07-30T18:15:58.59</time>
<name>1592</name>
</trkpt>
<trkpt lat="49.533463" lon="8.938392">
<ele>477.0</ele>
<speed>94.4</speed>
<course>125.2</course>
<desc>Speed 94.4 km/h Distance 43.25 km</desc>
<time>2010-07-30T18:16:09.75</time>
<name>1593</name>
</trkpt>
<trkpt lat="49.533042" lon="8.939313">
<ele>477.0</ele>
<speed>79.3</speed>
<course>131.3</course>
<desc>Speed 79.3 km/h Distance 43.33 km</desc>
<time>2010-07-30T18:16:12.58</time>
<name>1594</name>
</trkpt>
<trkpt lat="49.532907" lon="8.939550">
<ele>480.0</ele>
<speed>79.3</speed>
<course>151.4</course>
<desc>Speed 79.3 km/h Distance 43.36 km</desc>
<time>2010-07-30T18:16:13.57</time>
<name>1595</name>
</trkpt>
<trkpt lat="49.532375" lon="8.939997">
<ele>484.5</ele>
<speed>57.9</speed>
<course>223.5</course>
<desc>Speed 57.9 km/h Distance 43.42 km</desc>
<time>2010-07-30T18:16:17.57</time>
<name>1596</name>
</trkpt>
<trkpt lat="49.531382" lon="8.938547">
<ele>484.5</ele>
<speed>57.9</speed>
<course>208.8</course>
<desc>Speed 57.9 km/h Distance 43.58 km</desc>
<time>2010-07-30T18:16:25.56</time>
<name>1597</name>
</trkpt>
<trkpt lat="49.529660" lon="8.937090">
<ele>496.0</ele>
<speed>109</speed>
<course>195.1</course>
<desc>Speed 109 km/h Distance 43.79 km</desc>
<time>2010-07-30T18:16:30.65</time>
<name>1598</name>
</trkpt>
<trkpt lat="49.528960" lon="8.936800">
<ele>496.0</ele>
<speed>31.2</speed>
<course>139.1</course>
<desc>Speed 31.2 km/h Distance 43.87 km</desc>
<time>2010-07-30T18:16:36.56</time>
<name>1599</name>
</trkpt>
<trkpt lat="49.528905" lon="8.936873">
<ele>494.0</ele>
<speed>31.2</speed>
<course>133.1</course>
<desc>Speed 31.2 km/h Distance 43.88 km</desc>
<time>2010-07-30T18:16:37.55</time>
<name>1600</name>
</trkpt>
<trkpt lat="49.527820" lon="8.938658">
<ele>480.5</ele>
<speed>102</speed>
<course>133.4</course>
<desc>Speed 102 km/h Distance 44.06 km</desc>
<time>2010-07-30T18:16:43.59</time>
<name>1601</name>
</trkpt>
<trkpt lat="49.527508" lon="8.939167">
<ele>476.0</ele>
<speed>102</speed>
<course>157.1</course>
<desc>Speed 102 km/h Distance 44.11 km</desc>
<time>2010-07-30T18:16:45.65</time>
<name>1602</name>
</trkpt>
<trkpt lat="49.526353" lon="8.939917">
<ele>475.5</ele>
<speed>102</speed>
<course>194.5</course>
<desc>Speed 102 km/h Distance 44.25 km</desc>
<time>2010-07-30T18:16:51.54</time>
<name>1603</name>
</trkpt>
<trkpt lat="49.525783" lon="8.939690">
<ele>479.0</ele>
<speed>102</speed>
<course>207.2</course>
<desc>Speed 102 km/h Distance 44.32 km</desc>
<time>2010-07-30T18:16:57.53</time>
<name>1604</name>
</trkpt>
<trkpt lat="49.525098" lon="8.939148">
<ele>479.5</ele>
<speed>80.0</speed>
<course>214.3</course>
<desc>Speed 80.0 km/h Distance 44.40 km</desc>
<time>2010-07-30T18:17:01.53</time>
<name>1605</name>
</trkpt>
<trkpt lat="49.524933" lon="8.938975">
<ele>480.0</ele>
<speed>80.0</speed>
<course>216.1</course>
<desc>Speed 80.0 km/h Distance 44.42 km</desc>
<time>2010-07-30T18:17:02.52</time>
<name>1606</name>
</trkpt>
<trkpt lat="49.524785" lon="8.938808">
<ele>481.0</ele>
<speed>80.0</speed>
<course>215.4</course>
<desc>Speed 80.0 km/h Distance 44.44 km</desc>
<time>2010-07-30T18:17:03.53</time>
<name>1607</name>
</trkpt>
<trkpt lat="49.524500" lon="8.938497">
<ele>481.5</ele>
<speed>80.0</speed>
<course>201.0</course>
<desc>Speed 80.0 km/h Distance 44.48 km</desc>
<time>2010-07-30T18:17:05.53</time>
<name>1608</name>
</trkpt>
<trkpt lat="49.523960" lon="8.938177">
<ele>483.0</ele>
<speed>80.0</speed>
<course>186.5</course>
<desc>Speed 80.0 km/h Distance 44.55 km</desc>
<time>2010-07-30T18:17:08.52</time>
<name>1609</name>
</trkpt>
<trkpt lat="49.522962" lon="8.938002">
<ele>482.5</ele>
<speed>80.0</speed>
<course>172.6</course>
<desc>Speed 80.0 km/h Distance 44.66 km</desc>
<time>2010-07-30T18:17:14.51</time>
<name>1610</name>
</trkpt>
<trkpt lat="49.521265" lon="8.938342">
<ele>481.0</ele>
<speed>78.6</speed>
<course>181.7</course>
<desc>Speed 78.6 km/h Distance 44.85 km</desc>
<time>2010-07-30T18:17:19.53</time>
<name>1611</name>
</trkpt>
<trkpt lat="49.521088" lon="8.938333">
<ele>481.0</ele>
<speed>78.6</speed>
<course>193.2</course>
<desc>Speed 78.6 km/h Distance 44.87 km</desc>
<time>2010-07-30T18:17:20.50</time>
<name>1612</name>
</trkpt>
<trkpt lat="49.520595" lon="8.938155">
<ele>488.5</ele>
<speed>78.6</speed>
<course>231.8</course>
<desc>Speed 78.6 km/h Distance 44.93 km</desc>
<time>2010-07-30T18:17:26.10</time>
<name>1613</name>
</trkpt>
<trkpt lat="49.520168" lon="8.937320">
<ele>488.5</ele>
<speed>78.6</speed>
<course>246.5</course>
<desc>Speed 78.6 km/h Distance 45.00 km</desc>
<time>2010-07-30T18:17:30.50</time>
<name>1614</name>
</trkpt>
<trkpt lat="49.520020" lon="8.936793">
<ele>486.5</ele>
<speed>78.6</speed>
<course>256.6</course>
<desc>Speed 78.6 km/h Distance 45.04 km</desc>
<time>2010-07-30T18:17:32.50</time>
<name>1615</name>
</trkpt>
<trkpt lat="49.519617" lon="8.934180">
<ele>486.5</ele>
<speed>78.6</speed>
<course>236.3</course>
<desc>Speed 78.6 km/h Distance 45.24 km</desc>
<time>2010-07-30T18:17:35.50</time>
<name>1616</name>
</trkpt>
<trkpt lat="49.518875" lon="8.932467">
<ele>487.0</ele>
<speed>78.6</speed>
<course>266.1</course>
<desc>Speed 78.6 km/h Distance 45.39 km</desc>
<time>2010-07-30T18:17:40.54</time>
<name>1617</name>
</trkpt>
<trkpt lat="49.518750" lon="8.929635">
<ele>499.5</ele>
<speed>98.5</speed>
<course>290.3</course>
<desc>Speed 98.5 km/h Distance 45.59 km</desc>
<time>2010-07-30T18:17:46.49</time>
<name>1618</name>
</trkpt>
<trkpt lat="49.519150" lon="8.927967">
<ele>502.0</ele>
<speed>66.4</speed>
<course>260.6</course>
<desc>Speed 66.4 km/h Distance 45.72 km</desc>
<time>2010-07-30T18:17:51.48</time>
<name>1619</name>
</trkpt>
<trkpt lat="49.519122" lon="8.927702">
<ele>502.0</ele>
<speed>65.4</speed>
<course>238.7</course>
<desc>Speed 65.4 km/h Distance 45.74 km</desc>
<time>2010-07-30T18:17:52.47</time>
<name>1620</name>
</trkpt>
<trkpt lat="49.518802" lon="8.926890">
<ele>499.5</ele>
<speed>82.8</speed>
<course>228.1</course>
<desc>Speed 82.8 km/h Distance 45.81 km</desc>
<time>2010-07-30T18:17:55.47</time>
<name>1621</name>
</trkpt>
<trkpt lat="49.518427" lon="8.926247">
<ele>495.5</ele>
<speed>82.8</speed>
<course>228.1</course>
<desc>Speed 82.8 km/h Distance 45.87 km</desc>
<time>2010-07-30T18:17:59.51</time>
<name>1622</name>
</trkpt>
<trkpt lat="49.518158" lon="8.925787">
<ele>490.0</ele>
<speed>82.8</speed>
<course>240.5</course>
<desc>Speed 82.8 km/h Distance 45.92 km</desc>
<time>2010-07-30T18:18:01.46</time>
<name>1623</name>
</trkpt>
<trkpt lat="49.517983" lon="8.925310">
<ele>485.5</ele>
<speed>82.8</speed>
<course>253.2</course>
<desc>Speed 82.8 km/h Distance 45.95 km</desc>
<time>2010-07-30T18:18:03.46</time>
<name>1624</name>
</trkpt>
<trkpt lat="49.517883" lon="8.924800">
<ele>478.5</ele>
<speed>82.8</speed>
<course>248.8</course>
<desc>Speed 82.8 km/h Distance 45.99 km</desc>
<time>2010-07-30T18:18:05.45</time>
<name>1625</name>
</trkpt>
<trkpt lat="49.517807" lon="8.924495">
<ele>474.5</ele>
<speed>82.8</speed>
<course>247.5</course>
<desc>Speed 82.8 km/h Distance 46.02 km</desc>
<time>2010-07-30T18:18:06.45</time>
<name>1626</name>
</trkpt>
<trkpt lat="49.517722" lon="8.924178">
<ele>471.0</ele>
<speed>82.8</speed>
<course>257.0</course>
<desc>Speed 82.8 km/h Distance 46.04 km</desc>
<time>2010-07-30T18:18:07.45</time>
<name>1627</name>
</trkpt>
<trkpt lat="49.517637" lon="8.923610">
<ele>467.5</ele>
<speed>82.8</speed>
<course>245.4</course>
<desc>Speed 82.8 km/h Distance 46.08 km</desc>
<time>2010-07-30T18:18:09.45</time>
<name>1628</name>
</trkpt>
<trkpt lat="49.517210" lon="8.922172">
<ele>465.5</ele>
<speed>82.8</speed>
<course>191.5</course>
<desc>Speed 82.8 km/h Distance 46.20 km</desc>
<time>2010-07-30T18:18:14.45</time>
<name>1629</name>
</trkpt>
<trkpt lat="49.515197" lon="8.921538">
<ele>466.5</ele>
<speed>82.8</speed>
<course>226.1</course>
<desc>Speed 82.8 km/h Distance 46.43 km</desc>
<time>2010-07-30T18:18:20.44</time>
<name>1630</name>
</trkpt>
<trkpt lat="49.514928" lon="8.921108">
<ele>467.0</ele>
<speed>82.8</speed>
<course>189.9</course>
<desc>Speed 82.8 km/h Distance 46.47 km</desc>
<time>2010-07-30T18:18:22.44</time>
<name>1631</name>
</trkpt>
<trkpt lat="49.514512" lon="8.920997">
<ele>469.0</ele>
<speed>82.8</speed>
<course>207.8</course>
<desc>Speed 82.8 km/h Distance 46.52 km</desc>
<time>2010-07-30T18:18:24.44</time>
<name>1632</name>
</trkpt>
<trkpt lat="49.514157" lon="8.920708">
<ele>469.5</ele>
<speed>72.1</speed>
<course>234.3</course>
<desc>Speed 72.1 km/h Distance 46.56 km</desc>
<time>2010-07-30T18:18:26.49</time>
<name>1633</name>
</trkpt>
<trkpt lat="49.513915" lon="8.920190">
<ele>472.5</ele>
<speed>72.1</speed>
<course>225.7</course>
<desc>Speed 72.1 km/h Distance 46.61 km</desc>
<time>2010-07-30T18:18:28.43</time>
<name>1634</name>
</trkpt>
<trkpt lat="49.513695" lon="8.919843">
<ele>471.5</ele>
<speed>72.1</speed>
<course>173.7</course>
<desc>Speed 72.1 km/h Distance 46.64 km</desc>
<time>2010-07-30T18:18:30.43</time>
<name>1635</name>
</trkpt>
<trkpt lat="49.511587" lon="8.920203">
<ele>465.5</ele>
<speed>72.1</speed>
<course>162.1</course>
<desc>Speed 72.1 km/h Distance 46.88 km</desc>
<time>2010-07-30T18:18:37.43</time>
<name>1636</name>
</trkpt>
<trkpt lat="49.511133" lon="8.920428">
<ele>460.0</ele>
<speed>72.1</speed>
<course>137.7</course>
<desc>Speed 72.1 km/h Distance 46.93 km</desc>
<time>2010-07-30T18:18:41.42</time>
<name>1637</name>
</trkpt>
<trkpt lat="49.510230" lon="8.921693">
<ele>458.5</ele>
<speed>98.1</speed>
<course>143.9</course>
<desc>Speed 98.1 km/h Distance 47.07 km</desc>
<time>2010-07-30T18:18:46.42</time>
<name>1638</name>
</trkpt>
<trkpt lat="49.509722" lon="8.922263">
<ele>460.0</ele>
<speed>98.1</speed>
<course>231.6</course>
<desc>Speed 98.1 km/h Distance 47.14 km</desc>
<time>2010-07-30T18:18:52.46</time>
<name>1639</name>
</trkpt>
<trkpt lat="49.509425" lon="8.921687">
<ele>460.0</ele>
<speed>97.0</speed>
<course>235.3</course>
<desc>Speed 97.0 km/h Distance 47.19 km</desc>
<time>2010-07-30T18:18:54.52</time>
<name>1640</name>
</trkpt>
<trkpt lat="49.508353" lon="8.919307">
<ele>460.5</ele>
<speed>100</speed>
<course>240.7</course>
<desc>Speed 100 km/h Distance 47.40 km</desc>
<time>2010-07-30T18:19:00.40</time>
<name>1641</name>
</trkpt>
<trkpt lat="49.508123" lon="8.918677">
<ele>460.5</ele>
<speed>86.3</speed>
<course>224.3</course>
<desc>Speed 86.3 km/h Distance 47.45 km</desc>
<time>2010-07-30T18:19:02.40</time>
<name>1642</name>
</trkpt>
<trkpt lat="49.507692" lon="8.918028">
<ele>461.5</ele>
<speed>68.7</speed>
<course>202.5</course>
<desc>Speed 68.7 km/h Distance 47.52 km</desc>
<time>2010-07-30T18:19:05.40</time>
<name>1643</name>
</trkpt>
<trkpt lat="49.507242" lon="8.917742">
<ele>462.0</ele>
<speed>71.9</speed>
<course>167.2</course>
<desc>Speed 71.9 km/h Distance 47.57 km</desc>
<time>2010-07-30T18:19:08.39</time>
<name>1644</name>
</trkpt>
<trkpt lat="49.505862" lon="8.918223">
<ele>459.0</ele>
<speed>90.3</speed>
<course>151.1</course>
<desc>Speed 90.3 km/h Distance 47.73 km</desc>
<time>2010-07-30T18:19:13.40</time>
<name>1645</name>
</trkpt>
<trkpt lat="49.504858" lon="8.919075">
<ele>456.5</ele>
<speed>110</speed>
<course>149.5</course>
<desc>Speed 110 km/h Distance 47.86 km</desc>
<time>2010-07-30T18:19:17.39</time>
<name>1646</name>
</trkpt>
<trkpt lat="49.504268" lon="8.919610">
<ele>456.0</ele>
<speed>91.4</speed>
<course>197.1</course>
<desc>Speed 91.4 km/h Distance 47.94 km</desc>
<time>2010-07-30T18:19:20.38</time>
<name>1647</name>
</trkpt>
<trkpt lat="49.502915" lon="8.918968">
<ele>455.5</ele>
<speed>170</speed>
<course>185.7</course>
<desc>Speed 170 km/h Distance 48.09 km</desc>
<time>2010-07-30T18:19:26.38</time>
<name>1648</name>
</trkpt>
<trkpt lat="49.501605" lon="8.918767">
<ele>456.5</ele>
<speed>76.4</speed>
<course>179.5</course>
<desc>Speed 76.4 km/h Distance 48.24 km</desc>
<time>2010-07-30T18:19:32.38</time>
<name>1649</name>
</trkpt>
<trkpt lat="49.501252" lon="8.918772">
<ele>456.5</ele>
<speed>67.6</speed>
<course>179.2</course>
<desc>Speed 67.6 km/h Distance 48.28 km</desc>
<time>2010-07-30T18:19:34.37</time>
<name>1650</name>
</trkpt>
<trkpt lat="49.500952" lon="8.918778">
<ele>457.5</ele>
<speed>61.8</speed>
<course>182.0</course>
<desc>Speed 61.8 km/h Distance 48.31 km</desc>
<time>2010-07-30T18:19:36.37</time>
<name>1651</name>
</trkpt>
<trkpt lat="49.500673" lon="8.918763">
<ele>458.5</ele>
<speed>55.1</speed>
<course>177.9</course>
<desc>Speed 55.1 km/h Distance 48.34 km</desc>
<time>2010-07-30T18:19:38.36</time>
<name>1652</name>
</trkpt>
<trkpt lat="49.500432" lon="8.918777">
<ele>458.0</ele>
<speed>48.7</speed>
<course>183.3</course>
<desc>Speed 48.7 km/h Distance 48.37 km</desc>
<time>2010-07-30T18:19:40.37</time>
<name>1653</name>
</trkpt>
<trkpt lat="49.500208" lon="8.918757">
<ele>459.5</ele>
<speed>45.6</speed>
<course>185.2</course>
<desc>Speed 45.6 km/h Distance 48.40 km</desc>
<time>2010-07-30T18:19:42.36</time>
<name>1654</name>
</trkpt>
<trkpt lat="49.500005" lon="8.918728">
<ele>459.5</ele>
<speed>41.8</speed>
<course>190.6</course>
<desc>Speed 41.8 km/h Distance 48.42 km</desc>
<time>2010-07-30T18:19:44.36</time>
<name>1655</name>
</trkpt>
<trkpt lat="49.499797" lon="8.918668">
<ele>460.0</ele>
<speed>44.1</speed>
<course>198.5</course>
<desc>Speed 44.1 km/h Distance 48.44 km</desc>
<time>2010-07-30T18:19:46.36</time>
<name>1656</name>
</trkpt>
<trkpt lat="49.499622" lon="8.918578">
<ele>461.0</ele>
<speed>33.3</speed>
<course>201.5</course>
<desc>Speed 33.3 km/h Distance 48.46 km</desc>
<time>2010-07-30T18:19:48.36</time>
<name>1657</name>
</trkpt>
<trkpt lat="49.499512" lon="8.918512">
<ele>461.0</ele>
<speed>24.7</speed>
<course>205.4</course>
<desc>Speed 24.7 km/h Distance 48.48 km</desc>
<time>2010-07-30T18:19:50.36</time>
<name>1658</name>
</trkpt>
<trkpt lat="49.499443" lon="8.918462">
<ele>461.0</ele>
<speed>15.5</speed>
<course>217.3</course>
<desc>Speed 15.5 km/h Distance 48.48 km</desc>
<time>2010-07-30T18:19:52.36</time>
<name>1659</name>
</trkpt>
<trkpt lat="49.499385" lon="8.918393">
<ele>461.0</ele>
<speed>17.6</speed>
<course>205.1</course>
<desc>Speed 17.6 km/h Distance 48.49 km</desc>
<time>2010-07-30T18:19:54.35</time>
<name>1660</name>
</trkpt>
<trkpt lat="49.499295" lon="8.918328">
<ele>461.0</ele>
<speed>25.1</speed>
<course>190.1</course>
<desc>Speed 25.1 km/h Distance 48.50 km</desc>
<time>2010-07-30T18:19:56.36</time>
<name>1661</name>
</trkpt>
<trkpt lat="49.499155" lon="8.918290">
<ele>460.5</ele>
<speed>30.2</speed>
<course>153.7</course>
<desc>Speed 30.2 km/h Distance 48.52 km</desc>
<time>2010-07-30T18:19:58.36</time>
<name>1662</name>
</trkpt>
<trkpt lat="49.499023" lon="8.918390">
<ele>460.5</ele>
<speed>31.6</speed>
<course>126.4</course>
<desc>Speed 31.6 km/h Distance 48.54 km</desc>
<time>2010-07-30T18:20:00.35</time>
<name>1663</name>
</trkpt>
<trkpt lat="49.498932" lon="8.918582">
<ele>461.5</ele>
<speed>32.6</speed>
<course>133.6</course>
<desc>Speed 32.6 km/h Distance 48.55 km</desc>
<time>2010-07-30T18:20:02.35</time>
<name>1664</name>
</trkpt>
<trkpt lat="49.498818" lon="8.918765">
<ele>461.5</ele>
<speed>33.7</speed>
<course>120.5</course>
<desc>Speed 33.7 km/h Distance 48.57 km</desc>
<time>2010-07-30T18:20:04.34</time>
<name>1665</name>
</trkpt>
<trkpt lat="49.498727" lon="8.919005">
<ele>462.0</ele>
<speed>36.3</speed>
<course>133.7</course>
<desc>Speed 36.3 km/h Distance 48.59 km</desc>
<time>2010-07-30T18:20:06.38</time>
<name>1666</name>
</trkpt>
<trkpt lat="49.498598" lon="8.919212">
<ele>462.0</ele>
<speed>39.0</speed>
<course>146.7</course>
<desc>Speed 39.0 km/h Distance 48.61 km</desc>
<time>2010-07-30T18:20:08.45</time>
<name>1667</name>
</trkpt>
<trkpt lat="49.498435" lon="8.919377">
<ele>462.0</ele>
<speed>42.8</speed>
<course>152.2</course>
<desc>Speed 42.8 km/h Distance 48.63 km</desc>
<time>2010-07-30T18:20:10.52</time>
<name>1668</name>
</trkpt>
<trkpt lat="49.498293" lon="8.919492">
<ele>462.5</ele>
<speed>42.8</speed>
<course>167.9</course>
<desc>Speed 42.8 km/h Distance 48.65 km</desc>
<time>2010-07-30T18:20:12.34</time>
<name>1669</name>
</trkpt>
<trkpt lat="49.498057" lon="8.919570">
<ele>462.5</ele>
<speed>48.5</speed>
<course>171.7</course>
<desc>Speed 48.5 km/h Distance 48.68 km</desc>
<time>2010-07-30T18:20:14.33</time>
<name>1670</name>
</trkpt>
<trkpt lat="49.497803" lon="8.919627">
<ele>462.5</ele>
<speed>51.2</speed>
<course>167.5</course>
<desc>Speed 51.2 km/h Distance 48.71 km</desc>
<time>2010-07-30T18:20:16.33</time>
<name>1671</name>
</trkpt>
<trkpt lat="49.497540" lon="8.919717">
<ele>462.5</ele>
<speed>53.4</speed>
<course>166.3</course>
<desc>Speed 53.4 km/h Distance 48.74 km</desc>
<time>2010-07-30T18:20:18.33</time>
<name>1672</name>
</trkpt>
<trkpt lat="49.497273" lon="8.919817">
<ele>463.0</ele>
<speed>53.6</speed>
<course>173.5</course>
<desc>Speed 53.6 km/h Distance 48.77 km</desc>
<time>2010-07-30T18:20:20.32</time>
<name>1673</name>
</trkpt>
<trkpt lat="49.496997" lon="8.919865">
<ele>463.5</ele>
<speed>53.5</speed>
<course>187.8</course>
<desc>Speed 53.5 km/h Distance 48.80 km</desc>
<time>2010-07-30T18:20:22.32</time>
<name>1674</name>
</trkpt>
<trkpt lat="49.496743" lon="8.919812">
<ele>464.5</ele>
<speed>48.4</speed>
<course>203.6</course>
<desc>Speed 48.4 km/h Distance 48.83 km</desc>
<time>2010-07-30T18:20:24.33</time>
<name>1675</name>
</trkpt>
<trkpt lat="49.496500" lon="8.919648">
<ele>464.5</ele>
<speed>52.4</speed>
<course>210.1</course>
<desc>Speed 52.4 km/h Distance 48.86 km</desc>
<time>2010-07-30T18:20:26.32</time>
<name>1676</name>
</trkpt>
<trkpt lat="49.496252" lon="8.919427">
<ele>464.0</ele>
<speed>61.3</speed>
<course>211.8</course>
<desc>Speed 61.3 km/h Distance 48.89 km</desc>
<time>2010-07-30T18:20:28.31</time>
<name>1677</name>
</trkpt>
<trkpt lat="49.495993" lon="8.919180">
<ele>464.5</ele>
<speed>63.1</speed>
<course>222.6</course>
<desc>Speed 63.1 km/h Distance 48.92 km</desc>
<time>2010-07-30T18:20:30.32</time>
<name>1678</name>
</trkpt>
<trkpt lat="49.495740" lon="8.918822">
<ele>464.0</ele>
<speed>77.2</speed>
<course>229.7</course>
<desc>Speed 77.2 km/h Distance 48.96 km</desc>
<time>2010-07-30T18:20:32.32</time>
<name>1679</name>
</trkpt>
<trkpt lat="49.495473" lon="8.918338">
<ele>464.5</ele>
<speed>81.5</speed>
<course>240.5</course>
<desc>Speed 81.5 km/h Distance 49.01 km</desc>
<time>2010-07-30T18:20:34.32</time>
<name>1680</name>
</trkpt>
<trkpt lat="49.495133" lon="8.917412">
<ele>462.0</ele>
<speed>96.8</speed>
<course>238.2</course>
<desc>Speed 96.8 km/h Distance 49.08 km</desc>
<time>2010-07-30T18:20:37.31</time>
<name>1681</name>
</trkpt>
<trkpt lat="49.494857" lon="8.916723">
<ele>460.5</ele>
<speed>110</speed>
<course>234.7</course>
<desc>Speed 110 km/h Distance 49.14 km</desc>
<time>2010-07-30T18:20:39.32</time>
<name>1682</name>
</trkpt>
<trkpt lat="49.494535" lon="8.916023">
<ele>458.0</ele>
<speed>114</speed>
<course>232.8</course>
<desc>Speed 114 km/h Distance 49.20 km</desc>
<time>2010-07-30T18:20:41.32</time>
<name>1683</name>
</trkpt>
<trkpt lat="49.494212" lon="8.915367">
<ele>456.0</ele>
<speed>104</speed>
<course>241.8</course>
<desc>Speed 104 km/h Distance 49.26 km</desc>
<time>2010-07-30T18:20:43.31</time>
<name>1684</name>
</trkpt>
<trkpt lat="49.493975" lon="8.914687">
<ele>456.0</ele>
<speed>101</speed>
<course>239.7</course>
<desc>Speed 101 km/h Distance 49.32 km</desc>
<time>2010-07-30T18:20:45.31</time>
<name>1685</name>
</trkpt>
<trkpt lat="49.493590" lon="8.913673">
<ele>453.5</ele>
<speed>77.6</speed>
<course>214.0</course>
<desc>Speed 77.6 km/h Distance 49.40 km</desc>
<time>2010-07-30T18:20:49.30</time>
<name>1686</name>
</trkpt>
<trkpt lat="49.493323" lon="8.913397">
<ele>452.0</ele>
<speed>76.0</speed>
<course>189.3</course>
<desc>Speed 76.0 km/h Distance 49.44 km</desc>
<time>2010-07-30T18:20:51.31</time>
<name>1687</name>
</trkpt>
<trkpt lat="49.492705" lon="8.913240">
<ele>450.5</ele>
<speed>94.7</speed>
<course>181.9</course>
<desc>Speed 94.7 km/h Distance 49.51 km</desc>
<time>2010-07-30T18:20:54.34</time>
<name>1688</name>
</trkpt>
<trkpt lat="49.492213" lon="8.913215">
<ele>448.0</ele>
<speed>89.7</speed>
<course>179.0</course>
<desc>Speed 89.7 km/h Distance 49.56 km</desc>
<time>2010-07-30T18:20:56.40</time>
<name>1689</name>
</trkpt>
<trkpt lat="49.491785" lon="8.913227">
<ele>447.5</ele>
<speed>80.0</speed>
<course>169.6</course>
<desc>Speed 80.0 km/h Distance 49.61 km</desc>
<time>2010-07-30T18:20:58.47</time>
<name>1690</name>
</trkpt>
<trkpt lat="49.491402" lon="8.913335">
<ele>447.5</ele>
<speed>80.0</speed>
<course>152.6</course>
<desc>Speed 80.0 km/h Distance 49.66 km</desc>
<time>2010-07-30T18:21:00.29</time>
<name>1691</name>
</trkpt>
<trkpt lat="49.491023" lon="8.913637">
<ele>446.0</ele>
<speed>82.5</speed>
<course>136.0</course>
<desc>Speed 82.5 km/h Distance 49.70 km</desc>
<time>2010-07-30T18:21:02.29</time>
<name>1692</name>
</trkpt>
<trkpt lat="49.490708" lon="8.914105">
<ele>445.5</ele>
<speed>91.9</speed>
<course>127.4</course>
<desc>Speed 91.9 km/h Distance 49.75 km</desc>
<time>2010-07-30T18:21:04.29</time>
<name>1693</name>
</trkpt>
<trkpt lat="49.490413" lon="8.914698">
<ele>443.0</ele>
<speed>94.8</speed>
<course>124.5</course>
<desc>Speed 94.8 km/h Distance 49.81 km</desc>
<time>2010-07-30T18:21:06.28</time>
<name>1694</name>
</trkpt>
<trkpt lat="49.490160" lon="8.915265">
<ele>441.5</ele>
<speed>85.9</speed>
<course>108.3</course>
<desc>Speed 85.9 km/h Distance 49.86 km</desc>
<time>2010-07-30T18:21:08.28</time>
<name>1695</name>
</trkpt>
<trkpt lat="49.490028" lon="8.915878">
<ele>441.5</ele>
<speed>85.8</speed>
<course>90.0</course>
<desc>Speed 85.8 km/h Distance 49.90 km</desc>
<time>2010-07-30T18:21:10.28</time>
<name>1696</name>
</trkpt>
<trkpt lat="49.490028" lon="8.916458">
<ele>441.0</ele>
<speed>73.5</speed>
<course>73.8</course>
<desc>Speed 73.5 km/h Distance 49.94 km</desc>
<time>2010-07-30T18:21:12.27</time>
<name>1697</name>
</trkpt>
<trkpt lat="49.490145" lon="8.917075">
<ele>440.5</ele>
<speed>86.7</speed>
<course>67.6</course>
<desc>Speed 86.7 km/h Distance 49.99 km</desc>
<time>2010-07-30T18:21:14.27</time>
<name>1698</name>
</trkpt>
<trkpt lat="49.490675" lon="8.919057">
<ele>440.5</ele>
<speed>109</speed>
<course>70.7</course>
<desc>Speed 109 km/h Distance 50.15 km</desc>
<time>2010-07-30T18:21:19.40</time>
<name>1699</name>
</trkpt>
<trkpt lat="49.490822" lon="8.919700">
<ele>440.5</ele>
<speed>109</speed>
<course>71.0</course>
<desc>Speed 109 km/h Distance 50.19 km</desc>
<time>2010-07-30T18:21:21.26</time>
<name>1700</name>
</trkpt>
<trkpt lat="49.491073" lon="8.920828">
<ele>440.5</ele>
<speed>109</speed>
<course>115.8</course>
<desc>Speed 109 km/h Distance 50.28 km</desc>
<time>2010-07-30T18:21:26.27</time>
<name>1701</name>
</trkpt>
<trkpt lat="49.490815" lon="8.921652">
<ele>439.5</ele>
<speed>59.8</speed>
<course>142.0</course>
<desc>Speed 59.8 km/h Distance 50.35 km</desc>
<time>2010-07-30T18:21:32.26</time>
<name>1702</name>
</trkpt>
<trkpt lat="49.490560" lon="8.921958">
<ele>439.5</ele>
<speed>59.8</speed>
<course>179.0</course>
<desc>Speed 59.8 km/h Distance 50.38 km</desc>
<time>2010-07-30T18:21:34.31</time>
<name>1703</name>
</trkpt>
<trkpt lat="49.490262" lon="8.921967">
<ele>439.0</ele>
<speed>59.8</speed>
<course>222.2</course>
<desc>Speed 59.8 km/h Distance 50.42 km</desc>
<time>2010-07-30T18:21:37.24</time>
<name>1704</name>
</trkpt>
<trkpt lat="49.490005" lon="8.921608">
<ele>438.5</ele>
<speed>59.8</speed>
<course>196.0</course>
<desc>Speed 59.8 km/h Distance 50.45 km</desc>
<time>2010-07-30T18:21:40.24</time>
<name>1705</name>
</trkpt>
<trkpt lat="49.489250" lon="8.921275">
<ele>438.0</ele>
<speed>63.9</speed>
<course>195.7</course>
<desc>Speed 63.9 km/h Distance 50.54 km</desc>
<time>2010-07-30T18:21:45.24</time>
<name>1706</name>
</trkpt>
<trkpt lat="49.488812" lon="8.921085">
<ele>438.0</ele>
<speed>63.9</speed>
<course>181.2</course>
<desc>Speed 63.9 km/h Distance 50.59 km</desc>
<time>2010-07-30T18:21:48.28</time>
<name>1707</name>
</trkpt>
<trkpt lat="49.488438" lon="8.921073">
<ele>437.5</ele>
<speed>63.9</speed>
<course>169.0</course>
<desc>Speed 63.9 km/h Distance 50.63 km</desc>
<time>2010-07-30T18:21:50.23</time>
<name>1708</name>
</trkpt>
<trkpt lat="49.488087" lon="8.921178">
<ele>437.0</ele>
<speed>63.9</speed>
<course>156.4</course>
<desc>Speed 63.9 km/h Distance 50.67 km</desc>
<time>2010-07-30T18:21:54.23</time>
<name>1709</name>
</trkpt>
<trkpt lat="49.487730" lon="8.921418">
<ele>437.5</ele>
<speed>63.9</speed>
<course>146.3</course>
<desc>Speed 63.9 km/h Distance 50.72 km</desc>
<time>2010-07-30T18:21:57.24</time>
<name>1710</name>
</trkpt>
<trkpt lat="49.487495" lon="8.921660">
<ele>437.5</ele>
<speed>63.9</speed>
<course>207.3</course>
<desc>Speed 63.9 km/h Distance 50.75 km</desc>
<time>2010-07-30T18:21:59.32</time>
<name>1711</name>
</trkpt>
<trkpt lat="49.487172" lon="8.921403">
<ele>437.5</ele>
<speed>73.3</speed>
<course>214.3</course>
<desc>Speed 73.3 km/h Distance 50.79 km</desc>
<time>2010-07-30T18:22:03.22</time>
<name>1712</name>
</trkpt>
<trkpt lat="49.486868" lon="8.921085">
<ele>437.5</ele>
<speed>73.3</speed>
<course>202.9</course>
<desc>Speed 73.3 km/h Distance 50.83 km</desc>
<time>2010-07-30T18:22:05.22</time>
<name>1713</name>
</trkpt>
<trkpt lat="49.486517" lon="8.920857">
<ele>437.5</ele>
<speed>73.3</speed>
<course>225.9</course>
<desc>Speed 73.3 km/h Distance 50.87 km</desc>
<time>2010-07-30T18:22:07.21</time>
<name>1714</name>
</trkpt>
<trkpt lat="49.485310" lon="8.918942">
<ele>437.5</ele>
<speed>100</speed>
<course>244.9</course>
<desc>Speed 100 km/h Distance 51.07 km</desc>
<time>2010-07-30T18:22:13.21</time>
<name>1715</name>
</trkpt>
<trkpt lat="49.484975" lon="8.917843">
<ele>436.5</ele>
<speed>84.6</speed>
<course>243.3</course>
<desc>Speed 84.6 km/h Distance 51.15 km</desc>
<time>2010-07-30T18:22:16.21</time>
<name>1716</name>
</trkpt>
<trkpt lat="49.484750" lon="8.917155">
<ele>437.0</ele>
<speed>84.6</speed>
<course>217.4</course>
<desc>Speed 84.6 km/h Distance 51.21 km</desc>
<time>2010-07-30T18:22:19.21</time>
<name>1717</name>
</trkpt>
<trkpt lat="49.484395" lon="8.916737">
<ele>438.0</ele>
<speed>83.1</speed>
<course>197.1</course>
<desc>Speed 83.1 km/h Distance 51.26 km</desc>
<time>2010-07-30T18:22:21.21</time>
<name>1718</name>
</trkpt>
<trkpt lat="49.484195" lon="8.916642">
<ele>438.0</ele>
<speed>80.0</speed>
<course>204.8</course>
<desc>Speed 80.0 km/h Distance 51.28 km</desc>
<time>2010-07-30T18:22:22.29</time>
<name>1719</name>
</trkpt>
<trkpt lat="49.483773" lon="8.916342">
<ele>437.5</ele>
<speed>88.3</speed>
<course>189.4</course>
<desc>Speed 88.3 km/h Distance 51.33 km</desc>
<time>2010-07-30T18:22:24.37</time>
<name>1720</name>
</trkpt>
<trkpt lat="49.483057" lon="8.916160">
<ele>434.0</ele>
<speed>54.0</speed>
<course>134.3</course>
<desc>Speed 54.0 km/h Distance 51.41 km</desc>
<time>2010-07-30T18:22:29.19</time>
<name>1721</name>
</trkpt>
<trkpt lat="49.482962" lon="8.916310">
<ele>433.5</ele>
<speed>56.2</speed>
<course>133.4</course>
<desc>Speed 56.2 km/h Distance 51.43 km</desc>
<time>2010-07-30T18:22:30.19</time>
<name>1722</name>
</trkpt>
<trkpt lat="49.482313" lon="8.917365">
<ele>430.5</ele>
<speed>88.3</speed>
<course>129.7</course>
<desc>Speed 88.3 km/h Distance 51.54 km</desc>
<time>2010-07-30T18:22:35.18</time>
<name>1723</name>
</trkpt>
<trkpt lat="49.482057" lon="8.917842">
<ele>428.5</ele>
<speed>79.6</speed>
<course>124.0</course>
<desc>Speed 79.6 km/h Distance 51.58 km</desc>
<time>2010-07-30T18:22:37.18</time>
<name>1724</name>
</trkpt>
<trkpt lat="49.481655" lon="8.918757">
<ele>427.0</ele>
<speed>81.4</speed>
<course>127.4</course>
<desc>Speed 81.4 km/h Distance 51.66 km</desc>
<time>2010-07-30T18:22:40.18</time>
<name>1725</name>
</trkpt>
<trkpt lat="49.481407" lon="8.919257">
<ele>426.5</ele>
<speed>72.1</speed>
<course>126.6</course>
<desc>Speed 72.1 km/h Distance 51.71 km</desc>
<time>2010-07-30T18:22:42.17</time>
<name>1726</name>
</trkpt>
<trkpt lat="49.481293" lon="8.919492">
<ele>426.5</ele>
<speed>66.7</speed>
<course>124.0</course>
<desc>Speed 66.7 km/h Distance 51.73 km</desc>
<time>2010-07-30T18:22:43.17</time>
<name>1727</name>
</trkpt>
<trkpt lat="49.481193" lon="8.919720">
<ele>426.0</ele>
<speed>66.1</speed>
<course>126.0</course>
<desc>Speed 66.1 km/h Distance 51.75 km</desc>
<time>2010-07-30T18:22:44.17</time>
<name>1728</name>
</trkpt>
<trkpt lat="49.481023" lon="8.920080">
<ele>425.5</ele>
<speed>54.8</speed>
<course>130.2</course>
<desc>Speed 54.8 km/h Distance 51.78 km</desc>
<time>2010-07-30T18:22:46.17</time>
<name>1729</name>
</trkpt>
<trkpt lat="49.480932" lon="8.920247">
<ele>425.5</ele>
<speed>54.7</speed>
<course>135.3</course>
<desc>Speed 54.7 km/h Distance 51.79 km</desc>
<time>2010-07-30T18:22:47.23</time>
<name>1730</name>
</trkpt>
<trkpt lat="49.480722" lon="8.920567">
<ele>425.5</ele>
<speed>55.8</speed>
<course>140.2</course>
<desc>Speed 55.8 km/h Distance 51.83 km</desc>
<time>2010-07-30T18:22:49.30</time>
<name>1731</name>
</trkpt>
<trkpt lat="49.480503" lon="8.920847">
<ele>425.0</ele>
<speed>59.5</speed>
<course>150.0</course>
<desc>Speed 59.5 km/h Distance 51.86 km</desc>
<time>2010-07-30T18:22:51.16</time>
<name>1732</name>
</trkpt>
<trkpt lat="49.480383" lon="8.920953">
<ele>424.5</ele>
<speed>57.5</speed>
<course>148.0</course>
<desc>Speed 57.5 km/h Distance 51.87 km</desc>
<time>2010-07-30T18:22:52.16</time>
<name>1733</name>
</trkpt>
<trkpt lat="49.480248" lon="8.921083">
<ele>424.5</ele>
<speed>60.8</speed>
<course>149.1</course>
<desc>Speed 60.8 km/h Distance 51.89 km</desc>
<time>2010-07-30T18:22:53.16</time>
<name>1734</name>
</trkpt>
<trkpt lat="49.480120" lon="8.921202">
<ele>423.5</ele>
<speed>55.8</speed>
<course>143.3</course>
<desc>Speed 55.8 km/h Distance 51.91 km</desc>
<time>2010-07-30T18:22:54.16</time>
<name>1735</name>
</trkpt>
<trkpt lat="49.480017" lon="8.921320">
<ele>423.5</ele>
<speed>50.6</speed>
<course>153.2</course>
<desc>Speed 50.6 km/h Distance 51.92 km</desc>
<time>2010-07-30T18:22:55.16</time>
<name>1736</name>
</trkpt>
<trkpt lat="49.479912" lon="8.921402">
<ele>423.0</ele>
<speed>45.2</speed>
<course>158.9</course>
<desc>Speed 45.2 km/h Distance 51.94 km</desc>
<time>2010-07-30T18:22:56.15</time>
<name>1737</name>
</trkpt>
<trkpt lat="49.479813" lon="8.921460">
<ele>423.0</ele>
<speed>42.4</speed>
<course>166.0</course>
<desc>Speed 42.4 km/h Distance 51.95 km</desc>
<time>2010-07-30T18:22:57.16</time>
<name>1738</name>
</trkpt>
<trkpt lat="49.479640" lon="8.921527">
<ele>423.0</ele>
<speed>29.2</speed>
<course>230.1</course>
<desc>Speed 29.2 km/h Distance 51.97 km</desc>
<time>2010-07-30T18:23:00.15</time>
<name>1739</name>
</trkpt>
<trkpt lat="49.479577" lon="8.921410">
<ele>423.0</ele>
<speed>29.2</speed>
<course>275.9</course>
<desc>Speed 29.2 km/h Distance 51.98 km</desc>
<time>2010-07-30T18:23:03.15</time>
<name>1740</name>
</trkpt>
<trkpt lat="49.479590" lon="8.921210">
<ele>422.5</ele>
<speed>29.2</speed>
<course>264.3</course>
<desc>Speed 29.2 km/h Distance 51.99 km</desc>
<time>2010-07-30T18:23:05.15</time>
<name>1741</name>
</trkpt>
<trkpt lat="49.479573" lon="8.920955">
<ele>422.0</ele>
<speed>29.2</speed>
<course>236.6</course>
<desc>Speed 29.2 km/h Distance 52.01 km</desc>
<time>2010-07-30T18:23:07.15</time>
<name>1742</name>
</trkpt>
<trkpt lat="49.479538" lon="8.920873">
<ele>422.0</ele>
<speed>29.2</speed>
<course>278.3</course>
<desc>Speed 29.2 km/h Distance 52.02 km</desc>
<time>2010-07-30T18:23:08.21</time>
<name>1743</name>
</trkpt>
<trkpt lat="49.479840" lon="8.917685">
<ele>423.5</ele>
<speed>29.2</speed>
<course>299.5</course>
<desc>Speed 29.2 km/h Distance 52.25 km</desc>
<time>2010-07-30T18:23:14.14</time>
<name>1744</name>
</trkpt>
<trkpt lat="49.480012" lon="8.917218">
<ele>422.0</ele>
<speed>29.2</speed>
<course>263.4</course>
<desc>Speed 29.2 km/h Distance 52.29 km</desc>
<time>2010-07-30T18:23:17.24</time>
<name>1745</name>
</trkpt>
<trkpt lat="49.479923" lon="8.916035">
<ele>404.0</ele>
<speed>29.2</speed>
<course>253.3</course>
<desc>Speed 29.2 km/h Distance 52.38 km</desc>
<time>2010-07-30T18:23:22.13</time>
<name>1746</name>
</trkpt>
<trkpt lat="49.479655" lon="8.914655">
<ele>397.0</ele>
<speed>29.2</speed>
<course>245.8</course>
<desc>Speed 29.2 km/h Distance 52.48 km</desc>
<time>2010-07-30T18:23:25.12</time>
<name>1747</name>
</trkpt>
<trkpt lat="49.478342" lon="8.910155">
<ele>394.5</ele>
<speed>29.2</speed>
<course>239.1</course>
<desc>Speed 29.2 km/h Distance 52.84 km</desc>
<time>2010-07-30T18:23:39.11</time>
<name>1748</name>
</trkpt>
<trkpt lat="49.477425" lon="8.907798">
<ele>388.0</ele>
<speed>90.7</speed>
<course>233.4</course>
<desc>Speed 90.7 km/h Distance 53.04 km</desc>
<time>2010-07-30T18:23:44.25</time>
<name>1749</name>
</trkpt>
<trkpt lat="49.476975" lon="8.906867">
<ele>382.5</ele>
<speed>95.8</speed>
<course>241.4</course>
<desc>Speed 95.8 km/h Distance 53.12 km</desc>
<time>2010-07-30T18:23:47.10</time>
<name>1750</name>
</trkpt>
<trkpt lat="49.476863" lon="8.906552">
<ele>382.0</ele>
<speed>96.5</speed>
<course>246.1</course>
<desc>Speed 96.5 km/h Distance 53.15 km</desc>
<time>2010-07-30T18:23:48.10</time>
<name>1751</name>
</trkpt>
<trkpt lat="49.476662" lon="8.905850">
<ele>377.0</ele>
<speed>85.9</speed>
<course>238.7</course>
<desc>Speed 85.9 km/h Distance 53.20 km</desc>
<time>2010-07-30T18:23:50.10</time>
<name>1752</name>
</trkpt>
<trkpt lat="49.476452" lon="8.905318">
<ele>374.0</ele>
<speed>76.0</speed>
<course>204.4</course>
<desc>Speed 76.0 km/h Distance 53.25 km</desc>
<time>2010-07-30T18:23:52.10</time>
<name>1753</name>
</trkpt>
<trkpt lat="49.475802" lon="8.904865">
<ele>368.5</ele>
<speed>83.1</speed>
<course>188.5</course>
<desc>Speed 83.1 km/h Distance 53.33 km</desc>
<time>2010-07-30T18:23:56.10</time>
<name>1754</name>
</trkpt>
<trkpt lat="49.475338" lon="8.904758">
<ele>360.5</ele>
<speed>78.2</speed>
<course>178.5</course>
<desc>Speed 78.2 km/h Distance 53.38 km</desc>
<time>2010-07-30T18:23:58.09</time>
<name>1755</name>
</trkpt>
<trkpt lat="49.475138" lon="8.904767">
<ele>360.0</ele>
<speed>76.1</speed>
<course>172.3</course>
<desc>Speed 76.1 km/h Distance 53.40 km</desc>
<time>2010-07-30T18:23:59.09</time>
<name>1756</name>
</trkpt>
<trkpt lat="49.474768" lon="8.904843">
<ele>353.0</ele>
<speed>67.2</speed>
<course>157.4</course>
<desc>Speed 67.2 km/h Distance 53.44 km</desc>
<time>2010-07-30T18:24:01.08</time>
<name>1757</name>
</trkpt>
<trkpt lat="49.473028" lon="8.905958">
<ele>337.0</ele>
<speed>71.6</speed>
<course>196.0</course>
<desc>Speed 71.6 km/h Distance 53.65 km</desc>
<time>2010-07-30T18:24:12.08</time>
<name>1758</name>
</trkpt>
<trkpt lat="49.472670" lon="8.905800">
<ele>336.5</ele>
<speed>71.6</speed>
<course>196.8</course>
<desc>Speed 71.6 km/h Distance 53.69 km</desc>
<time>2010-07-30T18:24:14.07</time>
<name>1759</name>
</trkpt>
<trkpt lat="49.472483" lon="8.905713">
<ele>336.0</ele>
<speed>71.6</speed>
<course>268.9</course>
<desc>Speed 71.6 km/h Distance 53.72 km</desc>
<time>2010-07-30T18:24:15.07</time>
<name>1760</name>
</trkpt>
<trkpt lat="49.472432" lon="8.901700">
<ele>332.5</ele>
<speed>71.6</speed>
<course>191.3</course>
<desc>Speed 71.6 km/h Distance 54.01 km</desc>
<time>2010-07-30T18:24:29.06</time>
<name>1761</name>
</trkpt>
<trkpt lat="49.470782" lon="8.901193">
<ele>326.5</ele>
<speed>124</speed>
<course>204.5</course>
<desc>Speed 124 km/h Distance 54.19 km</desc>
<time>2010-07-30T18:24:35.05</time>
<name>1762</name>
</trkpt>
<trkpt lat="49.469913" lon="8.900585">
<ele>322.5</ele>
<speed>124</speed>
<course>224.0</course>
<desc>Speed 124 km/h Distance 54.30 km</desc>
<time>2010-07-30T18:24:41.04</time>
<name>1763</name>
</trkpt>
<trkpt lat="49.468978" lon="8.899193">
<ele>322.5</ele>
<speed>96.9</speed>
<course>206.1</course>
<desc>Speed 96.9 km/h Distance 54.44 km</desc>
<time>2010-07-30T18:24:47.04</time>
<name>1764</name>
</trkpt>
<trkpt lat="49.468187" lon="8.898597">
<ele>322.5</ele>
<speed>99.1</speed>
<course>196.4</course>
<desc>Speed 99.1 km/h Distance 54.54 km</desc>
<time>2010-07-30T18:24:50.03</time>
<name>1765</name>
</trkpt>
<trkpt lat="49.467338" lon="8.898213">
<ele>322.5</ele>
<speed>93.3</speed>
<course>195.9</course>
<desc>Speed 93.3 km/h Distance 54.64 km</desc>
<time>2010-07-30T18:24:53.03</time>
<name>1766</name>
</trkpt>
<trkpt lat="49.466650" lon="8.897912">
<ele>322.5</ele>
<speed>77.5</speed>
<course>212.3</course>
<desc>Speed 77.5 km/h Distance 54.72 km</desc>
<time>2010-07-30T18:24:56.03</time>
<name>1767</name>
</trkpt>
<trkpt lat="49.466363" lon="8.897633">
<ele>322.5</ele>
<speed>65.2</speed>
<course>220.8</course>
<desc>Speed 65.2 km/h Distance 54.76 km</desc>
<time>2010-07-30T18:24:58.02</time>
<name>1768</name>
</trkpt>
<trkpt lat="49.466237" lon="8.897465">
<ele>322.5</ele>
<speed>66.3</speed>
<course>251.6</course>
<desc>Speed 66.3 km/h Distance 54.78 km</desc>
<time>2010-07-30T18:24:59.03</time>
<name>1769</name>
</trkpt>
<trkpt lat="49.466140" lon="8.897017">
<ele>322.5</ele>
<speed>28.5</speed>
<course>186.2</course>
<desc>Speed 28.5 km/h Distance 54.81 km</desc>
<time>2010-07-30T18:25:05.02</time>
<name>1770</name>
</trkpt>
<trkpt lat="49.465413" lon="8.896895">
<ele>323.0</ele>
<speed>82.4</speed>
<course>194.0</course>
<desc>Speed 82.4 km/h Distance 54.89 km</desc>
<time>2010-07-30T18:25:10.02</time>
<name>1771</name>
</trkpt>
<trkpt lat="49.461908" lon="8.895555">
<ele>325.0</ele>
<speed>109</speed>
<course>184.5</course>
<desc>Speed 109 km/h Distance 55.29 km</desc>
<time>2010-07-30T18:25:23.01</time>
<name>1772</name>
</trkpt>
<trkpt lat="49.461015" lon="8.895447">
<ele>324.5</ele>
<speed>109</speed>
<course>157.2</course>
<desc>Speed 109 km/h Distance 55.39 km</desc>
<time>2010-07-30T18:25:26.00</time>
<name>1773</name>
</trkpt>
<trkpt lat="49.459718" lon="8.896283">
<ele>324.5</ele>
<speed>109</speed>
<course>181.8</course>
<desc>Speed 109 km/h Distance 55.55 km</desc>
<time>2010-07-30T18:25:33.00</time>
<name>1774</name>
</trkpt>
<trkpt lat="49.458100" lon="8.896207">
<ele>324.0</ele>
<speed>89.7</speed>
<course>178.3</course>
<desc>Speed 89.7 km/h Distance 55.73 km</desc>
<time>2010-07-30T18:25:37.98</time>
<name>1775</name>
</trkpt>
<trkpt lat="49.457878" lon="8.896217">
<ele>324.0</ele>
<speed>85.8</speed>
<course>179.4</course>
<desc>Speed 85.8 km/h Distance 55.76 km</desc>
<time>2010-07-30T18:25:39.03</time>
<name>1776</name>
</trkpt>
<trkpt lat="49.457665" lon="8.896220">
<ele>324.0</ele>
<speed>82.9</speed>
<course>190.6</course>
<desc>Speed 82.9 km/h Distance 55.78 km</desc>
<time>2010-07-30T18:25:39.98</time>
<name>1777</name>
</trkpt>
<trkpt lat="49.457283" lon="8.896110">
<ele>324.0</ele>
<speed>78.3</speed>
<course>192.9</course>
<desc>Speed 78.3 km/h Distance 55.82 km</desc>
<time>2010-07-30T18:25:41.97</time>
<name>1778</name>
</trkpt>
<trkpt lat="49.456877" lon="8.895967">
<ele>324.0</ele>
<speed>76.0</speed>
<course>194.5</course>
<desc>Speed 76.0 km/h Distance 55.87 km</desc>
<time>2010-07-30T18:25:43.97</time>
<name>1779</name>
</trkpt>
<trkpt lat="49.456683" lon="8.895890">
<ele>324.0</ele>
<speed>79.1</speed>
<course>194.3</course>
<desc>Speed 79.1 km/h Distance 55.89 km</desc>
<time>2010-07-30T18:25:44.98</time>
<name>1780</name>
</trkpt>
<trkpt lat="49.456492" lon="8.895815">
<ele>324.0</ele>
<speed>78.2</speed>
<course>196.4</course>
<desc>Speed 78.2 km/h Distance 55.91 km</desc>
<time>2010-07-30T18:25:45.97</time>
<name>1781</name>
</trkpt>
<trkpt lat="49.456303" lon="8.895730">
<ele>324.0</ele>
<speed>78.3</speed>
<course>197.5</course>
<desc>Speed 78.3 km/h Distance 55.93 km</desc>
<time>2010-07-30T18:25:46.97</time>
<name>1782</name>
</trkpt>
<trkpt lat="49.456118" lon="8.895640">
<ele>324.0</ele>
<speed>78.0</speed>
<course>197.6</course>
<desc>Speed 78.0 km/h Distance 55.96 km</desc>
<time>2010-07-30T18:25:47.97</time>
<name>1783</name>
</trkpt>
<trkpt lat="49.455930" lon="8.895548">
<ele>324.0</ele>
<speed>78.5</speed>
<course>197.6</course>
<desc>Speed 78.5 km/h Distance 55.98 km</desc>
<time>2010-07-30T18:25:48.97</time>
<name>1784</name>
</trkpt>
<trkpt lat="49.455742" lon="8.895457">
<ele>324.0</ele>
<speed>78.8</speed>
<course>197.6</course>
<desc>Speed 78.8 km/h Distance 56.00 km</desc>
<time>2010-07-30T18:25:49.97</time>
<name>1785</name>
</trkpt>
<trkpt lat="49.455553" lon="8.895365">
<ele>324.0</ele>
<speed>78.3</speed>
<course>197.6</course>
<desc>Speed 78.3 km/h Distance 56.02 km</desc>
<time>2010-07-30T18:25:50.97</time>
<name>1786</name>
</trkpt>
<trkpt lat="49.455365" lon="8.895273">
<ele>324.0</ele>
<speed>78.5</speed>
<course>196.7</course>
<desc>Speed 78.5 km/h Distance 56.04 km</desc>
<time>2010-07-30T18:25:51.96</time>
<name>1787</name>
</trkpt>
<trkpt lat="49.455177" lon="8.895187">
<ele>324.0</ele>
<speed>77.4</speed>
<course>195.6</course>
<desc>Speed 77.4 km/h Distance 56.07 km</desc>
<time>2010-07-30T18:25:52.97</time>
<name>1788</name>
</trkpt>
<trkpt lat="49.454990" lon="8.895107">
<ele>324.0</ele>
<speed>77.6</speed>
<course>193.2</course>
<desc>Speed 77.6 km/h Distance 56.09 km</desc>
<time>2010-07-30T18:25:53.96</time>
<name>1789</name>
</trkpt>
<trkpt lat="49.454805" lon="8.895040">
<ele>324.0</ele>
<speed>75.2</speed>
<course>191.3</course>
<desc>Speed 75.2 km/h Distance 56.11 km</desc>
<time>2010-07-30T18:25:54.97</time>
<name>1790</name>
</trkpt>
<trkpt lat="49.454620" lon="8.894983">
<ele>324.0</ele>
<speed>75.1</speed>
<course>190.5</course>
<desc>Speed 75.1 km/h Distance 56.13 km</desc>
<time>2010-07-30T18:25:55.96</time>
<name>1791</name>
</trkpt>
<trkpt lat="49.454438" lon="8.894932">
<ele>324.0</ele>
<speed>74.4</speed>
<course>190.4</course>
<desc>Speed 74.4 km/h Distance 56.15 km</desc>
<time>2010-07-30T18:25:56.96</time>
<name>1792</name>
</trkpt>
<trkpt lat="49.454255" lon="8.894880">
<ele>324.0</ele>
<speed>74.6</speed>
<course>190.6</course>
<desc>Speed 74.6 km/h Distance 56.17 km</desc>
<time>2010-07-30T18:25:57.97</time>
<name>1793</name>
</trkpt>
<trkpt lat="49.454075" lon="8.894828">
<ele>324.0</ele>
<speed>72.9</speed>
<course>190.0</course>
<desc>Speed 72.9 km/h Distance 56.19 km</desc>
<time>2010-07-30T18:25:58.97</time>
<name>1794</name>
</trkpt>
<trkpt lat="49.453903" lon="8.894782">
<ele>324.0</ele>
<speed>69.3</speed>
<course>188.6</course>
<desc>Speed 69.3 km/h Distance 56.21 km</desc>
<time>2010-07-30T18:25:59.98</time>
<name>1795</name>
</trkpt>
<trkpt lat="49.453723" lon="8.894740">
<ele>324.0</ele>
<speed>71.9</speed>
<course>188.2</course>
<desc>Speed 71.9 km/h Distance 56.23 km</desc>
<time>2010-07-30T18:26:00.96</time>
<name>1796</name>
</trkpt>
<trkpt lat="49.453543" lon="8.894700">
<ele>324.0</ele>
<speed>72.7</speed>
<course>184.6</course>
<desc>Speed 72.7 km/h Distance 56.25 km</desc>
<time>2010-07-30T18:26:02.08</time>
<name>1797</name>
</trkpt>
<trkpt lat="49.453368" lon="8.894678">
<ele>324.0</ele>
<speed>70.3</speed>
<course>182.0</course>
<desc>Speed 70.3 km/h Distance 56.27 km</desc>
<time>2010-07-30T18:26:02.97</time>
<name>1798</name>
</trkpt>
<trkpt lat="49.453028" lon="8.894660">
<ele>324.0</ele>
<speed>68.4</speed>
<course>179.8</course>
<desc>Speed 68.4 km/h Distance 56.31 km</desc>
<time>2010-07-30T18:26:04.96</time>
<name>1799</name>
</trkpt>
<trkpt lat="49.452862" lon="8.894662">
<ele>324.0</ele>
<speed>67.6</speed>
<course>179.8</course>
<desc>Speed 67.6 km/h Distance 56.33 km</desc>
<time>2010-07-30T18:26:05.95</time>
<name>1800</name>
</trkpt>
<trkpt lat="49.452695" lon="8.894662">
<ele>324.0</ele>
<speed>66.7</speed>
<course>177.4</course>
<desc>Speed 66.7 km/h Distance 56.35 km</desc>
<time>2010-07-30T18:26:06.96</time>
<name>1801</name>
</trkpt>
<trkpt lat="49.452528" lon="8.894673">
<ele>324.0</ele>
<speed>66.7</speed>
<course>176.8</course>
<desc>Speed 66.7 km/h Distance 56.36 km</desc>
<time>2010-07-30T18:26:07.95</time>
<name>1802</name>
</trkpt>
<trkpt lat="49.452355" lon="8.894688">
<ele>324.0</ele>
<speed>70.3</speed>
<course>179.1</course>
<desc>Speed 70.3 km/h Distance 56.38 km</desc>
<time>2010-07-30T18:26:08.95</time>
<name>1803</name>
</trkpt>
<trkpt lat="49.451948" lon="8.894698">
<ele>324.0</ele>
<speed>81.2</speed>
<course>181.6</course>
<desc>Speed 81.2 km/h Distance 56.43 km</desc>
<time>2010-07-30T18:26:10.95</time>
<name>1804</name>
</trkpt>
<trkpt lat="49.451758" lon="8.894690">
<ele>324.0</ele>
<speed>76.5</speed>
<course>181.7</course>
<desc>Speed 76.5 km/h Distance 56.45 km</desc>
<time>2010-07-30T18:26:11.95</time>
<name>1805</name>
</trkpt>
<trkpt lat="49.451577" lon="8.894682">
<ele>324.0</ele>
<speed>72.9</speed>
<course>183.0</course>
<desc>Speed 72.9 km/h Distance 56.47 km</desc>
<time>2010-07-30T18:26:12.95</time>
<name>1806</name>
</trkpt>
<trkpt lat="49.451250" lon="8.894655">
<ele>324.0</ele>
<speed>66.7</speed>
<course>185.4</course>
<desc>Speed 66.7 km/h Distance 56.51 km</desc>
<time>2010-07-30T18:26:14.95</time>
<name>1807</name>
</trkpt>
<trkpt lat="49.451090" lon="8.894632">
<ele>324.0</ele>
<speed>64.2</speed>
<course>185.5</course>
<desc>Speed 64.2 km/h Distance 56.53 km</desc>
<time>2010-07-30T18:26:15.94</time>
<name>1808</name>
</trkpt>
<trkpt lat="49.450933" lon="8.894608">
<ele>324.0</ele>
<speed>63.4</speed>
<course>186.0</course>
<desc>Speed 63.4 km/h Distance 56.54 km</desc>
<time>2010-07-30T18:26:16.94</time>
<name>1809</name>
</trkpt>
<trkpt lat="49.450778" lon="8.894583">
<ele>324.0</ele>
<speed>62.2</speed>
<course>185.7</course>
<desc>Speed 62.2 km/h Distance 56.56 km</desc>
<time>2010-07-30T18:26:17.94</time>
<name>1810</name>
</trkpt>
<trkpt lat="49.450625" lon="8.894560">
<ele>324.0</ele>
<speed>61.1</speed>
<course>184.6</course>
<desc>Speed 61.1 km/h Distance 56.58 km</desc>
<time>2010-07-30T18:26:18.94</time>
<name>1811</name>
</trkpt>
<trkpt lat="49.450477" lon="8.894542">
<ele>324.0</ele>
<speed>59.5</speed>
<course>184.2</course>
<desc>Speed 59.5 km/h Distance 56.59 km</desc>
<time>2010-07-30T18:26:19.95</time>
<name>1812</name>
</trkpt>
<trkpt lat="49.450330" lon="8.894525">
<ele>324.0</ele>
<speed>58.0</speed>
<course>185.4</course>
<desc>Speed 58.0 km/h Distance 56.61 km</desc>
<time>2010-07-30T18:26:20.94</time>
<name>1813</name>
</trkpt>
<trkpt lat="49.450192" lon="8.894505">
<ele>324.0</ele>
<speed>55.9</speed>
<course>187.5</course>
<desc>Speed 55.9 km/h Distance 56.63 km</desc>
<time>2010-07-30T18:26:21.95</time>
<name>1814</name>
</trkpt>
<trkpt lat="49.450060" lon="8.894478">
<ele>324.0</ele>
<speed>53.5</speed>
<course>186.9</course>
<desc>Speed 53.5 km/h Distance 56.64 km</desc>
<time>2010-07-30T18:26:23.00</time>
<name>1815</name>
</trkpt>
<trkpt lat="49.449935" lon="8.894455">
<ele>324.0</ele>
<speed>50.3</speed>
<course>175.9</course>
<desc>Speed 50.3 km/h Distance 56.65 km</desc>
<time>2010-07-30T18:26:23.94</time>
<name>1816</name>
</trkpt>
<trkpt lat="49.449813" lon="8.894468">
<ele>324.0</ele>
<speed>48.6</speed>
<course>137.6</course>
<desc>Speed 48.6 km/h Distance 56.67 km</desc>
<time>2010-07-30T18:26:25.08</time>
<name>1817</name>
</trkpt>
<trkpt lat="49.449677" lon="8.894660">
<ele>324.0</ele>
<speed>38.1</speed>
<course>112.9</course>
<desc>Speed 38.1 km/h Distance 56.69 km</desc>
<time>2010-07-30T18:26:26.95</time>
<name>1818</name>
</trkpt>
<trkpt lat="49.449587" lon="8.894988">
<ele>324.0</ele>
<speed>47.0</speed>
<course>114.3</course>
<desc>Speed 47.0 km/h Distance 56.71 km</desc>
<time>2010-07-30T18:26:28.93</time>
<name>1819</name>
</trkpt>
<trkpt lat="49.449537" lon="8.895158">
<ele>324.0</ele>
<speed>49.0</speed>
<course>133.5</course>
<desc>Speed 49.0 km/h Distance 56.73 km</desc>
<time>2010-07-30T18:26:29.93</time>
<name>1820</name>
</trkpt>
<trkpt lat="49.449462" lon="8.895280">
<ele>324.0</ele>
<speed>43.5</speed>
<course>144.8</course>
<desc>Speed 43.5 km/h Distance 56.74 km</desc>
<time>2010-07-30T18:26:30.93</time>
<name>1821</name>
</trkpt>
<trkpt lat="49.449250" lon="8.895510">
<ele>324.0</ele>
<speed>51.4</speed>
<course>165.8</course>
<desc>Speed 51.4 km/h Distance 56.77 km</desc>
<time>2010-07-30T18:26:32.93</time>
<name>1822</name>
</trkpt>
<trkpt lat="49.448958" lon="8.895623">
<ele>324.0</ele>
<speed>55.7</speed>
<course>167.9</course>
<desc>Speed 55.7 km/h Distance 56.80 km</desc>
<time>2010-07-30T18:26:34.94</time>
<name>1823</name>
</trkpt>
<trkpt lat="49.448817" lon="8.895670">
<ele>324.0</ele>
<speed>57.4</speed>
<course>167.6</course>
<desc>Speed 57.4 km/h Distance 56.82 km</desc>
<time>2010-07-30T18:26:35.93</time>
<name>1824</name>
</trkpt>
<trkpt lat="49.448673" lon="8.895718">
<ele>324.0</ele>
<speed>58.6</speed>
<course>167.2</course>
<desc>Speed 58.6 km/h Distance 56.83 km</desc>
<time>2010-07-30T18:26:36.94</time>
<name>1825</name>
</trkpt>
<trkpt lat="49.448525" lon="8.895770">
<ele>324.0</ele>
<speed>60.1</speed>
<course>167.5</course>
<desc>Speed 60.1 km/h Distance 56.85 km</desc>
<time>2010-07-30T18:26:37.93</time>
<name>1826</name>
</trkpt>
<trkpt lat="49.448383" lon="8.895818">
<ele>324.0</ele>
<speed>58.3</speed>
<course>168.9</course>
<desc>Speed 58.3 km/h Distance 56.87 km</desc>
<time>2010-07-30T18:26:38.94</time>
<name>1827</name>
</trkpt>
<trkpt lat="49.448240" lon="8.895862">
<ele>324.0</ele>
<speed>58.2</speed>
<course>169.6</course>
<desc>Speed 58.2 km/h Distance 56.88 km</desc>
<time>2010-07-30T18:26:39.92</time>
<name>1828</name>
</trkpt>
<trkpt lat="49.448098" lon="8.895902">
<ele>324.0</ele>
<speed>57.9</speed>
<course>174.2</course>
<desc>Speed 57.9 km/h Distance 56.90 km</desc>
<time>2010-07-30T18:26:40.92</time>
<name>1829</name>
</trkpt>
<trkpt lat="49.447960" lon="8.895923">
<ele>324.0</ele>
<speed>58.6</speed>
<course>179.4</course>
<desc>Speed 58.6 km/h Distance 56.92 km</desc>
<time>2010-07-30T18:26:41.93</time>
<name>1830</name>
</trkpt>
<trkpt lat="49.447728" lon="8.895927">
<ele>324.0</ele>
<speed>56.3</speed>
<course>204.8</course>
<desc>Speed 56.3 km/h Distance 56.94 km</desc>
<time>2010-07-30T18:26:43.99</time>
<name>1831</name>
</trkpt>
<trkpt lat="49.447412" lon="8.895702">
<ele>324.0</ele>
<speed>52.8</speed>
<course>158.0</course>
<desc>Speed 52.8 km/h Distance 56.98 km</desc>
<time>2010-07-30T18:26:46.93</time>
<name>1832</name>
</trkpt>
<trkpt lat="49.447152" lon="8.895863">
<ele>323.5</ele>
<speed>22.2</speed>
<course>159.9</course>
<desc>Speed 22.2 km/h Distance 57.01 km</desc>
<time>2010-07-30T18:26:49.92</time>
<name>1833</name>
</trkpt>
<trkpt lat="49.447098" lon="8.895893">
<ele>323.5</ele>
<speed>22.2</speed>
<course>321.4</course>
<desc>Speed 22.2 km/h Distance 57.02 km</desc>
<time>2010-07-30T18:26:50.93</time>
<name>1834</name>
</trkpt>
<trkpt lat="49.447798" lon="8.895033">
<ele>320.0</ele>
<speed>67.3</speed>
<course>313.4</course>
<desc>Speed 67.3 km/h Distance 57.12 km</desc>
<time>2010-07-30T18:26:59.92</time>
<name>1835</name>
</trkpt>
<trkpt lat="49.448202" lon="8.894378">
<ele>317.5</ele>
<speed>53.6</speed>
<course>321.9</course>
<desc>Speed 53.6 km/h Distance 57.18 km</desc>
<time>2010-07-30T18:27:02.92</time>
<name>1836</name>
</trkpt>
<trkpt lat="49.448677" lon="8.893805">
<ele>316.0</ele>
<speed>70.2</speed>
<course>288.6</course>
<desc>Speed 70.2 km/h Distance 57.25 km</desc>
<time>2010-07-30T18:27:06.99</time>
<name>1837</name>
</trkpt>
<trkpt lat="49.448790" lon="8.893288">
<ele>315.5</ele>
<speed>74.6</speed>
<course>287.9</course>
<desc>Speed 74.6 km/h Distance 57.29 km</desc>
<time>2010-07-30T18:27:09.05</time>
<name>1838</name>
</trkpt>
<trkpt lat="49.449148" lon="8.891583">
<ele>313.5</ele>
<speed>75.2</speed>
<course>289.0</course>
<desc>Speed 75.2 km/h Distance 57.42 km</desc>
<time>2010-07-30T18:27:14.90</time>
<name>1839</name>
</trkpt>
<trkpt lat="49.449832" lon="8.888533">
<ele>313.0</ele>
<speed>85.7</speed>
<course>298.7</course>
<desc>Speed 85.7 km/h Distance 57.65 km</desc>
<time>2010-07-30T18:27:26.27</time>
<name>1840</name>
</trkpt>
<trkpt lat="49.450002" lon="8.888055">
<ele>312.5</ele>
<speed>85.7</speed>
<course>291.6</course>
<desc>Speed 85.7 km/h Distance 57.69 km</desc>
<time>2010-07-30T18:27:27.89</time>
<name>1841</name>
</trkpt>
<trkpt lat="49.450162" lon="8.887433">
<ele>312.0</ele>
<speed>76.7</speed>
<course>270.4</course>
<desc>Speed 76.7 km/h Distance 57.74 km</desc>
<time>2010-07-30T18:27:29.89</time>
<name>1842</name>
</trkpt>
<trkpt lat="49.450168" lon="8.885795">
<ele>311.0</ele>
<speed>78.3</speed>
<course>264.1</course>
<desc>Speed 78.3 km/h Distance 57.86 km</desc>
<time>2010-07-30T18:27:34.87</time>
<name>1843</name>
</trkpt>
<trkpt lat="49.450060" lon="8.884170">
<ele>310.5</ele>
<speed>80.0</speed>
<course>297.9</course>
<desc>Speed 80.0 km/h Distance 57.98 km</desc>
<time>2010-07-30T18:27:39.87</time>
<name>1844</name>
</trkpt>
<trkpt lat="49.450887" lon="8.881767">
<ele>307.0</ele>
<speed>93.7</speed>
<course>312.8</course>
<desc>Speed 93.7 km/h Distance 58.17 km</desc>
<time>2010-07-30T18:27:47.87</time>
<name>1845</name>
</trkpt>
<trkpt lat="49.451205" lon="8.881238">
<ele>305.5</ele>
<speed>93.7</speed>
<course>309.0</course>
<desc>Speed 93.7 km/h Distance 58.23 km</desc>
<time>2010-07-30T18:27:49.86</time>
<name>1846</name>
</trkpt>
<trkpt lat="49.451560" lon="8.880565">
<ele>304.5</ele>
<speed>79.0</speed>
<course>299.2</course>
<desc>Speed 79.0 km/h Distance 58.29 km</desc>
<time>2010-07-30T18:27:52.86</time>
<name>1847</name>
</trkpt>
<trkpt lat="49.451752" lon="8.880038">
<ele>303.5</ele>
<speed>71.4</speed>
<course>298.6</course>
<desc>Speed 71.4 km/h Distance 58.33 km</desc>
<time>2010-07-30T18:27:54.86</time>
<name>1848</name>
</trkpt>
<trkpt lat="49.451942" lon="8.879503">
<ele>302.5</ele>
<speed>70.6</speed>
<course>312.8</course>
<desc>Speed 70.6 km/h Distance 58.38 km</desc>
<time>2010-07-30T18:27:56.86</time>
<name>1849</name>
</trkpt>
<trkpt lat="49.452168" lon="8.879127">
<ele>301.5</ele>
<speed>73.5</speed>
<course>315.5</course>
<desc>Speed 73.5 km/h Distance 58.41 km</desc>
<time>2010-07-30T18:27:58.85</time>
<name>1850</name>
</trkpt>
<trkpt lat="49.452410" lon="8.878762">
<ele>297.5</ele>
<speed>72.3</speed>
<course>308.4</course>
<desc>Speed 72.3 km/h Distance 58.45 km</desc>
<time>2010-07-30T18:28:00.85</time>
<name>1851</name>
</trkpt>
<trkpt lat="49.452665" lon="8.878267">
<ele>296.5</ele>
<speed>83.0</speed>
<course>309.8</course>
<desc>Speed 83.0 km/h Distance 58.50 km</desc>
<time>2010-07-30T18:28:02.85</time>
<name>1852</name>
</trkpt>
<trkpt lat="49.452928" lon="8.877780">
<ele>295.5</ele>
<speed>93.0</speed>
<course>311.4</course>
<desc>Speed 93.0 km/h Distance 58.54 km</desc>
<time>2010-07-30T18:28:04.84</time>
<name>1853</name>
</trkpt>
<trkpt lat="49.455137" lon="8.873928">
<ele>294.5</ele>
<speed>87.4</speed>
<course>0.5</course>
<desc>Speed 87.4 km/h Distance 58.91 km</desc>
<time>2010-07-30T18:28:18.82</time>
<name>1854</name>
</trkpt>
<trkpt lat="49.456175" lon="8.873943">
<ele>292.5</ele>
<speed>105</speed>
<course>325.0</course>
<desc>Speed 105 km/h Distance 59.03 km</desc>
<time>2010-07-30T18:28:22.82</time>
<name>1855</name>
</trkpt>
<trkpt lat="49.457068" lon="8.872982">
<ele>290.0</ele>
<speed>111</speed>
<course>313.2</course>
<desc>Speed 111 km/h Distance 59.15 km</desc>
<time>2010-07-30T18:28:28.82</time>
<name>1856</name>
</trkpt>
<trkpt lat="49.457603" lon="8.872105">
<ele>286.5</ele>
<speed>94.1</speed>
<course>323.5</course>
<desc>Speed 94.1 km/h Distance 59.24 km</desc>
<time>2010-07-30T18:28:31.81</time>
<name>1857</name>
</trkpt>
<trkpt lat="49.458053" lon="8.871593">
<ele>286.5</ele>
<speed>107</speed>
<course>331.6</course>
<desc>Speed 107 km/h Distance 59.30 km</desc>
<time>2010-07-30T18:28:34.82</time>
<name>1858</name>
</trkpt>
<trkpt lat="49.458552" lon="8.871178">
<ele>285.5</ele>
<speed>107</speed>
<course>330.0</course>
<desc>Speed 107 km/h Distance 59.36 km</desc>
<time>2010-07-30T18:28:36.81</time>
<name>1859</name>
</trkpt>
<trkpt lat="49.459302" lon="8.870512">
<ele>284.0</ele>
<speed>107</speed>
<course>322.3</course>
<desc>Speed 107 km/h Distance 59.46 km</desc>
<time>2010-07-30T18:28:40.92</time>
<name>1860</name>
</trkpt>
<trkpt lat="49.459845" lon="8.869867">
<ele>285.0</ele>
<speed>118</speed>
<course>316.7</course>
<desc>Speed 118 km/h Distance 59.54 km</desc>
<time>2010-07-30T18:28:43.81</time>
<name>1861</name>
</trkpt>
<trkpt lat="49.460538" lon="8.868860">
<ele>286.0</ele>
<speed>118</speed>
<course>325.6</course>
<desc>Speed 118 km/h Distance 59.64 km</desc>
<time>2010-07-30T18:28:46.80</time>
<name>1862</name>
</trkpt>
<trkpt lat="49.461320" lon="8.868037">
<ele>286.5</ele>
<speed>84.5</speed>
<course>338.3</course>
<desc>Speed 84.5 km/h Distance 59.75 km</desc>
<time>2010-07-30T18:28:51.80</time>
<name>1863</name>
</trkpt>
<trkpt lat="49.462122" lon="8.867547">
<ele>287.0</ele>
<speed>84.5</speed>
<course>324.2</course>
<desc>Speed 84.5 km/h Distance 59.84 km</desc>
<time>2010-07-30T18:28:57.79</time>
<name>1864</name>
</trkpt>
<trkpt lat="49.463763" lon="8.865727">
<ele>286.5</ele>
<speed>83.0</speed>
<course>298.5</course>
<desc>Speed 83.0 km/h Distance 60.07 km</desc>
<time>2010-07-30T18:29:03.81</time>
<name>1865</name>
</trkpt>
<trkpt lat="49.463990" lon="8.865083">
<ele>286.5</ele>
<speed>80.5</speed>
<course>284.3</course>
<desc>Speed 80.5 km/h Distance 60.12 km</desc>
<time>2010-07-30T18:29:05.88</time>
<name>1866</name>
</trkpt>
<trkpt lat="49.464232" lon="8.863627">
<ele>286.0</ele>
<speed>87.9</speed>
<course>294.7</course>
<desc>Speed 87.9 km/h Distance 60.23 km</desc>
<time>2010-07-30T18:29:09.77</time>
<name>1867</name>
</trkpt>
<trkpt lat="49.464538" lon="8.862602">
<ele>285.5</ele>
<speed>106</speed>
<course>299.3</course>
<desc>Speed 106 km/h Distance 60.31 km</desc>
<time>2010-07-30T18:29:12.77</time>
<name>1868</name>
</trkpt>
<trkpt lat="49.464663" lon="8.862258">
<ele>285.5</ele>
<speed>101</speed>
<course>296.2</course>
<desc>Speed 101 km/h Distance 60.34 km</desc>
<time>2010-07-30T18:29:13.77</time>
<name>1869</name>
</trkpt>
<trkpt lat="49.464865" lon="8.861627">
<ele>285.5</ele>
<speed>101</speed>
<course>286.1</course>
<desc>Speed 101 km/h Distance 60.39 km</desc>
<time>2010-07-30T18:29:15.77</time>
<name>1870</name>
</trkpt>
<trkpt lat="49.465033" lon="8.860727">
<ele>285.5</ele>
<speed>81.0</speed>
<course>307.5</course>
<desc>Speed 81.0 km/h Distance 60.46 km</desc>
<time>2010-07-30T18:29:18.77</time>
<name>1871</name>
</trkpt>
<trkpt lat="49.465767" lon="8.859257">
<ele>283.0</ele>
<speed>114</speed>
<course>308.1</course>
<desc>Speed 114 km/h Distance 60.59 km</desc>
<time>2010-07-30T18:29:23.76</time>
<name>1872</name>
</trkpt>
<trkpt lat="49.466357" lon="8.858100">
<ele>282.5</ele>
<speed>86.7</speed>
<course>319.0</course>
<desc>Speed 86.7 km/h Distance 60.70 km</desc>
<time>2010-07-30T18:29:27.76</time>
<name>1873</name>
</trkpt>
<trkpt lat="49.466520" lon="8.857882">
<ele>282.5</ele>
<speed>93.3</speed>
<course>328.3</course>
<desc>Speed 93.3 km/h Distance 60.72 km</desc>
<time>2010-07-30T18:29:28.75</time>
<name>1874</name>
</trkpt>
<trkpt lat="49.466878" lon="8.857542">
<ele>282.0</ele>
<speed>90.6</speed>
<course>343.4</course>
<desc>Speed 90.6 km/h Distance 60.77 km</desc>
<time>2010-07-30T18:29:30.75</time>
<name>1875</name>
</trkpt>
<trkpt lat="49.467348" lon="8.857327">
<ele>281.5</ele>
<speed>100</speed>
<course>343.2</course>
<desc>Speed 100 km/h Distance 60.83 km</desc>
<time>2010-07-30T18:29:32.75</time>
<name>1876</name>
</trkpt>
<trkpt lat="49.467585" lon="8.857217">
<ele>281.5</ele>
<speed>101</speed>
<course>343.3</course>
<desc>Speed 101 km/h Distance 60.85 km</desc>
<time>2010-07-30T18:29:33.75</time>
<name>1877</name>
</trkpt>
<trkpt lat="49.467820" lon="8.857108">
<ele>281.5</ele>
<speed>98.3</speed>
<course>337.4</course>
<desc>Speed 98.3 km/h Distance 60.88 km</desc>
<time>2010-07-30T18:29:34.75</time>
<name>1878</name>
</trkpt>
<trkpt lat="49.468033" lon="8.856972">
<ele>281.5</ele>
<speed>92.6</speed>
<course>327.4</course>
<desc>Speed 92.6 km/h Distance 60.91 km</desc>
<time>2010-07-30T18:29:35.74</time>
<name>1879</name>
</trkpt>
<trkpt lat="49.468493" lon="8.856518">
<ele>281.5</ele>
<speed>77.2</speed>
<course>298.7</course>
<desc>Speed 77.2 km/h Distance 60.97 km</desc>
<time>2010-07-30T18:29:38.75</time>
<name>1880</name>
</trkpt>
<trkpt lat="49.468825" lon="8.855585">
<ele>281.0</ele>
<speed>91.3</speed>
<course>284.3</course>
<desc>Speed 91.3 km/h Distance 61.04 km</desc>
<time>2010-07-30T18:29:41.87</time>
<name>1881</name>
</trkpt>
<trkpt lat="49.468985" lon="8.854620">
<ele>278.5</ele>
<speed>76.9</speed>
<course>304.5</course>
<desc>Speed 76.9 km/h Distance 61.12 km</desc>
<time>2010-07-30T18:29:44.74</time>
<name>1882</name>
</trkpt>
<trkpt lat="49.469228" lon="8.854075">
<ele>277.0</ele>
<speed>80.9</speed>
<course>321.4</course>
<desc>Speed 80.9 km/h Distance 61.16 km</desc>
<time>2010-07-30T18:29:46.73</time>
<name>1883</name>
</trkpt>
<trkpt lat="49.469388" lon="8.853878">
<ele>276.5</ele>
<speed>81.3</speed>
<course>335.9</course>
<desc>Speed 81.3 km/h Distance 61.19 km</desc>
<time>2010-07-30T18:29:47.74</time>
<name>1884</name>
</trkpt>
<trkpt lat="49.469803" lon="8.853593">
<ele>276.0</ele>
<speed>84.8</speed>
<course>332.6</course>
<desc>Speed 84.8 km/h Distance 61.24 km</desc>
<time>2010-07-30T18:29:49.74</time>
<name>1885</name>
</trkpt>
<trkpt lat="49.469993" lon="8.853442">
<ele>275.5</ele>
<speed>85.2</speed>
<course>323.6</course>
<desc>Speed 85.2 km/h Distance 61.26 km</desc>
<time>2010-07-30T18:29:50.73</time>
<name>1886</name>
</trkpt>
<trkpt lat="49.470305" lon="8.853088">
<ele>275.0</ele>
<speed>86.3</speed>
<course>312.0</course>
<desc>Speed 86.3 km/h Distance 61.30 km</desc>
<time>2010-07-30T18:29:52.73</time>
<name>1887</name>
</trkpt>
<trkpt lat="49.470458" lon="8.852827">
<ele>274.5</ele>
<speed>89.7</speed>
<course>311.9</course>
<desc>Speed 89.7 km/h Distance 61.33 km</desc>
<time>2010-07-30T18:29:53.73</time>
<name>1888</name>
</trkpt>
<trkpt lat="49.470612" lon="8.852563">
<ele>274.5</ele>
<speed>90.4</speed>
<course>312.2</course>
<desc>Speed 90.4 km/h Distance 61.36 km</desc>
<time>2010-07-30T18:29:54.74</time>
<name>1889</name>
</trkpt>
<trkpt lat="49.470767" lon="8.852300">
<ele>274.5</ele>
<speed>90.3</speed>
<course>315.7</course>
<desc>Speed 90.3 km/h Distance 61.38 km</desc>
<time>2010-07-30T18:29:55.73</time>
<name>1890</name>
</trkpt>
<trkpt lat="49.470927" lon="8.852060">
<ele>274.0</ele>
<speed>89.9</speed>
<course>316.6</course>
<desc>Speed 89.9 km/h Distance 61.41 km</desc>
<time>2010-07-30T18:29:56.73</time>
<name>1891</name>
</trkpt>
<trkpt lat="49.471088" lon="8.851825">
<ele>273.0</ele>
<speed>88.8</speed>
<course>316.1</course>
<desc>Speed 88.8 km/h Distance 61.43 km</desc>
<time>2010-07-30T18:29:57.73</time>
<name>1892</name>
</trkpt>
<trkpt lat="49.471252" lon="8.851583">
<ele>273.5</ele>
<speed>87.7</speed>
<course>311.0</course>
<desc>Speed 87.7 km/h Distance 61.46 km</desc>
<time>2010-07-30T18:29:58.73</time>
<name>1893</name>
</trkpt>
<trkpt lat="49.471395" lon="8.851330">
<ele>274.0</ele>
<speed>86.2</speed>
<course>310.9</course>
<desc>Speed 86.2 km/h Distance 61.48 km</desc>
<time>2010-07-30T18:29:59.73</time>
<name>1894</name>
</trkpt>
<trkpt lat="49.471535" lon="8.851082">
<ele>274.0</ele>
<speed>84.5</speed>
<course>313.4</course>
<desc>Speed 84.5 km/h Distance 61.50 km</desc>
<time>2010-07-30T18:30:00.73</time>
<name>1895</name>
</trkpt>
<trkpt lat="49.471678" lon="8.850848">
<ele>273.5</ele>
<speed>83.7</speed>
<course>312.7</course>
<desc>Speed 83.7 km/h Distance 61.53 km</desc>
<time>2010-07-30T18:30:01.73</time>
<name>1896</name>
</trkpt>
<trkpt lat="49.471818" lon="8.850615">
<ele>273.0</ele>
<speed>82.8</speed>
<course>311.0</course>
<desc>Speed 82.8 km/h Distance 61.55 km</desc>
<time>2010-07-30T18:30:02.73</time>
<name>1897</name>
</trkpt>
<trkpt lat="49.471948" lon="8.850385">
<ele>273.0</ele>
<speed>79.1</speed>
<course>306.1</course>
<desc>Speed 79.1 km/h Distance 61.57 km</desc>
<time>2010-07-30T18:30:03.73</time>
<name>1898</name>
</trkpt>
<trkpt lat="49.472070" lon="8.850128">
<ele>271.0</ele>
<speed>82.2</speed>
<course>302.6</course>
<desc>Speed 82.2 km/h Distance 61.60 km</desc>
<time>2010-07-30T18:30:04.80</time>
<name>1899</name>
</trkpt>
<trkpt lat="49.472260" lon="8.849672">
<ele>270.0</ele>
<speed>69.9</speed>
<course>293.5</course>
<desc>Speed 69.9 km/h Distance 61.63 km</desc>
<time>2010-07-30T18:30:06.87</time>
<name>1900</name>
</trkpt>
<trkpt lat="49.472393" lon="8.849200">
<ele>269.0</ele>
<speed>70.3</speed>
<course>280.0</course>
<desc>Speed 70.3 km/h Distance 61.67 km</desc>
<time>2010-07-30T18:30:08.73</time>
<name>1901</name>
</trkpt>
<trkpt lat="49.472450" lon="8.848707">
<ele>268.5</ele>
<speed>78.4</speed>
<course>266.5</course>
<desc>Speed 78.4 km/h Distance 61.71 km</desc>
<time>2010-07-30T18:30:10.72</time>
<name>1902</name>
</trkpt>
<trkpt lat="49.472430" lon="8.848198">
<ele>265.5</ele>
<speed>65.1</speed>
<course>263.7</course>
<desc>Speed 65.1 km/h Distance 61.75 km</desc>
<time>2010-07-30T18:30:12.72</time>
<name>1903</name>
</trkpt>
<trkpt lat="49.472412" lon="8.847943">
<ele>265.0</ele>
<speed>66.1</speed>
<course>276.6</course>
<desc>Speed 66.1 km/h Distance 61.76 km</desc>
<time>2010-07-30T18:30:13.72</time>
<name>1904</name>
</trkpt>
<trkpt lat="49.472430" lon="8.847700">
<ele>264.0</ele>
<speed>63.0</speed>
<course>270.6</course>
<desc>Speed 63.0 km/h Distance 61.78 km</desc>
<time>2010-07-30T18:30:14.72</time>
<name>1905</name>
</trkpt>
<trkpt lat="49.472432" lon="8.847457">
<ele>262.5</ele>
<speed>59.8</speed>
<course>276.0</course>
<desc>Speed 59.8 km/h Distance 61.80 km</desc>
<time>2010-07-30T18:30:15.72</time>
<name>1906</name>
</trkpt>
<trkpt lat="49.472447" lon="8.847237">
<ele>262.0</ele>
<speed>56.5</speed>
<course>277.3</course>
<desc>Speed 56.5 km/h Distance 61.81 km</desc>
<time>2010-07-30T18:30:16.72</time>
<name>1907</name>
</trkpt>
<trkpt lat="49.472465" lon="8.847017">
<ele>259.5</ele>
<speed>56.7</speed>
<course>252.4</course>
<desc>Speed 56.7 km/h Distance 61.83 km</desc>
<time>2010-07-30T18:30:17.72</time>
<name>1908</name>
</trkpt>
<trkpt lat="49.472423" lon="8.846815">
<ele>259.5</ele>
<speed>53.4</speed>
<course>256.2</course>
<desc>Speed 53.4 km/h Distance 61.85 km</desc>
<time>2010-07-30T18:30:18.71</time>
<name>1909</name>
</trkpt>
<trkpt lat="49.472390" lon="8.846607">
<ele>259.0</ele>
<speed>53.9</speed>
<course>252.4</course>
<desc>Speed 53.9 km/h Distance 61.86 km</desc>
<time>2010-07-30T18:30:19.72</time>
<name>1910</name>
</trkpt>
<trkpt lat="49.472293" lon="8.846138">
<ele>258.0</ele>
<speed>65.6</speed>
<course>262.7</course>
<desc>Speed 65.6 km/h Distance 61.90 km</desc>
<time>2010-07-30T18:30:21.72</time>
<name>1911</name>
</trkpt>
<trkpt lat="49.472272" lon="8.845878">
<ele>259.0</ele>
<speed>68.8</speed>
<course>276.5</course>
<desc>Speed 68.8 km/h Distance 61.92 km</desc>
<time>2010-07-30T18:30:22.71</time>
<name>1912</name>
</trkpt>
<trkpt lat="49.472290" lon="8.845630">
<ele>255.0</ele>
<speed>66.7</speed>
<course>282.4</course>
<desc>Speed 66.7 km/h Distance 61.93 km</desc>
<time>2010-07-30T18:30:23.72</time>
<name>1913</name>
</trkpt>
<trkpt lat="49.472328" lon="8.845362">
<ele>253.5</ele>
<speed>71.8</speed>
<course>288.0</course>
<desc>Speed 71.8 km/h Distance 61.95 km</desc>
<time>2010-07-30T18:30:24.72</time>
<name>1914</name>
</trkpt>
<trkpt lat="49.472388" lon="8.845077">
<ele>252.5</ele>
<speed>77.7</speed>
<course>286.2</course>
<desc>Speed 77.7 km/h Distance 61.98 km</desc>
<time>2010-07-30T18:30:25.73</time>
<name>1915</name>
</trkpt>
<trkpt lat="49.472443" lon="8.844785">
<ele>252.0</ele>
<speed>79.1</speed>
<course>286.4</course>
<desc>Speed 79.1 km/h Distance 62.00 km</desc>
<time>2010-07-30T18:30:26.72</time>
<name>1916</name>
</trkpt>
<trkpt lat="49.472502" lon="8.844480">
<ele>252.0</ele>
<speed>84.0</speed>
<course>291.5</course>
<desc>Speed 84.0 km/h Distance 62.02 km</desc>
<time>2010-07-30T18:30:27.80</time>
<name>1917</name>
</trkpt>
<trkpt lat="49.472660" lon="8.843862">
<ele>252.0</ele>
<speed>90.1</speed>
<course>284.6</course>
<desc>Speed 90.1 km/h Distance 62.07 km</desc>
<time>2010-07-30T18:30:29.86</time>
<name>1918</name>
</trkpt>
<trkpt lat="49.472778" lon="8.843162">
<ele>251.0</ele>
<speed>93.1</speed>
<course>287.5</course>
<desc>Speed 93.1 km/h Distance 62.12 km</desc>
<time>2010-07-30T18:30:31.70</time>
<name>1919</name>
</trkpt>
<trkpt lat="49.472850" lon="8.842812">
<ele>250.5</ele>
<speed>93.2</speed>
<course>299.3</course>
<desc>Speed 93.2 km/h Distance 62.15 km</desc>
<time>2010-07-30T18:30:32.71</time>
<name>1920</name>
</trkpt>
<trkpt lat="49.473245" lon="8.841727">
<ele>250.0</ele>
<speed>114</speed>
<course>307.0</course>
<desc>Speed 114 km/h Distance 62.24 km</desc>
<time>2010-07-30T18:30:35.71</time>
<name>1921</name>
</trkpt>
<trkpt lat="49.473827" lon="8.840538">
<ele>248.5</ele>
<speed>130</speed>
<course>306.5</course>
<desc>Speed 130 km/h Distance 62.35 km</desc>
<time>2010-07-30T18:30:38.71</time>
<name>1922</name>
</trkpt>
<trkpt lat="49.474338" lon="8.839475">
<ele>244.5</ele>
<speed>112</speed>
<course>303.7</course>
<desc>Speed 112 km/h Distance 62.44 km</desc>
<time>2010-07-30T18:30:41.70</time>
<name>1923</name>
</trkpt>
<trkpt lat="49.474493" lon="8.839117">
<ele>243.5</ele>
<speed>113</speed>
<course>297.5</course>
<desc>Speed 113 km/h Distance 62.47 km</desc>
<time>2010-07-30T18:30:42.69</time>
<name>1924</name>
</trkpt>
<trkpt lat="49.474625" lon="8.838727">
<ele>243.0</ele>
<speed>115</speed>
<course>286.3</course>
<desc>Speed 115 km/h Distance 62.50 km</desc>
<time>2010-07-30T18:30:43.70</time>
<name>1925</name>
</trkpt>
<trkpt lat="49.474772" lon="8.837953">
<ele>243.0</ele>
<speed>107</speed>
<course>271.4</course>
<desc>Speed 107 km/h Distance 62.56 km</desc>
<time>2010-07-30T18:30:45.70</time>
<name>1926</name>
</trkpt>
<trkpt lat="49.474778" lon="8.837528">
<ele>243.0</ele>
<speed>111</speed>
<course>268.6</course>
<desc>Speed 111 km/h Distance 62.59 km</desc>
<time>2010-07-30T18:30:46.70</time>
<name>1927</name>
</trkpt>
<trkpt lat="49.474772" lon="8.837100">
<ele>243.0</ele>
<speed>112</speed>
<course>266.0</course>
<desc>Speed 112 km/h Distance 62.62 km</desc>
<time>2010-07-30T18:30:47.70</time>
<name>1928</name>
</trkpt>
<trkpt lat="49.474752" lon="8.836657">
<ele>244.0</ele>
<speed>116</speed>
<course>266.0</course>
<desc>Speed 116 km/h Distance 62.66 km</desc>
<time>2010-07-30T18:30:48.70</time>
<name>1929</name>
</trkpt>
<trkpt lat="49.474732" lon="8.836212">
<ele>244.5</ele>
<speed>116</speed>
<course>272.6</course>
<desc>Speed 116 km/h Distance 62.69 km</desc>
<time>2010-07-30T18:30:49.70</time>
<name>1930</name>
</trkpt>
<trkpt lat="49.474767" lon="8.835020">
<ele>247.5</ele>
<speed>100</speed>
<course>282.0</course>
<desc>Speed 100 km/h Distance 62.77 km</desc>
<time>2010-07-30T18:30:52.85</time>
<name>1931</name>
</trkpt>
<trkpt lat="49.474862" lon="8.834333">
<ele>249.5</ele>
<speed>90.5</speed>
<course>295.2</course>
<desc>Speed 90.5 km/h Distance 62.83 km</desc>
<time>2010-07-30T18:30:54.68</time>
<name>1932</name>
</trkpt>
<trkpt lat="49.474952" lon="8.834038">
<ele>249.0</ele>
<speed>84.7</speed>
<course>301.8</course>
<desc>Speed 84.7 km/h Distance 62.85 km</desc>
<time>2010-07-30T18:30:55.69</time>
<name>1933</name>
</trkpt>
<trkpt lat="49.475067" lon="8.833753">
<ele>250.5</ele>
<speed>86.9</speed>
<course>314.4</course>
<desc>Speed 86.9 km/h Distance 62.87 km</desc>
<time>2010-07-30T18:30:56.69</time>
<name>1934</name>
</trkpt>
<trkpt lat="49.475407" lon="8.833218">
<ele>249.5</ele>
<speed>101</speed>
<course>317.8</course>
<desc>Speed 101 km/h Distance 62.93 km</desc>
<time>2010-07-30T18:30:58.68</time>
<name>1935</name>
</trkpt>
<trkpt lat="49.475597" lon="8.832953">
<ele>249.5</ele>
<speed>103</speed>
<course>316.7</course>
<desc>Speed 103 km/h Distance 62.96 km</desc>
<time>2010-07-30T18:30:59.68</time>
<name>1936</name>
</trkpt>
<trkpt lat="49.475790" lon="8.832673">
<ele>250.0</ele>
<speed>107</speed>
<course>311.8</course>
<desc>Speed 107 km/h Distance 62.99 km</desc>
<time>2010-07-30T18:31:00.69</time>
<name>1937</name>
</trkpt>
<trkpt lat="49.475970" lon="8.832363">
<ele>250.5</ele>
<speed>108</speed>
<course>303.1</course>
<desc>Speed 108 km/h Distance 63.02 km</desc>
<time>2010-07-30T18:31:01.68</time>
<name>1938</name>
</trkpt>
<trkpt lat="49.476245" lon="8.831715">
<ele>249.5</ele>
<speed>100</speed>
<course>304.8</course>
<desc>Speed 100 km/h Distance 63.07 km</desc>
<time>2010-07-30T18:31:03.68</time>
<name>1939</name>
</trkpt>
<trkpt lat="49.476378" lon="8.831420">
<ele>248.5</ele>
<speed>94.5</speed>
<course>318.9</course>
<desc>Speed 94.5 km/h Distance 63.10 km</desc>
<time>2010-07-30T18:31:04.68</time>
<name>1940</name>
</trkpt>
<trkpt lat="49.476723" lon="8.830957">
<ele>249.5</ele>
<speed>96.6</speed>
<course>329.9</course>
<desc>Speed 96.6 km/h Distance 63.15 km</desc>
<time>2010-07-30T18:31:06.67</time>
<name>1941</name>
</trkpt>
<trkpt lat="49.476937" lon="8.830767">
<ele>249.0</ele>
<speed>98.5</speed>
<course>336.3</course>
<desc>Speed 98.5 km/h Distance 63.18 km</desc>
<time>2010-07-30T18:31:07.68</time>
<name>1942</name>
</trkpt>
<trkpt lat="49.477430" lon="8.830433">
<ele>249.0</ele>
<speed>110</speed>
<course>336.6</course>
<desc>Speed 110 km/h Distance 63.24 km</desc>
<time>2010-07-30T18:31:09.68</time>
<name>1943</name>
</trkpt>
<trkpt lat="49.477688" lon="8.830262">
<ele>249.5</ele>
<speed>113</speed>
<course>336.3</course>
<desc>Speed 113 km/h Distance 63.27 km</desc>
<time>2010-07-30T18:31:10.67</time>
<name>1944</name>
</trkpt>
<trkpt lat="49.477940" lon="8.830092">
<ele>250.0</ele>
<speed>110</speed>
<course>335.0</course>
<desc>Speed 110 km/h Distance 63.30 km</desc>
<time>2010-07-30T18:31:11.69</time>
<name>1945</name>
</trkpt>
<trkpt lat="49.478175" lon="8.829923">
<ele>250.0</ele>
<speed>104</speed>
<course>334.6</course>
<desc>Speed 104 km/h Distance 63.33 km</desc>
<time>2010-07-30T18:31:12.66</time>
<name>1946</name>
</trkpt>
<trkpt lat="49.478600" lon="8.829613">
<ele>250.0</ele>
<speed>91.0</speed>
<course>332.2</course>
<desc>Speed 91.0 km/h Distance 63.38 km</desc>
<time>2010-07-30T18:31:14.66</time>
<name>1947</name>
</trkpt>
<trkpt lat="49.478960" lon="8.829322">
<ele>251.5</ele>
<speed>76.9</speed>
<course>326.2</course>
<desc>Speed 76.9 km/h Distance 63.42 km</desc>
<time>2010-07-30T18:31:16.66</time>
<name>1948</name>
</trkpt>
<trkpt lat="49.479220" lon="8.829053">
<ele>249.5</ele>
<speed>69.4</speed>
<course>316.1</course>
<desc>Speed 69.4 km/h Distance 63.46 km</desc>
<time>2010-07-30T18:31:18.67</time>
<name>1949</name>
</trkpt>
<trkpt lat="49.479592" lon="8.828503">
<ele>254.0</ele>
<speed>37.9</speed>
<course>301.6</course>
<desc>Speed 37.9 km/h Distance 63.52 km</desc>
<time>2010-07-30T18:31:23.66</time>
<name>1950</name>
</trkpt>
<trkpt lat="49.479642" lon="8.828378">
<ele>254.5</ele>
<speed>38.6</speed>
<course>297.8</course>
<desc>Speed 38.6 km/h Distance 63.53 km</desc>
<time>2010-07-30T18:31:24.67</time>
<name>1951</name>
</trkpt>
<trkpt lat="49.479753" lon="8.828052">
<ele>255.0</ele>
<speed>49.8</speed>
<course>291.6</course>
<desc>Speed 49.8 km/h Distance 63.55 km</desc>
<time>2010-07-30T18:31:26.67</time>
<name>1952</name>
</trkpt>
<trkpt lat="49.479798" lon="8.827877">
<ele>256.0</ele>
<speed>49.5</speed>
<course>285.4</course>
<desc>Speed 49.5 km/h Distance 63.57 km</desc>
<time>2010-07-30T18:31:27.66</time>
<name>1953</name>
</trkpt>
<trkpt lat="49.479830" lon="8.827700">
<ele>255.0</ele>
<speed>47.8</speed>
<course>288.2</course>
<desc>Speed 47.8 km/h Distance 63.58 km</desc>
<time>2010-07-30T18:31:28.65</time>
<name>1954</name>
</trkpt>
<trkpt lat="49.479867" lon="8.827528">
<ele>255.5</ele>
<speed>47.3</speed>
<course>296.0</course>
<desc>Speed 47.3 km/h Distance 63.59 km</desc>
<time>2010-07-30T18:31:29.65</time>
<name>1955</name>
</trkpt>
<trkpt lat="49.479918" lon="8.827365">
<ele>258.0</ele>
<speed>47.9</speed>
<course>306.4</course>
<desc>Speed 47.9 km/h Distance 63.61 km</desc>
<time>2010-07-30T18:31:30.65</time>
<name>1956</name>
</trkpt>
<trkpt lat="49.479992" lon="8.827212">
<ele>258.0</ele>
<speed>49.5</speed>
<course>318.3</course>
<desc>Speed 49.5 km/h Distance 63.62 km</desc>
<time>2010-07-30T18:31:31.66</time>
<name>1957</name>
</trkpt>
<trkpt lat="49.480153" lon="8.826990">
<ele>258.5</ele>
<speed>48.2</speed>
<course>344.6</course>
<desc>Speed 48.2 km/h Distance 63.64 km</desc>
<time>2010-07-30T18:31:33.66</time>
<name>1958</name>
</trkpt>
<trkpt lat="49.480287" lon="8.826933">
<ele>259.0</ele>
<speed>53.0</speed>
<course>348.3</course>
<desc>Speed 53.0 km/h Distance 63.66 km</desc>
<time>2010-07-30T18:31:34.66</time>
<name>1959</name>
</trkpt>
<trkpt lat="49.480480" lon="8.826872">
<ele>259.5</ele>
<speed>53.0</speed>
<course>19.6</course>
<desc>Speed 53.0 km/h Distance 63.68 km</desc>
<time>2010-07-30T18:31:36.66</time>
<name>1960</name>
</trkpt>
<trkpt lat="49.480768" lon="8.827030">
<ele>262.0</ele>
<speed>38.7</speed>
<course>52.7</course>
<desc>Speed 38.7 km/h Distance 63.72 km</desc>
<time>2010-07-30T18:31:40.64</time>
<name>1961</name>
</trkpt>
<trkpt lat="49.480913" lon="8.827323">
<ele>264.0</ele>
<speed>35.1</speed>
<course>30.6</course>
<desc>Speed 35.1 km/h Distance 63.74 km</desc>
<time>2010-07-30T18:31:42.65</time>
<name>1962</name>
</trkpt>
<trkpt lat="49.481102" lon="8.827495">
<ele>261.0</ele>
<speed>37.7</speed>
<course>19.7</course>
<desc>Speed 37.7 km/h Distance 63.77 km</desc>
<time>2010-07-30T18:31:44.65</time>
<name>1963</name>
</trkpt>
<trkpt lat="49.481183" lon="8.827540">
<ele>260.5</ele>
<speed>33.3</speed>
<course>25.5</course>
<desc>Speed 33.3 km/h Distance 63.78 km</desc>
<time>2010-07-30T18:31:45.65</time>
<name>1964</name>
</trkpt>
<trkpt lat="49.481265" lon="8.827600">
<ele>260.5</ele>
<speed>34.3</speed>
<course>22.2</course>
<desc>Speed 34.3 km/h Distance 63.79 km</desc>
<time>2010-07-30T18:31:46.64</time>
<name>1965</name>
</trkpt>
<trkpt lat="49.481350" lon="8.827653">
<ele>261.0</ele>
<speed>36.7</speed>
<course>22.5</course>
<desc>Speed 36.7 km/h Distance 63.80 km</desc>
<time>2010-07-30T18:31:47.64</time>
<name>1966</name>
</trkpt>
<trkpt lat="49.481442" lon="8.827712">
<ele>261.5</ele>
<speed>38.8</speed>
<course>23.4</course>
<desc>Speed 38.8 km/h Distance 63.81 km</desc>
<time>2010-07-30T18:31:48.64</time>
<name>1967</name>
</trkpt>
<trkpt lat="49.481542" lon="8.827778">
<ele>260.0</ele>
<speed>38.9</speed>
<course>3.6</course>
<desc>Speed 38.9 km/h Distance 63.82 km</desc>
<time>2010-07-30T18:31:49.66</time>
<name>1968</name>
</trkpt>
<trkpt lat="49.481768" lon="8.827800">
<ele>257.5</ele>
<speed>42.1</speed>
<course>335.9</course>
<desc>Speed 42.1 km/h Distance 63.85 km</desc>
<time>2010-07-30T18:31:51.67</time>
<name>1969</name>
</trkpt>
<trkpt lat="49.481865" lon="8.827733">
<ele>256.0</ele>
<speed>42.2</speed>
<course>324.2</course>
<desc>Speed 42.2 km/h Distance 63.86 km</desc>
<time>2010-07-30T18:31:52.67</time>
<name>1970</name>
</trkpt>
<trkpt lat="49.482017" lon="8.827565">
<ele>253.0</ele>
<speed>37.9</speed>
<course>326.4</course>
<desc>Speed 37.9 km/h Distance 63.88 km</desc>
<time>2010-07-30T18:31:54.64</time>
<name>1971</name>
</trkpt>
<trkpt lat="49.482092" lon="8.827488">
<ele>253.0</ele>
<speed>36.1</speed>
<course>351.6</course>
<desc>Speed 36.1 km/h Distance 63.89 km</desc>
<time>2010-07-30T18:31:55.64</time>
<name>1972</name>
</trkpt>
<trkpt lat="49.482165" lon="8.827472">
<ele>251.0</ele>
<speed>32.7</speed>
<course>350.2</course>
<desc>Speed 32.7 km/h Distance 63.90 km</desc>
<time>2010-07-30T18:31:56.63</time>
<name>1973</name>
</trkpt>
<trkpt lat="49.482247" lon="8.827450">
<ele>250.5</ele>
<speed>33.4</speed>
<course>12.1</course>
<desc>Speed 33.4 km/h Distance 63.91 km</desc>
<time>2010-07-30T18:31:57.64</time>
<name>1974</name>
</trkpt>
<trkpt lat="49.482448" lon="8.827517">
<ele>250.0</ele>
<speed>41.6</speed>
<course>29.9</course>
<desc>Speed 41.6 km/h Distance 63.93 km</desc>
<time>2010-07-30T18:31:59.63</time>
<name>1975</name>
</trkpt>
<trkpt lat="49.482537" lon="8.827595">
<ele>249.5</ele>
<speed>39.5</speed>
<course>45.9</course>
<desc>Speed 39.5 km/h Distance 63.94 km</desc>
<time>2010-07-30T18:32:00.63</time>
<name>1976</name>
</trkpt>
<trkpt lat="49.482602" lon="8.827698">
<ele>250.0</ele>
<speed>36.4</speed>
<course>58.9</course>
<desc>Speed 36.4 km/h Distance 63.95 km</desc>
<time>2010-07-30T18:32:01.63</time>
<name>1977</name>
</trkpt>
<trkpt lat="49.482650" lon="8.827822">
<ele>250.5</ele>
<speed>36.0</speed>
<course>58.8</course>
<desc>Speed 36.0 km/h Distance 63.96 km</desc>
<time>2010-07-30T18:32:02.64</time>
<name>1978</name>
</trkpt>
<trkpt lat="49.482705" lon="8.827962">
<ele>251.0</ele>
<speed>40.7</speed>
<course>58.4</course>
<desc>Speed 40.7 km/h Distance 63.97 km</desc>
<time>2010-07-30T18:32:03.63</time>
<name>1979</name>
</trkpt>
<trkpt lat="49.482762" lon="8.828103">
<ele>251.0</ele>
<speed>42.0</speed>
<course>52.4</course>
<desc>Speed 42.0 km/h Distance 63.98 km</desc>
<time>2010-07-30T18:32:04.63</time>
<name>1980</name>
</trkpt>
<trkpt lat="49.482832" lon="8.828243">
<ele>251.5</ele>
<speed>43.9</speed>
<course>51.0</course>
<desc>Speed 43.9 km/h Distance 64.00 km</desc>
<time>2010-07-30T18:32:05.63</time>
<name>1981</name>
</trkpt>
<trkpt lat="49.482900" lon="8.828373">
<ele>252.0</ele>
<speed>41.1</speed>
<course>46.6</course>
<desc>Speed 41.1 km/h Distance 64.01 km</desc>
<time>2010-07-30T18:32:06.62</time>
<name>1982</name>
</trkpt>
<trkpt lat="49.482980" lon="8.828503">
<ele>252.5</ele>
<speed>43.2</speed>
<course>38.0</course>
<desc>Speed 43.2 km/h Distance 64.02 km</desc>
<time>2010-07-30T18:32:07.62</time>
<name>1983</name>
</trkpt>
<trkpt lat="49.483070" lon="8.828612">
<ele>252.0</ele>
<speed>44.7</speed>
<course>27.6</course>
<desc>Speed 44.7 km/h Distance 64.04 km</desc>
<time>2010-07-30T18:32:08.61</time>
<name>1984</name>
</trkpt>
<trkpt lat="49.483317" lon="8.828810">
<ele>252.5</ele>
<speed>56.8</speed>
<course>20.2</course>
<desc>Speed 56.8 km/h Distance 64.07 km</desc>
<time>2010-07-30T18:32:10.62</time>
<name>1985</name>
</trkpt>
<trkpt lat="49.483458" lon="8.828890">
<ele>252.5</ele>
<speed>59.4</speed>
<course>15.9</course>
<desc>Speed 59.4 km/h Distance 64.08 km</desc>
<time>2010-07-30T18:32:11.62</time>
<name>1986</name>
</trkpt>
<trkpt lat="49.483610" lon="8.828957">
<ele>252.5</ele>
<speed>62.1</speed>
<course>4.7</course>
<desc>Speed 62.1 km/h Distance 64.10 km</desc>
<time>2010-07-30T18:32:12.68</time>
<name>1987</name>
</trkpt>
<trkpt lat="49.483982" lon="8.829003">
<ele>251.5</ele>
<speed>73.9</speed>
<course>355.8</course>
<desc>Speed 73.9 km/h Distance 64.14 km</desc>
<time>2010-07-30T18:32:14.77</time>
<name>1988</name>
</trkpt>
<trkpt lat="49.485617" lon="8.828818">
<ele>252.5</ele>
<speed>122</speed>
<course>345.4</course>
<desc>Speed 122 km/h Distance 64.32 km</desc>
<time>2010-07-30T18:32:20.61</time>
<name>1989</name>
</trkpt>
<trkpt lat="49.486232" lon="8.828572">
<ele>253.0</ele>
<speed>123</speed>
<course>341.7</course>
<desc>Speed 123 km/h Distance 64.40 km</desc>
<time>2010-07-30T18:32:22.61</time>
<name>1990</name>
</trkpt>
<trkpt lat="49.486523" lon="8.828423">
<ele>252.0</ele>
<speed>123</speed>
<course>349.4</course>
<desc>Speed 123 km/h Distance 64.43 km</desc>
<time>2010-07-30T18:32:23.62</time>
<name>1991</name>
</trkpt>
<trkpt lat="49.486813" lon="8.828340">
<ele>252.0</ele>
<speed>118</speed>
<course>357.1</course>
<desc>Speed 118 km/h Distance 64.46 km</desc>
<time>2010-07-30T18:32:24.61</time>
<name>1992</name>
</trkpt>
<trkpt lat="49.487707" lon="8.828270">
<ele>252.0</ele>
<speed>122</speed>
<course>6.7</course>
<desc>Speed 122 km/h Distance 64.56 km</desc>
<time>2010-07-30T18:32:28.63</time>
<name>1993</name>
</trkpt>
<trkpt lat="49.488000" lon="8.828323">
<ele>252.0</ele>
<speed>117</speed>
<course>12.2</course>
<desc>Speed 117 km/h Distance 64.60 km</desc>
<time>2010-07-30T18:32:29.63</time>
<name>1994</name>
</trkpt>
<trkpt lat="49.488300" lon="8.828423">
<ele>252.0</ele>
<speed>121</speed>
<course>22.4</course>
<desc>Speed 121 km/h Distance 64.63 km</desc>
<time>2010-07-30T18:32:30.62</time>
<name>1995</name>
</trkpt>
<trkpt lat="49.488818" lon="8.828752">
<ele>252.0</ele>
<speed>120</speed>
<course>28.3</course>
<desc>Speed 120 km/h Distance 64.69 km</desc>
<time>2010-07-30T18:32:32.62</time>
<name>1996</name>
</trkpt>
<trkpt lat="49.489073" lon="8.828963">
<ele>251.5</ele>
<speed>116</speed>
<course>35.6</course>
<desc>Speed 116 km/h Distance 64.72 km</desc>
<time>2010-07-30T18:32:33.61</time>
<name>1997</name>
</trkpt>
<trkpt lat="49.489520" lon="8.829455">
<ele>250.5</ele>
<speed>123</speed>
<course>47.6</course>
<desc>Speed 123 km/h Distance 64.79 km</desc>
<time>2010-07-30T18:32:35.62</time>
<name>1998</name>
</trkpt>
<trkpt lat="49.489920" lon="8.830128">
<ele>249.5</ele>
<speed>128</speed>
<course>49.9</course>
<desc>Speed 128 km/h Distance 64.85 km</desc>
<time>2010-07-30T18:32:37.62</time>
<name>1999</name>
</trkpt>
<trkpt lat="49.490350" lon="8.830915">
<ele>250.0</ele>
<speed>131</speed>
<course>49.7</course>
<desc>Speed 131 km/h Distance 64.93 km</desc>
<time>2010-07-30T18:32:39.60</time>
<name>2000</name>
</trkpt>
<trkpt lat="49.490558" lon="8.831293">
<ele>250.0</ele>
<speed>127</speed>
<course>49.5</course>
<desc>Speed 127 km/h Distance 64.96 km</desc>
<time>2010-07-30T18:32:40.60</time>
<name>2001</name>
</trkpt>
<trkpt lat="49.490758" lon="8.831653">
<ele>250.5</ele>
<speed>121</speed>
<course>52.1</course>
<desc>Speed 121 km/h Distance 65.00 km</desc>
<time>2010-07-30T18:32:41.61</time>
<name>2002</name>
</trkpt>
<trkpt lat="49.491110" lon="8.832348">
<ele>251.5</ele>
<speed>111</speed>
<course>58.6</course>
<desc>Speed 111 km/h Distance 65.06 km</desc>
<time>2010-07-30T18:32:43.67</time>
<name>2003</name>
</trkpt>
<trkpt lat="49.491250" lon="8.832702">
<ele>251.5</ele>
<speed>106</speed>
<course>64.9</course>
<desc>Speed 106 km/h Distance 65.09 km</desc>
<time>2010-07-30T18:32:44.60</time>
<name>2004</name>
</trkpt>
<trkpt lat="49.491460" lon="8.833393">
<ele>252.0</ele>
<speed>96.2</speed>
<course>58.4</course>
<desc>Speed 96.2 km/h Distance 65.14 km</desc>
<time>2010-07-30T18:32:46.61</time>
<name>2005</name>
</trkpt>
<trkpt lat="49.492018" lon="8.834792">
<ele>252.5</ele>
<speed>54.2</speed>
<course>41.8</course>
<desc>Speed 54.2 km/h Distance 65.26 km</desc>
<time>2010-07-30T18:32:53.60</time>
<name>2006</name>
</trkpt>
<trkpt lat="49.492393" lon="8.835308">
<ele>253.0</ele>
<speed>74.9</speed>
<course>19.7</course>
<desc>Speed 74.9 km/h Distance 65.32 km</desc>
<time>2010-07-30T18:32:56.77</time>
<name>2007</name>
</trkpt>
<trkpt lat="49.492738" lon="8.835498">
<ele>253.5</ele>
<speed>80.4</speed>
<course>21.1</course>
<desc>Speed 80.4 km/h Distance 65.36 km</desc>
<time>2010-07-30T18:32:58.59</time>
<name>2008</name>
</trkpt>
<trkpt lat="49.492932" lon="8.835613">
<ele>254.0</ele>
<speed>85.9</speed>
<course>24.3</course>
<desc>Speed 85.9 km/h Distance 65.38 km</desc>
<time>2010-07-30T18:32:59.59</time>
<name>2009</name>
</trkpt>
<trkpt lat="49.493635" lon="8.836102">
<ele>255.0</ele>
<speed>99.3</speed>
<course>23.4</course>
<desc>Speed 99.3 km/h Distance 65.47 km</desc>
<time>2010-07-30T18:33:02.58</time>
<name>2010</name>
</trkpt>
<trkpt lat="49.494133" lon="8.836433">
<ele>255.0</ele>
<speed>103</speed>
<course>22.4</course>
<desc>Speed 103 km/h Distance 65.53 km</desc>
<time>2010-07-30T18:33:04.58</time>
<name>2011</name>
</trkpt>
<trkpt lat="49.494383" lon="8.836592">
<ele>255.5</ele>
<speed>103</speed>
<course>24.1</course>
<desc>Speed 103 km/h Distance 65.56 km</desc>
<time>2010-07-30T18:33:05.58</time>
<name>2012</name>
</trkpt>
<trkpt lat="49.494618" lon="8.836753">
<ele>255.5</ele>
<speed>99.4</speed>
<course>23.9</course>
<desc>Speed 99.4 km/h Distance 65.59 km</desc>
<time>2010-07-30T18:33:06.58</time>
<name>2013</name>
</trkpt>
<trkpt lat="49.494848" lon="8.836910">
<ele>255.5</ele>
<speed>97.1</speed>
<course>16.9</course>
<desc>Speed 97.1 km/h Distance 65.62 km</desc>
<time>2010-07-30T18:33:07.58</time>
<name>2014</name>
</trkpt>
<trkpt lat="49.495083" lon="8.837020">
<ele>256.0</ele>
<speed>100</speed>
<course>21.9</course>
<desc>Speed 100 km/h Distance 65.64 km</desc>
<time>2010-07-30T18:33:08.57</time>
<name>2015</name>
</trkpt>
<trkpt lat="49.495940" lon="8.837550">
<ele>257.0</ele>
<speed>79.1</speed>
<course>6.4</course>
<desc>Speed 79.1 km/h Distance 65.75 km</desc>
<time>2010-07-30T18:33:13.57</time>
<name>2016</name>
</trkpt>
<trkpt lat="49.496367" lon="8.837623">
<ele>257.0</ele>
<speed>88.6</speed>
<course>9.5</course>
<desc>Speed 88.6 km/h Distance 65.79 km</desc>
<time>2010-07-30T18:33:15.61</time>
<name>2017</name>
</trkpt>
<trkpt lat="49.496755" lon="8.837723">
<ele>257.5</ele>
<speed>81.6</speed>
<course>12.4</course>
<desc>Speed 81.6 km/h Distance 65.84 km</desc>
<time>2010-07-30T18:33:17.68</time>
<name>2018</name>
</trkpt>
<trkpt lat="49.497298" lon="8.837907">
<ele>258.0</ele>
<speed>76.5</speed>
<course>342.0</course>
<desc>Speed 76.5 km/h Distance 65.90 km</desc>
<time>2010-07-30T18:33:21.57</time>
<name>2019</name>
</trkpt>
<trkpt lat="49.497783" lon="8.837663">
<ele>258.5</ele>
<speed>19.4</speed>
<course>185.0</course>
<desc>Speed 19.4 km/h Distance 65.96 km</desc>
<time>2010-07-30T18:33:27.57</time>
<name>2020</name>
</trkpt>
<trkpt lat="49.497708" lon="8.837653">
<ele>259.0</ele>
<speed>19.7</speed>
<course>194.3</course>
<desc>Speed 19.7 km/h Distance 65.96 km</desc>
<time>2010-07-30T18:33:29.56</time>
<name>2021</name>
</trkpt>
<trkpt lat="49.497670" lon="8.837638">
<ele>259.5</ele>
<speed>19.7</speed>
<course>177.5</course>
<desc>Speed 19.7 km/h Distance 65.97 km</desc>
<time>2010-07-30T18:33:30.55</time>
<name>2022</name>
</trkpt>
<trkpt lat="49.497302" lon="8.837663">
<ele>260.0</ele>
<speed>46.0</speed>
<course>204.7</course>
<desc>Speed 46.0 km/h Distance 66.01 km</desc>
<time>2010-07-30T18:33:34.55</time>
<name>2023</name>
</trkpt>
<trkpt lat="49.497080" lon="8.837507">
<ele>259.5</ele>
<speed>46.0</speed>
<course>211.8</course>
<desc>Speed 46.0 km/h Distance 66.04 km</desc>
<time>2010-07-30T18:33:37.56</time>
<name>2024</name>
</trkpt>
<trkpt lat="49.496970" lon="8.837402">
<ele>258.5</ele>
<speed>46.0</speed>
<course>234.6</course>
<desc>Speed 46.0 km/h Distance 66.05 km</desc>
<time>2010-07-30T18:33:38.61</time>
<name>2025</name>
</trkpt>
<trkpt lat="49.496862" lon="8.837167">
<ele>258.0</ele>
<speed>46.0</speed>
<course>250.4</course>
<desc>Speed 46.0 km/h Distance 66.07 km</desc>
<time>2010-07-30T18:33:40.67</time>
<name>2026</name>
</trkpt>
<trkpt lat="49.496335" lon="8.834888">
<ele>260.0</ele>
<speed>86.8</speed>
<course>254.9</course>
<desc>Speed 86.8 km/h Distance 66.25 km</desc>
<time>2010-07-30T18:33:46.55</time>
<name>2027</name>
</trkpt>
<trkpt lat="49.496205" lon="8.834148">
<ele>260.5</ele>
<speed>89.5</speed>
<course>255.8</course>
<desc>Speed 89.5 km/h Distance 66.30 km</desc>
<time>2010-07-30T18:33:48.54</time>
<name>2028</name>
</trkpt>
<trkpt lat="49.496112" lon="8.833580">
<ele>260.0</ele>
<speed>89.5</speed>
<course>264.6</course>
<desc>Speed 89.5 km/h Distance 66.35 km</desc>
<time>2010-07-30T18:33:50.54</time>
<name>2029</name>
</trkpt>
<trkpt lat="49.496038" lon="8.832378">
<ele>260.5</ele>
<speed>98.3</speed>
<course>266.2</course>
<desc>Speed 98.3 km/h Distance 66.43 km</desc>
<time>2010-07-30T18:33:54.53</time>
<name>2030</name>
</trkpt>
<trkpt lat="49.495988" lon="8.831232">
<ele>260.5</ele>
<speed>112</speed>
<course>268.7</course>
<desc>Speed 112 km/h Distance 66.52 km</desc>
<time>2010-07-30T18:33:57.53</time>
<name>2031</name>
</trkpt>
<trkpt lat="49.495962" lon="8.829453">
<ele>261.5</ele>
<speed>75.8</speed>
<course>265.1</course>
<desc>Speed 75.8 km/h Distance 66.64 km</desc>
<time>2010-07-30T18:34:02.53</time>
<name>2032</name>
</trkpt>
<trkpt lat="49.495932" lon="8.828918">
<ele>261.5</ele>
<speed>75.8</speed>
<course>243.6</course>
<desc>Speed 75.8 km/h Distance 66.68 km</desc>
<time>2010-07-30T18:34:04.52</time>
<name>2033</name>
</trkpt>
<trkpt lat="49.495742" lon="8.828330">
<ele>261.5</ele>
<speed>31.6</speed>
<course>197.0</course>
<desc>Speed 31.6 km/h Distance 66.73 km</desc>
<time>2010-07-30T18:34:09.53</time>
<name>2034</name>
</trkpt>
<trkpt lat="49.494520" lon="8.827757">
<ele>261.5</ele>
<speed>64.9</speed>
<course>230.0</course>
<desc>Speed 64.9 km/h Distance 66.87 km</desc>
<time>2010-07-30T18:34:15.51</time>
<name>2035</name>
</trkpt>
<trkpt lat="49.494117" lon="8.827017">
<ele>261.5</ele>
<speed>79.5</speed>
<course>243.5</course>
<desc>Speed 79.5 km/h Distance 66.94 km</desc>
<time>2010-07-30T18:34:18.51</time>
<name>2036</name>
</trkpt>
<trkpt lat="49.493795" lon="8.826022">
<ele>262.0</ele>
<speed>86.7</speed>
<course>246.7</course>
<desc>Speed 86.7 km/h Distance 67.02 km</desc>
<time>2010-07-30T18:34:21.51</time>
<name>2037</name>
</trkpt>
<trkpt lat="49.493717" lon="8.825742">
<ele>262.0</ele>
<speed>86.7</speed>
<course>231.1</course>
<desc>Speed 86.7 km/h Distance 67.04 km</desc>
<time>2010-07-30T18:34:22.50</time>
<name>2038</name>
</trkpt>
<trkpt lat="49.493573" lon="8.825468">
<ele>262.0</ele>
<speed>80.0</speed>
<course>239.0</course>
<desc>Speed 80.0 km/h Distance 67.07 km</desc>
<time>2010-07-30T18:34:23.50</time>
<name>2039</name>
</trkpt>
<trkpt lat="49.493343" lon="8.824880">
<ele>262.0</ele>
<speed>81.0</speed>
<course>247.6</course>
<desc>Speed 81.0 km/h Distance 67.12 km</desc>
<time>2010-07-30T18:34:25.50</time>
<name>2040</name>
</trkpt>
<trkpt lat="49.493068" lon="8.823852">
<ele>262.0</ele>
<speed>92.7</speed>
<course>249.9</course>
<desc>Speed 92.7 km/h Distance 67.20 km</desc>
<time>2010-07-30T18:34:28.50</time>
<name>2041</name>
</trkpt>
<trkpt lat="49.492990" lon="8.823522">
<ele>262.0</ele>
<speed>90.7</speed>
<course>275.7</course>
<desc>Speed 90.7 km/h Distance 67.23 km</desc>
<time>2010-07-30T18:34:29.50</time>
<name>2042</name>
</trkpt>
<trkpt lat="49.493070" lon="8.822283">
<ele>262.0</ele>
<speed>43.8</speed>
<course>336.2</course>
<desc>Speed 43.8 km/h Distance 67.32 km</desc>
<time>2010-07-30T18:34:36.49</time>
<name>2043</name>
</trkpt>
<trkpt lat="49.493427" lon="8.822042">
<ele>262.5</ele>
<speed>43.8</speed>
<course>289.9</course>
<desc>Speed 43.8 km/h Distance 67.36 km</desc>
<time>2010-07-30T18:34:39.49</time>
<name>2044</name>
</trkpt>
<trkpt lat="49.493503" lon="8.821715">
<ele>262.5</ele>
<speed>43.8</speed>
<course>6.0</course>
<desc>Speed 43.8 km/h Distance 67.38 km</desc>
<time>2010-07-30T18:34:43.49</time>
<name>2045</name>
</trkpt>
<trkpt lat="49.495667" lon="8.822063">
<ele>263.5</ele>
<speed>30.8</speed>
<course>6.0</course>
<desc>Speed 30.8 km/h Distance 67.63 km</desc>
<time>2010-07-30T18:34:56.48</time>
<name>2046</name>
</trkpt>
</trkseg>
</trk>
</gpx>
